<?xml version="1.0" encoding="UTF-8" standalone="no" ?>
<gpx xmlns="http://www.topografix.com/GPX/1/1" xmlns:xsi="http://www.w3.org/2001/XMLSchema-instance" xsi:schemaLocation="http://www.topografix.com/GPX/1/1 http://www.topografix.com/GPX/1/1/gpx.xsd" version="1.1" creator="VisuGPX - https://www.visugpx.com">
  <metadata>
    <name>Tour d'Europe: étape 033</name>
    <desc><![CDATA[Étape 033]]></desc>
  </metadata>
  <trk>
    <name><![CDATA[Tour d'Europe: étape 033]]></name>
    <trkseg>
      <trkpt lat="62.33945" lon="5.87437">
        <ele>131.558538</ele>
        <time>2020-07-31T07:58:02.156Z</time>
      </trkpt>
      <trkpt lat="62.33933" lon="5.87467">
        <ele>131.558538</ele>
        <time>2020-07-31T07:58:10.153Z</time>
      </trkpt>
      <trkpt lat="62.33926" lon="5.87484">
        <ele>131.558538</ele>
        <time>2020-07-31T07:58:14.209Z</time>
      </trkpt>
      <trkpt lat="62.33916" lon="5.87497">
        <ele>131.558538</ele>
        <time>2020-07-31T07:58:17.259Z</time>
      </trkpt>
      <trkpt lat="62.33903" lon="5.87503">
        <ele>131.558538</ele>
        <time>2020-07-31T07:58:20.164Z</time>
      </trkpt>
      <trkpt lat="62.33891" lon="5.87513">
        <ele>131.558538</ele>
        <time>2020-07-31T07:58:23.193Z</time>
      </trkpt>
      <trkpt lat="62.33885" lon="5.87529">
        <ele>131.558538</ele>
        <time>2020-07-31T07:58:26.165Z</time>
      </trkpt>
      <trkpt lat="62.33879" lon="5.8755">
        <ele>131.558538</ele>
        <time>2020-07-31T07:58:30.214Z</time>
      </trkpt>
      <trkpt lat="62.33873" lon="5.87569">
        <ele>131.643359</ele>
        <time>2020-07-31T07:58:34.211Z</time>
      </trkpt>
      <trkpt lat="62.33867" lon="5.87588">
        <ele>131.744461</ele>
        <time>2020-07-31T07:58:39.144Z</time>
      </trkpt>
      <trkpt lat="62.33862" lon="5.87608">
        <ele>131.842811</ele>
        <time>2020-07-31T07:58:44.164Z</time>
      </trkpt>
      <trkpt lat="62.33857" lon="5.87626">
        <ele>131.937308</ele>
        <time>2020-07-31T07:58:49.187Z</time>
      </trkpt>
      <trkpt lat="62.33853" lon="5.87648">
        <ele>132.036578</ele>
        <time>2020-07-31T07:58:54.186Z</time>
      </trkpt>
      <trkpt lat="62.3385" lon="5.87669">
        <ele>132.133255</ele>
        <time>2020-07-31T07:58:59.173Z</time>
      </trkpt>
      <trkpt lat="62.33846" lon="5.8769">
        <ele>132.233828</ele>
        <time>2020-07-31T07:59:04.173Z</time>
      </trkpt>
      <trkpt lat="62.33845" lon="5.87713">
        <ele>132.334557</ele>
        <time>2020-07-31T07:59:09.159Z</time>
      </trkpt>
      <trkpt lat="62.33843" lon="5.87734">
        <ele>132.425249</ele>
        <time>2020-07-31T07:59:15.180Z</time>
      </trkpt>
      <trkpt lat="62.33843" lon="5.87755">
        <ele>132.519722</ele>
        <time>2020-07-31T07:59:21.165Z</time>
      </trkpt>
      <trkpt lat="62.33841" lon="5.87778">
        <ele>132.619937</ele>
        <time>2020-07-31T07:59:27.171Z</time>
      </trkpt>
      <trkpt lat="62.33838" lon="5.87798">
        <ele>132.709084</ele>
        <time>2020-07-31T07:59:32.152Z</time>
      </trkpt>
      <trkpt lat="62.33837" lon="5.87817">
        <ele>132.794847</ele>
        <time>2020-07-31T07:59:37.193Z</time>
      </trkpt>
      <trkpt lat="62.33836" lon="5.87838">
        <ele>132.888801</ele>
        <time>2020-07-31T07:59:43.160Z</time>
      </trkpt>
      <trkpt lat="62.33833" lon="5.87861">
        <ele>132.990385</ele>
        <time>2020-07-31T07:59:49.153Z</time>
      </trkpt>
      <trkpt lat="62.3383" lon="5.87882">
        <ele>133.086365</ele>
        <time>2020-07-31T07:59:55.157Z</time>
      </trkpt>
      <trkpt lat="62.33826" lon="5.87901">
        <ele>133.181468</ele>
        <time>2020-07-31T08:00:01.144Z</time>
      </trkpt>
      <trkpt lat="62.33821" lon="5.8792">
        <ele>133.401394</ele>
        <time>2020-07-31T08:00:07.175Z</time>
      </trkpt>
      <trkpt lat="62.33816" lon="5.87938">
        <ele>133.995986</ele>
        <time>2020-07-31T08:00:13.168Z</time>
      </trkpt>
      <trkpt lat="62.33811" lon="5.87956">
        <ele>134.627902</ele>
        <time>2020-07-31T08:00:19.161Z</time>
      </trkpt>
      <trkpt lat="62.33804" lon="5.87973">
        <ele>135.262444</ele>
        <time>2020-07-31T08:00:25.189Z</time>
      </trkpt>
      <trkpt lat="62.33797" lon="5.8799">
        <ele>135.905824</ele>
        <time>2020-07-31T08:00:31.171Z</time>
      </trkpt>
      <trkpt lat="62.33795" lon="5.8801">
        <ele>136.485957</ele>
        <time>2020-07-31T08:00:37.213Z</time>
      </trkpt>
      <trkpt lat="62.33798" lon="5.88031">
        <ele>137.15234</ele>
        <time>2020-07-31T08:00:43.181Z</time>
      </trkpt>
      <trkpt lat="62.33801" lon="5.8805">
        <ele>137.707939</ele>
        <time>2020-07-31T08:00:49.169Z</time>
      </trkpt>
      <trkpt lat="62.33806" lon="5.8807">
        <ele>138.357394</ele>
        <time>2020-07-31T08:00:55.175Z</time>
      </trkpt>
      <trkpt lat="62.33811" lon="5.88089">
        <ele>139.001043</ele>
        <time>2020-07-31T08:01:02.209Z</time>
      </trkpt>
      <trkpt lat="62.33815" lon="5.88107">
        <ele>139.56141</ele>
        <time>2020-07-31T08:01:08.165Z</time>
      </trkpt>
      <trkpt lat="62.33819" lon="5.88127">
        <ele>140.189485</ele>
        <time>2020-07-31T08:01:14.167Z</time>
      </trkpt>
      <trkpt lat="62.33824" lon="5.88144">
        <ele>140.780734</ele>
        <time>2020-07-31T08:01:20.173Z</time>
      </trkpt>
      <trkpt lat="62.33829" lon="5.88163">
        <ele>141.375426</ele>
        <time>2020-07-31T08:01:26.164Z</time>
      </trkpt>
      <trkpt lat="62.33833" lon="5.88181">
        <ele>141.969629</ele>
        <time>2020-07-31T08:01:32.186Z</time>
      </trkpt>
      <trkpt lat="62.33838" lon="5.88197">
        <ele>142.545358</ele>
        <time>2020-07-31T08:01:38.169Z</time>
      </trkpt>
      <trkpt lat="62.33843" lon="5.88215">
        <ele>143.134331</ele>
        <time>2020-07-31T08:01:44.154Z</time>
      </trkpt>
      <trkpt lat="62.3385" lon="5.8823">
        <ele>143.728199</ele>
        <time>2020-07-31T08:01:50.168Z</time>
      </trkpt>
      <trkpt lat="62.33856" lon="5.88248">
        <ele>144.365283</ele>
        <time>2020-07-31T08:01:56.157Z</time>
      </trkpt>
      <trkpt lat="62.33862" lon="5.88264">
        <ele>144.888759</ele>
        <time>2020-07-31T08:02:02.149Z</time>
      </trkpt>
      <trkpt lat="62.33869" lon="5.88279">
        <ele>145.411268</ele>
        <time>2020-07-31T08:02:08.187Z</time>
      </trkpt>
      <trkpt lat="62.33876" lon="5.88292">
        <ele>145.896002</ele>
        <time>2020-07-31T08:02:14.176Z</time>
      </trkpt>
      <trkpt lat="62.33884" lon="5.88304">
        <ele>146.411128</ele>
        <time>2020-07-31T08:02:20.189Z</time>
      </trkpt>
      <trkpt lat="62.33892" lon="5.88317">
        <ele>146.962222</ele>
        <time>2020-07-31T08:02:26.176Z</time>
      </trkpt>
      <trkpt lat="62.33901" lon="5.88328">
        <ele>147.479484</ele>
        <time>2020-07-31T08:02:32.138Z</time>
      </trkpt>
      <trkpt lat="62.33907" lon="5.88342">
        <ele>147.979318</ele>
        <time>2020-07-31T08:02:39.138Z</time>
      </trkpt>
      <trkpt lat="62.33916" lon="5.88357">
        <ele>148.541008</ele>
        <time>2020-07-31T08:02:46.160Z</time>
      </trkpt>
      <trkpt lat="62.33923" lon="5.88368">
        <ele>149.02735</ele>
        <time>2020-07-31T08:02:52.172Z</time>
      </trkpt>
      <trkpt lat="62.33931" lon="5.88381">
        <ele>149.562828</ele>
        <time>2020-07-31T08:02:58.151Z</time>
      </trkpt>
      <trkpt lat="62.33938" lon="5.88394">
        <ele>150.061189</ele>
        <time>2020-07-31T08:03:04.178Z</time>
      </trkpt>
      <trkpt lat="62.33944" lon="5.88408">
        <ele>150.53848</ele>
        <time>2020-07-31T08:03:09.171Z</time>
      </trkpt>
      <trkpt lat="62.3395" lon="5.88427">
        <ele>151.093254</ele>
        <time>2020-07-31T08:03:15.195Z</time>
      </trkpt>
      <trkpt lat="62.33954" lon="5.88446">
        <ele>151.617021</ele>
        <time>2020-07-31T08:03:21.179Z</time>
      </trkpt>
      <trkpt lat="62.33957" lon="5.88466">
        <ele>152.117923</ele>
        <time>2020-07-31T08:03:27.161Z</time>
      </trkpt>
      <trkpt lat="62.33961" lon="5.88484">
        <ele>152.598001</ele>
        <time>2020-07-31T08:03:32.168Z</time>
      </trkpt>
      <trkpt lat="62.33962" lon="5.88505">
        <ele>153.137885</ele>
        <time>2020-07-31T08:03:37.155Z</time>
      </trkpt>
      <trkpt lat="62.33963" lon="5.88527">
        <ele>153.682241</ele>
        <time>2020-07-31T08:03:42.177Z</time>
      </trkpt>
      <trkpt lat="62.33964" lon="5.88549">
        <ele>154.155139</ele>
        <time>2020-07-31T08:03:47.195Z</time>
      </trkpt>
      <trkpt lat="62.33965" lon="5.88568">
        <ele>154.514249</ele>
        <time>2020-07-31T08:03:52.154Z</time>
      </trkpt>
      <trkpt lat="62.33968" lon="5.88588">
        <ele>154.887296</ele>
        <time>2020-07-31T08:03:57.153Z</time>
      </trkpt>
      <trkpt lat="62.3397" lon="5.88609">
        <ele>155.290927</ele>
        <time>2020-07-31T08:04:02.184Z</time>
      </trkpt>
      <trkpt lat="62.33972" lon="5.88628">
        <ele>155.655062</ele>
        <time>2020-07-31T08:04:06.202Z</time>
      </trkpt>
      <trkpt lat="62.33974" lon="5.8865">
        <ele>156.061516</ele>
        <time>2020-07-31T08:04:11.138Z</time>
      </trkpt>
      <trkpt lat="62.33976" lon="5.88669">
        <ele>156.436186</ele>
        <time>2020-07-31T08:04:16.209Z</time>
      </trkpt>
      <trkpt lat="62.33979" lon="5.88689">
        <ele>156.822807</ele>
        <time>2020-07-31T08:04:21.155Z</time>
      </trkpt>
      <trkpt lat="62.33982" lon="5.88709">
        <ele>157.210642</ele>
        <time>2020-07-31T08:04:26.173Z</time>
      </trkpt>
      <trkpt lat="62.33984" lon="5.88728">
        <ele>157.578198</ele>
        <time>2020-07-31T08:04:31.152Z</time>
      </trkpt>
      <trkpt lat="62.33987" lon="5.8875">
        <ele>157.991969</ele>
        <time>2020-07-31T08:04:37.141Z</time>
      </trkpt>
      <trkpt lat="62.33991" lon="5.8877">
        <ele>158.405874</ele>
        <time>2020-07-31T08:04:43.161Z</time>
      </trkpt>
      <trkpt lat="62.33996" lon="5.88789">
        <ele>158.805523</ele>
        <time>2020-07-31T08:04:48.144Z</time>
      </trkpt>
      <trkpt lat="62.34" lon="5.88809">
        <ele>159.21913</ele>
        <time>2020-07-31T08:04:53.146Z</time>
      </trkpt>
      <trkpt lat="62.34004" lon="5.88829">
        <ele>159.614243</ele>
        <time>2020-07-31T08:04:58.136Z</time>
      </trkpt>
      <trkpt lat="62.34008" lon="5.88847">
        <ele>159.989178</ele>
        <time>2020-07-31T08:05:03.209Z</time>
      </trkpt>
      <trkpt lat="62.34013" lon="5.88867">
        <ele>160.394406</ele>
        <time>2020-07-31T08:05:08.197Z</time>
      </trkpt>
      <trkpt lat="62.34017" lon="5.88887">
        <ele>160.794668</ele>
        <time>2020-07-31T08:05:13.173Z</time>
      </trkpt>
      <trkpt lat="62.3402" lon="5.88906">
        <ele>161.168368</ele>
        <time>2020-07-31T08:05:18.165Z</time>
      </trkpt>
      <trkpt lat="62.34023" lon="5.88925">
        <ele>161.486905</ele>
        <time>2020-07-31T08:05:23.172Z</time>
      </trkpt>
      <trkpt lat="62.34026" lon="5.88944">
        <ele>161.811326</ele>
        <time>2020-07-31T08:05:28.169Z</time>
      </trkpt>
      <trkpt lat="62.34028" lon="5.88964">
        <ele>162.142282</ele>
        <time>2020-07-31T08:05:33.177Z</time>
      </trkpt>
      <trkpt lat="62.34031" lon="5.88985">
        <ele>162.48553</ele>
        <time>2020-07-31T08:05:38.200Z</time>
      </trkpt>
      <trkpt lat="62.34034" lon="5.89008">
        <ele>162.856721</ele>
        <time>2020-07-31T08:05:43.145Z</time>
      </trkpt>
      <trkpt lat="62.34036" lon="5.89029">
        <ele>163.200775</ele>
        <time>2020-07-31T08:05:48.152Z</time>
      </trkpt>
      <trkpt lat="62.34038" lon="5.89051">
        <ele>163.557823</ele>
        <time>2020-07-31T08:05:53.214Z</time>
      </trkpt>
      <trkpt lat="62.34039" lon="5.89073">
        <ele>163.918455</ele>
        <time>2020-07-31T08:05:59.143Z</time>
      </trkpt>
      <trkpt lat="62.3404" lon="5.89094">
        <ele>164.251333</ele>
        <time>2020-07-31T08:06:04.176Z</time>
      </trkpt>
      <trkpt lat="62.34041" lon="5.89115">
        <ele>164.583743</ele>
        <time>2020-07-31T08:06:09.152Z</time>
      </trkpt>
      <trkpt lat="62.34042" lon="5.89138">
        <ele>164.950306</ele>
        <time>2020-07-31T08:06:13.174Z</time>
      </trkpt>
      <trkpt lat="62.34042" lon="5.89162">
        <ele>165.337762</ele>
        <time>2020-07-31T08:06:16.153Z</time>
      </trkpt>
      <trkpt lat="62.34045" lon="5.89184">
        <ele>165.710723</ele>
        <time>2020-07-31T08:06:20.201Z</time>
      </trkpt>
      <trkpt lat="62.3405" lon="5.89204">
        <ele>166.072693</ele>
        <time>2020-07-31T08:06:25.219Z</time>
      </trkpt>
      <trkpt lat="62.34055" lon="5.89223">
        <ele>166.41319</ele>
        <time>2020-07-31T08:06:30.153Z</time>
      </trkpt>
      <trkpt lat="62.3406" lon="5.89241">
        <ele>166.748122</ele>
        <time>2020-07-31T08:06:35.204Z</time>
      </trkpt>
      <trkpt lat="62.34066" lon="5.89257">
        <ele>167.06572</ele>
        <time>2020-07-31T08:06:40.171Z</time>
      </trkpt>
      <trkpt lat="62.34074" lon="5.89267">
        <ele>167.447138</ele>
        <time>2020-07-31T08:06:45.160Z</time>
      </trkpt>
      <trkpt lat="62.34077" lon="5.89289">
        <ele>168.037316</ele>
        <time>2020-07-31T08:06:50.158Z</time>
      </trkpt>
      <trkpt lat="62.34079" lon="5.8931">
        <ele>168.585042</ele>
        <time>2020-07-31T08:06:55.173Z</time>
      </trkpt>
      <trkpt lat="62.34083" lon="5.89332">
        <ele>169.15992</ele>
        <time>2020-07-31T08:07:01.153Z</time>
      </trkpt>
      <trkpt lat="62.34085" lon="5.89351">
        <ele>169.649776</ele>
        <time>2020-07-31T08:07:06.149Z</time>
      </trkpt>
      <trkpt lat="62.34089" lon="5.89372">
        <ele>170.219886</ele>
        <time>2020-07-31T08:07:12.150Z</time>
      </trkpt>
      <trkpt lat="62.34092" lon="5.89394">
        <ele>170.799988</ele>
        <time>2020-07-31T08:07:18.164Z</time>
      </trkpt>
      <trkpt lat="62.34096" lon="5.89416">
        <ele>171.378302</ele>
        <time>2020-07-31T08:07:24.165Z</time>
      </trkpt>
      <trkpt lat="62.341" lon="5.89433">
        <ele>171.871631</ele>
        <time>2020-07-31T08:07:29.182Z</time>
      </trkpt>
      <trkpt lat="62.34104" lon="5.89454">
        <ele>172.42747</ele>
        <time>2020-07-31T08:07:35.147Z</time>
      </trkpt>
      <trkpt lat="62.34107" lon="5.89473">
        <ele>172.937745</ele>
        <time>2020-07-31T08:07:41.157Z</time>
      </trkpt>
      <trkpt lat="62.34109" lon="5.89495">
        <ele>173.499508</ele>
        <time>2020-07-31T08:07:47.172Z</time>
      </trkpt>
      <trkpt lat="62.34113" lon="5.89514">
        <ele>174.024843</ele>
        <time>2020-07-31T08:07:53.171Z</time>
      </trkpt>
      <trkpt lat="62.34117" lon="5.89534">
        <ele>174.566061</ele>
        <time>2020-07-31T08:07:59.148Z</time>
      </trkpt>
      <trkpt lat="62.34121" lon="5.89551">
        <ele>175.050448</ele>
        <time>2020-07-31T08:08:05.170Z</time>
      </trkpt>
      <trkpt lat="62.34124" lon="5.8957">
        <ele>175.546955</ele>
        <time>2020-07-31T08:08:11.198Z</time>
      </trkpt>
      <trkpt lat="62.34128" lon="5.8959">
        <ele>176.089052</ele>
        <time>2020-07-31T08:08:17.171Z</time>
      </trkpt>
      <trkpt lat="62.34133" lon="5.8961">
        <ele>176.653296</ele>
        <time>2020-07-31T08:08:24.193Z</time>
      </trkpt>
      <trkpt lat="62.34136" lon="5.89629">
        <ele>177.240145</ele>
        <time>2020-07-31T08:08:30.167Z</time>
      </trkpt>
      <trkpt lat="62.3414" lon="5.89648">
        <ele>177.982548</ele>
        <time>2020-07-31T08:08:36.160Z</time>
      </trkpt>
      <trkpt lat="62.34145" lon="5.89668">
        <ele>178.777445</ele>
        <time>2020-07-31T08:08:42.167Z</time>
      </trkpt>
      <trkpt lat="62.34149" lon="5.89687">
        <ele>179.539992</ele>
        <time>2020-07-31T08:08:48.184Z</time>
      </trkpt>
      <trkpt lat="62.34152" lon="5.89707">
        <ele>180.29098</ele>
        <time>2020-07-31T08:08:54.210Z</time>
      </trkpt>
      <trkpt lat="62.34155" lon="5.89725">
        <ele>181.010535</ele>
        <time>2020-07-31T08:09:00.185Z</time>
      </trkpt>
      <trkpt lat="62.34159" lon="5.89744">
        <ele>181.740881</ele>
        <time>2020-07-31T08:09:06.155Z</time>
      </trkpt>
      <trkpt lat="62.34163" lon="5.89762">
        <ele>182.473612</ele>
        <time>2020-07-31T08:09:12.156Z</time>
      </trkpt>
      <trkpt lat="62.34167" lon="5.89781">
        <ele>183.216082</ele>
        <time>2020-07-31T08:09:18.179Z</time>
      </trkpt>
      <trkpt lat="62.34171" lon="5.898">
        <ele>183.955249</ele>
        <time>2020-07-31T08:09:24.157Z</time>
      </trkpt>
      <trkpt lat="62.34174" lon="5.89817">
        <ele>184.651859</ele>
        <time>2020-07-31T08:09:29.199Z</time>
      </trkpt>
      <trkpt lat="62.34179" lon="5.89837">
        <ele>185.464075</ele>
        <time>2020-07-31T08:09:35.185Z</time>
      </trkpt>
      <trkpt lat="62.34183" lon="5.89858">
        <ele>186.256635</ele>
        <time>2020-07-31T08:09:42.162Z</time>
      </trkpt>
      <trkpt lat="62.34187" lon="5.89876">
        <ele>186.986062</ele>
        <time>2020-07-31T08:09:48.177Z</time>
      </trkpt>
      <trkpt lat="62.3419" lon="5.89895">
        <ele>187.713546</ele>
        <time>2020-07-31T08:09:54.156Z</time>
      </trkpt>
      <trkpt lat="62.34194" lon="5.89913">
        <ele>188.429942</ele>
        <time>2020-07-31T08:10:00.195Z</time>
      </trkpt>
      <trkpt lat="62.34198" lon="5.89933">
        <ele>189.205034</ele>
        <time>2020-07-31T08:10:06.155Z</time>
      </trkpt>
      <trkpt lat="62.34203" lon="5.89951">
        <ele>189.938152</ele>
        <time>2020-07-31T08:10:12.159Z</time>
      </trkpt>
      <trkpt lat="62.34206" lon="5.89971">
        <ele>190.71734</ele>
        <time>2020-07-31T08:10:18.164Z</time>
      </trkpt>
      <trkpt lat="62.34211" lon="5.89991">
        <ele>191.32652</ele>
        <time>2020-07-31T08:10:24.180Z</time>
      </trkpt>
      <trkpt lat="62.34215" lon="5.9001">
        <ele>191.827413</ele>
        <time>2020-07-31T08:10:30.167Z</time>
      </trkpt>
      <trkpt lat="62.34219" lon="5.9003">
        <ele>192.309603</ele>
        <time>2020-07-31T08:10:36.166Z</time>
      </trkpt>
      <trkpt lat="62.34222" lon="5.90051">
        <ele>192.810575</ele>
        <time>2020-07-31T08:10:42.182Z</time>
      </trkpt>
      <trkpt lat="62.34226" lon="5.90069">
        <ele>193.281909</ele>
        <time>2020-07-31T08:10:48.160Z</time>
      </trkpt>
      <trkpt lat="62.3423" lon="5.90089">
        <ele>193.765813</ele>
        <time>2020-07-31T08:10:54.158Z</time>
      </trkpt>
      <trkpt lat="62.34233" lon="5.90109">
        <ele>194.246905</ele>
        <time>2020-07-31T08:11:00.151Z</time>
      </trkpt>
      <trkpt lat="62.34237" lon="5.90127">
        <ele>194.701581</ele>
        <time>2020-07-31T08:11:05.176Z</time>
      </trkpt>
      <trkpt lat="62.3424" lon="5.90147">
        <ele>195.198222</ele>
        <time>2020-07-31T08:11:11.192Z</time>
      </trkpt>
      <trkpt lat="62.34245" lon="5.90166">
        <ele>195.684231</ele>
        <time>2020-07-31T08:11:17.143Z</time>
      </trkpt>
      <trkpt lat="62.34249" lon="5.90186">
        <ele>196.172137</ele>
        <time>2020-07-31T08:11:23.199Z</time>
      </trkpt>
      <trkpt lat="62.34253" lon="5.90205">
        <ele>196.656441</ele>
        <time>2020-07-31T08:11:29.187Z</time>
      </trkpt>
      <trkpt lat="62.34257" lon="5.90226">
        <ele>197.167367</ele>
        <time>2020-07-31T08:11:35.179Z</time>
      </trkpt>
      <trkpt lat="62.3426" lon="5.90247">
        <ele>197.696085</ele>
        <time>2020-07-31T08:11:41.166Z</time>
      </trkpt>
      <trkpt lat="62.34265" lon="5.90267">
        <ele>198.194362</ele>
        <time>2020-07-31T08:11:47.162Z</time>
      </trkpt>
      <trkpt lat="62.34268" lon="5.90287">
        <ele>198.691413</ele>
        <time>2020-07-31T08:11:53.169Z</time>
      </trkpt>
      <trkpt lat="62.34272" lon="5.90307">
        <ele>199.183938</ele>
        <time>2020-07-31T08:11:59.149Z</time>
      </trkpt>
      <trkpt lat="62.34276" lon="5.90327">
        <ele>199.662863</ele>
        <time>2020-07-31T08:12:05.172Z</time>
      </trkpt>
      <trkpt lat="62.34279" lon="5.90347">
        <ele>200.060305</ele>
        <time>2020-07-31T08:12:11.186Z</time>
      </trkpt>
      <trkpt lat="62.34283" lon="5.90366">
        <ele>200.366225</ele>
        <time>2020-07-31T08:12:16.179Z</time>
      </trkpt>
      <trkpt lat="62.34289" lon="5.90385">
        <ele>200.705372</ele>
        <time>2020-07-31T08:12:22.160Z</time>
      </trkpt>
      <trkpt lat="62.34293" lon="5.90405">
        <ele>201.030491</ele>
        <time>2020-07-31T08:12:28.150Z</time>
      </trkpt>
      <trkpt lat="62.34297" lon="5.90424">
        <ele>201.355687</ele>
        <time>2020-07-31T08:12:34.238Z</time>
      </trkpt>
      <trkpt lat="62.34302" lon="5.90444">
        <ele>201.698893</ele>
        <time>2020-07-31T08:12:40.155Z</time>
      </trkpt>
      <trkpt lat="62.34306" lon="5.90462">
        <ele>201.999693</ele>
        <time>2020-07-31T08:12:45.170Z</time>
      </trkpt>
      <trkpt lat="62.3431" lon="5.9048">
        <ele>202.298804</ele>
        <time>2020-07-31T08:12:50.196Z</time>
      </trkpt>
      <trkpt lat="62.34314" lon="5.90497">
        <ele>202.596755</ele>
        <time>2020-07-31T08:12:55.199Z</time>
      </trkpt>
      <trkpt lat="62.34319" lon="5.90516">
        <ele>202.911295</ele>
        <time>2020-07-31T08:13:00.171Z</time>
      </trkpt>
      <trkpt lat="62.34324" lon="5.90533">
        <ele>203.22159</ele>
        <time>2020-07-31T08:13:05.163Z</time>
      </trkpt>
      <trkpt lat="62.34329" lon="5.90552">
        <ele>203.559832</ele>
        <time>2020-07-31T08:13:11.159Z</time>
      </trkpt>
      <trkpt lat="62.34333" lon="5.90573">
        <ele>203.898725</ele>
        <time>2020-07-31T08:13:17.193Z</time>
      </trkpt>
      <trkpt lat="62.34338" lon="5.90591">
        <ele>204.216926</ele>
        <time>2020-07-31T08:13:22.148Z</time>
      </trkpt>
      <trkpt lat="62.34344" lon="5.90607">
        <ele>204.512973</ele>
        <time>2020-07-31T08:13:27.192Z</time>
      </trkpt>
      <trkpt lat="62.34349" lon="5.90622">
        <ele>204.807324</ele>
        <time>2020-07-31T08:13:32.167Z</time>
      </trkpt>
      <trkpt lat="62.34354" lon="5.90638">
        <ele>205.099015</ele>
        <time>2020-07-31T08:13:37.175Z</time>
      </trkpt>
      <trkpt lat="62.3436" lon="5.90655">
        <ele>205.414892</ele>
        <time>2020-07-31T08:13:42.173Z</time>
      </trkpt>
      <trkpt lat="62.34366" lon="5.90671">
        <ele>205.695371</ele>
        <time>2020-07-31T08:13:47.171Z</time>
      </trkpt>
      <trkpt lat="62.34371" lon="5.90689">
        <ele>205.44506</ele>
        <time>2020-07-31T08:13:52.156Z</time>
      </trkpt>
      <trkpt lat="62.34377" lon="5.90705">
        <ele>205.202541</ele>
        <time>2020-07-31T08:13:56.170Z</time>
      </trkpt>
      <trkpt lat="62.34383" lon="5.9072">
        <ele>204.965869</ele>
        <time>2020-07-31T08:14:00.155Z</time>
      </trkpt>
      <trkpt lat="62.3439" lon="5.90738">
        <ele>204.701359</ele>
        <time>2020-07-31T08:14:04.165Z</time>
      </trkpt>
      <trkpt lat="62.34396" lon="5.90752">
        <ele>204.467495</ele>
        <time>2020-07-31T08:14:07.178Z</time>
      </trkpt>
      <trkpt lat="62.34402" lon="5.90769">
        <ele>204.22034</ele>
        <time>2020-07-31T08:14:10.185Z</time>
      </trkpt>
      <trkpt lat="62.34408" lon="5.90785">
        <ele>203.974536</ele>
        <time>2020-07-31T08:14:13.182Z</time>
      </trkpt>
      <trkpt lat="62.34415" lon="5.90803">
        <ele>203.697216</ele>
        <time>2020-07-31T08:14:16.157Z</time>
      </trkpt>
      <trkpt lat="62.34423" lon="5.90823">
        <ele>203.388823</ele>
        <time>2020-07-31T08:14:19.156Z</time>
      </trkpt>
      <trkpt lat="62.34431" lon="5.90845">
        <ele>203.061702</ele>
        <time>2020-07-31T08:14:22.199Z</time>
      </trkpt>
      <trkpt lat="62.34438" lon="5.90862">
        <ele>202.80531</ele>
        <time>2020-07-31T08:14:24.168Z</time>
      </trkpt>
      <trkpt lat="62.34445" lon="5.90879">
        <ele>202.536819</ele>
        <time>2020-07-31T08:14:26.153Z</time>
      </trkpt>
      <trkpt lat="62.34453" lon="5.90897">
        <ele>202.234802</ele>
        <time>2020-07-31T08:14:28.172Z</time>
      </trkpt>
      <trkpt lat="62.34462" lon="5.90916">
        <ele>201.920518</ele>
        <time>2020-07-31T08:14:30.164Z</time>
      </trkpt>
      <trkpt lat="62.34471" lon="5.90935">
        <ele>201.590186</ele>
        <time>2020-07-31T08:14:32.207Z</time>
      </trkpt>
      <trkpt lat="62.34481" lon="5.90955">
        <ele>201.251081</ele>
        <time>2020-07-31T08:14:34.155Z</time>
      </trkpt>
      <trkpt lat="62.34492" lon="5.90975">
        <ele>200.499854</ele>
        <time>2020-07-31T08:14:36.172Z</time>
      </trkpt>
      <trkpt lat="62.34502" lon="5.90997">
        <ele>199.557079</ele>
        <time>2020-07-31T08:14:38.195Z</time>
      </trkpt>
      <trkpt lat="62.34513" lon="5.9102">
        <ele>198.562558</ele>
        <time>2020-07-31T08:14:40.152Z</time>
      </trkpt>
      <trkpt lat="62.34524" lon="5.91046">
        <ele>197.516251</ele>
        <time>2020-07-31T08:14:42.177Z</time>
      </trkpt>
      <trkpt lat="62.34537" lon="5.91072">
        <ele>196.387593</ele>
        <time>2020-07-31T08:14:44.192Z</time>
      </trkpt>
      <trkpt lat="62.34544" lon="5.91086">
        <ele>195.784545</ele>
        <time>2020-07-31T08:14:45.181Z</time>
      </trkpt>
      <trkpt lat="62.34551" lon="5.911">
        <ele>195.163943</ele>
        <time>2020-07-31T08:14:46.154Z</time>
      </trkpt>
      <trkpt lat="62.34558" lon="5.91115">
        <ele>194.529879</ele>
        <time>2020-07-31T08:14:47.176Z</time>
      </trkpt>
      <trkpt lat="62.34566" lon="5.91129">
        <ele>193.873545</ele>
        <time>2020-07-31T08:14:48.195Z</time>
      </trkpt>
      <trkpt lat="62.34573" lon="5.91145">
        <ele>193.196918</ele>
        <time>2020-07-31T08:14:49.198Z</time>
      </trkpt>
      <trkpt lat="62.34581" lon="5.91161">
        <ele>192.504042</ele>
        <time>2020-07-31T08:14:50.191Z</time>
      </trkpt>
      <trkpt lat="62.34589" lon="5.91177">
        <ele>191.784834</ele>
        <time>2020-07-31T08:14:51.215Z</time>
      </trkpt>
      <trkpt lat="62.34597" lon="5.91194">
        <ele>191.065027</ele>
        <time>2020-07-31T08:14:52.161Z</time>
      </trkpt>
      <trkpt lat="62.34606" lon="5.9121">
        <ele>190.339098</ele>
        <time>2020-07-31T08:14:53.154Z</time>
      </trkpt>
      <trkpt lat="62.34614" lon="5.91227">
        <ele>189.602338</ele>
        <time>2020-07-31T08:14:54.153Z</time>
      </trkpt>
      <trkpt lat="62.34622" lon="5.91245">
        <ele>188.887072</ele>
        <time>2020-07-31T08:14:55.188Z</time>
      </trkpt>
      <trkpt lat="62.34631" lon="5.91262">
        <ele>188.162208</ele>
        <time>2020-07-31T08:14:56.198Z</time>
      </trkpt>
      <trkpt lat="62.3464" lon="5.9128">
        <ele>187.439866</ele>
        <time>2020-07-31T08:14:57.161Z</time>
      </trkpt>
      <trkpt lat="62.34648" lon="5.91297">
        <ele>186.709193</ele>
        <time>2020-07-31T08:14:58.180Z</time>
      </trkpt>
      <trkpt lat="62.34657" lon="5.91315">
        <ele>185.98538</ele>
        <time>2020-07-31T08:14:59.180Z</time>
      </trkpt>
      <trkpt lat="62.34665" lon="5.91333">
        <ele>185.259947</ele>
        <time>2020-07-31T08:15:00.173Z</time>
      </trkpt>
      <trkpt lat="62.34673" lon="5.91352">
        <ele>184.526572</ele>
        <time>2020-07-31T08:15:01.157Z</time>
      </trkpt>
      <trkpt lat="62.34681" lon="5.91373">
        <ele>183.791217</ele>
        <time>2020-07-31T08:15:02.166Z</time>
      </trkpt>
      <trkpt lat="62.34688" lon="5.91393">
        <ele>183.066319</ele>
        <time>2020-07-31T08:15:03.165Z</time>
      </trkpt>
      <trkpt lat="62.34696" lon="5.91413">
        <ele>182.333746</ele>
        <time>2020-07-31T08:15:04.164Z</time>
      </trkpt>
      <trkpt lat="62.34703" lon="5.91433">
        <ele>181.60885</ele>
        <time>2020-07-31T08:15:05.152Z</time>
      </trkpt>
      <trkpt lat="62.3471" lon="5.91454">
        <ele>180.873458</ele>
        <time>2020-07-31T08:15:06.157Z</time>
      </trkpt>
      <trkpt lat="62.34717" lon="5.91475">
        <ele>180.140707</ele>
        <time>2020-07-31T08:15:07.190Z</time>
      </trkpt>
      <trkpt lat="62.34724" lon="5.91496">
        <ele>179.411468</ele>
        <time>2020-07-31T08:15:08.149Z</time>
      </trkpt>
      <trkpt lat="62.34731" lon="5.91518">
        <ele>178.679512</ele>
        <time>2020-07-31T08:15:09.167Z</time>
      </trkpt>
      <trkpt lat="62.34737" lon="5.9154">
        <ele>177.952018</ele>
        <time>2020-07-31T08:15:10.158Z</time>
      </trkpt>
      <trkpt lat="62.34743" lon="5.91562">
        <ele>177.22458</ele>
        <time>2020-07-31T08:15:11.187Z</time>
      </trkpt>
      <trkpt lat="62.34749" lon="5.91585">
        <ele>176.50594</ele>
        <time>2020-07-31T08:15:12.154Z</time>
      </trkpt>
      <trkpt lat="62.34754" lon="5.91608">
        <ele>175.774607</ele>
        <time>2020-07-31T08:15:13.155Z</time>
      </trkpt>
      <trkpt lat="62.3476" lon="5.91631">
        <ele>175.059442</ele>
        <time>2020-07-31T08:15:14.178Z</time>
      </trkpt>
      <trkpt lat="62.34765" lon="5.91654">
        <ele>174.344777</ele>
        <time>2020-07-31T08:15:15.159Z</time>
      </trkpt>
      <trkpt lat="62.3477" lon="5.91677">
        <ele>173.625041</ele>
        <time>2020-07-31T08:15:16.158Z</time>
      </trkpt>
      <trkpt lat="62.34775" lon="5.91701">
        <ele>172.897667</ele>
        <time>2020-07-31T08:15:17.187Z</time>
      </trkpt>
      <trkpt lat="62.3478" lon="5.91724">
        <ele>172.175212</ele>
        <time>2020-07-31T08:15:18.185Z</time>
      </trkpt>
      <trkpt lat="62.34786" lon="5.91747">
        <ele>171.447582</ele>
        <time>2020-07-31T08:15:19.205Z</time>
      </trkpt>
      <trkpt lat="62.34791" lon="5.91771">
        <ele>170.710104</ele>
        <time>2020-07-31T08:15:20.179Z</time>
      </trkpt>
      <trkpt lat="62.34796" lon="5.91796">
        <ele>169.957353</ele>
        <time>2020-07-31T08:15:21.154Z</time>
      </trkpt>
      <trkpt lat="62.34801" lon="5.91821">
        <ele>169.202145</ele>
        <time>2020-07-31T08:15:22.161Z</time>
      </trkpt>
      <trkpt lat="62.34807" lon="5.91845">
        <ele>168.43674</ele>
        <time>2020-07-31T08:15:23.191Z</time>
      </trkpt>
      <trkpt lat="62.34812" lon="5.9187">
        <ele>167.649462</ele>
        <time>2020-07-31T08:15:24.148Z</time>
      </trkpt>
      <trkpt lat="62.34818" lon="5.91895">
        <ele>166.747418</ele>
        <time>2020-07-31T08:15:25.155Z</time>
      </trkpt>
      <trkpt lat="62.34824" lon="5.9192">
        <ele>165.837004</ele>
        <time>2020-07-31T08:15:26.184Z</time>
      </trkpt>
      <trkpt lat="62.34829" lon="5.91946">
        <ele>164.920676</ele>
        <time>2020-07-31T08:15:27.193Z</time>
      </trkpt>
      <trkpt lat="62.34835" lon="5.91971">
        <ele>163.989514</ele>
        <time>2020-07-31T08:15:28.157Z</time>
      </trkpt>
      <trkpt lat="62.34841" lon="5.91998">
        <ele>163.046645</ele>
        <time>2020-07-31T08:15:29.178Z</time>
      </trkpt>
      <trkpt lat="62.34847" lon="5.92024">
        <ele>162.091836</ele>
        <time>2020-07-31T08:15:30.146Z</time>
      </trkpt>
      <trkpt lat="62.34853" lon="5.9205">
        <ele>161.143129</ele>
        <time>2020-07-31T08:15:31.192Z</time>
      </trkpt>
      <trkpt lat="62.34858" lon="5.92077">
        <ele>160.19143</ele>
        <time>2020-07-31T08:15:32.174Z</time>
      </trkpt>
      <trkpt lat="62.34864" lon="5.92104">
        <ele>159.239778</ele>
        <time>2020-07-31T08:15:33.176Z</time>
      </trkpt>
      <trkpt lat="62.3487" lon="5.9213">
        <ele>158.302857</ele>
        <time>2020-07-31T08:15:34.192Z</time>
      </trkpt>
      <trkpt lat="62.34875" lon="5.92156">
        <ele>157.380664</ele>
        <time>2020-07-31T08:15:35.180Z</time>
      </trkpt>
      <trkpt lat="62.34881" lon="5.92182">
        <ele>156.443746</ele>
        <time>2020-07-31T08:15:36.153Z</time>
      </trkpt>
      <trkpt lat="62.34886" lon="5.92208">
        <ele>155.530122</ele>
        <time>2020-07-31T08:15:37.166Z</time>
      </trkpt>
      <trkpt lat="62.34891" lon="5.92232">
        <ele>154.605878</ele>
        <time>2020-07-31T08:15:38.190Z</time>
      </trkpt>
      <trkpt lat="62.34896" lon="5.92254">
        <ele>153.727354</ele>
        <time>2020-07-31T08:15:39.185Z</time>
      </trkpt>
      <trkpt lat="62.34901" lon="5.92275">
        <ele>152.907219</ele>
        <time>2020-07-31T08:15:40.175Z</time>
      </trkpt>
      <trkpt lat="62.34905" lon="5.92295">
        <ele>152.125744</ele>
        <time>2020-07-31T08:15:41.167Z</time>
      </trkpt>
      <trkpt lat="62.34909" lon="5.92313">
        <ele>151.382844</ele>
        <time>2020-07-31T08:15:42.195Z</time>
      </trkpt>
      <trkpt lat="62.34914" lon="5.92331">
        <ele>150.672037</ele>
        <time>2020-07-31T08:15:43.175Z</time>
      </trkpt>
      <trkpt lat="62.34921" lon="5.92365">
        <ele>149.307164</ele>
        <time>2020-07-31T08:15:45.188Z</time>
      </trkpt>
      <trkpt lat="62.3493" lon="5.924">
        <ele>147.918425</ele>
        <time>2020-07-31T08:15:47.186Z</time>
      </trkpt>
      <trkpt lat="62.34934" lon="5.92418">
        <ele>147.172612</ele>
        <time>2020-07-31T08:15:48.181Z</time>
      </trkpt>
      <trkpt lat="62.34938" lon="5.92438">
        <ele>146.381659</ele>
        <time>2020-07-31T08:15:49.199Z</time>
      </trkpt>
      <trkpt lat="62.34943" lon="5.92459">
        <ele>145.571184</ele>
        <time>2020-07-31T08:15:50.180Z</time>
      </trkpt>
      <trkpt lat="62.34947" lon="5.9248">
        <ele>144.753713</ele>
        <time>2020-07-31T08:15:51.197Z</time>
      </trkpt>
      <trkpt lat="62.34951" lon="5.92501">
        <ele>143.939802</ele>
        <time>2020-07-31T08:15:52.170Z</time>
      </trkpt>
      <trkpt lat="62.34955" lon="5.92522">
        <ele>143.113196</ele>
        <time>2020-07-31T08:15:53.217Z</time>
      </trkpt>
      <trkpt lat="62.3496" lon="5.92543">
        <ele>142.293074</ele>
        <time>2020-07-31T08:15:54.209Z</time>
      </trkpt>
      <trkpt lat="62.34964" lon="5.92564">
        <ele>141.479426</ele>
        <time>2020-07-31T08:15:55.203Z</time>
      </trkpt>
      <trkpt lat="62.34969" lon="5.92585">
        <ele>140.80338</ele>
        <time>2020-07-31T08:15:56.148Z</time>
      </trkpt>
      <trkpt lat="62.34973" lon="5.92606">
        <ele>140.166763</ele>
        <time>2020-07-31T08:15:57.175Z</time>
      </trkpt>
      <trkpt lat="62.34978" lon="5.92626">
        <ele>139.527564</ele>
        <time>2020-07-31T08:15:58.181Z</time>
      </trkpt>
      <trkpt lat="62.34983" lon="5.92647">
        <ele>138.888366</ele>
        <time>2020-07-31T08:15:59.173Z</time>
      </trkpt>
      <trkpt lat="62.34987" lon="5.92668">
        <ele>138.259295</ele>
        <time>2020-07-31T08:16:00.200Z</time>
      </trkpt>
      <trkpt lat="62.34992" lon="5.92689">
        <ele>137.630159</ele>
        <time>2020-07-31T08:16:01.197Z</time>
      </trkpt>
      <trkpt lat="62.34996" lon="5.9271">
        <ele>136.988564</ele>
        <time>2020-07-31T08:16:02.143Z</time>
      </trkpt>
      <trkpt lat="62.35001" lon="5.92731">
        <ele>136.341788</ele>
        <time>2020-07-31T08:16:03.163Z</time>
      </trkpt>
      <trkpt lat="62.35006" lon="5.92752">
        <ele>135.695012</ele>
        <time>2020-07-31T08:16:04.160Z</time>
      </trkpt>
      <trkpt lat="62.3501" lon="5.92773">
        <ele>135.04337</ele>
        <time>2020-07-31T08:16:05.152Z</time>
      </trkpt>
      <trkpt lat="62.35015" lon="5.92794">
        <ele>134.394237</ele>
        <time>2020-07-31T08:16:06.170Z</time>
      </trkpt>
      <trkpt lat="62.35019" lon="5.92816">
        <ele>133.739953</ele>
        <time>2020-07-31T08:16:07.172Z</time>
      </trkpt>
      <trkpt lat="62.35024" lon="5.92838">
        <ele>133.080739</ele>
        <time>2020-07-31T08:16:08.198Z</time>
      </trkpt>
      <trkpt lat="62.35028" lon="5.92859">
        <ele>132.426621</ele>
        <time>2020-07-31T08:16:09.193Z</time>
      </trkpt>
      <trkpt lat="62.35033" lon="5.92881">
        <ele>131.767488</ele>
        <time>2020-07-31T08:16:10.171Z</time>
      </trkpt>
      <trkpt lat="62.35038" lon="5.92903">
        <ele>131.110861</ele>
        <time>2020-07-31T08:16:11.189Z</time>
      </trkpt>
      <trkpt lat="62.35042" lon="5.92925">
        <ele>130.46185</ele>
        <time>2020-07-31T08:16:12.176Z</time>
      </trkpt>
      <trkpt lat="62.35047" lon="5.92947">
        <ele>129.8667</ele>
        <time>2020-07-31T08:16:13.168Z</time>
      </trkpt>
      <trkpt lat="62.35051" lon="5.92969">
        <ele>129.26733</ele>
        <time>2020-07-31T08:16:14.190Z</time>
      </trkpt>
      <trkpt lat="62.35056" lon="5.92991">
        <ele>128.659082</ele>
        <time>2020-07-31T08:16:15.156Z</time>
      </trkpt>
      <trkpt lat="62.35061" lon="5.93013">
        <ele>128.050797</ele>
        <time>2020-07-31T08:16:16.190Z</time>
      </trkpt>
      <trkpt lat="62.35065" lon="5.93035">
        <ele>127.444791</ele>
        <time>2020-07-31T08:16:17.199Z</time>
      </trkpt>
      <trkpt lat="62.3507" lon="5.93057">
        <ele>126.84329</ele>
        <time>2020-07-31T08:16:18.168Z</time>
      </trkpt>
      <trkpt lat="62.35075" lon="5.93079">
        <ele>126.241801</ele>
        <time>2020-07-31T08:16:19.188Z</time>
      </trkpt>
      <trkpt lat="62.3508" lon="5.93101">
        <ele>125.647056</ele>
        <time>2020-07-31T08:16:20.190Z</time>
      </trkpt>
      <trkpt lat="62.35084" lon="5.93123">
        <ele>125.059086</ele>
        <time>2020-07-31T08:16:21.191Z</time>
      </trkpt>
      <trkpt lat="62.35089" lon="5.93144">
        <ele>124.466608</ele>
        <time>2020-07-31T08:16:22.187Z</time>
      </trkpt>
      <trkpt lat="62.35094" lon="5.93165">
        <ele>123.883111</ele>
        <time>2020-07-31T08:16:23.188Z</time>
      </trkpt>
      <trkpt lat="62.35098" lon="5.93187">
        <ele>123.288385</ele>
        <time>2020-07-31T08:16:24.182Z</time>
      </trkpt>
      <trkpt lat="62.35103" lon="5.93208">
        <ele>122.711671</ele>
        <time>2020-07-31T08:16:25.169Z</time>
      </trkpt>
      <trkpt lat="62.35107" lon="5.93228">
        <ele>122.168708</ele>
        <time>2020-07-31T08:16:26.172Z</time>
      </trkpt>
      <trkpt lat="62.35112" lon="5.93247">
        <ele>121.643723</ele>
        <time>2020-07-31T08:16:27.210Z</time>
      </trkpt>
      <trkpt lat="62.35116" lon="5.93265">
        <ele>121.125425</ele>
        <time>2020-07-31T08:16:28.171Z</time>
      </trkpt>
      <trkpt lat="62.3512" lon="5.93284">
        <ele>120.748347</ele>
        <time>2020-07-31T08:16:29.179Z</time>
      </trkpt>
      <trkpt lat="62.35124" lon="5.93303">
        <ele>120.425804</ele>
        <time>2020-07-31T08:16:30.151Z</time>
      </trkpt>
      <trkpt lat="62.35128" lon="5.93322">
        <ele>120.10185</ele>
        <time>2020-07-31T08:16:31.188Z</time>
      </trkpt>
      <trkpt lat="62.35132" lon="5.9334">
        <ele>119.782163</ele>
        <time>2020-07-31T08:16:32.190Z</time>
      </trkpt>
      <trkpt lat="62.35136" lon="5.93358">
        <ele>119.468158</ele>
        <time>2020-07-31T08:16:33.186Z</time>
      </trkpt>
      <trkpt lat="62.3514" lon="5.93377">
        <ele>119.155576</ele>
        <time>2020-07-31T08:16:34.173Z</time>
      </trkpt>
      <trkpt lat="62.35144" lon="5.93394">
        <ele>118.844307</ele>
        <time>2020-07-31T08:16:35.151Z</time>
      </trkpt>
      <trkpt lat="62.35149" lon="5.93412">
        <ele>118.525177</ele>
        <time>2020-07-31T08:16:36.155Z</time>
      </trkpt>
      <trkpt lat="62.35153" lon="5.9343">
        <ele>118.207675</ele>
        <time>2020-07-31T08:16:37.159Z</time>
      </trkpt>
      <trkpt lat="62.35157" lon="5.93448">
        <ele>117.895007</ele>
        <time>2020-07-31T08:16:38.224Z</time>
      </trkpt>
      <trkpt lat="62.3516" lon="5.93467">
        <ele>117.583673</ele>
        <time>2020-07-31T08:16:39.157Z</time>
      </trkpt>
      <trkpt lat="62.35164" lon="5.93485">
        <ele>117.265399</ele>
        <time>2020-07-31T08:16:40.170Z</time>
      </trkpt>
      <trkpt lat="62.35168" lon="5.93503">
        <ele>116.948508</ele>
        <time>2020-07-31T08:16:41.182Z</time>
      </trkpt>
      <trkpt lat="62.35173" lon="5.93521">
        <ele>116.627723</ele>
        <time>2020-07-31T08:16:42.174Z</time>
      </trkpt>
      <trkpt lat="62.35178" lon="5.93539">
        <ele>116.309311</ele>
        <time>2020-07-31T08:16:43.161Z</time>
      </trkpt>
      <trkpt lat="62.35183" lon="5.93556">
        <ele>115.991247</ele>
        <time>2020-07-31T08:16:44.177Z</time>
      </trkpt>
      <trkpt lat="62.35188" lon="5.93573">
        <ele>115.673339</ele>
        <time>2020-07-31T08:16:45.156Z</time>
      </trkpt>
      <trkpt lat="62.35193" lon="5.9359">
        <ele>115.354418</ele>
        <time>2020-07-31T08:16:46.195Z</time>
      </trkpt>
      <trkpt lat="62.35198" lon="5.93608">
        <ele>115.034706</ele>
        <time>2020-07-31T08:16:47.191Z</time>
      </trkpt>
      <trkpt lat="62.35203" lon="5.93625">
        <ele>114.791401</ele>
        <time>2020-07-31T08:16:48.166Z</time>
      </trkpt>
      <trkpt lat="62.35208" lon="5.93642">
        <ele>114.59177</ele>
        <time>2020-07-31T08:16:49.177Z</time>
      </trkpt>
      <trkpt lat="62.35213" lon="5.93659">
        <ele>114.392411</ele>
        <time>2020-07-31T08:16:50.183Z</time>
      </trkpt>
      <trkpt lat="62.35218" lon="5.93677">
        <ele>114.198811</ele>
        <time>2020-07-31T08:16:51.195Z</time>
      </trkpt>
      <trkpt lat="62.35222" lon="5.93693">
        <ele>114.005567</ele>
        <time>2020-07-31T08:16:52.180Z</time>
      </trkpt>
      <trkpt lat="62.35228" lon="5.93709">
        <ele>113.810534</ele>
        <time>2020-07-31T08:16:53.157Z</time>
      </trkpt>
      <trkpt lat="62.35233" lon="5.93726">
        <ele>113.618788</ele>
        <time>2020-07-31T08:16:54.192Z</time>
      </trkpt>
      <trkpt lat="62.35241" lon="5.93755">
        <ele>113.290676</ele>
        <time>2020-07-31T08:16:56.169Z</time>
      </trkpt>
      <trkpt lat="62.35247" lon="5.93781">
        <ele>112.995351</ele>
        <time>2020-07-31T08:16:58.160Z</time>
      </trkpt>
      <trkpt lat="62.35255" lon="5.93809">
        <ele>112.682919</ele>
        <time>2020-07-31T08:17:00.181Z</time>
      </trkpt>
      <trkpt lat="62.35261" lon="5.93838">
        <ele>112.370115</ele>
        <time>2020-07-31T08:17:02.168Z</time>
      </trkpt>
      <trkpt lat="62.35266" lon="5.9387">
        <ele>112.040716</ele>
        <time>2020-07-31T08:17:04.176Z</time>
      </trkpt>
      <trkpt lat="62.35271" lon="5.93899">
        <ele>111.734525</ele>
        <time>2020-07-31T08:17:06.180Z</time>
      </trkpt>
      <trkpt lat="62.35277" lon="5.93924">
        <ele>111.462319</ele>
        <time>2020-07-31T08:17:08.156Z</time>
      </trkpt>
      <trkpt lat="62.35282" lon="5.9395">
        <ele>111.180674</ele>
        <time>2020-07-31T08:17:10.176Z</time>
      </trkpt>
      <trkpt lat="62.35287" lon="5.9398">
        <ele>110.619189</ele>
        <time>2020-07-31T08:17:12.153Z</time>
      </trkpt>
      <trkpt lat="62.3529" lon="5.94015">
        <ele>109.955899</ele>
        <time>2020-07-31T08:17:14.199Z</time>
      </trkpt>
      <trkpt lat="62.35293" lon="5.94051">
        <ele>109.250966</ele>
        <time>2020-07-31T08:17:16.161Z</time>
      </trkpt>
      <trkpt lat="62.35296" lon="5.94087">
        <ele>108.562422</ele>
        <time>2020-07-31T08:17:18.193Z</time>
      </trkpt>
      <trkpt lat="62.35299" lon="5.9412">
        <ele>107.927436</ele>
        <time>2020-07-31T08:17:20.159Z</time>
      </trkpt>
      <trkpt lat="62.35302" lon="5.94153">
        <ele>107.277174</ele>
        <time>2020-07-31T08:17:22.191Z</time>
      </trkpt>
      <trkpt lat="62.35304" lon="5.94188">
        <ele>106.605502</ele>
        <time>2020-07-31T08:17:24.164Z</time>
      </trkpt>
      <trkpt lat="62.35307" lon="5.94225">
        <ele>105.88746</ele>
        <time>2020-07-31T08:17:26.161Z</time>
      </trkpt>
      <trkpt lat="62.3531" lon="5.94263">
        <ele>105.156262</ele>
        <time>2020-07-31T08:17:28.149Z</time>
      </trkpt>
      <trkpt lat="62.35311" lon="5.94283">
        <ele>104.784774</ele>
        <time>2020-07-31T08:17:29.162Z</time>
      </trkpt>
      <trkpt lat="62.35312" lon="5.94302">
        <ele>104.410133</ele>
        <time>2020-07-31T08:17:30.181Z</time>
      </trkpt>
      <trkpt lat="62.35314" lon="5.94321">
        <ele>104.038417</ele>
        <time>2020-07-31T08:17:31.201Z</time>
      </trkpt>
      <trkpt lat="62.35316" lon="5.94341">
        <ele>103.663414</ele>
        <time>2020-07-31T08:17:32.175Z</time>
      </trkpt>
      <trkpt lat="62.35318" lon="5.9436">
        <ele>103.28308</ele>
        <time>2020-07-31T08:17:33.213Z</time>
      </trkpt>
      <trkpt lat="62.35321" lon="5.94394">
        <ele>102.599077</ele>
        <time>2020-07-31T08:17:35.148Z</time>
      </trkpt>
      <trkpt lat="62.35323" lon="5.94424">
        <ele>101.994786</ele>
        <time>2020-07-31T08:17:37.210Z</time>
      </trkpt>
      <trkpt lat="62.35325" lon="5.94455">
        <ele>101.388207</ele>
        <time>2020-07-31T08:17:39.179Z</time>
      </trkpt>
      <trkpt lat="62.35327" lon="5.94487">
        <ele>100.758809</ele>
        <time>2020-07-31T08:17:41.173Z</time>
      </trkpt>
      <trkpt lat="62.3533" lon="5.94519">
        <ele>100.112696</ele>
        <time>2020-07-31T08:17:43.213Z</time>
      </trkpt>
      <trkpt lat="62.35335" lon="5.94552">
        <ele>99.460463</ele>
        <time>2020-07-31T08:17:45.157Z</time>
      </trkpt>
      <trkpt lat="62.35339" lon="5.94583">
        <ele>98.812171</ele>
        <time>2020-07-31T08:17:47.189Z</time>
      </trkpt>
      <trkpt lat="62.35343" lon="5.94615">
        <ele>98.158057</ele>
        <time>2020-07-31T08:17:49.169Z</time>
      </trkpt>
      <trkpt lat="62.35347" lon="5.94648">
        <ele>97.491861</ele>
        <time>2020-07-31T08:17:51.152Z</time>
      </trkpt>
      <trkpt lat="62.35351" lon="5.94681">
        <ele>96.829697</ele>
        <time>2020-07-31T08:17:53.207Z</time>
      </trkpt>
      <trkpt lat="62.35355" lon="5.94713">
        <ele>96.182678</ele>
        <time>2020-07-31T08:17:55.167Z</time>
      </trkpt>
      <trkpt lat="62.3536" lon="5.94744">
        <ele>95.870674</ele>
        <time>2020-07-31T08:17:57.177Z</time>
      </trkpt>
      <trkpt lat="62.35364" lon="5.94774">
        <ele>95.573961</ele>
        <time>2020-07-31T08:17:59.190Z</time>
      </trkpt>
      <trkpt lat="62.35368" lon="5.94802">
        <ele>95.286168</ele>
        <time>2020-07-31T08:18:01.211Z</time>
      </trkpt>
      <trkpt lat="62.35373" lon="5.9483">
        <ele>95.00555</ele>
        <time>2020-07-31T08:18:03.157Z</time>
      </trkpt>
      <trkpt lat="62.35378" lon="5.94857">
        <ele>94.736362</ele>
        <time>2020-07-31T08:18:05.175Z</time>
      </trkpt>
      <trkpt lat="62.35381" lon="5.94883">
        <ele>94.479615</ele>
        <time>2020-07-31T08:18:07.152Z</time>
      </trkpt>
      <trkpt lat="62.35385" lon="5.94908">
        <ele>94.228592</ele>
        <time>2020-07-31T08:18:09.185Z</time>
      </trkpt>
      <trkpt lat="62.35389" lon="5.94933">
        <ele>93.977568</ele>
        <time>2020-07-31T08:18:11.189Z</time>
      </trkpt>
      <trkpt lat="62.35393" lon="5.94959">
        <ele>93.71301</ele>
        <time>2020-07-31T08:18:13.196Z</time>
      </trkpt>
      <trkpt lat="62.35398" lon="5.94984">
        <ele>93.453905</ele>
        <time>2020-07-31T08:18:15.186Z</time>
      </trkpt>
      <trkpt lat="62.35402" lon="5.95009">
        <ele>93.197734</ele>
        <time>2020-07-31T08:18:17.208Z</time>
      </trkpt>
      <trkpt lat="62.35406" lon="5.95035">
        <ele>92.94246</ele>
        <time>2020-07-31T08:18:19.197Z</time>
      </trkpt>
      <trkpt lat="62.3541" lon="5.95061">
        <ele>92.67814</ele>
        <time>2020-07-31T08:18:21.159Z</time>
      </trkpt>
      <trkpt lat="62.35414" lon="5.95087">
        <ele>92.463668</ele>
        <time>2020-07-31T08:18:23.190Z</time>
      </trkpt>
      <trkpt lat="62.35418" lon="5.95114">
        <ele>92.372146</ele>
        <time>2020-07-31T08:18:25.173Z</time>
      </trkpt>
      <trkpt lat="62.35422" lon="5.9514">
        <ele>92.278703</ele>
        <time>2020-07-31T08:18:27.158Z</time>
      </trkpt>
      <trkpt lat="62.35426" lon="5.95166">
        <ele>92.18748</ele>
        <time>2020-07-31T08:18:29.170Z</time>
      </trkpt>
      <trkpt lat="62.35429" lon="5.95192">
        <ele>92.098172</ele>
        <time>2020-07-31T08:18:31.182Z</time>
      </trkpt>
      <trkpt lat="62.35433" lon="5.95217">
        <ele>92.01098</ele>
        <time>2020-07-31T08:18:33.200Z</time>
      </trkpt>
      <trkpt lat="62.35436" lon="5.9524">
        <ele>91.929772</ele>
        <time>2020-07-31T08:18:35.176Z</time>
      </trkpt>
      <trkpt lat="62.3544" lon="5.95261">
        <ele>91.855759</ele>
        <time>2020-07-31T08:18:37.160Z</time>
      </trkpt>
      <trkpt lat="62.35443" lon="5.95281">
        <ele>91.784507</ele>
        <time>2020-07-31T08:18:39.154Z</time>
      </trkpt>
      <trkpt lat="62.35447" lon="5.95299">
        <ele>91.71801</ele>
        <time>2020-07-31T08:18:41.164Z</time>
      </trkpt>
      <trkpt lat="62.35451" lon="5.95326">
        <ele>91.623561</ele>
        <time>2020-07-31T08:18:44.177Z</time>
      </trkpt>
      <trkpt lat="62.35456" lon="5.95352">
        <ele>91.527717</ele>
        <time>2020-07-31T08:18:47.165Z</time>
      </trkpt>
      <trkpt lat="62.35459" lon="5.95371">
        <ele>91.460963</ele>
        <time>2020-07-31T08:18:49.172Z</time>
      </trkpt>
      <trkpt lat="62.35462" lon="5.9539">
        <ele>91.39326</ele>
        <time>2020-07-31T08:18:51.149Z</time>
      </trkpt>
      <trkpt lat="62.35466" lon="5.95411">
        <ele>91.320686</ele>
        <time>2020-07-31T08:18:53.172Z</time>
      </trkpt>
      <trkpt lat="62.3547" lon="5.9543">
        <ele>91.250006</ele>
        <time>2020-07-31T08:18:55.189Z</time>
      </trkpt>
      <trkpt lat="62.35472" lon="5.95451">
        <ele>91.154854</ele>
        <time>2020-07-31T08:18:57.164Z</time>
      </trkpt>
      <trkpt lat="62.35476" lon="5.95474">
        <ele>90.938376</ele>
        <time>2020-07-31T08:18:59.166Z</time>
      </trkpt>
      <trkpt lat="62.35479" lon="5.95498">
        <ele>90.712082</ele>
        <time>2020-07-31T08:19:01.196Z</time>
      </trkpt>
      <trkpt lat="62.35483" lon="5.95523">
        <ele>90.485234</ele>
        <time>2020-07-31T08:19:03.165Z</time>
      </trkpt>
      <trkpt lat="62.35487" lon="5.95547">
        <ele>90.258315</ele>
        <time>2020-07-31T08:19:05.164Z</time>
      </trkpt>
      <trkpt lat="62.35491" lon="5.95572">
        <ele>90.025342</ele>
        <time>2020-07-31T08:19:07.172Z</time>
      </trkpt>
      <trkpt lat="62.35495" lon="5.95596">
        <ele>89.792992</ele>
        <time>2020-07-31T08:19:09.152Z</time>
      </trkpt>
      <trkpt lat="62.355" lon="5.9562">
        <ele>89.569565</ele>
        <time>2020-07-31T08:19:11.208Z</time>
      </trkpt>
      <trkpt lat="62.35504" lon="5.95643">
        <ele>89.345201</ele>
        <time>2020-07-31T08:19:13.192Z</time>
      </trkpt>
      <trkpt lat="62.35508" lon="5.95667">
        <ele>89.124004</ele>
        <time>2020-07-31T08:19:15.160Z</time>
      </trkpt>
      <trkpt lat="62.35512" lon="5.9569">
        <ele>88.9025</ele>
        <time>2020-07-31T08:19:17.149Z</time>
      </trkpt>
      <trkpt lat="62.35516" lon="5.95714">
        <ele>88.679879</ele>
        <time>2020-07-31T08:19:19.177Z</time>
      </trkpt>
      <trkpt lat="62.35519" lon="5.95739">
        <ele>88.453798</ele>
        <time>2020-07-31T08:19:21.148Z</time>
      </trkpt>
      <trkpt lat="62.35523" lon="5.95764">
        <ele>88.219904</ele>
        <time>2020-07-31T08:19:23.156Z</time>
      </trkpt>
      <trkpt lat="62.35525" lon="5.9579">
        <ele>87.981988</ele>
        <time>2020-07-31T08:19:25.160Z</time>
      </trkpt>
      <trkpt lat="62.35528" lon="5.95816">
        <ele>87.750898</ele>
        <time>2020-07-31T08:19:27.187Z</time>
      </trkpt>
      <trkpt lat="62.3553" lon="5.95842">
        <ele>87.579012</ele>
        <time>2020-07-31T08:19:29.180Z</time>
      </trkpt>
      <trkpt lat="62.35533" lon="5.95869">
        <ele>87.405861</ele>
        <time>2020-07-31T08:19:31.166Z</time>
      </trkpt>
      <trkpt lat="62.35534" lon="5.95895">
        <ele>87.234237</ele>
        <time>2020-07-31T08:19:33.183Z</time>
      </trkpt>
      <trkpt lat="62.35536" lon="5.95921">
        <ele>87.065809</ele>
        <time>2020-07-31T08:19:35.165Z</time>
      </trkpt>
      <trkpt lat="62.35538" lon="5.95947">
        <ele>86.895079</ele>
        <time>2020-07-31T08:19:37.157Z</time>
      </trkpt>
      <trkpt lat="62.35539" lon="5.95975">
        <ele>86.716511</ele>
        <time>2020-07-31T08:19:39.169Z</time>
      </trkpt>
      <trkpt lat="62.35541" lon="5.96003">
        <ele>86.532815</ele>
        <time>2020-07-31T08:19:41.153Z</time>
      </trkpt>
      <trkpt lat="62.35543" lon="5.96031">
        <ele>86.346342</ele>
        <time>2020-07-31T08:19:43.180Z</time>
      </trkpt>
      <trkpt lat="62.35546" lon="5.96058">
        <ele>86.168589</ele>
        <time>2020-07-31T08:19:45.205Z</time>
      </trkpt>
      <trkpt lat="62.35548" lon="5.96084">
        <ele>85.997772</ele>
        <time>2020-07-31T08:19:47.164Z</time>
      </trkpt>
      <trkpt lat="62.3555" lon="5.96108">
        <ele>85.84083</ele>
        <time>2020-07-31T08:19:49.209Z</time>
      </trkpt>
      <trkpt lat="62.35552" lon="5.9613">
        <ele>85.695686</ele>
        <time>2020-07-31T08:19:51.172Z</time>
      </trkpt>
      <trkpt lat="62.35554" lon="5.96151">
        <ele>85.560414</ele>
        <time>2020-07-31T08:19:53.156Z</time>
      </trkpt>
      <trkpt lat="62.35555" lon="5.96172">
        <ele>85.424088</ele>
        <time>2020-07-31T08:19:55.185Z</time>
      </trkpt>
      <trkpt lat="62.35557" lon="5.96192">
        <ele>85.291994</ele>
        <time>2020-07-31T08:19:57.165Z</time>
      </trkpt>
      <trkpt lat="62.35559" lon="5.96213">
        <ele>85.266795</ele>
        <time>2020-07-31T08:19:59.171Z</time>
      </trkpt>
      <trkpt lat="62.35561" lon="5.96233">
        <ele>85.270866</ele>
        <time>2020-07-31T08:20:01.173Z</time>
      </trkpt>
      <trkpt lat="62.35562" lon="5.96253">
        <ele>85.27499</ele>
        <time>2020-07-31T08:20:03.160Z</time>
      </trkpt>
      <trkpt lat="62.35565" lon="5.9628">
        <ele>85.280538</ele>
        <time>2020-07-31T08:20:06.155Z</time>
      </trkpt>
      <trkpt lat="62.35567" lon="5.96305">
        <ele>85.285658</ele>
        <time>2020-07-31T08:20:09.187Z</time>
      </trkpt>
      <trkpt lat="62.35568" lon="5.9633">
        <ele>85.290612</ele>
        <time>2020-07-31T08:20:12.148Z</time>
      </trkpt>
      <trkpt lat="62.3557" lon="5.96354">
        <ele>85.295494</ele>
        <time>2020-07-31T08:20:15.158Z</time>
      </trkpt>
      <trkpt lat="62.35572" lon="5.96379">
        <ele>85.300573</ele>
        <time>2020-07-31T08:20:18.174Z</time>
      </trkpt>
      <trkpt lat="62.35574" lon="5.96404">
        <ele>85.305597</ele>
        <time>2020-07-31T08:20:21.157Z</time>
      </trkpt>
      <trkpt lat="62.35578" lon="5.9643">
        <ele>85.311102</ele>
        <time>2020-07-31T08:20:24.150Z</time>
      </trkpt>
      <trkpt lat="62.35581" lon="5.96458">
        <ele>85.316824</ele>
        <time>2020-07-31T08:20:27.168Z</time>
      </trkpt>
      <trkpt lat="62.35584" lon="5.96476">
        <ele>85.320721</ele>
        <time>2020-07-31T08:20:29.158Z</time>
      </trkpt>
      <trkpt lat="62.35587" lon="5.96495">
        <ele>85.324631</ele>
        <time>2020-07-31T08:20:31.195Z</time>
      </trkpt>
      <trkpt lat="62.35591" lon="5.96522">
        <ele>85.330348</ele>
        <time>2020-07-31T08:20:34.161Z</time>
      </trkpt>
      <trkpt lat="62.35597" lon="5.96547">
        <ele>85.336016</ele>
        <time>2020-07-31T08:20:37.157Z</time>
      </trkpt>
      <trkpt lat="62.35601" lon="5.96565">
        <ele>85.33994</ele>
        <time>2020-07-31T08:20:39.185Z</time>
      </trkpt>
      <trkpt lat="62.35605" lon="5.96582">
        <ele>85.231086</ele>
        <time>2020-07-31T08:20:41.170Z</time>
      </trkpt>
      <trkpt lat="62.3561" lon="5.966">
        <ele>85.066395</ele>
        <time>2020-07-31T08:20:43.178Z</time>
      </trkpt>
      <trkpt lat="62.35615" lon="5.96618">
        <ele>84.902972</ele>
        <time>2020-07-31T08:20:45.152Z</time>
      </trkpt>
      <trkpt lat="62.35619" lon="5.96635">
        <ele>84.742131</ele>
        <time>2020-07-31T08:20:47.176Z</time>
      </trkpt>
      <trkpt lat="62.35625" lon="5.96651">
        <ele>84.584276</ele>
        <time>2020-07-31T08:20:49.158Z</time>
      </trkpt>
      <trkpt lat="62.3563" lon="5.96668">
        <ele>84.416552</ele>
        <time>2020-07-31T08:20:51.176Z</time>
      </trkpt>
      <trkpt lat="62.35635" lon="5.96686">
        <ele>84.247543</ele>
        <time>2020-07-31T08:20:53.150Z</time>
      </trkpt>
      <trkpt lat="62.35641" lon="5.96706">
        <ele>84.063536</ele>
        <time>2020-07-31T08:20:55.149Z</time>
      </trkpt>
      <trkpt lat="62.35647" lon="5.96726">
        <ele>83.863537</ele>
        <time>2020-07-31T08:20:57.152Z</time>
      </trkpt>
      <trkpt lat="62.35654" lon="5.96747">
        <ele>83.6616</ele>
        <time>2020-07-31T08:20:59.188Z</time>
      </trkpt>
      <trkpt lat="62.35661" lon="5.96767">
        <ele>83.463602</ele>
        <time>2020-07-31T08:21:01.155Z</time>
      </trkpt>
      <trkpt lat="62.35668" lon="5.96785">
        <ele>83.272109</ele>
        <time>2020-07-31T08:21:03.171Z</time>
      </trkpt>
      <trkpt lat="62.35676" lon="5.96803">
        <ele>83.072979</ele>
        <time>2020-07-31T08:21:05.169Z</time>
      </trkpt>
      <trkpt lat="62.35684" lon="5.96822">
        <ele>82.870882</ele>
        <time>2020-07-31T08:21:07.171Z</time>
      </trkpt>
      <trkpt lat="62.35692" lon="5.96839">
        <ele>82.676942</ele>
        <time>2020-07-31T08:21:09.183Z</time>
      </trkpt>
      <trkpt lat="62.35699" lon="5.96855">
        <ele>82.503612</ele>
        <time>2020-07-31T08:21:11.165Z</time>
      </trkpt>
      <trkpt lat="62.35708" lon="5.96875">
        <ele>82.273914</ele>
        <time>2020-07-31T08:21:14.159Z</time>
      </trkpt>
      <trkpt lat="62.35717" lon="5.96895">
        <ele>81.961637</ele>
        <time>2020-07-31T08:21:17.149Z</time>
      </trkpt>
      <trkpt lat="62.35724" lon="5.96908">
        <ele>81.735382</ele>
        <time>2020-07-31T08:21:19.156Z</time>
      </trkpt>
      <trkpt lat="62.35732" lon="5.96922">
        <ele>81.491805</ele>
        <time>2020-07-31T08:21:21.203Z</time>
      </trkpt>
      <trkpt lat="62.35739" lon="5.96937">
        <ele>81.250936</ele>
        <time>2020-07-31T08:21:23.168Z</time>
      </trkpt>
      <trkpt lat="62.35746" lon="5.96953">
        <ele>80.994409</ele>
        <time>2020-07-31T08:21:25.212Z</time>
      </trkpt>
      <trkpt lat="62.35753" lon="5.96971">
        <ele>80.719939</ele>
        <time>2020-07-31T08:21:27.157Z</time>
      </trkpt>
      <trkpt lat="62.35761" lon="5.9699">
        <ele>80.42859</ele>
        <time>2020-07-31T08:21:29.184Z</time>
      </trkpt>
      <trkpt lat="62.35768" lon="5.9701">
        <ele>80.126666</ele>
        <time>2020-07-31T08:21:31.169Z</time>
      </trkpt>
      <trkpt lat="62.35776" lon="5.97031">
        <ele>79.810836</ele>
        <time>2020-07-31T08:21:33.155Z</time>
      </trkpt>
      <trkpt lat="62.35786" lon="5.97054">
        <ele>79.456966</ele>
        <time>2020-07-31T08:21:35.181Z</time>
      </trkpt>
      <trkpt lat="62.35795" lon="5.97076">
        <ele>79.109866</ele>
        <time>2020-07-31T08:21:37.222Z</time>
      </trkpt>
      <trkpt lat="62.35803" lon="5.97098">
        <ele>78.784186</ele>
        <time>2020-07-31T08:21:39.186Z</time>
      </trkpt>
      <trkpt lat="62.35812" lon="5.9712">
        <ele>78.446095</ele>
        <time>2020-07-31T08:21:41.174Z</time>
      </trkpt>
      <trkpt lat="62.3582" lon="5.97143">
        <ele>78.110195</ele>
        <time>2020-07-31T08:21:43.151Z</time>
      </trkpt>
      <trkpt lat="62.35829" lon="5.97166">
        <ele>77.773968</ele>
        <time>2020-07-31T08:21:45.160Z</time>
      </trkpt>
      <trkpt lat="62.35838" lon="5.97188">
        <ele>77.676456</ele>
        <time>2020-07-31T08:21:47.158Z</time>
      </trkpt>
      <trkpt lat="62.35846" lon="5.97208">
        <ele>77.594975</ele>
        <time>2020-07-31T08:21:49.188Z</time>
      </trkpt>
      <trkpt lat="62.35854" lon="5.97229">
        <ele>77.51517</ele>
        <time>2020-07-31T08:21:51.158Z</time>
      </trkpt>
      <trkpt lat="62.35861" lon="5.97249">
        <ele>77.442537</ele>
        <time>2020-07-31T08:21:53.180Z</time>
      </trkpt>
      <trkpt lat="62.35868" lon="5.97266">
        <ele>77.374857</ele>
        <time>2020-07-31T08:21:55.183Z</time>
      </trkpt>
      <trkpt lat="62.35875" lon="5.97284">
        <ele>77.306981</ele>
        <time>2020-07-31T08:21:57.158Z</time>
      </trkpt>
      <trkpt lat="62.35882" lon="5.97299">
        <ele>77.244071</ele>
        <time>2020-07-31T08:21:59.151Z</time>
      </trkpt>
      <trkpt lat="62.35888" lon="5.97316">
        <ele>77.179614</ele>
        <time>2020-07-31T08:22:01.193Z</time>
      </trkpt>
      <trkpt lat="62.35895" lon="5.97332">
        <ele>77.117741</ele>
        <time>2020-07-31T08:22:03.171Z</time>
      </trkpt>
      <trkpt lat="62.35903" lon="5.97354">
        <ele>77.035395</ele>
        <time>2020-07-31T08:22:06.162Z</time>
      </trkpt>
      <trkpt lat="62.3591" lon="5.97373">
        <ele>76.960082</ele>
        <time>2020-07-31T08:22:09.202Z</time>
      </trkpt>
      <trkpt lat="62.35918" lon="5.97392">
        <ele>76.885893</ele>
        <time>2020-07-31T08:22:12.153Z</time>
      </trkpt>
      <trkpt lat="62.35926" lon="5.97412">
        <ele>76.808482</ele>
        <time>2020-07-31T08:22:15.175Z</time>
      </trkpt>
      <trkpt lat="62.35932" lon="5.97428">
        <ele>76.747991</ele>
        <time>2020-07-31T08:22:17.162Z</time>
      </trkpt>
      <trkpt lat="62.35938" lon="5.97444">
        <ele>76.686609</ele>
        <time>2020-07-31T08:22:19.152Z</time>
      </trkpt>
      <trkpt lat="62.35945" lon="5.9746">
        <ele>76.62496</ele>
        <time>2020-07-31T08:22:21.140Z</time>
      </trkpt>
      <trkpt lat="62.35951" lon="5.97475">
        <ele>76.568261</ele>
        <time>2020-07-31T08:22:23.185Z</time>
      </trkpt>
      <trkpt lat="62.35957" lon="5.9749">
        <ele>76.511783</ele>
        <time>2020-07-31T08:22:25.145Z</time>
      </trkpt>
      <trkpt lat="62.35964" lon="5.97506">
        <ele>76.454114</ele>
        <time>2020-07-31T08:22:27.177Z</time>
      </trkpt>
      <trkpt lat="62.3597" lon="5.97522">
        <ele>76.394618</ele>
        <time>2020-07-31T08:22:29.158Z</time>
      </trkpt>
      <trkpt lat="62.35977" lon="5.97538">
        <ele>76.33343</ele>
        <time>2020-07-31T08:22:31.178Z</time>
      </trkpt>
      <trkpt lat="62.35983" lon="5.97556">
        <ele>76.271816</ele>
        <time>2020-07-31T08:22:33.167Z</time>
      </trkpt>
      <trkpt lat="62.3599" lon="5.97573">
        <ele>76.209182</ele>
        <time>2020-07-31T08:22:35.173Z</time>
      </trkpt>
      <trkpt lat="62.35997" lon="5.9759">
        <ele>76.146762</ele>
        <time>2020-07-31T08:22:37.157Z</time>
      </trkpt>
      <trkpt lat="62.36004" lon="5.97608">
        <ele>76.083701</ele>
        <time>2020-07-31T08:22:39.174Z</time>
      </trkpt>
      <trkpt lat="62.3601" lon="5.97626">
        <ele>76.019563</ele>
        <time>2020-07-31T08:22:41.176Z</time>
      </trkpt>
      <trkpt lat="62.36021" lon="5.97651">
        <ele>75.924726</ele>
        <time>2020-07-31T08:22:44.174Z</time>
      </trkpt>
      <trkpt lat="62.36027" lon="5.97668">
        <ele>75.865853</ele>
        <time>2020-07-31T08:22:46.230Z</time>
      </trkpt>
      <trkpt lat="62.36033" lon="5.97684">
        <ele>75.808277</ele>
        <time>2020-07-31T08:22:48.162Z</time>
      </trkpt>
      <trkpt lat="62.36039" lon="5.97699">
        <ele>75.752838</ele>
        <time>2020-07-31T08:22:50.178Z</time>
      </trkpt>
      <trkpt lat="62.36045" lon="5.97714">
        <ele>75.698218</ele>
        <time>2020-07-31T08:22:52.148Z</time>
      </trkpt>
      <trkpt lat="62.36051" lon="5.97729">
        <ele>75.644021</ele>
        <time>2020-07-31T08:22:54.183Z</time>
      </trkpt>
      <trkpt lat="62.36059" lon="5.97751">
        <ele>75.569292</ele>
        <time>2020-07-31T08:22:57.178Z</time>
      </trkpt>
      <trkpt lat="62.36067" lon="5.97771">
        <ele>75.785326</ele>
        <time>2020-07-31T08:23:00.160Z</time>
      </trkpt>
      <trkpt lat="62.36074" lon="5.9779">
        <ele>76.163959</ele>
        <time>2020-07-31T08:23:03.166Z</time>
      </trkpt>
      <trkpt lat="62.36082" lon="5.97808">
        <ele>76.52087</ele>
        <time>2020-07-31T08:23:06.192Z</time>
      </trkpt>
      <trkpt lat="62.36089" lon="5.97825">
        <ele>76.862524</ele>
        <time>2020-07-31T08:23:09.178Z</time>
      </trkpt>
      <trkpt lat="62.36095" lon="5.9784">
        <ele>77.161654</ele>
        <time>2020-07-31T08:23:12.171Z</time>
      </trkpt>
      <trkpt lat="62.36102" lon="5.97857">
        <ele>77.490242</ele>
        <time>2020-07-31T08:23:16.190Z</time>
      </trkpt>
      <trkpt lat="62.36108" lon="5.97871">
        <ele>77.782464</ele>
        <time>2020-07-31T08:23:20.196Z</time>
      </trkpt>
      <trkpt lat="62.36114" lon="5.97886">
        <ele>78.07147</ele>
        <time>2020-07-31T08:23:24.151Z</time>
      </trkpt>
      <trkpt lat="62.3612" lon="5.97901">
        <ele>78.359878</ele>
        <time>2020-07-31T08:23:28.171Z</time>
      </trkpt>
      <trkpt lat="62.36126" lon="5.9792">
        <ele>78.705398</ele>
        <time>2020-07-31T08:23:33.176Z</time>
      </trkpt>
      <trkpt lat="62.36133" lon="5.97938">
        <ele>79.061646</ele>
        <time>2020-07-31T08:23:38.166Z</time>
      </trkpt>
      <trkpt lat="62.3614" lon="5.97956">
        <ele>79.409869</ele>
        <time>2020-07-31T08:23:43.168Z</time>
      </trkpt>
      <trkpt lat="62.36147" lon="5.97971">
        <ele>79.713084</ele>
        <time>2020-07-31T08:23:47.170Z</time>
      </trkpt>
      <trkpt lat="62.36153" lon="5.97987">
        <ele>80.021417</ele>
        <time>2020-07-31T08:23:51.164Z</time>
      </trkpt>
      <trkpt lat="62.36159" lon="5.98004">
        <ele>80.347575</ele>
        <time>2020-07-31T08:23:55.168Z</time>
      </trkpt>
      <trkpt lat="62.36165" lon="5.98021">
        <ele>80.669217</ele>
        <time>2020-07-31T08:23:59.177Z</time>
      </trkpt>
      <trkpt lat="62.36172" lon="5.98038">
        <ele>81.00815</ele>
        <time>2020-07-31T08:24:03.156Z</time>
      </trkpt>
      <trkpt lat="62.3618" lon="5.98058">
        <ele>81.311855</ele>
        <time>2020-07-31T08:24:07.160Z</time>
      </trkpt>
      <trkpt lat="62.36188" lon="5.98076">
        <ele>81.331896</ele>
        <time>2020-07-31T08:24:11.197Z</time>
      </trkpt>
      <trkpt lat="62.36195" lon="5.98095">
        <ele>81.352301</ele>
        <time>2020-07-31T08:24:15.148Z</time>
      </trkpt>
      <trkpt lat="62.36202" lon="5.98114">
        <ele>81.371449</ele>
        <time>2020-07-31T08:24:19.168Z</time>
      </trkpt>
      <trkpt lat="62.36209" lon="5.98133">
        <ele>81.390853</ele>
        <time>2020-07-31T08:24:23.170Z</time>
      </trkpt>
      <trkpt lat="62.36216" lon="5.98151">
        <ele>81.409086</ele>
        <time>2020-07-31T08:24:27.176Z</time>
      </trkpt>
      <trkpt lat="62.36222" lon="5.9817">
        <ele>81.428325</ele>
        <time>2020-07-31T08:24:31.162Z</time>
      </trkpt>
      <trkpt lat="62.36229" lon="5.98189">
        <ele>81.44728</ele>
        <time>2020-07-31T08:24:35.165Z</time>
      </trkpt>
      <trkpt lat="62.36234" lon="5.9821">
        <ele>81.467033</ele>
        <time>2020-07-31T08:24:39.164Z</time>
      </trkpt>
      <trkpt lat="62.36239" lon="5.98229">
        <ele>81.48397</ele>
        <time>2020-07-31T08:24:42.179Z</time>
      </trkpt>
      <trkpt lat="62.36244" lon="5.98249">
        <ele>81.502435</ele>
        <time>2020-07-31T08:24:45.184Z</time>
      </trkpt>
      <trkpt lat="62.3625" lon="5.9827">
        <ele>81.521809</ele>
        <time>2020-07-31T08:24:48.178Z</time>
      </trkpt>
      <trkpt lat="62.36256" lon="5.98292">
        <ele>81.542188</ele>
        <time>2020-07-31T08:24:51.209Z</time>
      </trkpt>
      <trkpt lat="62.36262" lon="5.98314">
        <ele>81.563278</ele>
        <time>2020-07-31T08:24:54.157Z</time>
      </trkpt>
      <trkpt lat="62.36268" lon="5.98338">
        <ele>81.585603</ele>
        <time>2020-07-31T08:24:57.150Z</time>
      </trkpt>
      <trkpt lat="62.36275" lon="5.98362">
        <ele>81.607462</ele>
        <time>2020-07-31T08:25:00.190Z</time>
      </trkpt>
      <trkpt lat="62.36281" lon="5.98385">
        <ele>81.574886</ele>
        <time>2020-07-31T08:25:03.208Z</time>
      </trkpt>
      <trkpt lat="62.36288" lon="5.9841">
        <ele>81.473239</ele>
        <time>2020-07-31T08:25:06.202Z</time>
      </trkpt>
      <trkpt lat="62.36292" lon="5.98427">
        <ele>81.403574</ele>
        <time>2020-07-31T08:25:08.197Z</time>
      </trkpt>
      <trkpt lat="62.36297" lon="5.98445">
        <ele>81.333601</ele>
        <time>2020-07-31T08:25:10.174Z</time>
      </trkpt>
      <trkpt lat="62.36301" lon="5.98463">
        <ele>81.263181</ele>
        <time>2020-07-31T08:25:12.171Z</time>
      </trkpt>
      <trkpt lat="62.36305" lon="5.98482">
        <ele>81.188835</ele>
        <time>2020-07-31T08:25:14.203Z</time>
      </trkpt>
      <trkpt lat="62.3631" lon="5.98501">
        <ele>81.11248</ele>
        <time>2020-07-31T08:25:16.193Z</time>
      </trkpt>
      <trkpt lat="62.36315" lon="5.9852">
        <ele>81.035253</ele>
        <time>2020-07-31T08:25:18.195Z</time>
      </trkpt>
      <trkpt lat="62.3632" lon="5.9854">
        <ele>80.958754</ele>
        <time>2020-07-31T08:25:20.157Z</time>
      </trkpt>
      <trkpt lat="62.36325" lon="5.98559">
        <ele>80.881043</ele>
        <time>2020-07-31T08:25:22.158Z</time>
      </trkpt>
      <trkpt lat="62.3633" lon="5.98578">
        <ele>80.800977</ele>
        <time>2020-07-31T08:25:24.228Z</time>
      </trkpt>
      <trkpt lat="62.36336" lon="5.98598">
        <ele>80.720075</ele>
        <time>2020-07-31T08:25:26.196Z</time>
      </trkpt>
      <trkpt lat="62.36341" lon="5.98617">
        <ele>80.641412</ele>
        <time>2020-07-31T08:25:28.157Z</time>
      </trkpt>
      <trkpt lat="62.36346" lon="5.98635">
        <ele>80.567029</ele>
        <time>2020-07-31T08:25:30.172Z</time>
      </trkpt>
      <trkpt lat="62.36352" lon="5.98652">
        <ele>80.491893</ele>
        <time>2020-07-31T08:25:32.216Z</time>
      </trkpt>
      <trkpt lat="62.36358" lon="5.98668">
        <ele>80.420756</ele>
        <time>2020-07-31T08:25:34.210Z</time>
      </trkpt>
      <trkpt lat="62.36363" lon="5.98684">
        <ele>80.352213</ele>
        <time>2020-07-31T08:25:36.205Z</time>
      </trkpt>
      <trkpt lat="62.36369" lon="5.987">
        <ele>80.28311</ele>
        <time>2020-07-31T08:25:38.149Z</time>
      </trkpt>
      <trkpt lat="62.36374" lon="5.98715">
        <ele>80.231757</ele>
        <time>2020-07-31T08:25:40.189Z</time>
      </trkpt>
      <trkpt lat="62.3638" lon="5.98732">
        <ele>80.191501</ele>
        <time>2020-07-31T08:25:42.160Z</time>
      </trkpt>
      <trkpt lat="62.36385" lon="5.98748">
        <ele>80.150996</ele>
        <time>2020-07-31T08:25:44.177Z</time>
      </trkpt>
      <trkpt lat="62.3639" lon="5.98763">
        <ele>80.111136</ele>
        <time>2020-07-31T08:25:46.155Z</time>
      </trkpt>
      <trkpt lat="62.36396" lon="5.98779">
        <ele>80.071282</ele>
        <time>2020-07-31T08:25:48.179Z</time>
      </trkpt>
      <trkpt lat="62.36404" lon="5.98801">
        <ele>80.014097</ele>
        <time>2020-07-31T08:25:51.182Z</time>
      </trkpt>
      <trkpt lat="62.36411" lon="5.98824">
        <ele>79.958187</ele>
        <time>2020-07-31T08:25:54.176Z</time>
      </trkpt>
      <trkpt lat="62.36417" lon="5.98847">
        <ele>79.902861</ele>
        <time>2020-07-31T08:25:57.180Z</time>
      </trkpt>
      <trkpt lat="62.36424" lon="5.9887">
        <ele>79.845679</ele>
        <time>2020-07-31T08:26:00.167Z</time>
      </trkpt>
      <trkpt lat="62.36431" lon="5.98894">
        <ele>79.788822</ele>
        <time>2020-07-31T08:26:03.165Z</time>
      </trkpt>
      <trkpt lat="62.36437" lon="5.98919">
        <ele>79.732484</ele>
        <time>2020-07-31T08:26:06.215Z</time>
      </trkpt>
      <trkpt lat="62.36443" lon="5.9894">
        <ele>79.679112</ele>
        <time>2020-07-31T08:26:09.185Z</time>
      </trkpt>
      <trkpt lat="62.3645" lon="5.98962">
        <ele>79.626339</ele>
        <time>2020-07-31T08:26:12.207Z</time>
      </trkpt>
      <trkpt lat="62.36458" lon="5.98983">
        <ele>79.571424</ele>
        <time>2020-07-31T08:26:15.197Z</time>
      </trkpt>
      <trkpt lat="62.36465" lon="5.99005">
        <ele>79.515378</ele>
        <time>2020-07-31T08:26:18.210Z</time>
      </trkpt>
      <trkpt lat="62.36472" lon="5.99026">
        <ele>79.457779</ele>
        <time>2020-07-31T08:26:21.146Z</time>
      </trkpt>
      <trkpt lat="62.36478" lon="5.99048">
        <ele>79.270886</ele>
        <time>2020-07-31T08:26:24.175Z</time>
      </trkpt>
      <trkpt lat="62.36485" lon="5.99069">
        <ele>79.075139</ele>
        <time>2020-07-31T08:26:27.173Z</time>
      </trkpt>
      <trkpt lat="62.36492" lon="5.9909">
        <ele>78.876246</ele>
        <time>2020-07-31T08:26:30.219Z</time>
      </trkpt>
      <trkpt lat="62.36498" lon="5.99113">
        <ele>78.669235</ele>
        <time>2020-07-31T08:26:33.175Z</time>
      </trkpt>
      <trkpt lat="62.36505" lon="5.99135">
        <ele>78.467233</ele>
        <time>2020-07-31T08:26:36.170Z</time>
      </trkpt>
      <trkpt lat="62.36513" lon="5.99157">
        <ele>78.25197</ele>
        <time>2020-07-31T08:26:39.183Z</time>
      </trkpt>
      <trkpt lat="62.36519" lon="5.99174">
        <ele>78.09743</ele>
        <time>2020-07-31T08:26:41.189Z</time>
      </trkpt>
      <trkpt lat="62.36524" lon="5.99191">
        <ele>77.944453</ele>
        <time>2020-07-31T08:26:43.155Z</time>
      </trkpt>
      <trkpt lat="62.36529" lon="5.99208">
        <ele>77.786608</ele>
        <time>2020-07-31T08:26:45.213Z</time>
      </trkpt>
      <trkpt lat="62.36534" lon="5.99226">
        <ele>77.635202</ele>
        <time>2020-07-31T08:26:47.195Z</time>
      </trkpt>
      <trkpt lat="62.36538" lon="5.99243">
        <ele>77.479251</ele>
        <time>2020-07-31T08:26:49.211Z</time>
      </trkpt>
      <trkpt lat="62.36543" lon="5.99262">
        <ele>77.317042</ele>
        <time>2020-07-31T08:26:51.175Z</time>
      </trkpt>
      <trkpt lat="62.36548" lon="5.99282">
        <ele>77.145002</ele>
        <time>2020-07-31T08:26:53.166Z</time>
      </trkpt>
      <trkpt lat="62.36552" lon="5.99303">
        <ele>76.970386</ele>
        <time>2020-07-31T08:26:55.169Z</time>
      </trkpt>
      <trkpt lat="62.36557" lon="5.99324">
        <ele>76.79373</ele>
        <time>2020-07-31T08:26:57.188Z</time>
      </trkpt>
      <trkpt lat="62.36561" lon="5.99345">
        <ele>76.621761</ele>
        <time>2020-07-31T08:26:59.185Z</time>
      </trkpt>
      <trkpt lat="62.36565" lon="5.99366">
        <ele>76.425353</ele>
        <time>2020-07-31T08:27:01.185Z</time>
      </trkpt>
      <trkpt lat="62.3657" lon="5.99386">
        <ele>76.186544</ele>
        <time>2020-07-31T08:27:03.153Z</time>
      </trkpt>
      <trkpt lat="62.36573" lon="5.99407">
        <ele>75.954923</ele>
        <time>2020-07-31T08:27:05.150Z</time>
      </trkpt>
      <trkpt lat="62.36577" lon="5.99427">
        <ele>75.721616</ele>
        <time>2020-07-31T08:27:07.213Z</time>
      </trkpt>
      <trkpt lat="62.36581" lon="5.99447">
        <ele>75.493577</ele>
        <time>2020-07-31T08:27:09.168Z</time>
      </trkpt>
      <trkpt lat="62.36584" lon="5.99469">
        <ele>75.258517</ele>
        <time>2020-07-31T08:27:11.176Z</time>
      </trkpt>
      <trkpt lat="62.36588" lon="5.99491">
        <ele>75.012875</ele>
        <time>2020-07-31T08:27:13.167Z</time>
      </trkpt>
      <trkpt lat="62.36592" lon="5.99513">
        <ele>74.755666</ele>
        <time>2020-07-31T08:27:15.189Z</time>
      </trkpt>
      <trkpt lat="62.36596" lon="5.99537">
        <ele>74.488061</ele>
        <time>2020-07-31T08:27:17.209Z</time>
      </trkpt>
      <trkpt lat="62.36601" lon="5.99561">
        <ele>74.217156</ele>
        <time>2020-07-31T08:27:19.151Z</time>
      </trkpt>
      <trkpt lat="62.36605" lon="5.99584">
        <ele>73.957096</ele>
        <time>2020-07-31T08:27:21.159Z</time>
      </trkpt>
      <trkpt lat="62.36608" lon="5.99607">
        <ele>73.699842</ele>
        <time>2020-07-31T08:27:23.190Z</time>
      </trkpt>
      <trkpt lat="62.36611" lon="5.99631">
        <ele>73.436801</ele>
        <time>2020-07-31T08:27:25.168Z</time>
      </trkpt>
      <trkpt lat="62.36615" lon="5.99654">
        <ele>73.17697</ele>
        <time>2020-07-31T08:27:27.169Z</time>
      </trkpt>
      <trkpt lat="62.36619" lon="5.99678">
        <ele>72.916659</ele>
        <time>2020-07-31T08:27:29.193Z</time>
      </trkpt>
      <trkpt lat="62.36623" lon="5.997">
        <ele>72.664306</ele>
        <time>2020-07-31T08:27:31.219Z</time>
      </trkpt>
      <trkpt lat="62.36626" lon="5.99722">
        <ele>72.423755</ele>
        <time>2020-07-31T08:27:33.202Z</time>
      </trkpt>
      <trkpt lat="62.3663" lon="5.99744">
        <ele>72.287606</ele>
        <time>2020-07-31T08:27:35.172Z</time>
      </trkpt>
      <trkpt lat="62.36633" lon="5.99765">
        <ele>72.154414</ele>
        <time>2020-07-31T08:27:37.172Z</time>
      </trkpt>
      <trkpt lat="62.36637" lon="5.99786">
        <ele>72.019771</ele>
        <time>2020-07-31T08:27:39.177Z</time>
      </trkpt>
      <trkpt lat="62.3664" lon="5.99808">
        <ele>71.880794</ele>
        <time>2020-07-31T08:27:41.191Z</time>
      </trkpt>
      <trkpt lat="62.36643" lon="5.99831">
        <ele>71.741407</ele>
        <time>2020-07-31T08:27:43.217Z</time>
      </trkpt>
      <trkpt lat="62.36647" lon="5.99853">
        <ele>71.598058</ele>
        <time>2020-07-31T08:27:45.157Z</time>
      </trkpt>
      <trkpt lat="62.3665" lon="5.99876">
        <ele>71.457947</ele>
        <time>2020-07-31T08:27:47.195Z</time>
      </trkpt>
      <trkpt lat="62.36654" lon="5.99898">
        <ele>71.317824</ele>
        <time>2020-07-31T08:27:49.162Z</time>
      </trkpt>
      <trkpt lat="62.36657" lon="5.9992">
        <ele>71.176011</ele>
        <time>2020-07-31T08:27:51.169Z</time>
      </trkpt>
      <trkpt lat="62.36661" lon="5.99942">
        <ele>71.038002</ele>
        <time>2020-07-31T08:27:53.200Z</time>
      </trkpt>
      <trkpt lat="62.36664" lon="5.99966">
        <ele>70.888743</ele>
        <time>2020-07-31T08:27:55.156Z</time>
      </trkpt>
      <trkpt lat="62.36668" lon="5.99989">
        <ele>70.743903</ele>
        <time>2020-07-31T08:27:57.167Z</time>
      </trkpt>
      <trkpt lat="62.36671" lon="6.00011">
        <ele>70.605645</ele>
        <time>2020-07-31T08:27:59.191Z</time>
      </trkpt>
      <trkpt lat="62.36674" lon="6.00032">
        <ele>70.472008</ele>
        <time>2020-07-31T08:28:01.155Z</time>
      </trkpt>
      <trkpt lat="62.36677" lon="6.00053">
        <ele>70.345225</ele>
        <time>2020-07-31T08:28:03.159Z</time>
      </trkpt>
      <trkpt lat="62.3668" lon="6.00071">
        <ele>70.228379</ele>
        <time>2020-07-31T08:28:05.168Z</time>
      </trkpt>
      <trkpt lat="62.36683" lon="6.0009">
        <ele>70.116383</ele>
        <time>2020-07-31T08:28:07.203Z</time>
      </trkpt>
      <trkpt lat="62.36687" lon="6.00109">
        <ele>70.125204</ele>
        <time>2020-07-31T08:28:09.171Z</time>
      </trkpt>
      <trkpt lat="62.3669" lon="6.00128">
        <ele>70.134491</ele>
        <time>2020-07-31T08:28:11.158Z</time>
      </trkpt>
      <trkpt lat="62.36694" lon="6.00148">
        <ele>70.143808</ele>
        <time>2020-07-31T08:28:13.180Z</time>
      </trkpt>
      <trkpt lat="62.36699" lon="6.00168">
        <ele>70.153517</ele>
        <time>2020-07-31T08:28:15.195Z</time>
      </trkpt>
      <trkpt lat="62.36703" lon="6.00188">
        <ele>70.163107</ele>
        <time>2020-07-31T08:28:17.168Z</time>
      </trkpt>
      <trkpt lat="62.36708" lon="6.00208">
        <ele>70.172816</ele>
        <time>2020-07-31T08:28:19.191Z</time>
      </trkpt>
      <trkpt lat="62.36713" lon="6.00227">
        <ele>70.182299</ele>
        <time>2020-07-31T08:28:21.188Z</time>
      </trkpt>
      <trkpt lat="62.36717" lon="6.00245">
        <ele>70.191267</ele>
        <time>2020-07-31T08:28:23.162Z</time>
      </trkpt>
      <trkpt lat="62.36722" lon="6.00262">
        <ele>70.199909</ele>
        <time>2020-07-31T08:28:25.190Z</time>
      </trkpt>
      <trkpt lat="62.36727" lon="6.0028">
        <ele>70.209059</ele>
        <time>2020-07-31T08:28:27.165Z</time>
      </trkpt>
      <trkpt lat="62.36732" lon="6.003">
        <ele>70.218587</ele>
        <time>2020-07-31T08:28:29.180Z</time>
      </trkpt>
      <trkpt lat="62.36737" lon="6.00319">
        <ele>70.228001</ele>
        <time>2020-07-31T08:28:31.154Z</time>
      </trkpt>
      <trkpt lat="62.36741" lon="6.00336">
        <ele>70.236898</ele>
        <time>2020-07-31T08:28:33.186Z</time>
      </trkpt>
      <trkpt lat="62.36746" lon="6.00354">
        <ele>70.245751</ele>
        <time>2020-07-31T08:28:35.195Z</time>
      </trkpt>
      <trkpt lat="62.36751" lon="6.00371">
        <ele>70.254566</ele>
        <time>2020-07-31T08:28:37.169Z</time>
      </trkpt>
      <trkpt lat="62.36756" lon="6.0039">
        <ele>70.263644</ele>
        <time>2020-07-31T08:28:39.151Z</time>
      </trkpt>
      <trkpt lat="62.3676" lon="6.00409">
        <ele>70.272953</ele>
        <time>2020-07-31T08:28:41.185Z</time>
      </trkpt>
      <trkpt lat="62.36763" lon="6.00428">
        <ele>70.281796</ele>
        <time>2020-07-31T08:28:43.181Z</time>
      </trkpt>
      <trkpt lat="62.36768" lon="6.00446">
        <ele>70.350084</ele>
        <time>2020-07-31T08:28:45.225Z</time>
      </trkpt>
      <trkpt lat="62.36772" lon="6.00464">
        <ele>70.447379</ele>
        <time>2020-07-31T08:28:47.163Z</time>
      </trkpt>
      <trkpt lat="62.36778" lon="6.00482">
        <ele>70.545691</ele>
        <time>2020-07-31T08:28:49.196Z</time>
      </trkpt>
      <trkpt lat="62.36783" lon="6.00499">
        <ele>70.639308</ele>
        <time>2020-07-31T08:28:51.145Z</time>
      </trkpt>
      <trkpt lat="62.36788" lon="6.00515">
        <ele>70.733112</ele>
        <time>2020-07-31T08:28:53.160Z</time>
      </trkpt>
      <trkpt lat="62.36793" lon="6.00532">
        <ele>70.824165</ele>
        <time>2020-07-31T08:28:55.192Z</time>
      </trkpt>
      <trkpt lat="62.368" lon="6.00556">
        <ele>70.955866</ele>
        <time>2020-07-31T08:28:58.166Z</time>
      </trkpt>
      <trkpt lat="62.36807" lon="6.00579">
        <ele>71.083306</ele>
        <time>2020-07-31T08:29:01.172Z</time>
      </trkpt>
      <trkpt lat="62.36813" lon="6.00601">
        <ele>71.203925</ele>
        <time>2020-07-31T08:29:04.155Z</time>
      </trkpt>
      <trkpt lat="62.36819" lon="6.00621">
        <ele>71.314507</ele>
        <time>2020-07-31T08:29:07.156Z</time>
      </trkpt>
      <trkpt lat="62.36825" lon="6.00641">
        <ele>71.420471</ele>
        <time>2020-07-31T08:29:10.171Z</time>
      </trkpt>
      <trkpt lat="62.3683" lon="6.0066">
        <ele>71.525385</ele>
        <time>2020-07-31T08:29:13.188Z</time>
      </trkpt>
      <trkpt lat="62.36836" lon="6.0068">
        <ele>71.635617</ele>
        <time>2020-07-31T08:29:16.169Z</time>
      </trkpt>
      <trkpt lat="62.36842" lon="6.00699">
        <ele>71.743175</ele>
        <time>2020-07-31T08:29:19.200Z</time>
      </trkpt>
      <trkpt lat="62.36847" lon="6.00718">
        <ele>71.843991</ele>
        <time>2020-07-31T08:29:22.188Z</time>
      </trkpt>
      <trkpt lat="62.36851" lon="6.00737">
        <ele>71.942876</ele>
        <time>2020-07-31T08:29:25.169Z</time>
      </trkpt>
      <trkpt lat="62.36856" lon="6.00755">
        <ele>72.036247</ele>
        <time>2020-07-31T08:29:28.168Z</time>
      </trkpt>
      <trkpt lat="62.36861" lon="6.00771">
        <ele>72.135488</ele>
        <time>2020-07-31T08:29:31.169Z</time>
      </trkpt>
      <trkpt lat="62.36866" lon="6.00789">
        <ele>72.247941</ele>
        <time>2020-07-31T08:29:34.200Z</time>
      </trkpt>
      <trkpt lat="62.3687" lon="6.00807">
        <ele>72.355356</ele>
        <time>2020-07-31T08:29:37.169Z</time>
      </trkpt>
      <trkpt lat="62.36874" lon="6.00825">
        <ele>72.46465</ele>
        <time>2020-07-31T08:29:40.151Z</time>
      </trkpt>
      <trkpt lat="62.3688" lon="6.00843">
        <ele>72.580148</ele>
        <time>2020-07-31T08:29:43.187Z</time>
      </trkpt>
      <trkpt lat="62.36885" lon="6.00861">
        <ele>72.691375</ele>
        <time>2020-07-31T08:29:46.172Z</time>
      </trkpt>
      <trkpt lat="62.3689" lon="6.00879">
        <ele>72.806742</ele>
        <time>2020-07-31T08:29:49.197Z</time>
      </trkpt>
      <trkpt lat="62.36895" lon="6.00898">
        <ele>72.925712</ele>
        <time>2020-07-31T08:29:52.223Z</time>
      </trkpt>
      <trkpt lat="62.36901" lon="6.00917">
        <ele>73.049141</ele>
        <time>2020-07-31T08:29:55.184Z</time>
      </trkpt>
      <trkpt lat="62.36906" lon="6.00938">
        <ele>73.176387</ele>
        <time>2020-07-31T08:29:58.157Z</time>
      </trkpt>
      <trkpt lat="62.3691" lon="6.00959">
        <ele>73.301378</ele>
        <time>2020-07-31T08:30:01.176Z</time>
      </trkpt>
      <trkpt lat="62.36916" lon="6.00981">
        <ele>73.436903</ele>
        <time>2020-07-31T08:30:04.175Z</time>
      </trkpt>
      <trkpt lat="62.36923" lon="6.01005">
        <ele>73.583229</ele>
        <time>2020-07-31T08:30:07.190Z</time>
      </trkpt>
      <trkpt lat="62.3693" lon="6.01029">
        <ele>73.73597</ele>
        <time>2020-07-31T08:30:10.197Z</time>
      </trkpt>
      <trkpt lat="62.36936" lon="6.01054">
        <ele>73.891454</ele>
        <time>2020-07-31T08:30:13.169Z</time>
      </trkpt>
      <trkpt lat="62.36942" lon="6.01078">
        <ele>74.040707</ele>
        <time>2020-07-31T08:30:16.192Z</time>
      </trkpt>
      <trkpt lat="62.36949" lon="6.01106">
        <ele>74.179475</ele>
        <time>2020-07-31T08:30:19.216Z</time>
      </trkpt>
      <trkpt lat="62.36955" lon="6.01128">
        <ele>74.192483</ele>
        <time>2020-07-31T08:30:21.174Z</time>
      </trkpt>
      <trkpt lat="62.36962" lon="6.01151">
        <ele>74.206686</ele>
        <time>2020-07-31T08:30:23.162Z</time>
      </trkpt>
      <trkpt lat="62.36969" lon="6.01176">
        <ele>74.2209</ele>
        <time>2020-07-31T08:30:25.189Z</time>
      </trkpt>
      <trkpt lat="62.36976" lon="6.01196">
        <ele>74.233286</ele>
        <time>2020-07-31T08:30:27.180Z</time>
      </trkpt>
      <trkpt lat="62.36982" lon="6.01212">
        <ele>74.243529</ele>
        <time>2020-07-31T08:30:29.177Z</time>
      </trkpt>
      <trkpt lat="62.36988" lon="6.01233">
        <ele>74.256076</ele>
        <time>2020-07-31T08:30:32.154Z</time>
      </trkpt>
      <trkpt lat="62.36994" lon="6.01252">
        <ele>74.26746</ele>
        <time>2020-07-31T08:30:35.170Z</time>
      </trkpt>
      <trkpt lat="62.37" lon="6.01269">
        <ele>74.277723</ele>
        <time>2020-07-31T08:30:38.196Z</time>
      </trkpt>
      <trkpt lat="62.37003" lon="6.01288">
        <ele>74.287584</ele>
        <time>2020-07-31T08:30:41.176Z</time>
      </trkpt>
      <trkpt lat="62.37005" lon="6.01312">
        <ele>74.299953</ele>
        <time>2020-07-31T08:30:45.180Z</time>
      </trkpt>
      <trkpt lat="62.37004" lon="6.01338">
        <ele>74.31306</ele>
        <time>2020-07-31T08:30:49.201Z</time>
      </trkpt>
      <trkpt lat="62.37" lon="6.01362">
        <ele>74.325923</ele>
        <time>2020-07-31T08:30:52.151Z</time>
      </trkpt>
      <trkpt lat="62.36996" lon="6.0138">
        <ele>74.33586</ele>
        <time>2020-07-31T08:30:54.168Z</time>
      </trkpt>
      <trkpt lat="62.36992" lon="6.014">
        <ele>74.346383</ele>
        <time>2020-07-31T08:30:56.174Z</time>
      </trkpt>
      <trkpt lat="62.36988" lon="6.01419">
        <ele>74.356647</ele>
        <time>2020-07-31T08:30:58.164Z</time>
      </trkpt>
      <trkpt lat="62.36985" lon="6.01437">
        <ele>74.366357</ele>
        <time>2020-07-31T08:31:00.208Z</time>
      </trkpt>
      <trkpt lat="62.36982" lon="6.01456">
        <ele>74.230387</ele>
        <time>2020-07-31T08:31:02.150Z</time>
      </trkpt>
      <trkpt lat="62.36979" lon="6.01479">
        <ele>73.97909</ele>
        <time>2020-07-31T08:31:04.179Z</time>
      </trkpt>
      <trkpt lat="62.36975" lon="6.01502">
        <ele>73.711135</ele>
        <time>2020-07-31T08:31:06.212Z</time>
      </trkpt>
      <trkpt lat="62.36971" lon="6.01527">
        <ele>73.423237</ele>
        <time>2020-07-31T08:31:08.175Z</time>
      </trkpt>
      <trkpt lat="62.36966" lon="6.01553">
        <ele>73.131462</ele>
        <time>2020-07-31T08:31:10.209Z</time>
      </trkpt>
      <trkpt lat="62.36963" lon="6.01577">
        <ele>72.85208</ele>
        <time>2020-07-31T08:31:12.188Z</time>
      </trkpt>
      <trkpt lat="62.36958" lon="6.01602">
        <ele>72.573166</ele>
        <time>2020-07-31T08:31:14.181Z</time>
      </trkpt>
      <trkpt lat="62.36954" lon="6.01626">
        <ele>72.291745</ele>
        <time>2020-07-31T08:31:16.190Z</time>
      </trkpt>
      <trkpt lat="62.3695" lon="6.01651">
        <ele>72.015349</ele>
        <time>2020-07-31T08:31:18.187Z</time>
      </trkpt>
      <trkpt lat="62.36946" lon="6.01673">
        <ele>71.755958</ele>
        <time>2020-07-31T08:31:20.170Z</time>
      </trkpt>
      <trkpt lat="62.36943" lon="6.01693">
        <ele>71.527172</ele>
        <time>2020-07-31T08:31:22.154Z</time>
      </trkpt>
      <trkpt lat="62.36941" lon="6.01714">
        <ele>71.30074</ele>
        <time>2020-07-31T08:31:24.207Z</time>
      </trkpt>
      <trkpt lat="62.36939" lon="6.01735">
        <ele>71.068007</ele>
        <time>2020-07-31T08:31:26.172Z</time>
      </trkpt>
      <trkpt lat="62.36937" lon="6.01758">
        <ele>70.817398</ele>
        <time>2020-07-31T08:31:28.189Z</time>
      </trkpt>
      <trkpt lat="62.36935" lon="6.01781">
        <ele>70.566588</ele>
        <time>2020-07-31T08:31:30.159Z</time>
      </trkpt>
      <trkpt lat="62.36933" lon="6.01804">
        <ele>70.319136</ele>
        <time>2020-07-31T08:31:32.175Z</time>
      </trkpt>
      <trkpt lat="62.36931" lon="6.01825">
        <ele>70.104976</ele>
        <time>2020-07-31T08:31:34.190Z</time>
      </trkpt>
      <trkpt lat="62.36929" lon="6.01845">
        <ele>69.917268</ele>
        <time>2020-07-31T08:31:36.215Z</time>
      </trkpt>
      <trkpt lat="62.36927" lon="6.01866">
        <ele>69.724706</ele>
        <time>2020-07-31T08:31:38.207Z</time>
      </trkpt>
      <trkpt lat="62.36925" lon="6.01887">
        <ele>69.529198</ele>
        <time>2020-07-31T08:31:40.181Z</time>
      </trkpt>
      <trkpt lat="62.36924" lon="6.01907">
        <ele>69.337638</ele>
        <time>2020-07-31T08:31:42.191Z</time>
      </trkpt>
      <trkpt lat="62.36923" lon="6.01931">
        <ele>69.122448</ele>
        <time>2020-07-31T08:31:44.180Z</time>
      </trkpt>
      <trkpt lat="62.36922" lon="6.01955">
        <ele>68.896397</ele>
        <time>2020-07-31T08:31:46.191Z</time>
      </trkpt>
      <trkpt lat="62.36922" lon="6.0198">
        <ele>68.675123</ele>
        <time>2020-07-31T08:31:48.201Z</time>
      </trkpt>
      <trkpt lat="62.36923" lon="6.02003">
        <ele>68.461137</ele>
        <time>2020-07-31T08:31:50.163Z</time>
      </trkpt>
      <trkpt lat="62.36923" lon="6.02026">
        <ele>68.255179</ele>
        <time>2020-07-31T08:31:52.187Z</time>
      </trkpt>
      <trkpt lat="62.36924" lon="6.02046">
        <ele>68.063833</ele>
        <time>2020-07-31T08:31:54.177Z</time>
      </trkpt>
      <trkpt lat="62.36924" lon="6.02066">
        <ele>67.880291</ele>
        <time>2020-07-31T08:31:56.161Z</time>
      </trkpt>
      <trkpt lat="62.36926" lon="6.02095">
        <ele>67.621671</ele>
        <time>2020-07-31T08:31:59.159Z</time>
      </trkpt>
      <trkpt lat="62.3693" lon="6.02121">
        <ele>67.368934</ele>
        <time>2020-07-31T08:32:02.157Z</time>
      </trkpt>
      <trkpt lat="62.36934" lon="6.02139">
        <ele>67.188937</ele>
        <time>2020-07-31T08:32:04.201Z</time>
      </trkpt>
      <trkpt lat="62.36939" lon="6.02155">
        <ele>67.007193</ele>
        <time>2020-07-31T08:32:06.177Z</time>
      </trkpt>
      <trkpt lat="62.36944" lon="6.02173">
        <ele>66.818383</ele>
        <time>2020-07-31T08:32:08.210Z</time>
      </trkpt>
      <trkpt lat="62.36949" lon="6.02192">
        <ele>66.623353</ele>
        <time>2020-07-31T08:32:10.148Z</time>
      </trkpt>
      <trkpt lat="62.36953" lon="6.02217">
        <ele>66.435813</ele>
        <time>2020-07-31T08:32:12.199Z</time>
      </trkpt>
      <trkpt lat="62.36954" lon="6.02243">
        <ele>66.241407</ele>
        <time>2020-07-31T08:32:14.172Z</time>
      </trkpt>
      <trkpt lat="62.36954" lon="6.0227">
        <ele>66.051505</ele>
        <time>2020-07-31T08:32:16.176Z</time>
      </trkpt>
      <trkpt lat="62.36956" lon="6.02294">
        <ele>65.871119</ele>
        <time>2020-07-31T08:32:18.168Z</time>
      </trkpt>
      <trkpt lat="62.3696" lon="6.02319">
        <ele>65.681976</ele>
        <time>2020-07-31T08:32:20.192Z</time>
      </trkpt>
      <trkpt lat="62.36965" lon="6.02346">
        <ele>65.4688</ele>
        <time>2020-07-31T08:32:22.150Z</time>
      </trkpt>
      <trkpt lat="62.36971" lon="6.02376">
        <ele>65.234716</ele>
        <time>2020-07-31T08:32:24.196Z</time>
      </trkpt>
      <trkpt lat="62.36976" lon="6.02406">
        <ele>65.001796</ele>
        <time>2020-07-31T08:32:26.189Z</time>
      </trkpt>
      <trkpt lat="62.36982" lon="6.02437">
        <ele>64.768522</ele>
        <time>2020-07-31T08:32:28.189Z</time>
      </trkpt>
      <trkpt lat="62.36987" lon="6.02466">
        <ele>64.540099</ele>
        <time>2020-07-31T08:32:30.154Z</time>
      </trkpt>
      <trkpt lat="62.36993" lon="6.02495">
        <ele>64.306913</ele>
        <time>2020-07-31T08:32:32.172Z</time>
      </trkpt>
      <trkpt lat="62.36998" lon="6.02525">
        <ele>64.082704</ele>
        <time>2020-07-31T08:32:34.207Z</time>
      </trkpt>
      <trkpt lat="62.37" lon="6.02552">
        <ele>63.884323</ele>
        <time>2020-07-31T08:32:36.196Z</time>
      </trkpt>
      <trkpt lat="62.36999" lon="6.02576">
        <ele>63.41888</ele>
        <time>2020-07-31T08:32:38.174Z</time>
      </trkpt>
      <trkpt lat="62.37" lon="6.02599">
        <ele>62.910824</ele>
        <time>2020-07-31T08:32:40.176Z</time>
      </trkpt>
      <trkpt lat="62.37002" lon="6.0262">
        <ele>62.44616</ele>
        <time>2020-07-31T08:32:42.181Z</time>
      </trkpt>
      <trkpt lat="62.37005" lon="6.0264">
        <ele>61.982874</ele>
        <time>2020-07-31T08:32:44.172Z</time>
      </trkpt>
      <trkpt lat="62.37009" lon="6.02665">
        <ele>61.406442</ele>
        <time>2020-07-31T08:32:47.190Z</time>
      </trkpt>
      <trkpt lat="62.37011" lon="6.02684">
        <ele>60.982695</ele>
        <time>2020-07-31T08:32:51.192Z</time>
      </trkpt>
      <trkpt lat="62.37004" lon="6.02697">
        <ele>60.539234</ele>
        <time>2020-07-31T08:32:56.174Z</time>
      </trkpt>
      <trkpt lat="62.37001" lon="6.02717">
        <ele>60.084772</ele>
        <time>2020-07-31T08:33:00.159Z</time>
      </trkpt>
      <trkpt lat="62.37005" lon="6.02741">
        <ele>59.544129</ele>
        <time>2020-07-31T08:33:03.200Z</time>
      </trkpt>
      <trkpt lat="62.37007" lon="6.02763">
        <ele>59.048685</ele>
        <time>2020-07-31T08:33:06.200Z</time>
      </trkpt>
      <trkpt lat="62.37012" lon="6.0279">
        <ele>58.445681</ele>
        <time>2020-07-31T08:33:09.184Z</time>
      </trkpt>
      <trkpt lat="62.37015" lon="6.02809">
        <ele>57.98632</ele>
        <time>2020-07-31T08:33:11.168Z</time>
      </trkpt>
      <trkpt lat="62.37019" lon="6.0283">
        <ele>57.494369</ele>
        <time>2020-07-31T08:33:13.165Z</time>
      </trkpt>
      <trkpt lat="62.37023" lon="6.02852">
        <ele>56.993157</ele>
        <time>2020-07-31T08:33:15.211Z</time>
      </trkpt>
      <trkpt lat="62.37025" lon="6.02872">
        <ele>56.541141</ele>
        <time>2020-07-31T08:33:17.151Z</time>
      </trkpt>
      <trkpt lat="62.37024" lon="6.02898">
        <ele>55.98674</ele>
        <time>2020-07-31T08:33:20.223Z</time>
      </trkpt>
      <trkpt lat="62.37018" lon="6.02913">
        <ele>55.540111</ele>
        <time>2020-07-31T08:33:23.192Z</time>
      </trkpt>
      <trkpt lat="62.37021" lon="6.02935">
        <ele>55.328702</ele>
        <time>2020-07-31T08:33:30.168Z</time>
      </trkpt>
      <trkpt lat="62.37014" lon="6.0295">
        <ele>55.189643</ele>
        <time>2020-07-31T08:33:36.155Z</time>
      </trkpt>
      <trkpt lat="62.37003" lon="6.02955">
        <ele>55.027302</ele>
        <time>2020-07-31T08:33:40.167Z</time>
      </trkpt>
      <trkpt lat="62.36994" lon="6.0296">
        <ele>54.899004</ele>
        <time>2020-07-31T08:33:43.158Z</time>
      </trkpt>
      <trkpt lat="62.36985" lon="6.02966">
        <ele>54.757511</ele>
        <time>2020-07-31T08:33:46.186Z</time>
      </trkpt>
      <trkpt lat="62.36976" lon="6.02974">
        <ele>54.620724</ele>
        <time>2020-07-31T08:33:49.200Z</time>
      </trkpt>
      <trkpt lat="62.36966" lon="6.02983">
        <ele>54.474923</ele>
        <time>2020-07-31T08:33:52.187Z</time>
      </trkpt>
      <trkpt lat="62.36957" lon="6.02993">
        <ele>54.327815</ele>
        <time>2020-07-31T08:33:55.234Z</time>
      </trkpt>
      <trkpt lat="62.36949" lon="6.03004">
        <ele>54.18587</ele>
        <time>2020-07-31T08:33:58.177Z</time>
      </trkpt>
      <trkpt lat="62.3694" lon="6.03014">
        <ele>54.047207</ele>
        <time>2020-07-31T08:34:01.181Z</time>
      </trkpt>
      <trkpt lat="62.3693" lon="6.03025">
        <ele>53.886636</ele>
        <time>2020-07-31T08:34:05.197Z</time>
      </trkpt>
      <trkpt lat="62.36928" lon="6.03044">
        <ele>53.75337</ele>
        <time>2020-07-31T08:34:10.175Z</time>
      </trkpt>
      <trkpt lat="62.36933" lon="6.0306">
        <ele>53.625784</ele>
        <time>2020-07-31T08:34:14.166Z</time>
      </trkpt>
      <trkpt lat="62.36933" lon="6.03081">
        <ele>53.487667</ele>
        <time>2020-07-31T08:34:21.152Z</time>
      </trkpt>
      <trkpt lat="62.36922" lon="6.03089">
        <ele>53.326284</ele>
        <time>2020-07-31T08:34:25.192Z</time>
      </trkpt>
      <trkpt lat="62.36913" lon="6.03103">
        <ele>53.16579</ele>
        <time>2020-07-31T08:34:29.167Z</time>
      </trkpt>
      <trkpt lat="62.36904" lon="6.03118">
        <ele>52.999546</ele>
        <time>2020-07-31T08:34:33.172Z</time>
      </trkpt>
      <trkpt lat="62.36896" lon="6.03132">
        <ele>52.907784</ele>
        <time>2020-07-31T08:34:37.200Z</time>
      </trkpt>
      <trkpt lat="62.3692" lon="6.03118">
        <ele>53.104975</ele>
        <time>2020-07-31T08:39:55.160Z</time>
      </trkpt>
      <trkpt lat="62.3693" lon="6.03106">
        <ele>53.198099</ele>
        <time>2020-07-31T08:39:58.181Z</time>
      </trkpt>
      <trkpt lat="62.36941" lon="6.03092">
        <ele>53.304927</ele>
        <time>2020-07-31T08:40:01.155Z</time>
      </trkpt>
      <trkpt lat="62.36949" lon="6.03083">
        <ele>53.379553</ele>
        <time>2020-07-31T08:40:03.176Z</time>
      </trkpt>
      <trkpt lat="62.36958" lon="6.03073">
        <ele>53.454689</ele>
        <time>2020-07-31T08:40:05.167Z</time>
      </trkpt>
      <trkpt lat="62.36966" lon="6.03063">
        <ele>53.530908</ele>
        <time>2020-07-31T08:40:07.150Z</time>
      </trkpt>
      <trkpt lat="62.36974" lon="6.03053">
        <ele>53.607498</ele>
        <time>2020-07-31T08:40:09.153Z</time>
      </trkpt>
      <trkpt lat="62.36982" lon="6.03043">
        <ele>53.683532</ele>
        <time>2020-07-31T08:40:11.173Z</time>
      </trkpt>
      <trkpt lat="62.36995" lon="6.03035">
        <ele>53.790578</ele>
        <time>2020-07-31T08:40:14.158Z</time>
      </trkpt>
      <trkpt lat="62.37008" lon="6.03032">
        <ele>53.892985</ele>
        <time>2020-07-31T08:40:17.161Z</time>
      </trkpt>
      <trkpt lat="62.37017" lon="6.03041">
        <ele>53.975746</ele>
        <time>2020-07-31T08:40:20.154Z</time>
      </trkpt>
      <trkpt lat="62.37022" lon="6.03057">
        <ele>54.048677</ele>
        <time>2020-07-31T08:40:23.155Z</time>
      </trkpt>
      <trkpt lat="62.37026" lon="6.03075">
        <ele>54.123567</ele>
        <time>2020-07-31T08:40:27.171Z</time>
      </trkpt>
      <trkpt lat="62.3703" lon="6.03092">
        <ele>54.19641</ele>
        <time>2020-07-31T08:40:33.162Z</time>
      </trkpt>
      <trkpt lat="62.37071" lon="6.03198">
        <ele>54.268413</ele>
        <time>2020-07-31T08:41:08.172Z</time>
      </trkpt>
      <trkpt lat="62.37077" lon="6.03217">
        <ele>54.251174</ele>
        <time>2020-07-31T08:41:10.158Z</time>
      </trkpt>
      <trkpt lat="62.37031" lon="6.0315">
        <ele>54.15925</ele>
        <time>2020-07-31T08:44:05.168Z</time>
      </trkpt>
      <trkpt lat="62.37021" lon="6.03138">
        <ele>54.140339</ele>
        <time>2020-07-31T08:44:08.177Z</time>
      </trkpt>
      <trkpt lat="62.3939" lon="6.15828">
        <ele>40.838822</ele>
        <time>2020-07-31T09:03:45.482Z</time>
      </trkpt>
      <trkpt lat="62.39406" lon="6.15916">
        <ele>43.140044</ele>
        <time>2020-07-31T09:03:55.095Z</time>
      </trkpt>
      <trkpt lat="62.3941" lon="6.15937">
        <ele>44.088171</ele>
        <time>2020-07-31T09:04:02.104Z</time>
      </trkpt>
      <trkpt lat="62.39417" lon="6.15959">
        <ele>45.120143</ele>
        <time>2020-07-31T09:04:05.095Z</time>
      </trkpt>
      <trkpt lat="62.39421" lon="6.15977">
        <ele>45.924895</ele>
        <time>2020-07-31T09:04:07.100Z</time>
      </trkpt>
      <trkpt lat="62.39426" lon="6.15994">
        <ele>46.7087</ele>
        <time>2020-07-31T09:04:09.110Z</time>
      </trkpt>
      <trkpt lat="62.39433" lon="6.16011">
        <ele>47.633651</ele>
        <time>2020-07-31T09:04:11.095Z</time>
      </trkpt>
      <trkpt lat="62.39438" lon="6.16029">
        <ele>48.499894</ele>
        <time>2020-07-31T09:04:13.147Z</time>
      </trkpt>
      <trkpt lat="62.39444" lon="6.16049">
        <ele>49.442265</ele>
        <time>2020-07-31T09:04:17.090Z</time>
      </trkpt>
      <trkpt lat="62.39449" lon="6.16073">
        <ele>50.492079</ele>
        <time>2020-07-31T09:04:22.109Z</time>
      </trkpt>
      <trkpt lat="62.39455" lon="6.1609">
        <ele>51.333992</ele>
        <time>2020-07-31T09:04:25.098Z</time>
      </trkpt>
      <trkpt lat="62.39461" lon="6.16104">
        <ele>52.123928</ele>
        <time>2020-07-31T09:04:28.087Z</time>
      </trkpt>
      <trkpt lat="62.39467" lon="6.1612">
        <ele>52.963603</ele>
        <time>2020-07-31T09:04:31.091Z</time>
      </trkpt>
      <trkpt lat="62.39472" lon="6.16139">
        <ele>53.825389</ele>
        <time>2020-07-31T09:04:34.104Z</time>
      </trkpt>
      <trkpt lat="62.39477" lon="6.16157">
        <ele>54.647713</ele>
        <time>2020-07-31T09:04:37.139Z</time>
      </trkpt>
      <trkpt lat="62.39481" lon="6.16175">
        <ele>55.45774</ele>
        <time>2020-07-31T09:04:40.091Z</time>
      </trkpt>
      <trkpt lat="62.39484" lon="6.16194">
        <ele>55.897223</ele>
        <time>2020-07-31T09:04:44.109Z</time>
      </trkpt>
      <trkpt lat="62.39487" lon="6.16213">
        <ele>56.068379</ele>
        <time>2020-07-31T09:04:50.107Z</time>
      </trkpt>
      <trkpt lat="62.39489" lon="6.16236">
        <ele>56.266478</ele>
        <time>2020-07-31T09:04:55.114Z</time>
      </trkpt>
      <trkpt lat="62.39496" lon="6.16285">
        <ele>56.697576</ele>
        <time>2020-07-31T09:05:09.096Z</time>
      </trkpt>
      <trkpt lat="62.39499" lon="6.16307">
        <ele>56.889803</ele>
        <time>2020-07-31T09:05:17.117Z</time>
      </trkpt>
      <trkpt lat="62.39507" lon="6.16351">
        <ele>57.29108</ele>
        <time>2020-07-31T09:07:02.088Z</time>
      </trkpt>
      <trkpt lat="62.39501" lon="6.16391">
        <ele>57.655131</ele>
        <time>2020-07-31T09:07:07.111Z</time>
      </trkpt>
      <trkpt lat="62.39506" lon="6.16432">
        <ele>58.009466</ele>
        <time>2020-07-31T09:09:00.094Z</time>
      </trkpt>
      <trkpt lat="62.39505" lon="6.16453">
        <ele>58.189522</ele>
        <time>2020-07-31T09:09:02.113Z</time>
      </trkpt>
      <trkpt lat="62.39504" lon="6.16475">
        <ele>58.377264</ele>
        <time>2020-07-31T09:09:04.132Z</time>
      </trkpt>
      <trkpt lat="62.39503" lon="6.16497">
        <ele>58.559852</ele>
        <time>2020-07-31T09:09:06.111Z</time>
      </trkpt>
      <trkpt lat="62.39505" lon="6.16524">
        <ele>58.796737</ele>
        <time>2020-07-31T09:09:09.130Z</time>
      </trkpt>
      <trkpt lat="62.39511" lon="6.16549">
        <ele>59.033323</ele>
        <time>2020-07-31T09:09:12.106Z</time>
      </trkpt>
      <trkpt lat="62.39516" lon="6.16575">
        <ele>59.140204</ele>
        <time>2020-07-31T09:09:15.091Z</time>
      </trkpt>
      <trkpt lat="62.3952" lon="6.16599">
        <ele>59.207189</ele>
        <time>2020-07-31T09:09:18.126Z</time>
      </trkpt>
      <trkpt lat="62.39524" lon="6.1662">
        <ele>59.267074</ele>
        <time>2020-07-31T09:09:21.131Z</time>
      </trkpt>
      <trkpt lat="62.39527" lon="6.1664">
        <ele>59.323545</ele>
        <time>2020-07-31T09:09:24.084Z</time>
      </trkpt>
      <trkpt lat="62.39531" lon="6.16658">
        <ele>59.376139</ele>
        <time>2020-07-31T09:09:27.112Z</time>
      </trkpt>
      <trkpt lat="62.39535" lon="6.16676">
        <ele>59.427089</ele>
        <time>2020-07-31T09:09:30.161Z</time>
      </trkpt>
      <trkpt lat="62.39539" lon="6.16699">
        <ele>59.491063</ele>
        <time>2020-07-31T09:09:34.133Z</time>
      </trkpt>
      <trkpt lat="62.39543" lon="6.16718">
        <ele>59.546565</ele>
        <time>2020-07-31T09:09:38.114Z</time>
      </trkpt>
      <trkpt lat="62.39547" lon="6.16737">
        <ele>59.60059</ele>
        <time>2020-07-31T09:09:42.128Z</time>
      </trkpt>
      <trkpt lat="62.3955" lon="6.16756">
        <ele>59.651767</ele>
        <time>2020-07-31T09:09:47.116Z</time>
      </trkpt>
      <trkpt lat="62.39553" lon="6.16775">
        <ele>59.704495</ele>
        <time>2020-07-31T09:09:52.118Z</time>
      </trkpt>
      <trkpt lat="62.39556" lon="6.16795">
        <ele>59.759213</ele>
        <time>2020-07-31T09:09:58.091Z</time>
      </trkpt>
      <trkpt lat="62.3956" lon="6.16814">
        <ele>59.814057</ele>
        <time>2020-07-31T09:10:04.089Z</time>
      </trkpt>
      <trkpt lat="62.39561" lon="6.16835">
        <ele>59.870181</ele>
        <time>2020-07-31T09:10:10.133Z</time>
      </trkpt>
      <trkpt lat="62.39563" lon="6.16857">
        <ele>59.928206</ele>
        <time>2020-07-31T09:10:16.095Z</time>
      </trkpt>
      <trkpt lat="62.39566" lon="6.16876">
        <ele>59.978834</ele>
        <time>2020-07-31T09:10:22.099Z</time>
      </trkpt>
      <trkpt lat="62.39568" lon="6.16895">
        <ele>60.029841</ele>
        <time>2020-07-31T09:10:28.091Z</time>
      </trkpt>
      <trkpt lat="62.39568" lon="6.16915">
        <ele>60.080695</ele>
        <time>2020-07-31T09:10:34.088Z</time>
      </trkpt>
      <trkpt lat="62.39569" lon="6.16936">
        <ele>60.440645</ele>
        <time>2020-07-31T09:10:41.097Z</time>
      </trkpt>
      <trkpt lat="62.39569" lon="6.16956">
        <ele>60.921966</ele>
        <time>2020-07-31T09:10:48.123Z</time>
      </trkpt>
      <trkpt lat="62.39569" lon="6.16977">
        <ele>61.419051</ele>
        <time>2020-07-31T09:10:55.116Z</time>
      </trkpt>
      <trkpt lat="62.39571" lon="6.16997">
        <ele>61.915194</ele>
        <time>2020-07-31T09:11:02.122Z</time>
      </trkpt>
      <trkpt lat="62.39572" lon="6.17017">
        <ele>62.394141</ele>
        <time>2020-07-31T09:11:09.085Z</time>
      </trkpt>
      <trkpt lat="62.39571" lon="6.17039">
        <ele>62.899532</ele>
        <time>2020-07-31T09:11:17.090Z</time>
      </trkpt>
      <trkpt lat="62.39574" lon="6.17061">
        <ele>63.455429</ele>
        <time>2020-07-31T09:11:23.138Z</time>
      </trkpt>
      <trkpt lat="62.39576" lon="6.17082">
        <ele>63.959928</ele>
        <time>2020-07-31T09:11:29.083Z</time>
      </trkpt>
      <trkpt lat="62.39577" lon="6.17103">
        <ele>64.454312</ele>
        <time>2020-07-31T09:11:35.133Z</time>
      </trkpt>
      <trkpt lat="62.39577" lon="6.17124">
        <ele>64.959077</ele>
        <time>2020-07-31T09:11:41.134Z</time>
      </trkpt>
      <trkpt lat="62.39578" lon="6.17143">
        <ele>65.419413</ele>
        <time>2020-07-31T09:11:47.119Z</time>
      </trkpt>
      <trkpt lat="62.39579" lon="6.17163">
        <ele>65.909944</ele>
        <time>2020-07-31T09:11:53.111Z</time>
      </trkpt>
      <trkpt lat="62.39579" lon="6.17185">
        <ele>66.433179</ele>
        <time>2020-07-31T09:11:59.118Z</time>
      </trkpt>
      <trkpt lat="62.39579" lon="6.17208">
        <ele>66.975944</ele>
        <time>2020-07-31T09:12:05.096Z</time>
      </trkpt>
      <trkpt lat="62.39578" lon="6.17228">
        <ele>67.454146</ele>
        <time>2020-07-31T09:12:10.145Z</time>
      </trkpt>
      <trkpt lat="62.39578" lon="6.17252">
        <ele>68.015538</ele>
        <time>2020-07-31T09:12:15.100Z</time>
      </trkpt>
      <trkpt lat="62.39579" lon="6.17272">
        <ele>68.49631</ele>
        <time>2020-07-31T09:12:19.130Z</time>
      </trkpt>
      <trkpt lat="62.39579" lon="6.17291">
        <ele>68.954275</ele>
        <time>2020-07-31T09:12:23.132Z</time>
      </trkpt>
      <trkpt lat="62.3958" lon="6.17314">
        <ele>69.354044</ele>
        <time>2020-07-31T09:12:27.095Z</time>
      </trkpt>
      <trkpt lat="62.3958" lon="6.17338">
        <ele>69.448044</ele>
        <time>2020-07-31T09:12:31.084Z</time>
      </trkpt>
      <trkpt lat="62.3958" lon="6.17359">
        <ele>69.530107</ele>
        <time>2020-07-31T09:12:34.159Z</time>
      </trkpt>
      <trkpt lat="62.39579" lon="6.1738">
        <ele>69.612446</ele>
        <time>2020-07-31T09:12:37.086Z</time>
      </trkpt>
      <trkpt lat="62.39579" lon="6.17402">
        <ele>69.694896</ele>
        <time>2020-07-31T09:12:40.124Z</time>
      </trkpt>
      <trkpt lat="62.39579" lon="6.17422">
        <ele>69.774975</ele>
        <time>2020-07-31T09:12:43.101Z</time>
      </trkpt>
      <trkpt lat="62.3958" lon="6.17443">
        <ele>69.854408</ele>
        <time>2020-07-31T09:12:46.134Z</time>
      </trkpt>
      <trkpt lat="62.39581" lon="6.17462">
        <ele>69.930054</ele>
        <time>2020-07-31T09:12:49.089Z</time>
      </trkpt>
      <trkpt lat="62.39581" lon="6.17488">
        <ele>70.029155</ele>
        <time>2020-07-31T09:12:53.089Z</time>
      </trkpt>
      <trkpt lat="62.39582" lon="6.17513">
        <ele>70.125551</ele>
        <time>2020-07-31T09:12:57.110Z</time>
      </trkpt>
      <trkpt lat="62.39582" lon="6.17538">
        <ele>70.224266</ele>
        <time>2020-07-31T09:13:01.097Z</time>
      </trkpt>
      <trkpt lat="62.39583" lon="6.17563">
        <ele>70.321789</ele>
        <time>2020-07-31T09:13:05.109Z</time>
      </trkpt>
      <trkpt lat="62.39584" lon="6.17584">
        <ele>70.400277</ele>
        <time>2020-07-31T09:13:08.108Z</time>
      </trkpt>
      <trkpt lat="62.39584" lon="6.17603">
        <ele>70.47693</ele>
        <time>2020-07-31T09:13:11.140Z</time>
      </trkpt>
      <trkpt lat="62.39584" lon="6.17628">
        <ele>70.570974</ele>
        <time>2020-07-31T09:13:15.093Z</time>
      </trkpt>
      <trkpt lat="62.39584" lon="6.17653">
        <ele>70.668068</ele>
        <time>2020-07-31T09:13:19.095Z</time>
      </trkpt>
      <trkpt lat="62.39584" lon="6.17672">
        <ele>70.743492</ele>
        <time>2020-07-31T09:13:22.121Z</time>
      </trkpt>
      <trkpt lat="62.39584" lon="6.17697">
        <ele>70.839922</ele>
        <time>2020-07-31T09:13:26.127Z</time>
      </trkpt>
      <trkpt lat="62.39584" lon="6.17721">
        <ele>70.941677</ele>
        <time>2020-07-31T09:13:30.103Z</time>
      </trkpt>
      <trkpt lat="62.39584" lon="6.17745">
        <ele>71.04302</ele>
        <time>2020-07-31T09:13:34.113Z</time>
      </trkpt>
      <trkpt lat="62.39584" lon="6.17765">
        <ele>71.12654</ele>
        <time>2020-07-31T09:13:37.094Z</time>
      </trkpt>
      <trkpt lat="62.39584" lon="6.17784">
        <ele>71.209717</ele>
        <time>2020-07-31T09:13:40.124Z</time>
      </trkpt>
      <trkpt lat="62.39584" lon="6.17805">
        <ele>71.296224</ele>
        <time>2020-07-31T09:13:43.093Z</time>
      </trkpt>
      <trkpt lat="62.39583" lon="6.17825">
        <ele>71.380835</ele>
        <time>2020-07-31T09:13:46.124Z</time>
      </trkpt>
      <trkpt lat="62.39583" lon="6.17845">
        <ele>71.469448</ele>
        <time>2020-07-31T09:13:49.095Z</time>
      </trkpt>
      <trkpt lat="62.39584" lon="6.17868">
        <ele>71.564349</ele>
        <time>2020-07-31T09:13:52.104Z</time>
      </trkpt>
      <trkpt lat="62.39584" lon="6.17892">
        <ele>71.667376</ele>
        <time>2020-07-31T09:13:55.106Z</time>
      </trkpt>
      <trkpt lat="62.39584" lon="6.17917">
        <ele>71.772194</ele>
        <time>2020-07-31T09:13:58.108Z</time>
      </trkpt>
      <trkpt lat="62.39585" lon="6.1794">
        <ele>71.87167</ele>
        <time>2020-07-31T09:14:01.104Z</time>
      </trkpt>
      <trkpt lat="62.39585" lon="6.17963">
        <ele>71.970034</ele>
        <time>2020-07-31T09:14:04.090Z</time>
      </trkpt>
      <trkpt lat="62.39585" lon="6.17987">
        <ele>72.070512</ele>
        <time>2020-07-31T09:14:07.102Z</time>
      </trkpt>
      <trkpt lat="62.39585" lon="6.1801">
        <ele>72.166332</ele>
        <time>2020-07-31T09:14:10.138Z</time>
      </trkpt>
      <trkpt lat="62.39585" lon="6.18033">
        <ele>72.266454</ele>
        <time>2020-07-31T09:14:13.107Z</time>
      </trkpt>
      <trkpt lat="62.39586" lon="6.18058">
        <ele>72.372214</ele>
        <time>2020-07-31T09:14:16.093Z</time>
      </trkpt>
      <trkpt lat="62.39587" lon="6.18083">
        <ele>72.479858</ele>
        <time>2020-07-31T09:14:19.098Z</time>
      </trkpt>
      <trkpt lat="62.39589" lon="6.18108">
        <ele>72.57584</ele>
        <time>2020-07-31T09:14:22.130Z</time>
      </trkpt>
      <trkpt lat="62.39591" lon="6.18133">
        <ele>72.67069</ele>
        <time>2020-07-31T09:14:25.116Z</time>
      </trkpt>
      <trkpt lat="62.39593" lon="6.18159">
        <ele>72.769865</ele>
        <time>2020-07-31T09:14:28.103Z</time>
      </trkpt>
      <trkpt lat="62.39595" lon="6.18183">
        <ele>72.863706</ele>
        <time>2020-07-31T09:14:31.150Z</time>
      </trkpt>
      <trkpt lat="62.39597" lon="6.18208">
        <ele>72.958992</ele>
        <time>2020-07-31T09:14:34.101Z</time>
      </trkpt>
      <trkpt lat="62.39599" lon="6.18232">
        <ele>73.051966</ele>
        <time>2020-07-31T09:14:37.135Z</time>
      </trkpt>
      <trkpt lat="62.39601" lon="6.18257">
        <ele>73.149648</ele>
        <time>2020-07-31T09:14:40.132Z</time>
      </trkpt>
      <trkpt lat="62.39603" lon="6.18281">
        <ele>73.244407</ele>
        <time>2020-07-31T09:14:43.100Z</time>
      </trkpt>
      <trkpt lat="62.39605" lon="6.18306">
        <ele>73.337247</ele>
        <time>2020-07-31T09:14:46.108Z</time>
      </trkpt>
      <trkpt lat="62.39607" lon="6.1833">
        <ele>73.433436</ele>
        <time>2020-07-31T09:14:49.096Z</time>
      </trkpt>
      <trkpt lat="62.39609" lon="6.18356">
        <ele>73.530663</ele>
        <time>2020-07-31T09:14:52.133Z</time>
      </trkpt>
      <trkpt lat="62.3961" lon="6.18381">
        <ele>73.626057</ele>
        <time>2020-07-31T09:14:55.109Z</time>
      </trkpt>
      <trkpt lat="62.39612" lon="6.18404">
        <ele>73.717144</ele>
        <time>2020-07-31T09:14:58.113Z</time>
      </trkpt>
      <trkpt lat="62.39614" lon="6.18428">
        <ele>73.807792</ele>
        <time>2020-07-31T09:15:01.136Z</time>
      </trkpt>
      <trkpt lat="62.39616" lon="6.18449">
        <ele>73.891937</ele>
        <time>2020-07-31T09:15:04.101Z</time>
      </trkpt>
      <trkpt lat="62.39618" lon="6.18473">
        <ele>73.837789</ele>
        <time>2020-07-31T09:15:07.134Z</time>
      </trkpt>
      <trkpt lat="62.3962" lon="6.18499">
        <ele>73.465459</ele>
        <time>2020-07-31T09:15:10.108Z</time>
      </trkpt>
      <trkpt lat="62.39622" lon="6.18525">
        <ele>73.083325</ele>
        <time>2020-07-31T09:15:13.185Z</time>
      </trkpt>
      <trkpt lat="62.39624" lon="6.18554">
        <ele>72.673143</ele>
        <time>2020-07-31T09:15:16.097Z</time>
      </trkpt>
      <trkpt lat="62.39626" lon="6.18574">
        <ele>72.381861</ele>
        <time>2020-07-31T09:15:18.100Z</time>
      </trkpt>
      <trkpt lat="62.39627" lon="6.18594">
        <ele>72.089676</ele>
        <time>2020-07-31T09:15:20.121Z</time>
      </trkpt>
      <trkpt lat="62.39629" lon="6.18615">
        <ele>71.781536</ele>
        <time>2020-07-31T09:15:22.106Z</time>
      </trkpt>
      <trkpt lat="62.39631" lon="6.18636">
        <ele>71.484126</ele>
        <time>2020-07-31T09:15:24.125Z</time>
      </trkpt>
      <trkpt lat="62.39633" lon="6.18656">
        <ele>71.191443</ele>
        <time>2020-07-31T09:15:26.084Z</time>
      </trkpt>
      <trkpt lat="62.39634" lon="6.18677">
        <ele>70.892797</ele>
        <time>2020-07-31T09:15:28.113Z</time>
      </trkpt>
      <trkpt lat="62.39635" lon="6.18699">
        <ele>70.58602</ele>
        <time>2020-07-31T09:15:30.110Z</time>
      </trkpt>
      <trkpt lat="62.39636" lon="6.1872">
        <ele>70.278569</ele>
        <time>2020-07-31T09:15:32.137Z</time>
      </trkpt>
      <trkpt lat="62.39637" lon="6.18741">
        <ele>69.975976</ele>
        <time>2020-07-31T09:15:34.101Z</time>
      </trkpt>
      <trkpt lat="62.39638" lon="6.18763">
        <ele>69.660047</ele>
        <time>2020-07-31T09:15:36.109Z</time>
      </trkpt>
      <trkpt lat="62.39639" lon="6.18785">
        <ele>69.343775</ele>
        <time>2020-07-31T09:15:38.128Z</time>
      </trkpt>
      <trkpt lat="62.3964" lon="6.18808">
        <ele>69.016156</ele>
        <time>2020-07-31T09:15:40.110Z</time>
      </trkpt>
      <trkpt lat="62.39641" lon="6.18831">
        <ele>68.694881</ele>
        <time>2020-07-31T09:15:42.095Z</time>
      </trkpt>
      <trkpt lat="62.39642" lon="6.18854">
        <ele>68.355579</ele>
        <time>2020-07-31T09:15:44.133Z</time>
      </trkpt>
      <trkpt lat="62.39642" lon="6.18877">
        <ele>67.960503</ele>
        <time>2020-07-31T09:15:46.121Z</time>
      </trkpt>
      <trkpt lat="62.39642" lon="6.189">
        <ele>67.563718</ele>
        <time>2020-07-31T09:15:48.103Z</time>
      </trkpt>
      <trkpt lat="62.39643" lon="6.18924">
        <ele>67.163244</ele>
        <time>2020-07-31T09:15:50.101Z</time>
      </trkpt>
      <trkpt lat="62.39642" lon="6.18948">
        <ele>66.752787</ele>
        <time>2020-07-31T09:15:52.099Z</time>
      </trkpt>
      <trkpt lat="62.39642" lon="6.18972">
        <ele>66.342463</ele>
        <time>2020-07-31T09:15:54.100Z</time>
      </trkpt>
      <trkpt lat="62.39642" lon="6.18995">
        <ele>65.933449</ele>
        <time>2020-07-31T09:15:56.136Z</time>
      </trkpt>
      <trkpt lat="62.39642" lon="6.1902">
        <ele>65.506046</ele>
        <time>2020-07-31T09:15:58.153Z</time>
      </trkpt>
      <trkpt lat="62.39642" lon="6.19047">
        <ele>65.052757</ele>
        <time>2020-07-31T09:16:00.111Z</time>
      </trkpt>
      <trkpt lat="62.39641" lon="6.19074">
        <ele>64.589437</ele>
        <time>2020-07-31T09:16:02.079Z</time>
      </trkpt>
      <trkpt lat="62.39641" lon="6.19101">
        <ele>64.132732</ele>
        <time>2020-07-31T09:16:04.122Z</time>
      </trkpt>
      <trkpt lat="62.3964" lon="6.19129">
        <ele>63.648011</ele>
        <time>2020-07-31T09:16:06.092Z</time>
      </trkpt>
      <trkpt lat="62.39639" lon="6.19159">
        <ele>63.139335</ele>
        <time>2020-07-31T09:16:08.173Z</time>
      </trkpt>
      <trkpt lat="62.39637" lon="6.19191">
        <ele>62.588491</ele>
        <time>2020-07-31T09:16:10.110Z</time>
      </trkpt>
      <trkpt lat="62.39635" lon="6.19224">
        <ele>62.013629</ele>
        <time>2020-07-31T09:16:12.150Z</time>
      </trkpt>
      <trkpt lat="62.39633" lon="6.19258">
        <ele>61.700749</ele>
        <time>2020-07-31T09:16:14.095Z</time>
      </trkpt>
      <trkpt lat="62.39631" lon="6.19293">
        <ele>61.546849</ele>
        <time>2020-07-31T09:16:16.121Z</time>
      </trkpt>
      <trkpt lat="62.39628" lon="6.19328">
        <ele>61.391955</ele>
        <time>2020-07-31T09:16:18.122Z</time>
      </trkpt>
      <trkpt lat="62.39625" lon="6.19361">
        <ele>61.243134</ele>
        <time>2020-07-31T09:16:20.095Z</time>
      </trkpt>
      <trkpt lat="62.39622" lon="6.19394">
        <ele>61.096036</ele>
        <time>2020-07-31T09:16:22.115Z</time>
      </trkpt>
      <trkpt lat="62.39619" lon="6.19424">
        <ele>60.958615</ele>
        <time>2020-07-31T09:16:24.101Z</time>
      </trkpt>
      <trkpt lat="62.39616" lon="6.19453">
        <ele>60.830188</ele>
        <time>2020-07-31T09:16:26.111Z</time>
      </trkpt>
      <trkpt lat="62.39613" lon="6.19479">
        <ele>60.710316</ele>
        <time>2020-07-31T09:16:28.120Z</time>
      </trkpt>
      <trkpt lat="62.3961" lon="6.19504">
        <ele>60.600077</ele>
        <time>2020-07-31T09:16:30.123Z</time>
      </trkpt>
      <trkpt lat="62.39608" lon="6.19526">
        <ele>60.500334</ele>
        <time>2020-07-31T09:16:32.092Z</time>
      </trkpt>
      <trkpt lat="62.39607" lon="6.19549">
        <ele>60.398105</ele>
        <time>2020-07-31T09:16:34.101Z</time>
      </trkpt>
      <trkpt lat="62.39606" lon="6.19571">
        <ele>60.300095</ele>
        <time>2020-07-31T09:16:36.146Z</time>
      </trkpt>
      <trkpt lat="62.39607" lon="6.19594">
        <ele>60.199543</ele>
        <time>2020-07-31T09:16:38.133Z</time>
      </trkpt>
      <trkpt lat="62.39609" lon="6.19617">
        <ele>60.098785</ele>
        <time>2020-07-31T09:16:40.122Z</time>
      </trkpt>
      <trkpt lat="62.3961" lon="6.19639">
        <ele>60.425177</ele>
        <time>2020-07-31T09:16:42.115Z</time>
      </trkpt>
      <trkpt lat="62.39612" lon="6.19661">
        <ele>60.784599</ele>
        <time>2020-07-31T09:16:44.125Z</time>
      </trkpt>
      <trkpt lat="62.39614" lon="6.19683">
        <ele>61.139354</ele>
        <time>2020-07-31T09:16:46.117Z</time>
      </trkpt>
      <trkpt lat="62.39616" lon="6.19705">
        <ele>61.496074</ele>
        <time>2020-07-31T09:16:48.100Z</time>
      </trkpt>
      <trkpt lat="62.39618" lon="6.19726">
        <ele>61.840333</ele>
        <time>2020-07-31T09:16:50.097Z</time>
      </trkpt>
      <trkpt lat="62.39621" lon="6.19746">
        <ele>62.186789</ele>
        <time>2020-07-31T09:16:52.132Z</time>
      </trkpt>
      <trkpt lat="62.39624" lon="6.19766">
        <ele>62.522388</ele>
        <time>2020-07-31T09:16:54.086Z</time>
      </trkpt>
      <trkpt lat="62.39628" lon="6.19785">
        <ele>62.841753</ele>
        <time>2020-07-31T09:16:56.139Z</time>
      </trkpt>
      <trkpt lat="62.39631" lon="6.19804">
        <ele>63.163334</ele>
        <time>2020-07-31T09:16:58.098Z</time>
      </trkpt>
      <trkpt lat="62.39633" lon="6.19823">
        <ele>63.485021</ele>
        <time>2020-07-31T09:17:00.107Z</time>
      </trkpt>
      <trkpt lat="62.39636" lon="6.19842">
        <ele>63.797804</ele>
        <time>2020-07-31T09:17:02.110Z</time>
      </trkpt>
      <trkpt lat="62.39639" lon="6.19869">
        <ele>64.242735</ele>
        <time>2020-07-31T09:17:05.135Z</time>
      </trkpt>
      <trkpt lat="62.39642" lon="6.19893">
        <ele>64.655003</ele>
        <time>2020-07-31T09:17:08.145Z</time>
      </trkpt>
      <trkpt lat="62.39646" lon="6.19917">
        <ele>65.05607</ele>
        <time>2020-07-31T09:17:11.105Z</time>
      </trkpt>
      <trkpt lat="62.39649" lon="6.19942">
        <ele>65.47395</ele>
        <time>2020-07-31T09:17:14.127Z</time>
      </trkpt>
      <trkpt lat="62.39652" lon="6.19965">
        <ele>65.851651</ele>
        <time>2020-07-31T09:17:17.097Z</time>
      </trkpt>
      <trkpt lat="62.39654" lon="6.19988">
        <ele>66.228607</ele>
        <time>2020-07-31T09:17:20.094Z</time>
      </trkpt>
      <trkpt lat="62.39657" lon="6.20011">
        <ele>66.502455</ele>
        <time>2020-07-31T09:17:23.096Z</time>
      </trkpt>
      <trkpt lat="62.3966" lon="6.20034">
        <ele>66.737325</ele>
        <time>2020-07-31T09:17:26.118Z</time>
      </trkpt>
      <trkpt lat="62.39663" lon="6.20057">
        <ele>66.972342</ele>
        <time>2020-07-31T09:17:29.101Z</time>
      </trkpt>
      <trkpt lat="62.39665" lon="6.20079">
        <ele>67.204738</ele>
        <time>2020-07-31T09:17:32.098Z</time>
      </trkpt>
      <trkpt lat="62.39668" lon="6.20104">
        <ele>67.465066</ele>
        <time>2020-07-31T09:17:35.119Z</time>
      </trkpt>
      <trkpt lat="62.39672" lon="6.20129">
        <ele>67.72808</ele>
        <time>2020-07-31T09:17:38.100Z</time>
      </trkpt>
      <trkpt lat="62.39675" lon="6.20155">
        <ele>67.993253</ele>
        <time>2020-07-31T09:17:41.151Z</time>
      </trkpt>
      <trkpt lat="62.39679" lon="6.20181">
        <ele>68.261364</ele>
        <time>2020-07-31T09:17:44.114Z</time>
      </trkpt>
      <trkpt lat="62.39682" lon="6.20207">
        <ele>68.533329</ele>
        <time>2020-07-31T09:17:47.098Z</time>
      </trkpt>
      <trkpt lat="62.39685" lon="6.20234">
        <ele>68.81083</ele>
        <time>2020-07-31T09:17:50.140Z</time>
      </trkpt>
      <trkpt lat="62.39689" lon="6.2026">
        <ele>69.087968</ele>
        <time>2020-07-31T09:17:53.142Z</time>
      </trkpt>
      <trkpt lat="62.39693" lon="6.20286">
        <ele>69.360231</ele>
        <time>2020-07-31T09:17:56.136Z</time>
      </trkpt>
      <trkpt lat="62.39697" lon="6.2031">
        <ele>69.615578</ele>
        <time>2020-07-31T09:17:59.146Z</time>
      </trkpt>
      <trkpt lat="62.39699" lon="6.20334">
        <ele>69.859719</ele>
        <time>2020-07-31T09:18:02.115Z</time>
      </trkpt>
      <trkpt lat="62.39702" lon="6.20358">
        <ele>70.10787</ele>
        <time>2020-07-31T09:18:05.114Z</time>
      </trkpt>
      <trkpt lat="62.39705" lon="6.20379">
        <ele>70.272162</ele>
        <time>2020-07-31T09:18:08.112Z</time>
      </trkpt>
      <trkpt lat="62.39708" lon="6.20401">
        <ele>70.386988</ele>
        <time>2020-07-31T09:18:11.088Z</time>
      </trkpt>
      <trkpt lat="62.3971" lon="6.20421">
        <ele>70.493752</ele>
        <time>2020-07-31T09:18:14.088Z</time>
      </trkpt>
      <trkpt lat="62.39712" lon="6.20441">
        <ele>70.602268</ele>
        <time>2020-07-31T09:18:17.118Z</time>
      </trkpt>
      <trkpt lat="62.39714" lon="6.20461">
        <ele>70.707442</ele>
        <time>2020-07-31T09:18:20.084Z</time>
      </trkpt>
      <trkpt lat="62.39715" lon="6.20486">
        <ele>70.837733</ele>
        <time>2020-07-31T09:18:24.108Z</time>
      </trkpt>
      <trkpt lat="62.39716" lon="6.20505">
        <ele>70.939011</ele>
        <time>2020-07-31T09:18:27.085Z</time>
      </trkpt>
      <trkpt lat="62.39718" lon="6.20525">
        <ele>71.043315</ele>
        <time>2020-07-31T09:18:30.121Z</time>
      </trkpt>
      <trkpt lat="62.39718" lon="6.20549">
        <ele>71.170966</ele>
        <time>2020-07-31T09:18:34.090Z</time>
      </trkpt>
      <trkpt lat="62.39721" lon="6.20574">
        <ele>71.304399</ele>
        <time>2020-07-31T09:18:38.124Z</time>
      </trkpt>
      <trkpt lat="62.39723" lon="6.20598">
        <ele>71.430861</ele>
        <time>2020-07-31T09:18:42.101Z</time>
      </trkpt>
      <trkpt lat="62.39724" lon="6.20621">
        <ele>71.55045</ele>
        <time>2020-07-31T09:18:46.104Z</time>
      </trkpt>
      <trkpt lat="62.39727" lon="6.20644">
        <ele>71.675437</ele>
        <time>2020-07-31T09:18:50.118Z</time>
      </trkpt>
      <trkpt lat="62.39731" lon="6.20669">
        <ele>71.811164</ele>
        <time>2020-07-31T09:18:54.093Z</time>
      </trkpt>
      <trkpt lat="62.39733" lon="6.20689">
        <ele>71.918365</ele>
        <time>2020-07-31T09:18:57.098Z</time>
      </trkpt>
      <trkpt lat="62.39735" lon="6.20713">
        <ele>72.048934</ele>
        <time>2020-07-31T09:19:01.122Z</time>
      </trkpt>
      <trkpt lat="62.39738" lon="6.20733">
        <ele>72.153443</ele>
        <time>2020-07-31T09:19:04.080Z</time>
      </trkpt>
      <trkpt lat="62.39742" lon="6.20753">
        <ele>72.2824</ele>
        <time>2020-07-31T09:19:07.085Z</time>
      </trkpt>
      <trkpt lat="62.39747" lon="6.20775">
        <ele>72.44551</ele>
        <time>2020-07-31T09:19:10.140Z</time>
      </trkpt>
      <trkpt lat="62.39751" lon="6.20797">
        <ele>72.606823</ele>
        <time>2020-07-31T09:19:13.104Z</time>
      </trkpt>
      <trkpt lat="62.39755" lon="6.2082">
        <ele>72.775147</ele>
        <time>2020-07-31T09:19:16.135Z</time>
      </trkpt>
      <trkpt lat="62.3976" lon="6.20843">
        <ele>72.94444</ele>
        <time>2020-07-31T09:19:19.112Z</time>
      </trkpt>
      <trkpt lat="62.39763" lon="6.20864">
        <ele>73.093015</ele>
        <time>2020-07-31T09:19:22.128Z</time>
      </trkpt>
      <trkpt lat="62.39766" lon="6.20885">
        <ele>73.243691</ele>
        <time>2020-07-31T09:19:25.129Z</time>
      </trkpt>
      <trkpt lat="62.39771" lon="6.20906">
        <ele>73.396983</ele>
        <time>2020-07-31T09:19:28.100Z</time>
      </trkpt>
      <trkpt lat="62.39774" lon="6.20926">
        <ele>73.54445</ele>
        <time>2020-07-31T09:19:31.091Z</time>
      </trkpt>
      <trkpt lat="62.39778" lon="6.20948">
        <ele>73.698693</ele>
        <time>2020-07-31T09:19:34.117Z</time>
      </trkpt>
      <trkpt lat="62.39781" lon="6.20969">
        <ele>73.849258</ele>
        <time>2020-07-31T09:19:37.100Z</time>
      </trkpt>
      <trkpt lat="62.39784" lon="6.20989">
        <ele>73.996046</ele>
        <time>2020-07-31T09:19:40.105Z</time>
      </trkpt>
      <trkpt lat="62.39787" lon="6.21011">
        <ele>74.147155</ele>
        <time>2020-07-31T09:19:43.107Z</time>
      </trkpt>
      <trkpt lat="62.39789" lon="6.21032">
        <ele>74.294987</ele>
        <time>2020-07-31T09:19:46.116Z</time>
      </trkpt>
      <trkpt lat="62.39792" lon="6.21054">
        <ele>74.448403</ele>
        <time>2020-07-31T09:19:49.099Z</time>
      </trkpt>
      <trkpt lat="62.39794" lon="6.21078">
        <ele>74.613332</ele>
        <time>2020-07-31T09:19:52.168Z</time>
      </trkpt>
      <trkpt lat="62.39798" lon="6.21101">
        <ele>74.777334</ele>
        <time>2020-07-31T09:19:55.114Z</time>
      </trkpt>
      <trkpt lat="62.398" lon="6.21125">
        <ele>74.96256</ele>
        <time>2020-07-31T09:19:58.105Z</time>
      </trkpt>
      <trkpt lat="62.39802" lon="6.21149">
        <ele>75.172289</ele>
        <time>2020-07-31T09:20:01.102Z</time>
      </trkpt>
      <trkpt lat="62.39804" lon="6.21172">
        <ele>75.373256</ele>
        <time>2020-07-31T09:20:04.089Z</time>
      </trkpt>
      <trkpt lat="62.39808" lon="6.21195">
        <ele>75.578897</ele>
        <time>2020-07-31T09:20:07.108Z</time>
      </trkpt>
      <trkpt lat="62.39812" lon="6.21219">
        <ele>75.792579</ele>
        <time>2020-07-31T09:20:10.106Z</time>
      </trkpt>
      <trkpt lat="62.39814" lon="6.21243">
        <ele>75.999296</ele>
        <time>2020-07-31T09:20:13.119Z</time>
      </trkpt>
      <trkpt lat="62.39817" lon="6.21267">
        <ele>76.209723</ele>
        <time>2020-07-31T09:20:16.116Z</time>
      </trkpt>
      <trkpt lat="62.39819" lon="6.21293">
        <ele>76.42964</ele>
        <time>2020-07-31T09:20:19.095Z</time>
      </trkpt>
      <trkpt lat="62.39822" lon="6.21318">
        <ele>76.645847</ele>
        <time>2020-07-31T09:20:22.094Z</time>
      </trkpt>
      <trkpt lat="62.39825" lon="6.21342">
        <ele>76.860402</ele>
        <time>2020-07-31T09:20:25.093Z</time>
      </trkpt>
      <trkpt lat="62.39827" lon="6.21367">
        <ele>77.072904</ele>
        <time>2020-07-31T09:20:28.129Z</time>
      </trkpt>
      <trkpt lat="62.3983" lon="6.21394">
        <ele>77.306131</ele>
        <time>2020-07-31T09:20:31.105Z</time>
      </trkpt>
      <trkpt lat="62.39831" lon="6.21413">
        <ele>77.471231</ele>
        <time>2020-07-31T09:20:33.094Z</time>
      </trkpt>
      <trkpt lat="62.39833" lon="6.21433">
        <ele>77.645078</ele>
        <time>2020-07-31T09:20:35.129Z</time>
      </trkpt>
      <trkpt lat="62.39834" lon="6.21454">
        <ele>77.823953</ele>
        <time>2020-07-31T09:20:37.151Z</time>
      </trkpt>
      <trkpt lat="62.39836" lon="6.21475">
        <ele>78.000313</ele>
        <time>2020-07-31T09:20:39.108Z</time>
      </trkpt>
      <trkpt lat="62.39836" lon="6.21495">
        <ele>78.089951</ele>
        <time>2020-07-31T09:20:41.105Z</time>
      </trkpt>
      <trkpt lat="62.39837" lon="6.21515">
        <ele>77.851723</ele>
        <time>2020-07-31T09:20:43.135Z</time>
      </trkpt>
      <trkpt lat="62.39838" lon="6.21536">
        <ele>77.609202</ele>
        <time>2020-07-31T09:20:45.096Z</time>
      </trkpt>
      <trkpt lat="62.39837" lon="6.21557">
        <ele>77.364699</ele>
        <time>2020-07-31T09:20:47.114Z</time>
      </trkpt>
      <trkpt lat="62.39837" lon="6.21583">
        <ele>77.052329</ele>
        <time>2020-07-31T09:20:50.135Z</time>
      </trkpt>
      <trkpt lat="62.39836" lon="6.2161">
        <ele>76.746097</ele>
        <time>2020-07-31T09:20:53.111Z</time>
      </trkpt>
      <trkpt lat="62.39835" lon="6.21636">
        <ele>76.431494</ele>
        <time>2020-07-31T09:20:56.131Z</time>
      </trkpt>
      <trkpt lat="62.39835" lon="6.21665">
        <ele>76.097061</ele>
        <time>2020-07-31T09:20:59.110Z</time>
      </trkpt>
      <trkpt lat="62.39836" lon="6.21685">
        <ele>75.865168</ele>
        <time>2020-07-31T09:21:01.143Z</time>
      </trkpt>
      <trkpt lat="62.39838" lon="6.21704">
        <ele>75.635032</ele>
        <time>2020-07-31T09:21:03.149Z</time>
      </trkpt>
      <trkpt lat="62.39841" lon="6.21722">
        <ele>75.403633</ele>
        <time>2020-07-31T09:21:05.117Z</time>
      </trkpt>
      <trkpt lat="62.39846" lon="6.21741">
        <ele>75.158476</ele>
        <time>2020-07-31T09:21:07.115Z</time>
      </trkpt>
      <trkpt lat="62.3985" lon="6.2176">
        <ele>74.91194</ele>
        <time>2020-07-31T09:21:09.120Z</time>
      </trkpt>
      <trkpt lat="62.39855" lon="6.21779">
        <ele>74.658154</ele>
        <time>2020-07-31T09:21:11.122Z</time>
      </trkpt>
      <trkpt lat="62.39859" lon="6.21798">
        <ele>74.408733</ele>
        <time>2020-07-31T09:21:13.105Z</time>
      </trkpt>
      <trkpt lat="62.39864" lon="6.21817">
        <ele>74.164625</ele>
        <time>2020-07-31T09:21:15.092Z</time>
      </trkpt>
      <trkpt lat="62.39869" lon="6.21836">
        <ele>73.91138</ele>
        <time>2020-07-31T09:21:17.110Z</time>
      </trkpt>
      <trkpt lat="62.39872" lon="6.21855">
        <ele>73.670523</ele>
        <time>2020-07-31T09:21:19.098Z</time>
      </trkpt>
      <trkpt lat="62.39876" lon="6.21873">
        <ele>73.436717</ele>
        <time>2020-07-31T09:21:21.097Z</time>
      </trkpt>
      <trkpt lat="62.3988" lon="6.21892">
        <ele>73.19522</ele>
        <time>2020-07-31T09:21:23.109Z</time>
      </trkpt>
      <trkpt lat="62.39884" lon="6.2191">
        <ele>72.967804</ele>
        <time>2020-07-31T09:21:25.118Z</time>
      </trkpt>
      <trkpt lat="62.39888" lon="6.21927">
        <ele>72.745044</ele>
        <time>2020-07-31T09:21:27.130Z</time>
      </trkpt>
      <trkpt lat="62.39892" lon="6.21953">
        <ele>72.43922</ele>
        <time>2020-07-31T09:21:30.096Z</time>
      </trkpt>
      <trkpt lat="62.39896" lon="6.21978">
        <ele>72.134855</ele>
        <time>2020-07-31T09:21:33.096Z</time>
      </trkpt>
      <trkpt lat="62.399" lon="6.22004">
        <ele>71.813768</ele>
        <time>2020-07-31T09:21:36.115Z</time>
      </trkpt>
      <trkpt lat="62.39904" lon="6.22031">
        <ele>71.485623</ele>
        <time>2020-07-31T09:21:39.129Z</time>
      </trkpt>
      <trkpt lat="62.39908" lon="6.22059">
        <ele>71.162198</ele>
        <time>2020-07-31T09:21:42.102Z</time>
      </trkpt>
      <trkpt lat="62.39912" lon="6.22084">
        <ele>70.851264</ele>
        <time>2020-07-31T09:21:45.125Z</time>
      </trkpt>
      <trkpt lat="62.39915" lon="6.22111">
        <ele>70.53335</ele>
        <time>2020-07-31T09:21:48.156Z</time>
      </trkpt>
      <trkpt lat="62.3992" lon="6.22136">
        <ele>70.218648</ele>
        <time>2020-07-31T09:21:51.085Z</time>
      </trkpt>
      <trkpt lat="62.39926" lon="6.22162">
        <ele>69.896998</ele>
        <time>2020-07-31T09:21:54.158Z</time>
      </trkpt>
      <trkpt lat="62.3993" lon="6.2218">
        <ele>69.665863</ele>
        <time>2020-07-31T09:21:56.090Z</time>
      </trkpt>
      <trkpt lat="62.39934" lon="6.22198">
        <ele>69.437599</ele>
        <time>2020-07-31T09:21:58.087Z</time>
      </trkpt>
      <trkpt lat="62.39938" lon="6.22215">
        <ele>69.213784</ele>
        <time>2020-07-31T09:22:00.088Z</time>
      </trkpt>
      <trkpt lat="62.39942" lon="6.22233">
        <ele>69.18922</ele>
        <time>2020-07-31T09:22:02.093Z</time>
      </trkpt>
      <trkpt lat="62.39946" lon="6.22251">
        <ele>69.252086</ele>
        <time>2020-07-31T09:22:04.129Z</time>
      </trkpt>
      <trkpt lat="62.39951" lon="6.2227">
        <ele>69.319259</ele>
        <time>2020-07-31T09:22:06.124Z</time>
      </trkpt>
      <trkpt lat="62.39956" lon="6.22289">
        <ele>69.387589</ele>
        <time>2020-07-31T09:22:08.096Z</time>
      </trkpt>
      <trkpt lat="62.39961" lon="6.22307">
        <ele>69.453481</ele>
        <time>2020-07-31T09:22:10.115Z</time>
      </trkpt>
      <trkpt lat="62.39965" lon="6.22325">
        <ele>69.517157</ele>
        <time>2020-07-31T09:22:12.094Z</time>
      </trkpt>
      <trkpt lat="62.39969" lon="6.22344">
        <ele>69.58461</ele>
        <time>2020-07-31T09:22:14.107Z</time>
      </trkpt>
      <trkpt lat="62.39974" lon="6.22365">
        <ele>69.658286</ele>
        <time>2020-07-31T09:22:16.120Z</time>
      </trkpt>
      <trkpt lat="62.39979" lon="6.22386">
        <ele>69.733683</ele>
        <time>2020-07-31T09:22:18.110Z</time>
      </trkpt>
      <trkpt lat="62.39983" lon="6.22408">
        <ele>69.80767</ele>
        <time>2020-07-31T09:22:20.093Z</time>
      </trkpt>
      <trkpt lat="62.39987" lon="6.2243">
        <ele>69.882779</ele>
        <time>2020-07-31T09:22:22.121Z</time>
      </trkpt>
      <trkpt lat="62.39992" lon="6.22451">
        <ele>69.957319</ele>
        <time>2020-07-31T09:22:24.114Z</time>
      </trkpt>
      <trkpt lat="62.39997" lon="6.22471">
        <ele>70.028134</ele>
        <time>2020-07-31T09:22:26.101Z</time>
      </trkpt>
      <trkpt lat="62.40001" lon="6.22492">
        <ele>70.100111</ele>
        <time>2020-07-31T09:22:28.138Z</time>
      </trkpt>
      <trkpt lat="62.40006" lon="6.22512">
        <ele>70.172093</ele>
        <time>2020-07-31T09:22:30.088Z</time>
      </trkpt>
      <trkpt lat="62.4001" lon="6.22531">
        <ele>70.238315</ele>
        <time>2020-07-31T09:22:32.109Z</time>
      </trkpt>
      <trkpt lat="62.40014" lon="6.22549">
        <ele>70.300303</ele>
        <time>2020-07-31T09:22:34.132Z</time>
      </trkpt>
      <trkpt lat="62.4002" lon="6.22572">
        <ele>70.445685</ele>
        <time>2020-07-31T09:22:37.114Z</time>
      </trkpt>
      <trkpt lat="62.40026" lon="6.22597">
        <ele>70.871568</ele>
        <time>2020-07-31T09:22:40.113Z</time>
      </trkpt>
      <trkpt lat="62.40032" lon="6.22623">
        <ele>71.309219</ele>
        <time>2020-07-31T09:22:43.092Z</time>
      </trkpt>
      <trkpt lat="62.40037" lon="6.22648">
        <ele>71.717995</ele>
        <time>2020-07-31T09:22:46.108Z</time>
      </trkpt>
      <trkpt lat="62.40042" lon="6.22673">
        <ele>72.12677</ele>
        <time>2020-07-31T09:22:49.133Z</time>
      </trkpt>
      <trkpt lat="62.40047" lon="6.22694">
        <ele>72.497326</ele>
        <time>2020-07-31T09:22:52.123Z</time>
      </trkpt>
      <trkpt lat="62.40052" lon="6.22714">
        <ele>72.824867</ele>
        <time>2020-07-31T09:22:55.112Z</time>
      </trkpt>
      <trkpt lat="62.40057" lon="6.22737">
        <ele>73.219387</ele>
        <time>2020-07-31T09:22:58.094Z</time>
      </trkpt>
      <trkpt lat="62.40062" lon="6.2276">
        <ele>73.615739</ele>
        <time>2020-07-31T09:23:01.106Z</time>
      </trkpt>
      <trkpt lat="62.40068" lon="6.22783">
        <ele>74.006717</ele>
        <time>2020-07-31T09:23:04.118Z</time>
      </trkpt>
      <trkpt lat="62.40073" lon="6.22805">
        <ele>74.378485</ele>
        <time>2020-07-31T09:23:07.092Z</time>
      </trkpt>
      <trkpt lat="62.40078" lon="6.22827">
        <ele>74.758985</ele>
        <time>2020-07-31T09:23:10.090Z</time>
      </trkpt>
      <trkpt lat="62.40083" lon="6.2285">
        <ele>75.131939</ele>
        <time>2020-07-31T09:23:13.131Z</time>
      </trkpt>
      <trkpt lat="62.40088" lon="6.22873">
        <ele>75.52419</ele>
        <time>2020-07-31T09:23:16.117Z</time>
      </trkpt>
      <trkpt lat="62.40093" lon="6.22898">
        <ele>75.942566</ele>
        <time>2020-07-31T09:23:19.103Z</time>
      </trkpt>
      <trkpt lat="62.40098" lon="6.22923">
        <ele>76.228616</ele>
        <time>2020-07-31T09:23:22.114Z</time>
      </trkpt>
      <trkpt lat="62.40102" lon="6.22946">
        <ele>76.083329</ele>
        <time>2020-07-31T09:23:25.131Z</time>
      </trkpt>
      <trkpt lat="62.40107" lon="6.22969">
        <ele>75.938659</ele>
        <time>2020-07-31T09:23:28.129Z</time>
      </trkpt>
      <trkpt lat="62.40112" lon="6.22991">
        <ele>75.796618</ele>
        <time>2020-07-31T09:23:31.114Z</time>
      </trkpt>
      <trkpt lat="62.40118" lon="6.23014">
        <ele>75.646488</ele>
        <time>2020-07-31T09:23:34.119Z</time>
      </trkpt>
      <trkpt lat="62.40122" lon="6.23037">
        <ele>75.498525</ele>
        <time>2020-07-31T09:23:37.106Z</time>
      </trkpt>
      <trkpt lat="62.40127" lon="6.2306">
        <ele>75.352799</ele>
        <time>2020-07-31T09:23:40.134Z</time>
      </trkpt>
      <trkpt lat="62.40131" lon="6.23084">
        <ele>75.203227</ele>
        <time>2020-07-31T09:23:43.102Z</time>
      </trkpt>
      <trkpt lat="62.40136" lon="6.23108">
        <ele>75.052857</ele>
        <time>2020-07-31T09:23:46.089Z</time>
      </trkpt>
      <trkpt lat="62.40139" lon="6.23132">
        <ele>74.909096</ele>
        <time>2020-07-31T09:23:49.150Z</time>
      </trkpt>
      <trkpt lat="62.40143" lon="6.23154">
        <ele>74.770941</ele>
        <time>2020-07-31T09:23:52.137Z</time>
      </trkpt>
      <trkpt lat="62.40145" lon="6.23177">
        <ele>74.636496</ele>
        <time>2020-07-31T09:23:55.101Z</time>
      </trkpt>
      <trkpt lat="62.40148" lon="6.232">
        <ele>74.502858</ele>
        <time>2020-07-31T09:23:58.104Z</time>
      </trkpt>
      <trkpt lat="62.4015" lon="6.23221">
        <ele>74.374583</ele>
        <time>2020-07-31T09:24:01.091Z</time>
      </trkpt>
      <trkpt lat="62.40152" lon="6.23243">
        <ele>74.242126</ele>
        <time>2020-07-31T09:24:04.117Z</time>
      </trkpt>
      <trkpt lat="62.40154" lon="6.23265">
        <ele>74.11238</ele>
        <time>2020-07-31T09:24:07.101Z</time>
      </trkpt>
      <trkpt lat="62.40157" lon="6.2329">
        <ele>74.230317</ele>
        <time>2020-07-31T09:24:11.093Z</time>
      </trkpt>
      <trkpt lat="62.40158" lon="6.23314">
        <ele>74.947484</ele>
        <time>2020-07-31T09:24:15.093Z</time>
      </trkpt>
      <trkpt lat="62.4016" lon="6.23337">
        <ele>75.648286</ele>
        <time>2020-07-31T09:24:19.108Z</time>
      </trkpt>
      <trkpt lat="62.40164" lon="6.23358">
        <ele>76.318286</ele>
        <time>2020-07-31T09:24:23.112Z</time>
      </trkpt>
      <trkpt lat="62.40167" lon="6.23381">
        <ele>77.009579</ele>
        <time>2020-07-31T09:24:27.104Z</time>
      </trkpt>
      <trkpt lat="62.40169" lon="6.23403">
        <ele>77.687108</ele>
        <time>2020-07-31T09:24:31.125Z</time>
      </trkpt>
      <trkpt lat="62.40171" lon="6.23424">
        <ele>78.325349</ele>
        <time>2020-07-31T09:24:35.102Z</time>
      </trkpt>
      <trkpt lat="62.40174" lon="6.23446">
        <ele>79.030423</ele>
        <time>2020-07-31T09:24:40.120Z</time>
      </trkpt>
      <trkpt lat="62.40178" lon="6.23465">
        <ele>79.635504</ele>
        <time>2020-07-31T09:24:44.145Z</time>
      </trkpt>
      <trkpt lat="62.40181" lon="6.23483">
        <ele>80.209981</ele>
        <time>2020-07-31T09:24:48.085Z</time>
      </trkpt>
      <trkpt lat="62.40184" lon="6.23502">
        <ele>80.810375</ele>
        <time>2020-07-31T09:24:52.160Z</time>
      </trkpt>
      <trkpt lat="62.40187" lon="6.23524">
        <ele>81.479271</ele>
        <time>2020-07-31T09:24:57.101Z</time>
      </trkpt>
      <trkpt lat="62.4019" lon="6.23544">
        <ele>82.129674</ele>
        <time>2020-07-31T09:25:02.102Z</time>
      </trkpt>
      <trkpt lat="62.40193" lon="6.23565">
        <ele>82.782021</ele>
        <time>2020-07-31T09:25:08.121Z</time>
      </trkpt>
      <trkpt lat="62.40199" lon="6.23585">
        <ele>83.461655</ele>
        <time>2020-07-31T09:25:13.144Z</time>
      </trkpt>
      <trkpt lat="62.40203" lon="6.23606">
        <ele>84.145114</ele>
        <time>2020-07-31T09:25:18.117Z</time>
      </trkpt>
      <trkpt lat="62.40208" lon="6.23624">
        <ele>84.754011</ele>
        <time>2020-07-31T09:25:23.092Z</time>
      </trkpt>
      <trkpt lat="62.40212" lon="6.23642">
        <ele>85.376048</ele>
        <time>2020-07-31T09:25:28.115Z</time>
      </trkpt>
      <trkpt lat="62.40218" lon="6.23661">
        <ele>86.024124</ele>
        <time>2020-07-31T09:25:33.102Z</time>
      </trkpt>
      <trkpt lat="62.40222" lon="6.2368">
        <ele>86.62856</ele>
        <time>2020-07-31T09:25:38.087Z</time>
      </trkpt>
      <trkpt lat="62.40228" lon="6.23699">
        <ele>87.292046</ele>
        <time>2020-07-31T09:25:43.116Z</time>
      </trkpt>
      <trkpt lat="62.40235" lon="6.23715">
        <ele>87.954353</ele>
        <time>2020-07-31T09:25:48.126Z</time>
      </trkpt>
      <trkpt lat="62.40242" lon="6.23731">
        <ele>88.594916</ele>
        <time>2020-07-31T09:25:53.102Z</time>
      </trkpt>
      <trkpt lat="62.40249" lon="6.23749">
        <ele>89.257896</ele>
        <time>2020-07-31T09:25:58.131Z</time>
      </trkpt>
      <trkpt lat="62.40256" lon="6.23763">
        <ele>89.870707</ele>
        <time>2020-07-31T09:26:03.122Z</time>
      </trkpt>
      <trkpt lat="62.40264" lon="6.23779">
        <ele>90.566177</ele>
        <time>2020-07-31T09:26:08.108Z</time>
      </trkpt>
      <trkpt lat="62.40271" lon="6.23793">
        <ele>91.160552</ele>
        <time>2020-07-31T09:26:12.141Z</time>
      </trkpt>
      <trkpt lat="62.40278" lon="6.23809">
        <ele>91.799487</ele>
        <time>2020-07-31T09:26:18.123Z</time>
      </trkpt>
      <trkpt lat="62.40285" lon="6.23824">
        <ele>92.442546</ele>
        <time>2020-07-31T09:26:23.158Z</time>
      </trkpt>
      <trkpt lat="62.40292" lon="6.23841">
        <ele>93.102866</ele>
        <time>2020-07-31T09:26:28.148Z</time>
      </trkpt>
      <trkpt lat="62.40298" lon="6.23859">
        <ele>93.767034</ele>
        <time>2020-07-31T09:26:33.152Z</time>
      </trkpt>
      <trkpt lat="62.40305" lon="6.23875">
        <ele>94.401123</ele>
        <time>2020-07-31T09:26:38.138Z</time>
      </trkpt>
      <trkpt lat="62.40311" lon="6.23891">
        <ele>94.989211</ele>
        <time>2020-07-31T09:26:43.109Z</time>
      </trkpt>
      <trkpt lat="62.40317" lon="6.23907">
        <ele>95.582814</ele>
        <time>2020-07-31T09:26:48.094Z</time>
      </trkpt>
      <trkpt lat="62.40324" lon="6.23922">
        <ele>96.226721</ele>
        <time>2020-07-31T09:26:53.099Z</time>
      </trkpt>
      <trkpt lat="62.40332" lon="6.23938">
        <ele>96.900988</ele>
        <time>2020-07-31T09:26:59.112Z</time>
      </trkpt>
      <trkpt lat="62.40338" lon="6.23953">
        <ele>97.146036</ele>
        <time>2020-07-31T09:27:04.136Z</time>
      </trkpt>
      <trkpt lat="62.40344" lon="6.2397">
        <ele>97.420397</ele>
        <time>2020-07-31T09:27:09.115Z</time>
      </trkpt>
      <trkpt lat="62.4035" lon="6.23987">
        <ele>97.689148</ele>
        <time>2020-07-31T09:27:14.096Z</time>
      </trkpt>
      <trkpt lat="62.40357" lon="6.24003">
        <ele>97.951713</ele>
        <time>2020-07-31T09:27:19.132Z</time>
      </trkpt>
      <trkpt lat="62.40363" lon="6.2402">
        <ele>98.224336</ele>
        <time>2020-07-31T09:27:25.101Z</time>
      </trkpt>
      <trkpt lat="62.40371" lon="6.24034">
        <ele>98.486025</ele>
        <time>2020-07-31T09:27:31.132Z</time>
      </trkpt>
      <trkpt lat="62.40378" lon="6.2405">
        <ele>98.762052</ele>
        <time>2020-07-31T09:27:36.104Z</time>
      </trkpt>
      <trkpt lat="62.40384" lon="6.24066">
        <ele>99.007951</ele>
        <time>2020-07-31T09:27:40.114Z</time>
      </trkpt>
      <trkpt lat="62.40391" lon="6.24083">
        <ele>99.299376</ele>
        <time>2020-07-31T09:27:45.086Z</time>
      </trkpt>
      <trkpt lat="62.40398" lon="6.24099">
        <ele>99.576578</ele>
        <time>2020-07-31T09:27:50.133Z</time>
      </trkpt>
      <trkpt lat="62.40404" lon="6.24118">
        <ele>99.857747</ele>
        <time>2020-07-31T09:27:55.191Z</time>
      </trkpt>
      <trkpt lat="62.4041" lon="6.24134">
        <ele>100.105077</ele>
        <time>2020-07-31T09:28:00.095Z</time>
      </trkpt>
      <trkpt lat="62.40415" lon="6.24151">
        <ele>100.357656</ele>
        <time>2020-07-31T09:28:05.105Z</time>
      </trkpt>
      <trkpt lat="62.40421" lon="6.24169">
        <ele>100.637203</ele>
        <time>2020-07-31T09:28:10.111Z</time>
      </trkpt>
      <trkpt lat="62.40427" lon="6.24188">
        <ele>100.918239</ele>
        <time>2020-07-31T09:28:15.104Z</time>
      </trkpt>
      <trkpt lat="62.40432" lon="6.24206">
        <ele>101.17587</ele>
        <time>2020-07-31T09:28:20.125Z</time>
      </trkpt>
      <trkpt lat="62.40436" lon="6.24223">
        <ele>101.422264</ele>
        <time>2020-07-31T09:28:25.164Z</time>
      </trkpt>
      <trkpt lat="62.40442" lon="6.24241">
        <ele>101.689365</ele>
        <time>2020-07-31T09:28:31.157Z</time>
      </trkpt>
      <trkpt lat="62.40447" lon="6.24258">
        <ele>101.578095</ele>
        <time>2020-07-31T09:28:36.120Z</time>
      </trkpt>
      <trkpt lat="62.40447" lon="6.24279">
        <ele>101.428084</ele>
        <time>2020-07-31T09:28:41.102Z</time>
      </trkpt>
      <trkpt lat="62.40443" lon="6.24299">
        <ele>101.259865</ele>
        <time>2020-07-31T09:28:46.097Z</time>
      </trkpt>
      <trkpt lat="62.40444" lon="6.2432">
        <ele>101.109721</ele>
        <time>2020-07-31T09:28:50.102Z</time>
      </trkpt>
      <trkpt lat="62.40447" lon="6.24344">
        <ele>100.930298</ele>
        <time>2020-07-31T09:28:53.121Z</time>
      </trkpt>
      <trkpt lat="62.4045" lon="6.24365">
        <ele>100.773607</ele>
        <time>2020-07-31T09:28:55.083Z</time>
      </trkpt>
      <trkpt lat="62.40453" lon="6.24389">
        <ele>100.587317</ele>
        <time>2020-07-31T09:28:57.101Z</time>
      </trkpt>
      <trkpt lat="62.40457" lon="6.24417">
        <ele>100.380667</ele>
        <time>2020-07-31T09:28:59.098Z</time>
      </trkpt>
      <trkpt lat="62.40461" lon="6.24448">
        <ele>100.149755</ele>
        <time>2020-07-31T09:29:01.088Z</time>
      </trkpt>
      <trkpt lat="62.40465" lon="6.24478">
        <ele>99.918843</ele>
        <time>2020-07-31T09:29:03.131Z</time>
      </trkpt>
      <trkpt lat="62.40469" lon="6.24508">
        <ele>99.689617</ele>
        <time>2020-07-31T09:29:05.151Z</time>
      </trkpt>
      <trkpt lat="62.40473" lon="6.24538">
        <ele>99.465695</ele>
        <time>2020-07-31T09:29:07.097Z</time>
      </trkpt>
      <trkpt lat="62.40476" lon="6.24565">
        <ele>99.263241</ele>
        <time>2020-07-31T09:29:09.123Z</time>
      </trkpt>
      <trkpt lat="62.40479" lon="6.24589">
        <ele>99.08512</ele>
        <time>2020-07-31T09:29:11.109Z</time>
      </trkpt>
      <trkpt lat="62.40483" lon="6.24609">
        <ele>98.924773</ele>
        <time>2020-07-31T09:29:13.106Z</time>
      </trkpt>
      <trkpt lat="62.40487" lon="6.24627">
        <ele>99.091502</ele>
        <time>2020-07-31T09:29:15.095Z</time>
      </trkpt>
      <trkpt lat="62.40492" lon="6.24651">
        <ele>99.410181</ele>
        <time>2020-07-31T09:29:18.120Z</time>
      </trkpt>
      <trkpt lat="62.40497" lon="6.24671">
        <ele>99.682997</ele>
        <time>2020-07-31T09:29:21.091Z</time>
      </trkpt>
      <trkpt lat="62.40503" lon="6.24692">
        <ele>99.979633</ele>
        <time>2020-07-31T09:29:25.144Z</time>
      </trkpt>
      <trkpt lat="62.40509" lon="6.24712">
        <ele>100.279633</ele>
        <time>2020-07-31T09:29:29.092Z</time>
      </trkpt>
      <trkpt lat="62.40516" lon="6.24732">
        <ele>100.579632</ele>
        <time>2020-07-31T09:29:33.112Z</time>
      </trkpt>
      <trkpt lat="62.40523" lon="6.24751">
        <ele>100.876134</ele>
        <time>2020-07-31T09:29:37.134Z</time>
      </trkpt>
      <trkpt lat="62.4053" lon="6.24766">
        <ele>101.120487</ele>
        <time>2020-07-31T09:29:41.116Z</time>
      </trkpt>
      <trkpt lat="62.40537" lon="6.24779">
        <ele>101.356341</ele>
        <time>2020-07-31T09:29:45.131Z</time>
      </trkpt>
      <trkpt lat="62.40545" lon="6.24794">
        <ele>101.641135</ele>
        <time>2020-07-31T09:29:49.111Z</time>
      </trkpt>
      <trkpt lat="62.40553" lon="6.2481">
        <ele>101.933799</ele>
        <time>2020-07-31T09:29:53.100Z</time>
      </trkpt>
      <trkpt lat="62.40562" lon="6.24825">
        <ele>102.2095</ele>
        <time>2020-07-31T09:29:57.096Z</time>
      </trkpt>
      <trkpt lat="62.4057" lon="6.24838">
        <ele>102.491471</ele>
        <time>2020-07-31T09:30:01.110Z</time>
      </trkpt>
      <trkpt lat="62.40579" lon="6.24853">
        <ele>102.766872</ele>
        <time>2020-07-31T09:30:05.101Z</time>
      </trkpt>
      <trkpt lat="62.40586" lon="6.24864">
        <ele>103.004473</ele>
        <time>2020-07-31T09:30:08.119Z</time>
      </trkpt>
      <trkpt lat="62.40594" lon="6.24875">
        <ele>103.250055</ele>
        <time>2020-07-31T09:30:11.141Z</time>
      </trkpt>
      <trkpt lat="62.40602" lon="6.24889">
        <ele>103.513867</ele>
        <time>2020-07-31T09:30:14.123Z</time>
      </trkpt>
      <trkpt lat="62.4061" lon="6.24902">
        <ele>103.712103</ele>
        <time>2020-07-31T09:30:17.139Z</time>
      </trkpt>
      <trkpt lat="62.40618" lon="6.24917">
        <ele>103.886023</ele>
        <time>2020-07-31T09:30:20.144Z</time>
      </trkpt>
      <trkpt lat="62.40625" lon="6.2493">
        <ele>104.049439</ele>
        <time>2020-07-31T09:30:23.133Z</time>
      </trkpt>
      <trkpt lat="62.40633" lon="6.24945">
        <ele>104.22778</ele>
        <time>2020-07-31T09:30:26.086Z</time>
      </trkpt>
      <trkpt lat="62.40642" lon="6.2496">
        <ele>104.421105</ele>
        <time>2020-07-31T09:30:29.155Z</time>
      </trkpt>
      <trkpt lat="62.40651" lon="6.24974">
        <ele>104.610632</ele>
        <time>2020-07-31T09:30:32.088Z</time>
      </trkpt>
      <trkpt lat="62.40659" lon="6.24988">
        <ele>104.78388</ele>
        <time>2020-07-31T09:30:35.118Z</time>
      </trkpt>
      <trkpt lat="62.40668" lon="6.25002">
        <ele>104.963899</ele>
        <time>2020-07-31T09:30:38.123Z</time>
      </trkpt>
      <trkpt lat="62.40676" lon="6.25015">
        <ele>105.139741</ele>
        <time>2020-07-31T09:30:41.160Z</time>
      </trkpt>
      <trkpt lat="62.40687" lon="6.25025">
        <ele>105.337632</ele>
        <time>2020-07-31T09:30:45.102Z</time>
      </trkpt>
      <trkpt lat="62.40695" lon="6.25035">
        <ele>105.492485</ele>
        <time>2020-07-31T09:30:48.101Z</time>
      </trkpt>
      <trkpt lat="62.40703" lon="6.25044">
        <ele>105.654783</ele>
        <time>2020-07-31T09:30:51.117Z</time>
      </trkpt>
      <trkpt lat="62.40712" lon="6.25053">
        <ele>105.821729</ele>
        <time>2020-07-31T09:30:54.091Z</time>
      </trkpt>
      <trkpt lat="62.40722" lon="6.25064">
        <ele>106.007658</ele>
        <time>2020-07-31T09:30:57.110Z</time>
      </trkpt>
      <trkpt lat="62.40731" lon="6.25077">
        <ele>106.193579</ele>
        <time>2020-07-31T09:31:00.106Z</time>
      </trkpt>
      <trkpt lat="62.4074" lon="6.2509">
        <ele>106.3717</ele>
        <time>2020-07-31T09:31:03.116Z</time>
      </trkpt>
      <trkpt lat="62.40749" lon="6.25104">
        <ele>106.553056</ele>
        <time>2020-07-31T09:31:06.111Z</time>
      </trkpt>
      <trkpt lat="62.40757" lon="6.25122">
        <ele>106.494313</ele>
        <time>2020-07-31T09:31:09.112Z</time>
      </trkpt>
      <trkpt lat="62.40766" lon="6.2514">
        <ele>106.288897</ele>
        <time>2020-07-31T09:31:12.113Z</time>
      </trkpt>
      <trkpt lat="62.40773" lon="6.2516">
        <ele>106.082126</ele>
        <time>2020-07-31T09:31:15.157Z</time>
      </trkpt>
      <trkpt lat="62.40781" lon="6.25179">
        <ele>105.880861</ele>
        <time>2020-07-31T09:31:18.118Z</time>
      </trkpt>
      <trkpt lat="62.40789" lon="6.25198">
        <ele>105.677808</ele>
        <time>2020-07-31T09:31:21.182Z</time>
      </trkpt>
      <trkpt lat="62.40796" lon="6.25217">
        <ele>105.477737</ele>
        <time>2020-07-31T09:31:24.114Z</time>
      </trkpt>
      <trkpt lat="62.40803" lon="6.25236">
        <ele>105.281403</ele>
        <time>2020-07-31T09:31:27.133Z</time>
      </trkpt>
      <trkpt lat="62.40811" lon="6.25256">
        <ele>105.084285</ele>
        <time>2020-07-31T09:31:30.096Z</time>
      </trkpt>
      <trkpt lat="62.40818" lon="6.25278">
        <ele>104.862472</ele>
        <time>2020-07-31T09:31:33.126Z</time>
      </trkpt>
      <trkpt lat="62.40824" lon="6.25295">
        <ele>104.695127</ele>
        <time>2020-07-31T09:31:35.132Z</time>
      </trkpt>
      <trkpt lat="62.40831" lon="6.25312">
        <ele>104.518826</ele>
        <time>2020-07-31T09:31:37.107Z</time>
      </trkpt>
      <trkpt lat="62.40838" lon="6.25329">
        <ele>104.3339</ele>
        <time>2020-07-31T09:31:39.094Z</time>
      </trkpt>
      <trkpt lat="62.40844" lon="6.25348">
        <ele>104.143958</ele>
        <time>2020-07-31T09:31:41.092Z</time>
      </trkpt>
      <trkpt lat="62.40851" lon="6.25367">
        <ele>103.951811</ele>
        <time>2020-07-31T09:31:43.117Z</time>
      </trkpt>
      <trkpt lat="62.40859" lon="6.25385">
        <ele>103.753886</ele>
        <time>2020-07-31T09:31:45.104Z</time>
      </trkpt>
      <trkpt lat="62.40867" lon="6.25404">
        <ele>103.552053</ele>
        <time>2020-07-31T09:31:47.093Z</time>
      </trkpt>
      <trkpt lat="62.40874" lon="6.25421">
        <ele>103.189342</ele>
        <time>2020-07-31T09:31:49.120Z</time>
      </trkpt>
      <trkpt lat="62.40881" lon="6.25437">
        <ele>102.825685</ele>
        <time>2020-07-31T09:31:51.158Z</time>
      </trkpt>
      <trkpt lat="62.40888" lon="6.25452">
        <ele>102.455474</ele>
        <time>2020-07-31T09:31:53.109Z</time>
      </trkpt>
      <trkpt lat="62.40895" lon="6.25467">
        <ele>102.082377</ele>
        <time>2020-07-31T09:31:55.095Z</time>
      </trkpt>
      <trkpt lat="62.40903" lon="6.25484">
        <ele>101.679587</ele>
        <time>2020-07-31T09:31:57.157Z</time>
      </trkpt>
      <trkpt lat="62.4091" lon="6.25503">
        <ele>101.246882</ele>
        <time>2020-07-31T09:31:59.101Z</time>
      </trkpt>
      <trkpt lat="62.40919" lon="6.25522">
        <ele>100.790408</ele>
        <time>2020-07-31T09:32:01.094Z</time>
      </trkpt>
      <trkpt lat="62.40928" lon="6.25543">
        <ele>100.308868</ele>
        <time>2020-07-31T09:32:03.112Z</time>
      </trkpt>
      <trkpt lat="62.40937" lon="6.25565">
        <ele>99.798398</ele>
        <time>2020-07-31T09:32:05.146Z</time>
      </trkpt>
      <trkpt lat="62.40948" lon="6.25586">
        <ele>99.277072</ele>
        <time>2020-07-31T09:32:07.093Z</time>
      </trkpt>
      <trkpt lat="62.40958" lon="6.25608">
        <ele>98.742566</ele>
        <time>2020-07-31T09:32:09.117Z</time>
      </trkpt>
      <trkpt lat="62.40967" lon="6.2563">
        <ele>98.225912</ele>
        <time>2020-07-31T09:32:11.139Z</time>
      </trkpt>
      <trkpt lat="62.40977" lon="6.2565">
        <ele>97.734197</ele>
        <time>2020-07-31T09:32:13.103Z</time>
      </trkpt>
      <trkpt lat="62.40986" lon="6.25669">
        <ele>97.265477</ele>
        <time>2020-07-31T09:32:15.156Z</time>
      </trkpt>
      <trkpt lat="62.40995" lon="6.25686">
        <ele>96.877036</ele>
        <time>2020-07-31T09:32:17.107Z</time>
      </trkpt>
      <trkpt lat="62.41004" lon="6.25702">
        <ele>96.832009</ele>
        <time>2020-07-31T09:32:19.120Z</time>
      </trkpt>
      <trkpt lat="62.41013" lon="6.25718">
        <ele>96.7884</ele>
        <time>2020-07-31T09:32:21.132Z</time>
      </trkpt>
      <trkpt lat="62.41021" lon="6.25732">
        <ele>96.746665</ele>
        <time>2020-07-31T09:32:23.105Z</time>
      </trkpt>
      <trkpt lat="62.41029" lon="6.25746">
        <ele>96.706863</ele>
        <time>2020-07-31T09:32:25.166Z</time>
      </trkpt>
      <trkpt lat="62.41036" lon="6.25758">
        <ele>96.671108</ele>
        <time>2020-07-31T09:32:27.133Z</time>
      </trkpt>
      <trkpt lat="62.41048" lon="6.25773">
        <ele>96.619256</ele>
        <time>2020-07-31T09:32:30.155Z</time>
      </trkpt>
      <trkpt lat="62.41059" lon="6.25786">
        <ele>96.569277</ele>
        <time>2020-07-31T09:32:33.105Z</time>
      </trkpt>
      <trkpt lat="62.4107" lon="6.258">
        <ele>96.517327</ele>
        <time>2020-07-31T09:32:36.114Z</time>
      </trkpt>
      <trkpt lat="62.41081" lon="6.25812">
        <ele>96.468997</ele>
        <time>2020-07-31T09:32:39.149Z</time>
      </trkpt>
      <trkpt lat="62.41092" lon="6.25823">
        <ele>96.422395</ele>
        <time>2020-07-31T09:32:42.132Z</time>
      </trkpt>
      <trkpt lat="62.41101" lon="6.25833">
        <ele>96.382373</ele>
        <time>2020-07-31T09:32:45.109Z</time>
      </trkpt>
      <trkpt lat="62.4111" lon="6.25841">
        <ele>96.345476</ele>
        <time>2020-07-31T09:32:48.128Z</time>
      </trkpt>
      <trkpt lat="62.41119" lon="6.25851">
        <ele>96.306586</ele>
        <time>2020-07-31T09:32:51.120Z</time>
      </trkpt>
      <trkpt lat="62.41128" lon="6.2586">
        <ele>96.267459</ele>
        <time>2020-07-31T09:32:54.093Z</time>
      </trkpt>
      <trkpt lat="62.41137" lon="6.2587">
        <ele>96.228587</ele>
        <time>2020-07-31T09:32:57.105Z</time>
      </trkpt>
      <trkpt lat="62.41147" lon="6.25883">
        <ele>96.182932</ele>
        <time>2020-07-31T09:33:00.091Z</time>
      </trkpt>
      <trkpt lat="62.41155" lon="6.25894">
        <ele>96.382883</ele>
        <time>2020-07-31T09:33:02.122Z</time>
      </trkpt>
      <trkpt lat="62.41163" lon="6.25907">
        <ele>96.594918</ele>
        <time>2020-07-31T09:33:04.098Z</time>
      </trkpt>
      <trkpt lat="62.41171" lon="6.25918">
        <ele>96.79918</ele>
        <time>2020-07-31T09:33:06.150Z</time>
      </trkpt>
      <trkpt lat="62.41179" lon="6.25929">
        <ele>97.001866</ele>
        <time>2020-07-31T09:33:08.108Z</time>
      </trkpt>
      <trkpt lat="62.41187" lon="6.25939">
        <ele>97.192421</ele>
        <time>2020-07-31T09:33:10.121Z</time>
      </trkpt>
      <trkpt lat="62.41197" lon="6.25954">
        <ele>97.448693</ele>
        <time>2020-07-31T09:33:13.129Z</time>
      </trkpt>
      <trkpt lat="62.41207" lon="6.25969">
        <ele>97.708576</ele>
        <time>2020-07-31T09:33:16.122Z</time>
      </trkpt>
      <trkpt lat="62.41216" lon="6.25984">
        <ele>97.952299</ele>
        <time>2020-07-31T09:33:19.124Z</time>
      </trkpt>
      <trkpt lat="62.41224" lon="6.25998">
        <ele>98.175379</ele>
        <time>2020-07-31T09:33:22.124Z</time>
      </trkpt>
      <trkpt lat="62.41233" lon="6.26008">
        <ele>98.378607</ele>
        <time>2020-07-31T09:33:25.147Z</time>
      </trkpt>
      <trkpt lat="62.41241" lon="6.26016">
        <ele>98.571269</ele>
        <time>2020-07-31T09:33:28.155Z</time>
      </trkpt>
      <trkpt lat="62.4125" lon="6.26024">
        <ele>98.784973</ele>
        <time>2020-07-31T09:33:31.108Z</time>
      </trkpt>
      <trkpt lat="62.4126" lon="6.26032">
        <ele>99.007121</ele>
        <time>2020-07-31T09:33:34.098Z</time>
      </trkpt>
      <trkpt lat="62.4127" lon="6.2604">
        <ele>99.236916</ele>
        <time>2020-07-31T09:33:37.113Z</time>
      </trkpt>
      <trkpt lat="62.41281" lon="6.26046">
        <ele>99.474238</ele>
        <time>2020-07-31T09:33:40.097Z</time>
      </trkpt>
      <trkpt lat="62.41292" lon="6.26052">
        <ele>99.720897</ele>
        <time>2020-07-31T09:33:43.125Z</time>
      </trkpt>
      <trkpt lat="62.41304" lon="6.26058">
        <ele>99.967187</ele>
        <time>2020-07-31T09:33:46.149Z</time>
      </trkpt>
      <trkpt lat="62.41315" lon="6.26064">
        <ele>99.991398</ele>
        <time>2020-07-31T09:33:49.139Z</time>
      </trkpt>
      <trkpt lat="62.41326" lon="6.2607">
        <ele>99.979835</ele>
        <time>2020-07-31T09:33:52.099Z</time>
      </trkpt>
      <trkpt lat="62.41337" lon="6.26076">
        <ele>99.967937</ele>
        <time>2020-07-31T09:33:55.169Z</time>
      </trkpt>
      <trkpt lat="62.41348" lon="6.26082">
        <ele>99.957099</ele>
        <time>2020-07-31T09:33:58.089Z</time>
      </trkpt>
      <trkpt lat="62.41357" lon="6.26089">
        <ele>99.947314</ele>
        <time>2020-07-31T09:34:01.122Z</time>
      </trkpt>
      <trkpt lat="62.41365" lon="6.26095">
        <ele>99.938317</ele>
        <time>2020-07-31T09:34:04.121Z</time>
      </trkpt>
      <trkpt lat="62.41376" lon="6.26105">
        <ele>99.926754</ele>
        <time>2020-07-31T09:34:08.104Z</time>
      </trkpt>
      <trkpt lat="62.41387" lon="6.26113">
        <ele>99.915184</ele>
        <time>2020-07-31T09:34:12.140Z</time>
      </trkpt>
      <trkpt lat="62.41398" lon="6.2612">
        <ele>99.903883</ele>
        <time>2020-07-31T09:34:16.146Z</time>
      </trkpt>
      <trkpt lat="62.41407" lon="6.26126">
        <ele>99.894345</ele>
        <time>2020-07-31T09:34:19.135Z</time>
      </trkpt>
      <trkpt lat="62.41417" lon="6.26134">
        <ele>99.884109</ele>
        <time>2020-07-31T09:34:22.120Z</time>
      </trkpt>
      <trkpt lat="62.41427" lon="6.26141">
        <ele>99.873232</ele>
        <time>2020-07-31T09:34:25.104Z</time>
      </trkpt>
      <trkpt lat="62.41437" lon="6.26145">
        <ele>99.862498</ele>
        <time>2020-07-31T09:34:28.089Z</time>
      </trkpt>
      <trkpt lat="62.41447" lon="6.26149">
        <ele>99.852522</ele>
        <time>2020-07-31T09:34:31.125Z</time>
      </trkpt>
      <trkpt lat="62.41456" lon="6.26154">
        <ele>99.843167</ele>
        <time>2020-07-31T09:34:34.098Z</time>
      </trkpt>
      <trkpt lat="62.41468" lon="6.26157">
        <ele>99.83146</ele>
        <time>2020-07-31T09:34:38.138Z</time>
      </trkpt>
      <trkpt lat="62.41479" lon="6.2616">
        <ele>99.803174</ele>
        <time>2020-07-31T09:34:42.093Z</time>
      </trkpt>
      <trkpt lat="62.41488" lon="6.26161">
        <ele>99.629593</ele>
        <time>2020-07-31T09:34:45.099Z</time>
      </trkpt>
      <trkpt lat="62.41497" lon="6.26163">
        <ele>99.450243</ele>
        <time>2020-07-31T09:34:48.123Z</time>
      </trkpt>
      <trkpt lat="62.41507" lon="6.26166">
        <ele>99.250899</ele>
        <time>2020-07-31T09:34:51.154Z</time>
      </trkpt>
      <trkpt lat="62.4152" lon="6.2617">
        <ele>99.007189</ele>
        <time>2020-07-31T09:34:54.123Z</time>
      </trkpt>
      <trkpt lat="62.41532" lon="6.26172">
        <ele>98.771045</ele>
        <time>2020-07-31T09:34:57.092Z</time>
      </trkpt>
      <trkpt lat="62.41544" lon="6.26174">
        <ele>98.540494</ele>
        <time>2020-07-31T09:35:00.148Z</time>
      </trkpt>
      <trkpt lat="62.41556" lon="6.26178">
        <ele>98.303169</ele>
        <time>2020-07-31T09:35:03.105Z</time>
      </trkpt>
      <trkpt lat="62.41569" lon="6.2618">
        <ele>98.051435</ele>
        <time>2020-07-31T09:35:06.137Z</time>
      </trkpt>
      <trkpt lat="62.41578" lon="6.2618">
        <ele>97.872412</ele>
        <time>2020-07-31T09:35:08.177Z</time>
      </trkpt>
      <trkpt lat="62.41587" lon="6.2618">
        <ele>97.691386</ele>
        <time>2020-07-31T09:35:10.101Z</time>
      </trkpt>
      <trkpt lat="62.41597" lon="6.26181">
        <ele>97.504403</ele>
        <time>2020-07-31T09:35:12.139Z</time>
      </trkpt>
      <trkpt lat="62.41608" lon="6.26181">
        <ele>97.278633</ele>
        <time>2020-07-31T09:35:14.116Z</time>
      </trkpt>
      <trkpt lat="62.41621" lon="6.26182">
        <ele>97.029393</ele>
        <time>2020-07-31T09:35:16.121Z</time>
      </trkpt>
      <trkpt lat="62.41634" lon="6.26186">
        <ele>96.77361</ele>
        <time>2020-07-31T09:35:18.142Z</time>
      </trkpt>
      <trkpt lat="62.41648" lon="6.2619">
        <ele>96.503013</ele>
        <time>2020-07-31T09:35:20.135Z</time>
      </trkpt>
      <trkpt lat="62.41662" lon="6.26191">
        <ele>96.472278</ele>
        <time>2020-07-31T09:35:22.101Z</time>
      </trkpt>
      <trkpt lat="62.41675" lon="6.2619">
        <ele>96.910348</ele>
        <time>2020-07-31T09:35:24.108Z</time>
      </trkpt>
      <trkpt lat="62.41685" lon="6.26198">
        <ele>97.269965</ele>
        <time>2020-07-31T09:35:26.113Z</time>
      </trkpt>
      <trkpt lat="62.41695" lon="6.26212">
        <ele>97.671313</ele>
        <time>2020-07-31T09:35:28.095Z</time>
      </trkpt>
      <trkpt lat="62.41703" lon="6.26227">
        <ele>98.043294</ele>
        <time>2020-07-31T09:35:30.119Z</time>
      </trkpt>
      <trkpt lat="62.4171" lon="6.26243">
        <ele>98.381317</ele>
        <time>2020-07-31T09:35:32.100Z</time>
      </trkpt>
      <trkpt lat="62.41716" lon="6.26264">
        <ele>98.773293</ele>
        <time>2020-07-31T09:35:35.118Z</time>
      </trkpt>
      <trkpt lat="62.41721" lon="6.26282">
        <ele>99.10607</ele>
        <time>2020-07-31T09:35:38.119Z</time>
      </trkpt>
      <trkpt lat="62.41727" lon="6.26298">
        <ele>99.430619</ele>
        <time>2020-07-31T09:35:41.094Z</time>
      </trkpt>
      <trkpt lat="62.41733" lon="6.26315">
        <ele>99.769846</ele>
        <time>2020-07-31T09:35:44.111Z</time>
      </trkpt>
      <trkpt lat="62.4174" lon="6.26333">
        <ele>100.132239</ele>
        <time>2020-07-31T09:35:47.086Z</time>
      </trkpt>
      <trkpt lat="62.41747" lon="6.26349">
        <ele>100.47026</ele>
        <time>2020-07-31T09:35:50.114Z</time>
      </trkpt>
      <trkpt lat="62.41754" lon="6.26368">
        <ele>100.853686</ele>
        <time>2020-07-31T09:35:54.088Z</time>
      </trkpt>
      <trkpt lat="62.41759" lon="6.26387">
        <ele>101.195521</ele>
        <time>2020-07-31T09:35:59.099Z</time>
      </trkpt>
      <trkpt lat="62.41763" lon="6.26405">
        <ele>101.527179</ele>
        <time>2020-07-31T09:36:05.153Z</time>
      </trkpt>
      <trkpt lat="62.41769" lon="6.26424">
        <ele>101.875438</ele>
        <time>2020-07-31T09:36:11.100Z</time>
      </trkpt>
      <trkpt lat="62.41777" lon="6.26439">
        <ele>102.218265</ele>
        <time>2020-07-31T09:36:17.109Z</time>
      </trkpt>
      <trkpt lat="62.41783" lon="6.26457">
        <ele>102.333577</ele>
        <time>2020-07-31T09:36:24.097Z</time>
      </trkpt>
      <trkpt lat="62.41789" lon="6.26475">
        <ele>102.126364</ele>
        <time>2020-07-31T09:36:31.122Z</time>
      </trkpt>
      <trkpt lat="62.41795" lon="6.26491">
        <ele>101.932823</ele>
        <time>2020-07-31T09:36:37.098Z</time>
      </trkpt>
      <trkpt lat="62.41801" lon="6.26506">
        <ele>101.741932</ele>
        <time>2020-07-31T09:36:43.178Z</time>
      </trkpt>
      <trkpt lat="62.41808" lon="6.26521">
        <ele>101.552335</ele>
        <time>2020-07-31T09:36:50.141Z</time>
      </trkpt>
      <trkpt lat="62.41813" lon="6.26539">
        <ele>101.353342</ele>
        <time>2020-07-31T09:36:56.108Z</time>
      </trkpt>
      <trkpt lat="62.41817" lon="6.26557">
        <ele>101.17056</ele>
        <time>2020-07-31T09:37:01.090Z</time>
      </trkpt>
      <trkpt lat="62.4182" lon="6.2658">
        <ele>100.950352</ele>
        <time>2020-07-31T09:37:06.106Z</time>
      </trkpt>
      <trkpt lat="62.41825" lon="6.266">
        <ele>100.737406</ele>
        <time>2020-07-31T09:37:11.106Z</time>
      </trkpt>
      <trkpt lat="62.41832" lon="6.26617">
        <ele>100.536996</ele>
        <time>2020-07-31T09:37:15.168Z</time>
      </trkpt>
      <trkpt lat="62.41839" lon="6.2663">
        <ele>100.344287</ele>
        <time>2020-07-31T09:37:18.154Z</time>
      </trkpt>
      <trkpt lat="62.41847" lon="6.26646">
        <ele>100.134512</ele>
        <time>2020-07-31T09:37:21.100Z</time>
      </trkpt>
      <trkpt lat="62.41854" lon="6.26667">
        <ele>99.882688</ele>
        <time>2020-07-31T09:37:24.103Z</time>
      </trkpt>
      <trkpt lat="62.41861" lon="6.26686">
        <ele>99.658962</ele>
        <time>2020-07-31T09:37:26.126Z</time>
      </trkpt>
      <trkpt lat="62.41869" lon="6.2671">
        <ele>99.392143</ele>
        <time>2020-07-31T09:37:28.122Z</time>
      </trkpt>
      <trkpt lat="62.41877" lon="6.26735">
        <ele>99.101214</ele>
        <time>2020-07-31T09:37:30.122Z</time>
      </trkpt>
      <trkpt lat="62.41887" lon="6.26762">
        <ele>98.666752</ele>
        <time>2020-07-31T09:37:32.132Z</time>
      </trkpt>
      <trkpt lat="62.41899" lon="6.26786">
        <ele>97.339028</ele>
        <time>2020-07-31T09:37:34.136Z</time>
      </trkpt>
      <trkpt lat="62.41913" lon="6.26804">
        <ele>95.899575</ele>
        <time>2020-07-31T09:37:36.120Z</time>
      </trkpt>
      <trkpt lat="62.41922" lon="6.26811">
        <ele>95.147669</ele>
        <time>2020-07-31T09:37:37.121Z</time>
      </trkpt>
      <trkpt lat="62.41931" lon="6.26816">
        <ele>94.39261</ele>
        <time>2020-07-31T09:37:38.153Z</time>
      </trkpt>
      <trkpt lat="62.41945" lon="6.26825">
        <ele>93.137166</ele>
        <time>2020-07-31T09:37:40.136Z</time>
      </trkpt>
      <trkpt lat="62.41954" lon="6.26837">
        <ele>92.239436</ele>
        <time>2020-07-31T09:37:42.126Z</time>
      </trkpt>
      <trkpt lat="62.41964" lon="6.26854">
        <ele>91.2163</ele>
        <time>2020-07-31T09:37:45.115Z</time>
      </trkpt>
      <trkpt lat="62.41972" lon="6.26867">
        <ele>90.393698</ele>
        <time>2020-07-31T09:37:47.099Z</time>
      </trkpt>
      <trkpt lat="62.41981" lon="6.26879">
        <ele>89.489918</ele>
        <time>2020-07-31T09:37:49.104Z</time>
      </trkpt>
      <trkpt lat="62.41991" lon="6.26891">
        <ele>88.541657</ele>
        <time>2020-07-31T09:37:51.108Z</time>
      </trkpt>
      <trkpt lat="62.42001" lon="6.26904">
        <ele>87.555588</ele>
        <time>2020-07-31T09:37:53.136Z</time>
      </trkpt>
      <trkpt lat="62.4201" lon="6.26916">
        <ele>86.660947</ele>
        <time>2020-07-31T09:37:55.142Z</time>
      </trkpt>
      <trkpt lat="62.42018" lon="6.26928">
        <ele>85.849574</ele>
        <time>2020-07-31T09:37:57.129Z</time>
      </trkpt>
      <trkpt lat="62.42025" lon="6.26943">
        <ele>85.010619</ele>
        <time>2020-07-31T09:37:59.118Z</time>
      </trkpt>
      <trkpt lat="62.4203" lon="6.2696">
        <ele>84.225882</ele>
        <time>2020-07-31T09:38:01.118Z</time>
      </trkpt>
      <trkpt lat="62.42039" lon="6.26982">
        <ele>83.059672</ele>
        <time>2020-07-31T09:38:04.132Z</time>
      </trkpt>
      <trkpt lat="62.42046" lon="6.26994">
        <ele>82.166217</ele>
        <time>2020-07-31T09:38:06.100Z</time>
      </trkpt>
      <trkpt lat="62.42054" lon="6.27009">
        <ele>81.18635</ele>
        <time>2020-07-31T09:38:08.111Z</time>
      </trkpt>
      <trkpt lat="62.42062" lon="6.27028">
        <ele>80.131743</ele>
        <time>2020-07-31T09:38:11.092Z</time>
      </trkpt>
      <trkpt lat="62.42067" lon="6.27045">
        <ele>79.216459</ele>
        <time>2020-07-31T09:38:15.124Z</time>
      </trkpt>
      <trkpt lat="62.42077" lon="6.27047">
        <ele>78.335686</ele>
        <time>2020-07-31T09:38:20.099Z</time>
      </trkpt>
      <trkpt lat="62.42088" lon="6.27053">
        <ele>77.234947</ele>
        <time>2020-07-31T09:38:24.152Z</time>
      </trkpt>
      <trkpt lat="62.42098" lon="6.27055">
        <ele>76.259193</ele>
        <time>2020-07-31T09:38:27.119Z</time>
      </trkpt>
      <trkpt lat="62.4211" lon="6.27057">
        <ele>75.210762</ele>
        <time>2020-07-31T09:38:30.132Z</time>
      </trkpt>
      <trkpt lat="62.42122" lon="6.2706">
        <ele>74.058603</ele>
        <time>2020-07-31T09:38:33.097Z</time>
      </trkpt>
      <trkpt lat="62.42134" lon="6.27064">
        <ele>72.898818</ele>
        <time>2020-07-31T09:38:36.109Z</time>
      </trkpt>
      <trkpt lat="62.42145" lon="6.27069">
        <ele>71.834419</ele>
        <time>2020-07-31T09:38:39.104Z</time>
      </trkpt>
      <trkpt lat="62.42152" lon="6.27088">
        <ele>70.788048</ele>
        <time>2020-07-31T09:38:42.092Z</time>
      </trkpt>
      <trkpt lat="62.4215" lon="6.27108">
        <ele>69.925411</ele>
        <time>2020-07-31T09:38:44.111Z</time>
      </trkpt>
      <trkpt lat="62.42143" lon="6.27125">
        <ele>68.901757</ele>
        <time>2020-07-31T09:38:46.131Z</time>
      </trkpt>
      <trkpt lat="62.42134" lon="6.27142">
        <ele>67.779334</ele>
        <time>2020-07-31T09:38:48.100Z</time>
      </trkpt>
      <trkpt lat="62.42124" lon="6.27161">
        <ele>66.79491</ele>
        <time>2020-07-31T09:38:50.095Z</time>
      </trkpt>
      <trkpt lat="62.42114" lon="6.27182">
        <ele>66.102607</ele>
        <time>2020-07-31T09:38:52.160Z</time>
      </trkpt>
      <trkpt lat="62.42103" lon="6.27205">
        <ele>65.386799</ele>
        <time>2020-07-31T09:38:54.138Z</time>
      </trkpt>
      <trkpt lat="62.42093" lon="6.2723">
        <ele>64.651917</ele>
        <time>2020-07-31T09:38:56.128Z</time>
      </trkpt>
      <trkpt lat="62.42083" lon="6.27259">
        <ele>63.852147</ele>
        <time>2020-07-31T09:38:58.115Z</time>
      </trkpt>
      <trkpt lat="62.42075" lon="6.27293">
        <ele>63.019068</ele>
        <time>2020-07-31T09:39:00.093Z</time>
      </trkpt>
      <trkpt lat="62.42072" lon="6.27326">
        <ele>62.26796</ele>
        <time>2020-07-31T09:39:02.093Z</time>
      </trkpt>
      <trkpt lat="62.42075" lon="6.27354">
        <ele>61.633429</ele>
        <time>2020-07-31T09:39:04.100Z</time>
      </trkpt>
      <trkpt lat="62.42079" lon="6.27375">
        <ele>61.120548</ele>
        <time>2020-07-31T09:39:06.097Z</time>
      </trkpt>
      <trkpt lat="62.42085" lon="6.27398">
        <ele>60.531415</ele>
        <time>2020-07-31T09:39:09.117Z</time>
      </trkpt>
      <trkpt lat="62.42092" lon="6.27422">
        <ele>59.889693</ele>
        <time>2020-07-31T09:39:12.124Z</time>
      </trkpt>
      <trkpt lat="62.42099" lon="6.27437">
        <ele>59.427773</ele>
        <time>2020-07-31T09:39:14.103Z</time>
      </trkpt>
      <trkpt lat="62.42107" lon="6.27451">
        <ele>58.950423</ele>
        <time>2020-07-31T09:39:16.104Z</time>
      </trkpt>
      <trkpt lat="62.42115" lon="6.27464">
        <ele>58.446729</ele>
        <time>2020-07-31T09:39:18.097Z</time>
      </trkpt>
      <trkpt lat="62.42124" lon="6.27477">
        <ele>58.819872</ele>
        <time>2020-07-31T09:39:20.157Z</time>
      </trkpt>
      <trkpt lat="62.42133" lon="6.27492">
        <ele>59.299408</ele>
        <time>2020-07-31T09:39:23.101Z</time>
      </trkpt>
      <trkpt lat="62.42142" lon="6.27506">
        <ele>59.763091</ele>
        <time>2020-07-31T09:39:27.091Z</time>
      </trkpt>
      <trkpt lat="62.42153" lon="6.27519">
        <ele>60.263377</ele>
        <time>2020-07-31T09:39:31.106Z</time>
      </trkpt>
      <trkpt lat="62.42161" lon="6.27528">
        <ele>60.659685</ele>
        <time>2020-07-31T09:39:35.098Z</time>
      </trkpt>
      <trkpt lat="62.42169" lon="6.2754">
        <ele>61.06196</ele>
        <time>2020-07-31T09:39:38.132Z</time>
      </trkpt>
      <trkpt lat="62.42177" lon="6.27557">
        <ele>61.518791</ele>
        <time>2020-07-31T09:39:41.118Z</time>
      </trkpt>
      <trkpt lat="62.42183" lon="6.27571">
        <ele>61.903002</ele>
        <time>2020-07-31T09:39:44.125Z</time>
      </trkpt>
      <trkpt lat="62.42191" lon="6.27587">
        <ele>62.358789</ele>
        <time>2020-07-31T09:39:49.121Z</time>
      </trkpt>
      <trkpt lat="62.42198" lon="6.27606">
        <ele>62.811589</ele>
        <time>2020-07-31T09:39:54.124Z</time>
      </trkpt>
      <trkpt lat="62.42203" lon="6.27623">
        <ele>63.197578</ele>
        <time>2020-07-31T09:39:58.145Z</time>
      </trkpt>
      <trkpt lat="62.42207" lon="6.2764">
        <ele>63.576824</ele>
        <time>2020-07-31T09:40:02.097Z</time>
      </trkpt>
      <trkpt lat="62.42211" lon="6.27661">
        <ele>64.002479</ele>
        <time>2020-07-31T09:40:06.098Z</time>
      </trkpt>
      <trkpt lat="62.42216" lon="6.27682">
        <ele>64.452362</ele>
        <time>2020-07-31T09:40:10.106Z</time>
      </trkpt>
      <trkpt lat="62.42219" lon="6.277">
        <ele>64.831485</ele>
        <time>2020-07-31T09:40:13.148Z</time>
      </trkpt>
      <trkpt lat="62.42223" lon="6.2772">
        <ele>65.231251</ele>
        <time>2020-07-31T09:40:16.146Z</time>
      </trkpt>
      <trkpt lat="62.42225" lon="6.27743">
        <ele>65.681467</ele>
        <time>2020-07-31T09:40:19.111Z</time>
      </trkpt>
      <trkpt lat="62.42226" lon="6.27764">
        <ele>65.960417</ele>
        <time>2020-07-31T09:40:22.107Z</time>
      </trkpt>
      <trkpt lat="62.42229" lon="6.27785">
        <ele>66.124025</ele>
        <time>2020-07-31T09:40:25.162Z</time>
      </trkpt>
      <trkpt lat="62.42231" lon="6.27808">
        <ele>66.299622</ele>
        <time>2020-07-31T09:40:28.100Z</time>
      </trkpt>
      <trkpt lat="62.42233" lon="6.27832">
        <ele>66.476377</ele>
        <time>2020-07-31T09:40:31.137Z</time>
      </trkpt>
      <trkpt lat="62.42235" lon="6.27857">
        <ele>66.661423</ele>
        <time>2020-07-31T09:40:34.112Z</time>
      </trkpt>
      <trkpt lat="62.42237" lon="6.27883">
        <ele>66.857544</ele>
        <time>2020-07-31T09:40:37.125Z</time>
      </trkpt>
      <trkpt lat="62.4224" lon="6.27906">
        <ele>67.037358</ele>
        <time>2020-07-31T09:40:40.105Z</time>
      </trkpt>
      <trkpt lat="62.42241" lon="6.27932">
        <ele>67.231601</ele>
        <time>2020-07-31T09:40:43.112Z</time>
      </trkpt>
      <trkpt lat="62.42243" lon="6.27958">
        <ele>67.423221</ele>
        <time>2020-07-31T09:40:46.115Z</time>
      </trkpt>
      <trkpt lat="62.42245" lon="6.27982">
        <ele>67.608147</ele>
        <time>2020-07-31T09:40:49.102Z</time>
      </trkpt>
      <trkpt lat="62.42248" lon="6.28007">
        <ele>67.7909</ele>
        <time>2020-07-31T09:40:52.124Z</time>
      </trkpt>
      <trkpt lat="62.4225" lon="6.28029">
        <ele>67.958204</ele>
        <time>2020-07-31T09:40:55.101Z</time>
      </trkpt>
      <trkpt lat="62.42251" lon="6.28051">
        <ele>68.11987</ele>
        <time>2020-07-31T09:40:58.114Z</time>
      </trkpt>
      <trkpt lat="62.42251" lon="6.28072">
        <ele>68.281945</ele>
        <time>2020-07-31T09:41:01.093Z</time>
      </trkpt>
      <trkpt lat="62.42251" lon="6.28095">
        <ele>68.447648</ele>
        <time>2020-07-31T09:41:04.116Z</time>
      </trkpt>
      <trkpt lat="62.42251" lon="6.28116">
        <ele>68.600775</ele>
        <time>2020-07-31T09:41:07.129Z</time>
      </trkpt>
      <trkpt lat="62.42251" lon="6.28135">
        <ele>68.745906</ele>
        <time>2020-07-31T09:41:10.132Z</time>
      </trkpt>
      <trkpt lat="62.4225" lon="6.28157">
        <ele>69.139657</ele>
        <time>2020-07-31T09:41:14.164Z</time>
      </trkpt>
      <trkpt lat="62.42249" lon="6.28178">
        <ele>69.521705</ele>
        <time>2020-07-31T09:41:18.101Z</time>
      </trkpt>
      <trkpt lat="62.42248" lon="6.28197">
        <ele>69.883175</ele>
        <time>2020-07-31T09:41:22.093Z</time>
      </trkpt>
      <trkpt lat="62.42247" lon="6.28219">
        <ele>70.289192</ele>
        <time>2020-07-31T09:41:27.108Z</time>
      </trkpt>
      <trkpt lat="62.42245" lon="6.2824">
        <ele>70.685768</ele>
        <time>2020-07-31T09:41:32.080Z</time>
      </trkpt>
      <trkpt lat="62.42244" lon="6.28259">
        <ele>71.046173</ele>
        <time>2020-07-31T09:41:37.114Z</time>
      </trkpt>
      <trkpt lat="62.42243" lon="6.2828">
        <ele>71.448036</ele>
        <time>2020-07-31T09:41:42.151Z</time>
      </trkpt>
      <trkpt lat="62.42239" lon="6.283">
        <ele>71.826659</ele>
        <time>2020-07-31T09:41:47.136Z</time>
      </trkpt>
      <trkpt lat="62.42236" lon="6.28323">
        <ele>72.281327</ele>
        <time>2020-07-31T09:41:52.118Z</time>
      </trkpt>
      <trkpt lat="62.42234" lon="6.28343">
        <ele>72.656</ele>
        <time>2020-07-31T09:41:55.150Z</time>
      </trkpt>
      <trkpt lat="62.42231" lon="6.28363">
        <ele>73.053941</ele>
        <time>2020-07-31T09:41:58.123Z</time>
      </trkpt>
      <trkpt lat="62.42228" lon="6.28382">
        <ele>73.415498</ele>
        <time>2020-07-31T09:42:01.123Z</time>
      </trkpt>
      <trkpt lat="62.42225" lon="6.28405">
        <ele>73.867241</ele>
        <time>2020-07-31T09:42:05.096Z</time>
      </trkpt>
      <trkpt lat="62.42223" lon="6.28425">
        <ele>74.245229</ele>
        <time>2020-07-31T09:42:08.095Z</time>
      </trkpt>
      <trkpt lat="62.42221" lon="6.28449">
        <ele>74.707479</ele>
        <time>2020-07-31T09:42:11.137Z</time>
      </trkpt>
      <trkpt lat="62.42218" lon="6.28471">
        <ele>75.120136</ele>
        <time>2020-07-31T09:42:14.115Z</time>
      </trkpt>
      <trkpt lat="62.42215" lon="6.28492">
        <ele>75.532192</ele>
        <time>2020-07-31T09:42:17.113Z</time>
      </trkpt>
      <trkpt lat="62.42212" lon="6.28512">
        <ele>75.92746</ele>
        <time>2020-07-31T09:42:20.114Z</time>
      </trkpt>
      <trkpt lat="62.42208" lon="6.28532">
        <ele>75.873361</ele>
        <time>2020-07-31T09:42:23.105Z</time>
      </trkpt>
      <trkpt lat="62.42206" lon="6.28551">
        <ele>75.789786</ele>
        <time>2020-07-31T09:42:26.118Z</time>
      </trkpt>
      <trkpt lat="62.42204" lon="6.2857">
        <ele>75.704564</ele>
        <time>2020-07-31T09:42:29.138Z</time>
      </trkpt>
      <trkpt lat="62.42203" lon="6.28589">
        <ele>75.621418</ele>
        <time>2020-07-31T09:42:32.122Z</time>
      </trkpt>
      <trkpt lat="62.42203" lon="6.28613">
        <ele>75.519071</ele>
        <time>2020-07-31T09:42:36.123Z</time>
      </trkpt>
      <trkpt lat="62.42203" lon="6.28636">
        <ele>75.423955</ele>
        <time>2020-07-31T09:42:40.112Z</time>
      </trkpt>
      <trkpt lat="62.422" lon="6.28659">
        <ele>75.32057</ele>
        <time>2020-07-31T09:42:44.148Z</time>
      </trkpt>
      <trkpt lat="62.42195" lon="6.28676">
        <ele>75.23706</ele>
        <time>2020-07-31T09:42:47.125Z</time>
      </trkpt>
      <trkpt lat="62.42188" lon="6.28696">
        <ele>75.128629</ele>
        <time>2020-07-31T09:42:51.143Z</time>
      </trkpt>
      <trkpt lat="62.42184" lon="6.28719">
        <ele>75.021817</ele>
        <time>2020-07-31T09:42:55.140Z</time>
      </trkpt>
      <trkpt lat="62.42182" lon="6.28743">
        <ele>74.920653</ele>
        <time>2020-07-31T09:42:59.114Z</time>
      </trkpt>
      <trkpt lat="62.42182" lon="6.28763">
        <ele>74.836135</ele>
        <time>2020-07-31T09:43:02.083Z</time>
      </trkpt>
      <trkpt lat="62.42181" lon="6.28785">
        <ele>74.738408</ele>
        <time>2020-07-31T09:43:05.105Z</time>
      </trkpt>
      <trkpt lat="62.42182" lon="6.2881">
        <ele>74.633826</ele>
        <time>2020-07-31T09:43:08.103Z</time>
      </trkpt>
      <trkpt lat="62.42182" lon="6.28834">
        <ele>74.53218</ele>
        <time>2020-07-31T09:43:11.104Z</time>
      </trkpt>
      <trkpt lat="62.42182" lon="6.28856">
        <ele>74.435732</ele>
        <time>2020-07-31T09:43:14.136Z</time>
      </trkpt>
      <trkpt lat="62.42182" lon="6.2888">
        <ele>74.334595</ele>
        <time>2020-07-31T09:43:17.099Z</time>
      </trkpt>
      <trkpt lat="62.42182" lon="6.28903">
        <ele>74.479573</ele>
        <time>2020-07-31T09:43:20.138Z</time>
      </trkpt>
      <trkpt lat="62.42182" lon="6.28926">
        <ele>74.774529</ele>
        <time>2020-07-31T09:43:23.101Z</time>
      </trkpt>
      <trkpt lat="62.4218" lon="6.28951">
        <ele>75.099931</ele>
        <time>2020-07-31T09:43:26.098Z</time>
      </trkpt>
      <trkpt lat="62.42178" lon="6.28973">
        <ele>75.391728</ele>
        <time>2020-07-31T09:43:29.095Z</time>
      </trkpt>
      <trkpt lat="62.42178" lon="6.28995">
        <ele>75.674426</ele>
        <time>2020-07-31T09:43:32.113Z</time>
      </trkpt>
      <trkpt lat="62.42177" lon="6.29017">
        <ele>75.96194</ele>
        <time>2020-07-31T09:43:35.133Z</time>
      </trkpt>
      <trkpt lat="62.42177" lon="6.29041">
        <ele>76.274032</ele>
        <time>2020-07-31T09:43:38.104Z</time>
      </trkpt>
      <trkpt lat="62.42177" lon="6.29067">
        <ele>76.607617</ele>
        <time>2020-07-31T09:43:41.115Z</time>
      </trkpt>
      <trkpt lat="62.42177" lon="6.29094">
        <ele>76.954033</ele>
        <time>2020-07-31T09:43:44.104Z</time>
      </trkpt>
      <trkpt lat="62.42177" lon="6.29121">
        <ele>77.300851</ele>
        <time>2020-07-31T09:43:47.094Z</time>
      </trkpt>
      <trkpt lat="62.42179" lon="6.29149">
        <ele>77.660679</ele>
        <time>2020-07-31T09:43:50.095Z</time>
      </trkpt>
      <trkpt lat="62.42181" lon="6.29177">
        <ele>78.031188</ele>
        <time>2020-07-31T09:43:53.123Z</time>
      </trkpt>
      <trkpt lat="62.42183" lon="6.29204">
        <ele>78.388041</ele>
        <time>2020-07-31T09:43:56.103Z</time>
      </trkpt>
      <trkpt lat="62.42184" lon="6.29231">
        <ele>78.737343</ele>
        <time>2020-07-31T09:43:59.114Z</time>
      </trkpt>
      <trkpt lat="62.42186" lon="6.29259">
        <ele>79.097557</ele>
        <time>2020-07-31T09:44:02.118Z</time>
      </trkpt>
      <trkpt lat="62.42188" lon="6.29279">
        <ele>79.328769</ele>
        <time>2020-07-31T09:44:04.104Z</time>
      </trkpt>
      <trkpt lat="62.4219" lon="6.29299">
        <ele>79.456764</ele>
        <time>2020-07-31T09:44:06.103Z</time>
      </trkpt>
      <trkpt lat="62.42192" lon="6.29319">
        <ele>79.585975</ele>
        <time>2020-07-31T09:44:08.144Z</time>
      </trkpt>
      <trkpt lat="62.42194" lon="6.29339">
        <ele>79.716115</ele>
        <time>2020-07-31T09:44:10.121Z</time>
      </trkpt>
      <trkpt lat="62.42197" lon="6.29359">
        <ele>79.848872</ele>
        <time>2020-07-31T09:44:12.120Z</time>
      </trkpt>
      <trkpt lat="62.42199" lon="6.2938">
        <ele>79.985863</ele>
        <time>2020-07-31T09:44:14.095Z</time>
      </trkpt>
      <trkpt lat="62.42202" lon="6.29402">
        <ele>80.126203</ele>
        <time>2020-07-31T09:44:16.103Z</time>
      </trkpt>
      <trkpt lat="62.42205" lon="6.29422">
        <ele>80.261939</ele>
        <time>2020-07-31T09:44:18.119Z</time>
      </trkpt>
      <trkpt lat="62.42209" lon="6.29442">
        <ele>80.396579</ele>
        <time>2020-07-31T09:44:20.190Z</time>
      </trkpt>
      <trkpt lat="62.42212" lon="6.29462">
        <ele>80.528531</ele>
        <time>2020-07-31T09:44:22.117Z</time>
      </trkpt>
      <trkpt lat="62.42216" lon="6.29481">
        <ele>80.659737</ele>
        <time>2020-07-31T09:44:24.089Z</time>
      </trkpt>
      <trkpt lat="62.42221" lon="6.29499">
        <ele>80.791393</ele>
        <time>2020-07-31T09:44:26.142Z</time>
      </trkpt>
      <trkpt lat="62.42227" lon="6.29516">
        <ele>80.922308</ele>
        <time>2020-07-31T09:44:28.092Z</time>
      </trkpt>
      <trkpt lat="62.42232" lon="6.29535">
        <ele>81.057985</ele>
        <time>2020-07-31T09:44:30.090Z</time>
      </trkpt>
      <trkpt lat="62.42238" lon="6.29553">
        <ele>81.202843</ele>
        <time>2020-07-31T09:44:32.124Z</time>
      </trkpt>
      <trkpt lat="62.42245" lon="6.2957">
        <ele>81.344432</ele>
        <time>2020-07-31T09:44:34.096Z</time>
      </trkpt>
      <trkpt lat="62.42252" lon="6.29585">
        <ele>81.480984</ele>
        <time>2020-07-31T09:44:36.101Z</time>
      </trkpt>
      <trkpt lat="62.4226" lon="6.296">
        <ele>81.616912</ele>
        <time>2020-07-31T09:44:38.136Z</time>
      </trkpt>
      <trkpt lat="62.42267" lon="6.29614">
        <ele>81.733187</ele>
        <time>2020-07-31T09:44:40.117Z</time>
      </trkpt>
      <trkpt lat="62.42275" lon="6.29626">
        <ele>81.577454</ele>
        <time>2020-07-31T09:44:42.101Z</time>
      </trkpt>
      <trkpt lat="62.42285" lon="6.29644">
        <ele>81.362593</ele>
        <time>2020-07-31T09:44:45.110Z</time>
      </trkpt>
      <trkpt lat="62.42294" lon="6.2966">
        <ele>81.160232</ele>
        <time>2020-07-31T09:44:48.137Z</time>
      </trkpt>
      <trkpt lat="62.42302" lon="6.29676">
        <ele>80.984705</ele>
        <time>2020-07-31T09:44:51.093Z</time>
      </trkpt>
      <trkpt lat="62.4231" lon="6.29689">
        <ele>80.823672</ele>
        <time>2020-07-31T09:44:54.122Z</time>
      </trkpt>
      <trkpt lat="62.42317" lon="6.29705">
        <ele>80.651586</ele>
        <time>2020-07-31T09:44:57.107Z</time>
      </trkpt>
      <trkpt lat="62.42325" lon="6.29721">
        <ele>80.470844</ele>
        <time>2020-07-31T09:45:00.110Z</time>
      </trkpt>
      <trkpt lat="62.42334" lon="6.29739">
        <ele>80.278005</ele>
        <time>2020-07-31T09:45:03.122Z</time>
      </trkpt>
      <trkpt lat="62.42341" lon="6.29759">
        <ele>80.077605</ele>
        <time>2020-07-31T09:45:06.091Z</time>
      </trkpt>
      <trkpt lat="62.42348" lon="6.29781">
        <ele>79.873129</ele>
        <time>2020-07-31T09:45:09.093Z</time>
      </trkpt>
      <trkpt lat="62.42353" lon="6.29799">
        <ele>79.712835</ele>
        <time>2020-07-31T09:45:11.094Z</time>
      </trkpt>
      <trkpt lat="62.42358" lon="6.29817">
        <ele>79.555153</ele>
        <time>2020-07-31T09:45:13.097Z</time>
      </trkpt>
      <trkpt lat="62.42365" lon="6.29834">
        <ele>79.387241</ele>
        <time>2020-07-31T09:45:15.122Z</time>
      </trkpt>
      <trkpt lat="62.42371" lon="6.29854">
        <ele>79.200621</ele>
        <time>2020-07-31T09:45:17.143Z</time>
      </trkpt>
      <trkpt lat="62.42378" lon="6.29876">
        <ele>79.00108</ele>
        <time>2020-07-31T09:45:19.094Z</time>
      </trkpt>
      <trkpt lat="62.42384" lon="6.299">
        <ele>78.788585</ele>
        <time>2020-07-31T09:45:21.102Z</time>
      </trkpt>
      <trkpt lat="62.42392" lon="6.29924">
        <ele>78.139934</ele>
        <time>2020-07-31T09:45:23.104Z</time>
      </trkpt>
      <trkpt lat="62.424" lon="6.29951">
        <ele>77.412334</ele>
        <time>2020-07-31T09:45:25.171Z</time>
      </trkpt>
      <trkpt lat="62.42407" lon="6.29976">
        <ele>76.724689</ele>
        <time>2020-07-31T09:45:27.116Z</time>
      </trkpt>
      <trkpt lat="62.42415" lon="6.30004">
        <ele>75.98117</ele>
        <time>2020-07-31T09:45:29.101Z</time>
      </trkpt>
      <trkpt lat="62.42424" lon="6.30033">
        <ele>75.170161</ele>
        <time>2020-07-31T09:45:31.169Z</time>
      </trkpt>
      <trkpt lat="62.42432" lon="6.30064">
        <ele>74.321076</ele>
        <time>2020-07-31T09:45:33.077Z</time>
      </trkpt>
      <trkpt lat="62.42441" lon="6.30096">
        <ele>73.492041</ele>
        <time>2020-07-31T09:45:35.114Z</time>
      </trkpt>
      <trkpt lat="62.4245" lon="6.30126">
        <ele>72.669159</ele>
        <time>2020-07-31T09:45:37.134Z</time>
      </trkpt>
      <trkpt lat="62.42458" lon="6.30155">
        <ele>71.869322</ele>
        <time>2020-07-31T09:45:39.108Z</time>
      </trkpt>
      <trkpt lat="62.42465" lon="6.30184">
        <ele>71.117821</ele>
        <time>2020-07-31T09:45:41.134Z</time>
      </trkpt>
      <trkpt lat="62.42471" lon="6.30212">
        <ele>70.390446</ele>
        <time>2020-07-31T09:45:43.104Z</time>
      </trkpt>
      <trkpt lat="62.42477" lon="6.3024">
        <ele>69.847248</ele>
        <time>2020-07-31T09:45:45.102Z</time>
      </trkpt>
      <trkpt lat="62.42483" lon="6.30269">
        <ele>70.091088</ele>
        <time>2020-07-31T09:45:47.114Z</time>
      </trkpt>
      <trkpt lat="62.42489" lon="6.30297">
        <ele>70.327181</ele>
        <time>2020-07-31T09:45:49.086Z</time>
      </trkpt>
      <trkpt lat="62.42495" lon="6.3032">
        <ele>70.53215</ele>
        <time>2020-07-31T09:45:51.102Z</time>
      </trkpt>
      <trkpt lat="62.42504" lon="6.30334">
        <ele>70.726845</ele>
        <time>2020-07-31T09:45:53.105Z</time>
      </trkpt>
      <trkpt lat="62.42516" lon="6.30344">
        <ele>70.93675</ele>
        <time>2020-07-31T09:45:55.085Z</time>
      </trkpt>
      <trkpt lat="62.42524" lon="6.30358">
        <ele>71.107052</ele>
        <time>2020-07-31T09:45:57.121Z</time>
      </trkpt>
      <trkpt lat="62.42527" lon="6.30383">
        <ele>71.307679</ele>
        <time>2020-07-31T09:46:00.157Z</time>
      </trkpt>
      <trkpt lat="62.4253" lon="6.30402">
        <ele>71.467748</ele>
        <time>2020-07-31T09:46:03.138Z</time>
      </trkpt>
      <trkpt lat="62.4253" lon="6.30425">
        <ele>71.640101</ele>
        <time>2020-07-31T09:46:07.096Z</time>
      </trkpt>
      <trkpt lat="62.42525" lon="6.30444">
        <ele>71.816016</ele>
        <time>2020-07-31T09:46:11.117Z</time>
      </trkpt>
      <trkpt lat="62.42524" lon="6.30469">
        <ele>72.008371</ele>
        <time>2020-07-31T09:46:15.108Z</time>
      </trkpt>
      <trkpt lat="62.42525" lon="6.30489">
        <ele>72.162231</ele>
        <time>2020-07-31T09:46:18.135Z</time>
      </trkpt>
      <trkpt lat="62.42528" lon="6.30513">
        <ele>72.35688</ele>
        <time>2020-07-31T09:46:22.121Z</time>
      </trkpt>
      <trkpt lat="62.42531" lon="6.30537">
        <ele>72.548082</ele>
        <time>2020-07-31T09:46:26.113Z</time>
      </trkpt>
      <trkpt lat="62.42538" lon="6.30559">
        <ele>72.751126</ele>
        <time>2020-07-31T09:46:30.101Z</time>
      </trkpt>
      <trkpt lat="62.42542" lon="6.30578">
        <ele>72.872499</ele>
        <time>2020-07-31T09:46:33.107Z</time>
      </trkpt>
      <trkpt lat="62.42547" lon="6.30595">
        <ele>72.95538</ele>
        <time>2020-07-31T09:46:36.113Z</time>
      </trkpt>
      <trkpt lat="62.42551" lon="6.30619">
        <ele>73.061291</ele>
        <time>2020-07-31T09:46:40.135Z</time>
      </trkpt>
      <trkpt lat="62.42555" lon="6.30639">
        <ele>73.156088</ele>
        <time>2020-07-31T09:46:44.106Z</time>
      </trkpt>
      <trkpt lat="62.4256" lon="6.30656">
        <ele>73.238794</ele>
        <time>2020-07-31T09:46:48.138Z</time>
      </trkpt>
      <trkpt lat="62.42565" lon="6.30672">
        <ele>73.320509</ele>
        <time>2020-07-31T09:46:52.115Z</time>
      </trkpt>
      <trkpt lat="62.42571" lon="6.30687">
        <ele>73.40257</ele>
        <time>2020-07-31T09:46:56.094Z</time>
      </trkpt>
      <trkpt lat="62.42579" lon="6.30702">
        <ele>73.494625</ele>
        <time>2020-07-31T09:47:00.116Z</time>
      </trkpt>
      <trkpt lat="62.42582" lon="6.30726">
        <ele>73.602386</ele>
        <time>2020-07-31T09:47:04.124Z</time>
      </trkpt>
      <trkpt lat="62.42586" lon="6.30743">
        <ele>73.683652</ele>
        <time>2020-07-31T09:47:07.102Z</time>
      </trkpt>
      <trkpt lat="62.42593" lon="6.30761">
        <ele>73.783703</ele>
        <time>2020-07-31T09:47:10.101Z</time>
      </trkpt>
      <trkpt lat="62.42601" lon="6.30781">
        <ele>73.893322</ele>
        <time>2020-07-31T09:47:13.125Z</time>
      </trkpt>
      <trkpt lat="62.4261" lon="6.30802">
        <ele>74.012203</ele>
        <time>2020-07-31T09:47:16.124Z</time>
      </trkpt>
      <trkpt lat="62.42616" lon="6.30817">
        <ele>74.093938</ele>
        <time>2020-07-31T09:47:18.129Z</time>
      </trkpt>
      <trkpt lat="62.42622" lon="6.30833">
        <ele>74.180467</ele>
        <time>2020-07-31T09:47:20.104Z</time>
      </trkpt>
      <trkpt lat="62.42629" lon="6.3085">
        <ele>74.273808</ele>
        <time>2020-07-31T09:47:22.117Z</time>
      </trkpt>
      <trkpt lat="62.42635" lon="6.30868">
        <ele>74.371906</ele>
        <time>2020-07-31T09:47:24.103Z</time>
      </trkpt>
      <trkpt lat="62.42641" lon="6.30887">
        <ele>74.507118</ele>
        <time>2020-07-31T09:47:26.117Z</time>
      </trkpt>
      <trkpt lat="62.42646" lon="6.30904">
        <ele>74.823058</ele>
        <time>2020-07-31T09:47:28.115Z</time>
      </trkpt>
      <trkpt lat="62.42653" lon="6.30927">
        <ele>75.226928</ele>
        <time>2020-07-31T09:47:31.101Z</time>
      </trkpt>
      <trkpt lat="62.42657" lon="6.30946">
        <ele>75.543799</ele>
        <time>2020-07-31T09:47:34.108Z</time>
      </trkpt>
      <trkpt lat="62.42663" lon="6.30966">
        <ele>75.906502</ele>
        <time>2020-07-31T09:47:38.125Z</time>
      </trkpt>
      <trkpt lat="62.42669" lon="6.30983">
        <ele>76.224334</ele>
        <time>2020-07-31T09:47:42.100Z</time>
      </trkpt>
      <trkpt lat="62.42674" lon="6.31002">
        <ele>76.55141</ele>
        <time>2020-07-31T09:47:46.126Z</time>
      </trkpt>
      <trkpt lat="62.42679" lon="6.31018">
        <ele>76.845909</ele>
        <time>2020-07-31T09:47:50.155Z</time>
      </trkpt>
      <trkpt lat="62.42684" lon="6.31034">
        <ele>77.138237</ele>
        <time>2020-07-31T09:47:54.121Z</time>
      </trkpt>
      <trkpt lat="62.42689" lon="6.31053">
        <ele>77.469592</ele>
        <time>2020-07-31T09:47:59.114Z</time>
      </trkpt>
      <trkpt lat="62.42694" lon="6.31071">
        <ele>77.787175</ele>
        <time>2020-07-31T09:48:04.123Z</time>
      </trkpt>
      <trkpt lat="62.42698" lon="6.31092">
        <ele>78.131393</ele>
        <time>2020-07-31T09:48:10.143Z</time>
      </trkpt>
      <trkpt lat="62.42703" lon="6.31108">
        <ele>78.427457</ele>
        <time>2020-07-31T09:48:15.105Z</time>
      </trkpt>
      <trkpt lat="62.42709" lon="6.31126">
        <ele>78.749068</ele>
        <time>2020-07-31T09:48:20.109Z</time>
      </trkpt>
      <trkpt lat="62.42715" lon="6.31144">
        <ele>79.084499</ele>
        <time>2020-07-31T09:48:25.142Z</time>
      </trkpt>
      <trkpt lat="62.42722" lon="6.31155">
        <ele>79.382149</ele>
        <time>2020-07-31T09:48:29.140Z</time>
      </trkpt>
      <trkpt lat="62.42728" lon="6.31171">
        <ele>79.676086</ele>
        <time>2020-07-31T09:48:33.096Z</time>
      </trkpt>
      <trkpt lat="62.42734" lon="6.31191">
        <ele>80.03488</ele>
        <time>2020-07-31T09:48:38.125Z</time>
      </trkpt>
      <trkpt lat="62.42739" lon="6.31211">
        <ele>80.268119</ele>
        <time>2020-07-31T09:48:43.089Z</time>
      </trkpt>
      <trkpt lat="62.42741" lon="6.31232">
        <ele>79.95174</ele>
        <time>2020-07-31T09:48:48.090Z</time>
      </trkpt>
      <trkpt lat="62.42745" lon="6.31253">
        <ele>79.615614</ele>
        <time>2020-07-31T09:48:53.111Z</time>
      </trkpt>
      <trkpt lat="62.42749" lon="6.31274">
        <ele>79.298752</ele>
        <time>2020-07-31T09:48:57.103Z</time>
      </trkpt>
      <trkpt lat="62.42751" lon="6.31296">
        <ele>78.966727</ele>
        <time>2020-07-31T09:49:01.125Z</time>
      </trkpt>
      <trkpt lat="62.42753" lon="6.31316">
        <ele>78.672993</ele>
        <time>2020-07-31T09:49:04.093Z</time>
      </trkpt>
      <trkpt lat="62.42756" lon="6.3134">
        <ele>78.311172</ele>
        <time>2020-07-31T09:49:07.104Z</time>
      </trkpt>
      <trkpt lat="62.4276" lon="6.31366">
        <ele>77.902852</ele>
        <time>2020-07-31T09:49:10.097Z</time>
      </trkpt>
      <trkpt lat="62.42762" lon="6.31386">
        <ele>77.610392</ele>
        <time>2020-07-31T09:49:12.130Z</time>
      </trkpt>
      <trkpt lat="62.42764" lon="6.31408">
        <ele>77.280712</ele>
        <time>2020-07-31T09:49:14.129Z</time>
      </trkpt>
      <trkpt lat="62.42768" lon="6.31434">
        <ele>76.886862</ele>
        <time>2020-07-31T09:49:16.149Z</time>
      </trkpt>
      <trkpt lat="62.42772" lon="6.31463">
        <ele>76.448754</ele>
        <time>2020-07-31T09:49:18.103Z</time>
      </trkpt>
      <trkpt lat="62.42776" lon="6.31493">
        <ele>75.99401</ele>
        <time>2020-07-31T09:49:20.108Z</time>
      </trkpt>
      <trkpt lat="62.42781" lon="6.31523">
        <ele>75.531948</ele>
        <time>2020-07-31T09:49:22.120Z</time>
      </trkpt>
      <trkpt lat="62.42785" lon="6.31554">
        <ele>75.065491</ele>
        <time>2020-07-31T09:49:24.125Z</time>
      </trkpt>
      <trkpt lat="62.42787" lon="6.31587">
        <ele>74.588449</ele>
        <time>2020-07-31T09:49:26.093Z</time>
      </trkpt>
      <trkpt lat="62.42788" lon="6.31623">
        <ele>74.160101</ele>
        <time>2020-07-31T09:49:28.134Z</time>
      </trkpt>
      <trkpt lat="62.42789" lon="6.31658">
        <ele>73.74785</ele>
        <time>2020-07-31T09:49:30.130Z</time>
      </trkpt>
      <trkpt lat="62.42789" lon="6.3169">
        <ele>73.367866</ele>
        <time>2020-07-31T09:49:32.093Z</time>
      </trkpt>
      <trkpt lat="62.42789" lon="6.31717">
        <ele>73.049491</ele>
        <time>2020-07-31T09:49:34.121Z</time>
      </trkpt>
      <trkpt lat="62.4279" lon="6.31741">
        <ele>72.764713</ele>
        <time>2020-07-31T09:49:36.097Z</time>
      </trkpt>
      <trkpt lat="62.4279" lon="6.31764">
        <ele>72.488528</ele>
        <time>2020-07-31T09:49:38.120Z</time>
      </trkpt>
      <trkpt lat="62.4279" lon="6.31788">
        <ele>72.206667</ele>
        <time>2020-07-31T09:49:40.115Z</time>
      </trkpt>
      <trkpt lat="62.42787" lon="6.31812">
        <ele>71.924163</ele>
        <time>2020-07-31T09:49:42.110Z</time>
      </trkpt>
      <trkpt lat="62.42783" lon="6.31835">
        <ele>71.628939</ele>
        <time>2020-07-31T09:49:44.084Z</time>
      </trkpt>
      <trkpt lat="62.42777" lon="6.31856">
        <ele>71.330774</ele>
        <time>2020-07-31T09:49:46.099Z</time>
      </trkpt>
      <trkpt lat="62.42768" lon="6.31872">
        <ele>71.039712</ele>
        <time>2020-07-31T09:49:48.117Z</time>
      </trkpt>
      <trkpt lat="62.4276" lon="6.3189">
        <ele>70.74266</ele>
        <time>2020-07-31T09:49:50.141Z</time>
      </trkpt>
      <trkpt lat="62.42756" lon="6.31912">
        <ele>70.466358</ele>
        <time>2020-07-31T09:49:52.119Z</time>
      </trkpt>
      <trkpt lat="62.42754" lon="6.3193">
        <ele>70.235071</ele>
        <time>2020-07-31T09:49:54.109Z</time>
      </trkpt>
      <trkpt lat="62.42751" lon="6.31953">
        <ele>70.18997</ele>
        <time>2020-07-31T09:49:57.112Z</time>
      </trkpt>
      <trkpt lat="62.42748" lon="6.31974">
        <ele>70.509203</ele>
        <time>2020-07-31T09:50:00.100Z</time>
      </trkpt>
      <trkpt lat="62.42745" lon="6.31996">
        <ele>70.84308</ele>
        <time>2020-07-31T09:50:03.164Z</time>
      </trkpt>
      <trkpt lat="62.42743" lon="6.32017">
        <ele>71.156591</ele>
        <time>2020-07-31T09:50:06.100Z</time>
      </trkpt>
      <trkpt lat="62.42742" lon="6.32037">
        <ele>71.450448</ele>
        <time>2020-07-31T09:50:09.101Z</time>
      </trkpt>
      <trkpt lat="62.42742" lon="6.32057">
        <ele>71.737563</ele>
        <time>2020-07-31T09:50:12.121Z</time>
      </trkpt>
      <trkpt lat="62.42741" lon="6.32078">
        <ele>72.038361</ele>
        <time>2020-07-31T09:50:15.111Z</time>
      </trkpt>
      <trkpt lat="62.4274" lon="6.32098">
        <ele>72.336197</ele>
        <time>2020-07-31T09:50:18.098Z</time>
      </trkpt>
      <trkpt lat="62.4274" lon="6.32119">
        <ele>72.635346</ele>
        <time>2020-07-31T09:50:21.156Z</time>
      </trkpt>
      <trkpt lat="62.4274" lon="6.32139">
        <ele>72.92717</ele>
        <time>2020-07-31T09:50:24.143Z</time>
      </trkpt>
      <trkpt lat="62.42739" lon="6.32158">
        <ele>73.210718</ele>
        <time>2020-07-31T09:50:27.100Z</time>
      </trkpt>
      <trkpt lat="62.4274" lon="6.32178">
        <ele>73.499706</ele>
        <time>2020-07-31T09:50:30.112Z</time>
      </trkpt>
      <trkpt lat="62.4274" lon="6.32199">
        <ele>73.797487</ele>
        <time>2020-07-31T09:50:33.120Z</time>
      </trkpt>
      <trkpt lat="62.4274" lon="6.32219">
        <ele>74.086476</ele>
        <time>2020-07-31T09:50:36.138Z</time>
      </trkpt>
      <trkpt lat="62.42741" lon="6.32238">
        <ele>74.368103</ele>
        <time>2020-07-31T09:50:39.097Z</time>
      </trkpt>
      <trkpt lat="62.42743" lon="6.32258">
        <ele>74.65992</ele>
        <time>2020-07-31T09:50:42.115Z</time>
      </trkpt>
      <trkpt lat="62.42744" lon="6.32279">
        <ele>74.968008</ele>
        <time>2020-07-31T09:50:45.089Z</time>
      </trkpt>
      <trkpt lat="62.42747" lon="6.323">
        <ele>75.284144</ele>
        <time>2020-07-31T09:50:48.104Z</time>
      </trkpt>
      <trkpt lat="62.42749" lon="6.3232">
        <ele>75.587722</ele>
        <time>2020-07-31T09:50:51.110Z</time>
      </trkpt>
      <trkpt lat="62.42751" lon="6.32341">
        <ele>75.854618</ele>
        <time>2020-07-31T09:50:54.116Z</time>
      </trkpt>
      <trkpt lat="62.42753" lon="6.32363">
        <ele>76.1083</ele>
        <time>2020-07-31T09:50:57.099Z</time>
      </trkpt>
      <trkpt lat="62.42755" lon="6.32385">
        <ele>76.364141</ele>
        <time>2020-07-31T09:51:00.118Z</time>
      </trkpt>
      <trkpt lat="62.42757" lon="6.32408">
        <ele>76.625051</ele>
        <time>2020-07-31T09:51:03.144Z</time>
      </trkpt>
      <trkpt lat="62.4276" lon="6.3243">
        <ele>76.87551</ele>
        <time>2020-07-31T09:51:06.093Z</time>
      </trkpt>
      <trkpt lat="62.42763" lon="6.3245">
        <ele>77.126855</ele>
        <time>2020-07-31T09:51:09.103Z</time>
      </trkpt>
      <trkpt lat="62.42768" lon="6.32472">
        <ele>77.393872</ele>
        <time>2020-07-31T09:51:12.118Z</time>
      </trkpt>
      <trkpt lat="62.42773" lon="6.32495">
        <ele>77.689776</ele>
        <time>2020-07-31T09:51:15.172Z</time>
      </trkpt>
      <trkpt lat="62.42779" lon="6.32512">
        <ele>77.911047</ele>
        <time>2020-07-31T09:51:17.148Z</time>
      </trkpt>
      <trkpt lat="62.42784" lon="6.32528">
        <ele>78.137409</ele>
        <time>2020-07-31T09:51:19.102Z</time>
      </trkpt>
      <trkpt lat="62.4279" lon="6.32546">
        <ele>78.385083</ele>
        <time>2020-07-31T09:51:21.117Z</time>
      </trkpt>
      <trkpt lat="62.42796" lon="6.32564">
        <ele>78.644784</ele>
        <time>2020-07-31T09:51:23.132Z</time>
      </trkpt>
      <trkpt lat="62.42803" lon="6.32582">
        <ele>78.898573</ele>
        <time>2020-07-31T09:51:25.143Z</time>
      </trkpt>
      <trkpt lat="62.42809" lon="6.32599">
        <ele>79.143394</ele>
        <time>2020-07-31T09:51:27.115Z</time>
      </trkpt>
      <trkpt lat="62.42815" lon="6.32616">
        <ele>79.385339</ele>
        <time>2020-07-31T09:51:29.104Z</time>
      </trkpt>
      <trkpt lat="62.42822" lon="6.32631">
        <ele>79.625194</ele>
        <time>2020-07-31T09:51:31.116Z</time>
      </trkpt>
      <trkpt lat="62.42828" lon="6.32647">
        <ele>79.859299</ele>
        <time>2020-07-31T09:51:33.078Z</time>
      </trkpt>
      <trkpt lat="62.42834" lon="6.32662">
        <ele>80.082387</ele>
        <time>2020-07-31T09:51:35.121Z</time>
      </trkpt>
      <trkpt lat="62.42841" lon="6.32678">
        <ele>79.875952</ele>
        <time>2020-07-31T09:51:37.097Z</time>
      </trkpt>
      <trkpt lat="62.42848" lon="6.32693">
        <ele>79.674485</ele>
        <time>2020-07-31T09:51:39.097Z</time>
      </trkpt>
      <trkpt lat="62.42855" lon="6.32708">
        <ele>79.473019</ele>
        <time>2020-07-31T09:51:41.134Z</time>
      </trkpt>
      <trkpt lat="62.42861" lon="6.32723">
        <ele>79.275821</ele>
        <time>2020-07-31T09:51:43.122Z</time>
      </trkpt>
      <trkpt lat="62.42867" lon="6.32739">
        <ele>79.069952</ele>
        <time>2020-07-31T09:51:45.115Z</time>
      </trkpt>
      <trkpt lat="62.42874" lon="6.32756">
        <ele>78.863196</ele>
        <time>2020-07-31T09:51:47.108Z</time>
      </trkpt>
      <trkpt lat="62.42879" lon="6.32772">
        <ele>78.668456</ele>
        <time>2020-07-31T09:51:49.122Z</time>
      </trkpt>
      <trkpt lat="62.42886" lon="6.32788">
        <ele>78.465402</ele>
        <time>2020-07-31T09:51:51.115Z</time>
      </trkpt>
      <trkpt lat="62.42891" lon="6.32805">
        <ele>78.264437</ele>
        <time>2020-07-31T09:51:53.155Z</time>
      </trkpt>
      <trkpt lat="62.42897" lon="6.32823">
        <ele>78.053182</ele>
        <time>2020-07-31T09:51:55.114Z</time>
      </trkpt>
      <trkpt lat="62.42904" lon="6.32841">
        <ele>77.834757</ele>
        <time>2020-07-31T09:51:57.093Z</time>
      </trkpt>
      <trkpt lat="62.42909" lon="6.32859">
        <ele>77.62105</ele>
        <time>2020-07-31T09:51:59.102Z</time>
      </trkpt>
      <trkpt lat="62.42915" lon="6.32879">
        <ele>77.400538</ele>
        <time>2020-07-31T09:52:01.094Z</time>
      </trkpt>
      <trkpt lat="62.4292" lon="6.329">
        <ele>77.174034</ele>
        <time>2020-07-31T09:52:03.112Z</time>
      </trkpt>
      <trkpt lat="62.42924" lon="6.3292">
        <ele>76.959894</ele>
        <time>2020-07-31T09:52:05.173Z</time>
      </trkpt>
      <trkpt lat="62.42927" lon="6.32946">
        <ele>76.700956</ele>
        <time>2020-07-31T09:52:08.110Z</time>
      </trkpt>
      <trkpt lat="62.42929" lon="6.32966">
        <ele>76.503581</ele>
        <time>2020-07-31T09:52:11.134Z</time>
      </trkpt>
      <trkpt lat="62.42931" lon="6.32988">
        <ele>76.122677</ele>
        <time>2020-07-31T09:52:14.162Z</time>
      </trkpt>
      <trkpt lat="62.42934" lon="6.33009">
        <ele>75.128591</ele>
        <time>2020-07-31T09:52:17.094Z</time>
      </trkpt>
      <trkpt lat="62.42937" lon="6.3303">
        <ele>74.147957</ele>
        <time>2020-07-31T09:52:20.136Z</time>
      </trkpt>
      <trkpt lat="62.42939" lon="6.3305">
        <ele>73.222139</ele>
        <time>2020-07-31T09:52:22.111Z</time>
      </trkpt>
      <trkpt lat="62.42941" lon="6.33074">
        <ele>72.097572</ele>
        <time>2020-07-31T09:52:24.118Z</time>
      </trkpt>
      <trkpt lat="62.42944" lon="6.331">
        <ele>70.911046</ele>
        <time>2020-07-31T09:52:26.109Z</time>
      </trkpt>
      <trkpt lat="62.42945" lon="6.33129">
        <ele>69.618546</ele>
        <time>2020-07-31T09:52:28.101Z</time>
      </trkpt>
      <trkpt lat="62.42945" lon="6.33158">
        <ele>68.296197</ele>
        <time>2020-07-31T09:52:30.136Z</time>
      </trkpt>
      <trkpt lat="62.42945" lon="6.3319">
        <ele>66.901324</ele>
        <time>2020-07-31T09:52:32.080Z</time>
      </trkpt>
      <trkpt lat="62.42942" lon="6.33221">
        <ele>65.476327</ele>
        <time>2020-07-31T09:52:34.119Z</time>
      </trkpt>
      <trkpt lat="62.4294" lon="6.33252">
        <ele>64.066792</ele>
        <time>2020-07-31T09:52:36.137Z</time>
      </trkpt>
      <trkpt lat="62.42936" lon="6.33282">
        <ele>62.662608</ele>
        <time>2020-07-31T09:52:38.109Z</time>
      </trkpt>
      <trkpt lat="62.42933" lon="6.33312">
        <ele>61.29123</ele>
        <time>2020-07-31T09:52:40.105Z</time>
      </trkpt>
      <trkpt lat="62.4293" lon="6.33344">
        <ele>59.847204</ele>
        <time>2020-07-31T09:52:42.137Z</time>
      </trkpt>
      <trkpt lat="62.42928" lon="6.33377">
        <ele>58.701207</ele>
        <time>2020-07-31T09:52:44.106Z</time>
      </trkpt>
      <trkpt lat="62.42925" lon="6.33409">
        <ele>58.147639</ele>
        <time>2020-07-31T09:52:46.121Z</time>
      </trkpt>
      <trkpt lat="62.42923" lon="6.33442">
        <ele>57.57447</ele>
        <time>2020-07-31T09:52:48.141Z</time>
      </trkpt>
      <trkpt lat="62.42921" lon="6.33477">
        <ele>56.971326</ele>
        <time>2020-07-31T09:52:50.117Z</time>
      </trkpt>
      <trkpt lat="62.4292" lon="6.33514">
        <ele>56.342014</ele>
        <time>2020-07-31T09:52:52.139Z</time>
      </trkpt>
      <trkpt lat="62.4292" lon="6.33551">
        <ele>55.709145</ele>
        <time>2020-07-31T09:52:54.093Z</time>
      </trkpt>
      <trkpt lat="62.42919" lon="6.33588">
        <ele>55.06809</ele>
        <time>2020-07-31T09:52:56.119Z</time>
      </trkpt>
      <trkpt lat="62.42918" lon="6.33627">
        <ele>54.397652</ele>
        <time>2020-07-31T09:52:58.093Z</time>
      </trkpt>
      <trkpt lat="62.42919" lon="6.33647">
        <ele>54.064371</ele>
        <time>2020-07-31T09:52:59.129Z</time>
      </trkpt>
      <trkpt lat="62.4292" lon="6.33684">
        <ele>53.436072</ele>
        <time>2020-07-31T09:53:01.164Z</time>
      </trkpt>
      <trkpt lat="62.42921" lon="6.33714">
        <ele>52.911812</ele>
        <time>2020-07-31T09:53:03.097Z</time>
      </trkpt>
      <trkpt lat="62.42924" lon="6.33741">
        <ele>52.438229</ele>
        <time>2020-07-31T09:53:05.116Z</time>
      </trkpt>
      <trkpt lat="62.42927" lon="6.33767">
        <ele>52.281334</ele>
        <time>2020-07-31T09:53:07.110Z</time>
      </trkpt>
      <trkpt lat="62.42931" lon="6.33793">
        <ele>52.280347</ele>
        <time>2020-07-31T09:53:09.104Z</time>
      </trkpt>
      <trkpt lat="62.42934" lon="6.33818">
        <ele>52.279376</ele>
        <time>2020-07-31T09:53:11.130Z</time>
      </trkpt>
      <trkpt lat="62.42937" lon="6.33842">
        <ele>52.278425</ele>
        <time>2020-07-31T09:53:13.142Z</time>
      </trkpt>
      <trkpt lat="62.4294" lon="6.33867">
        <ele>52.277505</ele>
        <time>2020-07-31T09:53:15.114Z</time>
      </trkpt>
      <trkpt lat="62.42943" lon="6.33891">
        <ele>52.276555</ele>
        <time>2020-07-31T09:53:17.114Z</time>
      </trkpt>
      <trkpt lat="62.42947" lon="6.33916">
        <ele>52.275584</ele>
        <time>2020-07-31T09:53:19.116Z</time>
      </trkpt>
      <trkpt lat="62.4295" lon="6.33941">
        <ele>52.274625</ele>
        <time>2020-07-31T09:53:21.114Z</time>
      </trkpt>
      <trkpt lat="62.42954" lon="6.33967">
        <ele>52.273623</ele>
        <time>2020-07-31T09:53:23.107Z</time>
      </trkpt>
      <trkpt lat="62.42958" lon="6.33992">
        <ele>52.27262</ele>
        <time>2020-07-31T09:53:25.135Z</time>
      </trkpt>
      <trkpt lat="62.42961" lon="6.34018">
        <ele>52.271645</ele>
        <time>2020-07-31T09:53:27.133Z</time>
      </trkpt>
      <trkpt lat="62.42965" lon="6.34043">
        <ele>52.270669</ele>
        <time>2020-07-31T09:53:29.125Z</time>
      </trkpt>
      <trkpt lat="62.42968" lon="6.34067">
        <ele>52.269717</ele>
        <time>2020-07-31T09:53:31.149Z</time>
      </trkpt>
      <trkpt lat="62.42973" lon="6.34089">
        <ele>52.268828</ele>
        <time>2020-07-31T09:53:33.163Z</time>
      </trkpt>
      <trkpt lat="62.42976" lon="6.3411">
        <ele>52.268002</ele>
        <time>2020-07-31T09:53:35.103Z</time>
      </trkpt>
      <trkpt lat="62.4298" lon="6.34128">
        <ele>52.323507</ele>
        <time>2020-07-31T09:53:37.097Z</time>
      </trkpt>
      <trkpt lat="62.42983" lon="6.34153">
        <ele>52.497582</ele>
        <time>2020-07-31T09:53:40.117Z</time>
      </trkpt>
      <trkpt lat="62.42986" lon="6.34178">
        <ele>52.671597</ele>
        <time>2020-07-31T09:53:43.128Z</time>
      </trkpt>
      <trkpt lat="62.4299" lon="6.34202">
        <ele>52.848072</ele>
        <time>2020-07-31T09:53:46.137Z</time>
      </trkpt>
      <trkpt lat="62.42994" lon="6.34225">
        <ele>53.012208</ele>
        <time>2020-07-31T09:53:49.145Z</time>
      </trkpt>
      <trkpt lat="62.42998" lon="6.34249">
        <ele>53.189296</ele>
        <time>2020-07-31T09:53:52.137Z</time>
      </trkpt>
      <trkpt lat="62.43002" lon="6.34274">
        <ele>53.365336</ele>
        <time>2020-07-31T09:53:55.110Z</time>
      </trkpt>
      <trkpt lat="62.43007" lon="6.34298">
        <ele>53.547716</ele>
        <time>2020-07-31T09:53:58.098Z</time>
      </trkpt>
      <trkpt lat="62.43012" lon="6.34323">
        <ele>53.725973</ele>
        <time>2020-07-31T09:54:01.086Z</time>
      </trkpt>
      <trkpt lat="62.43017" lon="6.3435">
        <ele>53.923885</ele>
        <time>2020-07-31T09:54:04.125Z</time>
      </trkpt>
      <trkpt lat="62.43021" lon="6.34369">
        <ele>54.062489</ele>
        <time>2020-07-31T09:54:06.135Z</time>
      </trkpt>
      <trkpt lat="62.43025" lon="6.34388">
        <ele>54.206613</ele>
        <time>2020-07-31T09:54:08.106Z</time>
      </trkpt>
      <trkpt lat="62.43029" lon="6.34407">
        <ele>54.353276</ele>
        <time>2020-07-31T09:54:10.085Z</time>
      </trkpt>
      <trkpt lat="62.43034" lon="6.34426">
        <ele>54.502569</ele>
        <time>2020-07-31T09:54:12.121Z</time>
      </trkpt>
      <trkpt lat="62.43039" lon="6.34446">
        <ele>54.65366</ele>
        <time>2020-07-31T09:54:14.092Z</time>
      </trkpt>
      <trkpt lat="62.43043" lon="6.34464">
        <ele>54.786119</ele>
        <time>2020-07-31T09:54:16.094Z</time>
      </trkpt>
      <trkpt lat="62.43047" lon="6.34486">
        <ele>54.969604</ele>
        <time>2020-07-31T09:54:19.114Z</time>
      </trkpt>
      <trkpt lat="62.43051" lon="6.34507">
        <ele>55.19328</ele>
        <time>2020-07-31T09:54:22.105Z</time>
      </trkpt>
      <trkpt lat="62.43056" lon="6.34526">
        <ele>55.401989</ele>
        <time>2020-07-31T09:54:25.134Z</time>
      </trkpt>
      <trkpt lat="62.4306" lon="6.34548">
        <ele>55.646479</ele>
        <time>2020-07-31T09:54:29.132Z</time>
      </trkpt>
      <trkpt lat="62.43066" lon="6.34567">
        <ele>55.858718</ele>
        <time>2020-07-31T09:54:33.106Z</time>
      </trkpt>
      <trkpt lat="62.43071" lon="6.34586">
        <ele>56.079044</ele>
        <time>2020-07-31T09:54:37.139Z</time>
      </trkpt>
      <trkpt lat="62.43075" lon="6.34608">
        <ele>56.309599</ele>
        <time>2020-07-31T09:54:41.095Z</time>
      </trkpt>
      <trkpt lat="62.4308" lon="6.3463">
        <ele>56.556753</ele>
        <time>2020-07-31T09:54:45.144Z</time>
      </trkpt>
      <trkpt lat="62.43085" lon="6.34651">
        <ele>56.7835</ele>
        <time>2020-07-31T09:54:48.149Z</time>
      </trkpt>
      <trkpt lat="62.43088" lon="6.34676">
        <ele>57.038093</ele>
        <time>2020-07-31T09:54:51.113Z</time>
      </trkpt>
      <trkpt lat="62.43091" lon="6.34703">
        <ele>57.313077</ele>
        <time>2020-07-31T09:54:54.101Z</time>
      </trkpt>
      <trkpt lat="62.43093" lon="6.34723">
        <ele>57.517097</ele>
        <time>2020-07-31T09:54:56.129Z</time>
      </trkpt>
      <trkpt lat="62.43095" lon="6.34744">
        <ele>57.723988</ele>
        <time>2020-07-31T09:54:58.124Z</time>
      </trkpt>
      <trkpt lat="62.43098" lon="6.34766">
        <ele>57.941943</ele>
        <time>2020-07-31T09:55:00.134Z</time>
      </trkpt>
      <trkpt lat="62.43099" lon="6.3479">
        <ele>58.183936</ele>
        <time>2020-07-31T09:55:02.095Z</time>
      </trkpt>
      <trkpt lat="62.431" lon="6.34815">
        <ele>58.433879</ele>
        <time>2020-07-31T09:55:04.096Z</time>
      </trkpt>
      <trkpt lat="62.431" lon="6.34841">
        <ele>58.688512</ele>
        <time>2020-07-31T09:55:06.139Z</time>
      </trkpt>
      <trkpt lat="62.43099" lon="6.34868">
        <ele>58.640281</ele>
        <time>2020-07-31T09:55:08.111Z</time>
      </trkpt>
      <trkpt lat="62.43098" lon="6.34894">
        <ele>58.540976</ele>
        <time>2020-07-31T09:55:10.156Z</time>
      </trkpt>
      <trkpt lat="62.43098" lon="6.3492">
        <ele>58.442049</ele>
        <time>2020-07-31T09:55:12.104Z</time>
      </trkpt>
      <trkpt lat="62.43097" lon="6.34944">
        <ele>58.349487</ele>
        <time>2020-07-31T09:55:14.130Z</time>
      </trkpt>
      <trkpt lat="62.43096" lon="6.34965">
        <ele>58.271103</ele>
        <time>2020-07-31T09:55:16.108Z</time>
      </trkpt>
      <trkpt lat="62.43094" lon="6.34984">
        <ele>58.195238</ele>
        <time>2020-07-31T09:55:18.109Z</time>
      </trkpt>
      <trkpt lat="62.43092" lon="6.35003">
        <ele>58.12177</ele>
        <time>2020-07-31T09:55:20.119Z</time>
      </trkpt>
      <trkpt lat="62.43091" lon="6.35029">
        <ele>58.022612</ele>
        <time>2020-07-31T09:55:23.141Z</time>
      </trkpt>
      <trkpt lat="62.4309" lon="6.35052">
        <ele>57.935993</ele>
        <time>2020-07-31T09:55:26.107Z</time>
      </trkpt>
      <trkpt lat="62.43089" lon="6.35075">
        <ele>57.848857</ele>
        <time>2020-07-31T09:55:29.099Z</time>
      </trkpt>
      <trkpt lat="62.43088" lon="6.35099">
        <ele>57.756712</ele>
        <time>2020-07-31T09:55:32.153Z</time>
      </trkpt>
      <trkpt lat="62.43088" lon="6.35123">
        <ele>57.668068</ele>
        <time>2020-07-31T09:55:35.114Z</time>
      </trkpt>
      <trkpt lat="62.43089" lon="6.35148">
        <ele>57.571816</ele>
        <time>2020-07-31T09:55:38.150Z</time>
      </trkpt>
      <trkpt lat="62.43088" lon="6.35172">
        <ele>57.481218</ele>
        <time>2020-07-31T09:55:41.104Z</time>
      </trkpt>
      <trkpt lat="62.43088" lon="6.35194">
        <ele>57.398948</ele>
        <time>2020-07-31T09:55:44.128Z</time>
      </trkpt>
      <trkpt lat="62.43087" lon="6.35216">
        <ele>57.314905</ele>
        <time>2020-07-31T09:55:47.139Z</time>
      </trkpt>
      <trkpt lat="62.43087" lon="6.35238">
        <ele>57.414319</ele>
        <time>2020-07-31T09:55:50.097Z</time>
      </trkpt>
      <trkpt lat="62.43087" lon="6.35261">
        <ele>57.984812</ele>
        <time>2020-07-31T09:55:53.111Z</time>
      </trkpt>
      <trkpt lat="62.43086" lon="6.35282">
        <ele>58.538302</ele>
        <time>2020-07-31T09:55:56.104Z</time>
      </trkpt>
      <trkpt lat="62.43086" lon="6.35303">
        <ele>59.059648</ele>
        <time>2020-07-31T09:55:59.093Z</time>
      </trkpt>
      <trkpt lat="62.43085" lon="6.35327">
        <ele>59.680648</ele>
        <time>2020-07-31T09:56:03.120Z</time>
      </trkpt>
      <trkpt lat="62.43084" lon="6.35347">
        <ele>60.184088</ele>
        <time>2020-07-31T09:56:07.112Z</time>
      </trkpt>
      <trkpt lat="62.43082" lon="6.35369">
        <ele>60.753759</ele>
        <time>2020-07-31T09:56:12.144Z</time>
      </trkpt>
      <trkpt lat="62.43083" lon="6.35391">
        <ele>61.319523</ele>
        <time>2020-07-31T09:56:17.130Z</time>
      </trkpt>
      <trkpt lat="62.43084" lon="6.35412">
        <ele>61.859923</ele>
        <time>2020-07-31T09:56:22.100Z</time>
      </trkpt>
      <trkpt lat="62.43084" lon="6.35433">
        <ele>62.394319</ele>
        <time>2020-07-31T09:56:27.090Z</time>
      </trkpt>
      <trkpt lat="62.43084" lon="6.35456">
        <ele>62.982068</ele>
        <time>2020-07-31T09:56:33.132Z</time>
      </trkpt>
      <trkpt lat="62.43085" lon="6.35477">
        <ele>63.495016</ele>
        <time>2020-07-31T09:56:38.133Z</time>
      </trkpt>
      <trkpt lat="62.43088" lon="6.35497">
        <ele>64.04735</ele>
        <time>2020-07-31T09:56:44.139Z</time>
      </trkpt>
      <trkpt lat="62.43094" lon="6.35514">
        <ele>64.610998</ele>
        <time>2020-07-31T09:56:50.157Z</time>
      </trkpt>
      <trkpt lat="62.43103" lon="6.35528">
        <ele>65.178895</ele>
        <time>2020-07-31T09:56:56.101Z</time>
      </trkpt>
      <trkpt lat="62.43111" lon="6.35539">
        <ele>65.719201</ele>
        <time>2020-07-31T09:57:02.116Z</time>
      </trkpt>
      <trkpt lat="62.43119" lon="6.35549">
        <ele>66.24608</ele>
        <time>2020-07-31T09:57:08.105Z</time>
      </trkpt>
      <trkpt lat="62.43128" lon="6.35559">
        <ele>66.787453</ele>
        <time>2020-07-31T09:57:14.126Z</time>
      </trkpt>
      <trkpt lat="62.43136" lon="6.35569">
        <ele>67.272286</ele>
        <time>2020-07-31T09:57:20.134Z</time>
      </trkpt>
      <trkpt lat="62.43145" lon="6.35576">
        <ele>67.64376</ele>
        <time>2020-07-31T09:57:27.132Z</time>
      </trkpt>
      <trkpt lat="62.43155" lon="6.35581">
        <ele>68.068185</ele>
        <time>2020-07-31T09:57:33.100Z</time>
      </trkpt>
      <trkpt lat="62.43164" lon="6.35586">
        <ele>68.43627</ele>
        <time>2020-07-31T09:57:38.136Z</time>
      </trkpt>
      <trkpt lat="62.43174" lon="6.35594">
        <ele>68.869658</ele>
        <time>2020-07-31T09:57:44.158Z</time>
      </trkpt>
      <trkpt lat="62.43182" lon="6.35601">
        <ele>69.236796</ele>
        <time>2020-07-31T09:57:49.123Z</time>
      </trkpt>
      <trkpt lat="62.43192" lon="6.35609">
        <ele>69.642855</ele>
        <time>2020-07-31T09:57:54.121Z</time>
      </trkpt>
      <trkpt lat="62.43202" lon="6.35617">
        <ele>70.081645</ele>
        <time>2020-07-31T09:58:00.113Z</time>
      </trkpt>
      <trkpt lat="62.43212" lon="6.35625">
        <ele>70.517589</ele>
        <time>2020-07-31T09:58:06.099Z</time>
      </trkpt>
      <trkpt lat="62.43222" lon="6.35632">
        <ele>70.947226</ele>
        <time>2020-07-31T09:58:11.118Z</time>
      </trkpt>
      <trkpt lat="62.43231" lon="6.35639">
        <ele>71.336567</ele>
        <time>2020-07-31T09:58:15.160Z</time>
      </trkpt>
      <trkpt lat="62.43241" lon="6.35647">
        <ele>71.762961</ele>
        <time>2020-07-31T09:58:20.096Z</time>
      </trkpt>
      <trkpt lat="62.4325" lon="6.35652">
        <ele>72.175568</ele>
        <time>2020-07-31T09:58:24.114Z</time>
      </trkpt>
      <trkpt lat="62.43261" lon="6.35659">
        <ele>72.620081</ele>
        <time>2020-07-31T09:58:28.115Z</time>
      </trkpt>
      <trkpt lat="62.43271" lon="6.35668">
        <ele>73.06306</ele>
        <time>2020-07-31T09:58:32.152Z</time>
      </trkpt>
      <trkpt lat="62.43282" lon="6.35674">
        <ele>73.51313</ele>
        <time>2020-07-31T09:58:36.138Z</time>
      </trkpt>
      <trkpt lat="62.43293" lon="6.35682">
        <ele>73.995408</ele>
        <time>2020-07-31T09:58:40.117Z</time>
      </trkpt>
      <trkpt lat="62.43302" lon="6.35688">
        <ele>74.378227</ele>
        <time>2020-07-31T09:58:43.125Z</time>
      </trkpt>
      <trkpt lat="62.43311" lon="6.35693">
        <ele>74.621946</ele>
        <time>2020-07-31T09:58:46.130Z</time>
      </trkpt>
      <trkpt lat="62.4332" lon="6.35698">
        <ele>74.824975</ele>
        <time>2020-07-31T09:58:49.100Z</time>
      </trkpt>
      <trkpt lat="62.43331" lon="6.35705">
        <ele>75.086085</ele>
        <time>2020-07-31T09:58:53.119Z</time>
      </trkpt>
      <trkpt lat="62.43339" lon="6.35712">
        <ele>75.288972</ele>
        <time>2020-07-31T09:58:56.153Z</time>
      </trkpt>
      <trkpt lat="62.4335" lon="6.3572">
        <ele>75.550082</ele>
        <time>2020-07-31T09:59:00.100Z</time>
      </trkpt>
      <trkpt lat="62.43361" lon="6.35728">
        <ele>75.806408</ele>
        <time>2020-07-31T09:59:04.117Z</time>
      </trkpt>
      <trkpt lat="62.43372" lon="6.35736">
        <ele>76.062001</ele>
        <time>2020-07-31T09:59:08.168Z</time>
      </trkpt>
      <trkpt lat="62.43383" lon="6.35745">
        <ele>76.324989</ele>
        <time>2020-07-31T09:59:12.116Z</time>
      </trkpt>
      <trkpt lat="62.43392" lon="6.35752">
        <ele>76.533782</ele>
        <time>2020-07-31T09:59:15.134Z</time>
      </trkpt>
      <trkpt lat="62.43401" lon="6.35759">
        <ele>76.760925</ele>
        <time>2020-07-31T09:59:18.145Z</time>
      </trkpt>
      <trkpt lat="62.43412" lon="6.35766">
        <ele>77.017129</ele>
        <time>2020-07-31T09:59:22.117Z</time>
      </trkpt>
      <trkpt lat="62.43421" lon="6.35771">
        <ele>77.224767</ele>
        <time>2020-07-31T09:59:25.109Z</time>
      </trkpt>
      <trkpt lat="62.4343" lon="6.3577">
        <ele>77.435903</ele>
        <time>2020-07-31T09:59:28.111Z</time>
      </trkpt>
      <trkpt lat="62.43439" lon="6.35763">
        <ele>77.64963</ele>
        <time>2020-07-31T09:59:31.118Z</time>
      </trkpt>
      <trkpt lat="62.4345" lon="6.35768">
        <ele>77.897181</ele>
        <time>2020-07-31T09:59:35.115Z</time>
      </trkpt>
      <trkpt lat="62.43461" lon="6.35777">
        <ele>78.151086</ele>
        <time>2020-07-31T09:59:39.119Z</time>
      </trkpt>
      <trkpt lat="62.4347" lon="6.35783">
        <ele>78.361648</ele>
        <time>2020-07-31T09:59:43.091Z</time>
      </trkpt>
      <trkpt lat="62.43478" lon="6.35792">
        <ele>78.472563</ele>
        <time>2020-07-31T09:59:48.127Z</time>
      </trkpt>
      <trkpt lat="62.43488" lon="6.35802">
        <ele>78.407573</ele>
        <time>2020-07-31T09:59:53.131Z</time>
      </trkpt>
      <trkpt lat="62.43497" lon="6.35808">
        <ele>78.351923</ele>
        <time>2020-07-31T09:59:57.105Z</time>
      </trkpt>
      <trkpt lat="62.43508" lon="6.35813">
        <ele>78.288305</ele>
        <time>2020-07-31T10:00:02.155Z</time>
      </trkpt>
      <trkpt lat="62.43517" lon="6.3582">
        <ele>78.231672</ele>
        <time>2020-07-31T10:00:07.120Z</time>
      </trkpt>
      <trkpt lat="62.43526" lon="6.35825">
        <ele>78.175426</ele>
        <time>2020-07-31T10:00:13.112Z</time>
      </trkpt>
      <trkpt lat="62.43535" lon="6.35829">
        <ele>78.118269</ele>
        <time>2020-07-31T10:00:19.154Z</time>
      </trkpt>
      <trkpt lat="62.43545" lon="6.35834">
        <ele>78.061405</ele>
        <time>2020-07-31T10:00:25.148Z</time>
      </trkpt>
      <trkpt lat="62.43553" lon="6.35841">
        <ele>78.007185</ele>
        <time>2020-07-31T10:00:29.106Z</time>
      </trkpt>
      <trkpt lat="62.43565" lon="6.3585">
        <ele>77.937237</ele>
        <time>2020-07-31T10:00:32.097Z</time>
      </trkpt>
      <trkpt lat="62.43574" lon="6.35856">
        <ele>77.8782</ele>
        <time>2020-07-31T10:00:34.123Z</time>
      </trkpt>
      <trkpt lat="62.43583" lon="6.35863">
        <ele>77.824076</ele>
        <time>2020-07-31T10:00:36.093Z</time>
      </trkpt>
      <trkpt lat="62.43593" lon="6.35872">
        <ele>77.757369</ele>
        <time>2020-07-31T10:00:39.144Z</time>
      </trkpt>
      <trkpt lat="62.43602" lon="6.35879">
        <ele>77.702597</ele>
        <time>2020-07-31T10:00:42.098Z</time>
      </trkpt>
      <trkpt lat="62.43611" lon="6.35887">
        <ele>77.644756</ele>
        <time>2020-07-31T10:00:45.122Z</time>
      </trkpt>
      <trkpt lat="62.43622" lon="6.35896">
        <ele>77.573797</ele>
        <time>2020-07-31T10:00:48.118Z</time>
      </trkpt>
      <trkpt lat="62.43634" lon="6.35903">
        <ele>77.502023</ele>
        <time>2020-07-31T10:00:51.095Z</time>
      </trkpt>
      <trkpt lat="62.43646" lon="6.35913">
        <ele>77.432698</ele>
        <time>2020-07-31T10:00:54.165Z</time>
      </trkpt>
      <trkpt lat="62.43656" lon="6.35919">
        <ele>77.431223</ele>
        <time>2020-07-31T10:00:56.098Z</time>
      </trkpt>
      <trkpt lat="62.43666" lon="6.35926">
        <ele>77.429556</ele>
        <time>2020-07-31T10:00:58.097Z</time>
      </trkpt>
      <trkpt lat="62.43678" lon="6.35935">
        <ele>77.427698</ele>
        <time>2020-07-31T10:01:00.136Z</time>
      </trkpt>
      <trkpt lat="62.4369" lon="6.35944">
        <ele>77.425681</ele>
        <time>2020-07-31T10:01:02.109Z</time>
      </trkpt>
      <trkpt lat="62.43702" lon="6.35955">
        <ele>77.423709</ele>
        <time>2020-07-31T10:01:04.103Z</time>
      </trkpt>
      <trkpt lat="62.43713" lon="6.35964">
        <ele>77.422057</ele>
        <time>2020-07-31T10:01:06.120Z</time>
      </trkpt>
      <trkpt lat="62.43722" lon="6.3597">
        <ele>77.420558</ele>
        <time>2020-07-31T10:01:08.094Z</time>
      </trkpt>
      <trkpt lat="62.43731" lon="6.35977">
        <ele>77.419055</ele>
        <time>2020-07-31T10:01:10.122Z</time>
      </trkpt>
      <trkpt lat="62.43741" lon="6.35982">
        <ele>77.41763</ele>
        <time>2020-07-31T10:01:12.105Z</time>
      </trkpt>
      <trkpt lat="62.43751" lon="6.35979">
        <ele>77.416025</ele>
        <time>2020-07-31T10:01:15.118Z</time>
      </trkpt>
      <trkpt lat="62.43759" lon="6.35965">
        <ele>77.414521</ele>
        <time>2020-07-31T10:01:18.124Z</time>
      </trkpt>
      <trkpt lat="62.43771" lon="6.35962">
        <ele>77.412679</ele>
        <time>2020-07-31T10:01:20.128Z</time>
      </trkpt>
      <trkpt lat="62.43782" lon="6.35964">
        <ele>77.411053</ele>
        <time>2020-07-31T10:01:22.132Z</time>
      </trkpt>
      <trkpt lat="62.43791" lon="6.35964">
        <ele>77.409662</ele>
        <time>2020-07-31T10:01:24.128Z</time>
      </trkpt>
      <trkpt lat="62.43802" lon="6.35968">
        <ele>77.408009</ele>
        <time>2020-07-31T10:01:26.116Z</time>
      </trkpt>
      <trkpt lat="62.43811" lon="6.35972">
        <ele>77.406572</ele>
        <time>2020-07-31T10:01:28.130Z</time>
      </trkpt>
      <trkpt lat="62.43823" lon="6.35979">
        <ele>77.288094</ele>
        <time>2020-07-31T10:01:31.156Z</time>
      </trkpt>
      <trkpt lat="62.4383" lon="6.35992">
        <ele>77.119325</ele>
        <time>2020-07-31T10:01:34.110Z</time>
      </trkpt>
      <trkpt lat="62.43839" lon="6.36">
        <ele>76.939926</ele>
        <time>2020-07-31T10:01:38.116Z</time>
      </trkpt>
      <trkpt lat="62.4385" lon="6.36005">
        <ele>76.746923</ele>
        <time>2020-07-31T10:01:42.108Z</time>
      </trkpt>
      <trkpt lat="62.43859" lon="6.36011">
        <ele>76.573697</ele>
        <time>2020-07-31T10:01:45.146Z</time>
      </trkpt>
      <trkpt lat="62.43868" lon="6.3602">
        <ele>76.394604</ele>
        <time>2020-07-31T10:01:48.126Z</time>
      </trkpt>
      <trkpt lat="62.43877" lon="6.3603">
        <ele>76.210829</ele>
        <time>2020-07-31T10:01:51.118Z</time>
      </trkpt>
      <trkpt lat="62.43889" lon="6.36044">
        <ele>75.968936</ele>
        <time>2020-07-31T10:01:54.134Z</time>
      </trkpt>
      <trkpt lat="62.43896" lon="6.36056">
        <ele>75.803997</ele>
        <time>2020-07-31T10:01:56.100Z</time>
      </trkpt>
      <trkpt lat="62.43905" lon="6.36068">
        <ele>75.622018</ele>
        <time>2020-07-31T10:01:59.132Z</time>
      </trkpt>
      <trkpt lat="62.43913" lon="6.36079">
        <ele>75.447742</ele>
        <time>2020-07-31T10:02:03.159Z</time>
      </trkpt>
      <trkpt lat="62.43921" lon="6.36091">
        <ele>75.268571</ele>
        <time>2020-07-31T10:02:07.123Z</time>
      </trkpt>
      <trkpt lat="62.43931" lon="6.36105">
        <ele>75.058167</ele>
        <time>2020-07-31T10:02:10.137Z</time>
      </trkpt>
      <trkpt lat="62.43941" lon="6.36121">
        <ele>74.827072</ele>
        <time>2020-07-31T10:02:13.108Z</time>
      </trkpt>
      <trkpt lat="62.43951" lon="6.36136">
        <ele>74.605709</ele>
        <time>2020-07-31T10:02:16.084Z</time>
      </trkpt>
      <trkpt lat="62.43961" lon="6.3615">
        <ele>74.39934</ele>
        <time>2020-07-31T10:02:19.136Z</time>
      </trkpt>
      <trkpt lat="62.43973" lon="6.3616">
        <ele>74.162457</ele>
        <time>2020-07-31T10:02:22.113Z</time>
      </trkpt>
      <trkpt lat="62.43983" lon="6.36165">
        <ele>74.014678</ele>
        <time>2020-07-31T10:02:24.152Z</time>
      </trkpt>
      <trkpt lat="62.43994" lon="6.3617">
        <ele>73.837985</ele>
        <time>2020-07-31T10:02:26.149Z</time>
      </trkpt>
      <trkpt lat="62.44008" lon="6.36177">
        <ele>73.627006</ele>
        <time>2020-07-31T10:02:28.140Z</time>
      </trkpt>
      <trkpt lat="62.44021" lon="6.36182">
        <ele>73.418503</ele>
        <time>2020-07-31T10:02:30.112Z</time>
      </trkpt>
      <trkpt lat="62.44035" lon="6.36189">
        <ele>73.212412</ele>
        <time>2020-07-31T10:02:32.113Z</time>
      </trkpt>
      <trkpt lat="62.44049" lon="6.36199">
        <ele>72.989118</ele>
        <time>2020-07-31T10:02:34.096Z</time>
      </trkpt>
      <trkpt lat="62.44064" lon="6.36205">
        <ele>72.761784</ele>
        <time>2020-07-31T10:02:36.124Z</time>
      </trkpt>
      <trkpt lat="62.44077" lon="6.36208">
        <ele>72.555094</ele>
        <time>2020-07-31T10:02:38.095Z</time>
      </trkpt>
      <trkpt lat="62.44089" lon="6.36211">
        <ele>72.37685</ele>
        <time>2020-07-31T10:02:40.097Z</time>
      </trkpt>
      <trkpt lat="62.44099" lon="6.36212">
        <ele>72.223928</ele>
        <time>2020-07-31T10:02:42.092Z</time>
      </trkpt>
      <trkpt lat="62.44111" lon="6.36215">
        <ele>72.04127</ele>
        <time>2020-07-31T10:02:45.101Z</time>
      </trkpt>
      <trkpt lat="62.4412" lon="6.36222">
        <ele>71.897172</ele>
        <time>2020-07-31T10:02:48.124Z</time>
      </trkpt>
      <trkpt lat="62.4413" lon="6.36227">
        <ele>71.748852</ele>
        <time>2020-07-31T10:02:51.101Z</time>
      </trkpt>
      <trkpt lat="62.44138" lon="6.36232">
        <ele>71.6104</ele>
        <time>2020-07-31T10:02:54.122Z</time>
      </trkpt>
      <trkpt lat="62.44147" lon="6.36236">
        <ele>71.474193</ele>
        <time>2020-07-31T10:02:57.120Z</time>
      </trkpt>
      <trkpt lat="62.44158" lon="6.36238">
        <ele>71.436041</ele>
        <time>2020-07-31T10:03:02.114Z</time>
      </trkpt>
      <trkpt lat="62.44168" lon="6.36237">
        <ele>71.419364</ele>
        <time>2020-07-31T10:03:07.104Z</time>
      </trkpt>
      <trkpt lat="62.44178" lon="6.36235">
        <ele>71.402353</ele>
        <time>2020-07-31T10:03:12.112Z</time>
      </trkpt>
      <trkpt lat="62.44188" lon="6.36243">
        <ele>71.38442</ele>
        <time>2020-07-31T10:03:17.144Z</time>
      </trkpt>
      <trkpt lat="62.44196" lon="6.36261">
        <ele>71.364739</ele>
        <time>2020-07-31T10:03:21.118Z</time>
      </trkpt>
      <trkpt lat="62.44201" lon="6.36279">
        <ele>71.347993</ele>
        <time>2020-07-31T10:03:25.158Z</time>
      </trkpt>
      <trkpt lat="62.44203" lon="6.36298">
        <ele>71.332782</ele>
        <time>2020-07-31T10:03:28.101Z</time>
      </trkpt>
      <trkpt lat="62.4421" lon="6.36313">
        <ele>71.315329</ele>
        <time>2020-07-31T10:03:32.121Z</time>
      </trkpt>
      <trkpt lat="62.44219" lon="6.36309">
        <ele>71.299053</ele>
        <time>2020-07-31T10:03:37.121Z</time>
      </trkpt>
      <trkpt lat="62.44229" lon="6.36304">
        <ele>71.282015</ele>
        <time>2020-07-31T10:03:42.109Z</time>
      </trkpt>
      <trkpt lat="62.44237" lon="6.36294">
        <ele>71.266022</ele>
        <time>2020-07-31T10:03:48.087Z</time>
      </trkpt>
      <trkpt lat="62.44246" lon="6.36289">
        <ele>71.250871</ele>
        <time>2020-07-31T10:03:53.119Z</time>
      </trkpt>
      <trkpt lat="62.44255" lon="6.36286">
        <ele>71.234939</ele>
        <time>2020-07-31T10:03:57.132Z</time>
      </trkpt>
      <trkpt lat="62.44266" lon="6.36277">
        <ele>71.215777</ele>
        <time>2020-07-31T10:04:01.102Z</time>
      </trkpt>
      <trkpt lat="62.44276" lon="6.36273">
        <ele>71.198906</ele>
        <time>2020-07-31T10:04:04.118Z</time>
      </trkpt>
      <trkpt lat="62.44287" lon="6.36271">
        <ele>71.179994</ele>
        <time>2020-07-31T10:04:07.121Z</time>
      </trkpt>
      <trkpt lat="62.443" lon="6.36273">
        <ele>71.158003</ele>
        <time>2020-07-31T10:04:10.125Z</time>
      </trkpt>
      <trkpt lat="62.4431" lon="6.36281">
        <ele>71.056492</ele>
        <time>2020-07-31T10:04:12.094Z</time>
      </trkpt>
      <trkpt lat="62.44319" lon="6.36295">
        <ele>70.775269</ele>
        <time>2020-07-31T10:04:14.104Z</time>
      </trkpt>
      <trkpt lat="62.44326" lon="6.36316">
        <ele>70.45703</ele>
        <time>2020-07-31T10:04:16.142Z</time>
      </trkpt>
      <trkpt lat="62.44332" lon="6.36344">
        <ele>70.102797</ele>
        <time>2020-07-31T10:04:18.125Z</time>
      </trkpt>
      <trkpt lat="62.44336" lon="6.36375">
        <ele>69.733766</ele>
        <time>2020-07-31T10:04:20.088Z</time>
      </trkpt>
      <trkpt lat="62.44338" lon="6.36407">
        <ele>69.352345</ele>
        <time>2020-07-31T10:04:22.120Z</time>
      </trkpt>
      <trkpt lat="62.44339" lon="6.36437">
        <ele>69.004339</ele>
        <time>2020-07-31T10:04:24.166Z</time>
      </trkpt>
      <trkpt lat="62.44339" lon="6.36463">
        <ele>68.702659</ele>
        <time>2020-07-31T10:04:26.112Z</time>
      </trkpt>
      <trkpt lat="62.44337" lon="6.36484">
        <ele>68.460146</ele>
        <time>2020-07-31T10:04:28.114Z</time>
      </trkpt>
      <trkpt lat="62.44334" lon="6.36506">
        <ele>68.183111</ele>
        <time>2020-07-31T10:04:31.120Z</time>
      </trkpt>
      <trkpt lat="62.44331" lon="6.36527">
        <ele>67.930365</ele>
        <time>2020-07-31T10:04:34.114Z</time>
      </trkpt>
      <trkpt lat="62.44333" lon="6.36547">
        <ele>67.68745</ele>
        <time>2020-07-31T10:04:38.101Z</time>
      </trkpt>
      <trkpt lat="62.44344" lon="6.36548">
        <ele>67.422782</ele>
        <time>2020-07-31T10:04:44.117Z</time>
      </trkpt>
      <trkpt lat="62.44353" lon="6.36553">
        <ele>67.188826</ele>
        <time>2020-07-31T10:04:46.109Z</time>
      </trkpt>
      <trkpt lat="62.44363" lon="6.36557">
        <ele>66.94142</ele>
        <time>2020-07-31T10:04:50.091Z</time>
      </trkpt>
      <trkpt lat="62.44373" lon="6.36559">
        <ele>66.681053</ele>
        <time>2020-07-31T10:04:54.152Z</time>
      </trkpt>
      <trkpt lat="62.44382" lon="6.36561">
        <ele>67.03197</ele>
        <time>2020-07-31T10:04:59.117Z</time>
      </trkpt>
      <trkpt lat="62.44392" lon="6.36566">
        <ele>67.642336</ele>
        <time>2020-07-31T10:05:06.113Z</time>
      </trkpt>
      <trkpt lat="62.44401" lon="6.36572">
        <ele>68.218708</ele>
        <time>2020-07-31T10:05:12.128Z</time>
      </trkpt>
      <trkpt lat="62.4441" lon="6.36575">
        <ele>68.802673</ele>
        <time>2020-07-31T10:05:17.103Z</time>
      </trkpt>
      <trkpt lat="62.44418" lon="6.36563">
        <ele>69.39109</ele>
        <time>2020-07-31T10:05:22.120Z</time>
      </trkpt>
      <trkpt lat="62.44424" lon="6.36547">
        <ele>69.986029</ele>
        <time>2020-07-31T10:05:27.114Z</time>
      </trkpt>
      <trkpt lat="62.44434" lon="6.36533">
        <ele>70.72859</ele>
        <time>2020-07-31T10:05:31.114Z</time>
      </trkpt>
      <trkpt lat="62.44444" lon="6.36522">
        <ele>71.416633</ele>
        <time>2020-07-31T10:05:35.100Z</time>
      </trkpt>
      <trkpt lat="62.44455" lon="6.3651">
        <ele>72.130329</ele>
        <time>2020-07-31T10:05:39.105Z</time>
      </trkpt>
      <trkpt lat="62.44464" lon="6.36496">
        <ele>72.832177</ele>
        <time>2020-07-31T10:05:43.139Z</time>
      </trkpt>
      <trkpt lat="62.44471" lon="6.36481">
        <ele>73.435937</ele>
        <time>2020-07-31T10:05:47.109Z</time>
      </trkpt>
      <trkpt lat="62.44477" lon="6.36466">
        <ele>73.99175</ele>
        <time>2020-07-31T10:05:51.101Z</time>
      </trkpt>
      <trkpt lat="62.44483" lon="6.3645">
        <ele>74.585142</ele>
        <time>2020-07-31T10:05:56.089Z</time>
      </trkpt>
      <trkpt lat="62.44487" lon="6.36429">
        <ele>75.232982</ele>
        <time>2020-07-31T10:06:02.112Z</time>
      </trkpt>
      <trkpt lat="62.44492" lon="6.36409">
        <ele>75.873902</ele>
        <time>2020-07-31T10:06:08.141Z</time>
      </trkpt>
      <trkpt lat="62.44498" lon="6.3639">
        <ele>76.511121</ele>
        <time>2020-07-31T10:06:14.094Z</time>
      </trkpt>
      <trkpt lat="62.44502" lon="6.36371">
        <ele>77.122679</ele>
        <time>2020-07-31T10:06:20.141Z</time>
      </trkpt>
      <trkpt lat="62.44507" lon="6.36354">
        <ele>77.678718</ele>
        <time>2020-07-31T10:06:26.116Z</time>
      </trkpt>
      <trkpt lat="62.44513" lon="6.36339">
        <ele>77.836176</ele>
        <time>2020-07-31T10:06:31.112Z</time>
      </trkpt>
      <trkpt lat="62.44518" lon="6.36322">
        <ele>77.997612</ele>
        <time>2020-07-31T10:06:37.117Z</time>
      </trkpt>
      <trkpt lat="62.44524" lon="6.36305">
        <ele>78.171093</ele>
        <time>2020-07-31T10:06:43.105Z</time>
      </trkpt>
      <trkpt lat="62.44529" lon="6.36288">
        <ele>78.335925</ele>
        <time>2020-07-31T10:06:48.117Z</time>
      </trkpt>
      <trkpt lat="62.44535" lon="6.3627">
        <ele>78.518951</ele>
        <time>2020-07-31T10:06:53.091Z</time>
      </trkpt>
      <trkpt lat="62.44542" lon="6.36255">
        <ele>78.689687</ele>
        <time>2020-07-31T10:06:59.105Z</time>
      </trkpt>
      <trkpt lat="62.4455" lon="6.36241">
        <ele>78.856268</ele>
        <time>2020-07-31T10:07:05.125Z</time>
      </trkpt>
      <trkpt lat="62.44558" lon="6.36228">
        <ele>79.030517</ele>
        <time>2020-07-31T10:07:11.105Z</time>
      </trkpt>
      <trkpt lat="62.44565" lon="6.36214">
        <ele>79.194156</ele>
        <time>2020-07-31T10:07:16.102Z</time>
      </trkpt>
      <trkpt lat="62.44573" lon="6.36204">
        <ele>79.367948</ele>
        <time>2020-07-31T10:07:21.127Z</time>
      </trkpt>
      <trkpt lat="62.44583" lon="6.36203">
        <ele>79.533263</ele>
        <time>2020-07-31T10:07:28.117Z</time>
      </trkpt>
      <trkpt lat="62.44593" lon="6.36201">
        <ele>79.702486</ele>
        <time>2020-07-31T10:07:33.091Z</time>
      </trkpt>
      <trkpt lat="62.44601" lon="6.36192">
        <ele>79.868073</ele>
        <time>2020-07-31T10:07:37.132Z</time>
      </trkpt>
      <trkpt lat="62.4461" lon="6.36175">
        <ele>80.0696</ele>
        <time>2020-07-31T10:07:41.141Z</time>
      </trkpt>
      <trkpt lat="62.4462" lon="6.36158">
        <ele>80.297611</ele>
        <time>2020-07-31T10:07:44.111Z</time>
      </trkpt>
      <trkpt lat="62.44629" lon="6.36145">
        <ele>80.478437</ele>
        <time>2020-07-31T10:07:46.105Z</time>
      </trkpt>
      <trkpt lat="62.44637" lon="6.36131">
        <ele>80.657047</ele>
        <time>2020-07-31T10:07:48.131Z</time>
      </trkpt>
      <trkpt lat="62.44642" lon="6.36115">
        <ele>80.806905</ele>
        <time>2020-07-31T10:07:50.105Z</time>
      </trkpt>
      <trkpt lat="62.44648" lon="6.36095">
        <ele>80.922963</ele>
        <time>2020-07-31T10:07:53.142Z</time>
      </trkpt>
      <trkpt lat="62.44655" lon="6.36081">
        <ele>81.027335</ele>
        <time>2020-07-31T10:07:56.093Z</time>
      </trkpt>
      <trkpt lat="62.44661" lon="6.36061">
        <ele>81.15136</ele>
        <time>2020-07-31T10:08:00.131Z</time>
      </trkpt>
      <trkpt lat="62.44668" lon="6.3604">
        <ele>81.280898</ele>
        <time>2020-07-31T10:08:04.116Z</time>
      </trkpt>
      <trkpt lat="62.44675" lon="6.36019">
        <ele>81.411291</ele>
        <time>2020-07-31T10:08:08.133Z</time>
      </trkpt>
      <trkpt lat="62.44681" lon="6.36002">
        <ele>81.514467</ele>
        <time>2020-07-31T10:08:11.110Z</time>
      </trkpt>
      <trkpt lat="62.44686" lon="6.35986">
        <ele>81.612304</ele>
        <time>2020-07-31T10:08:14.128Z</time>
      </trkpt>
      <trkpt lat="62.44692" lon="6.3597">
        <ele>81.714486</ele>
        <time>2020-07-31T10:08:17.159Z</time>
      </trkpt>
      <trkpt lat="62.44699" lon="6.35957">
        <ele>81.815811</ele>
        <time>2020-07-31T10:08:20.091Z</time>
      </trkpt>
      <trkpt lat="62.44706" lon="6.35944">
        <ele>81.917892</ele>
        <time>2020-07-31T10:08:23.106Z</time>
      </trkpt>
      <trkpt lat="62.44715" lon="6.35926">
        <ele>82.046419</ele>
        <time>2020-07-31T10:08:27.121Z</time>
      </trkpt>
      <trkpt lat="62.44722" lon="6.35908">
        <ele>82.165767</ele>
        <time>2020-07-31T10:08:31.125Z</time>
      </trkpt>
      <trkpt lat="62.44729" lon="6.35891">
        <ele>82.279859</ele>
        <time>2020-07-31T10:08:35.110Z</time>
      </trkpt>
      <trkpt lat="62.44736" lon="6.35873">
        <ele>82.395971</ele>
        <time>2020-07-31T10:08:39.122Z</time>
      </trkpt>
      <trkpt lat="62.44743" lon="6.35854">
        <ele>82.518386</ele>
        <time>2020-07-31T10:08:43.106Z</time>
      </trkpt>
      <trkpt lat="62.44749" lon="6.35835">
        <ele>82.637208</ele>
        <time>2020-07-31T10:08:47.125Z</time>
      </trkpt>
      <trkpt lat="62.44755" lon="6.35814">
        <ele>82.776753</ele>
        <time>2020-07-31T10:08:51.097Z</time>
      </trkpt>
      <trkpt lat="62.44761" lon="6.35793">
        <ele>83.089497</ele>
        <time>2020-07-31T10:08:55.089Z</time>
      </trkpt>
      <trkpt lat="62.44767" lon="6.35775">
        <ele>83.376837</ele>
        <time>2020-07-31T10:08:59.130Z</time>
      </trkpt>
      <trkpt lat="62.44774" lon="6.35756">
        <ele>83.667543</ele>
        <time>2020-07-31T10:09:04.117Z</time>
      </trkpt>
      <trkpt lat="62.44781" lon="6.35737">
        <ele>83.976537</ele>
        <time>2020-07-31T10:09:09.091Z</time>
      </trkpt>
      <trkpt lat="62.44786" lon="6.35719">
        <ele>84.244908</ele>
        <time>2020-07-31T10:09:13.129Z</time>
      </trkpt>
      <trkpt lat="62.44792" lon="6.35702">
        <ele>84.502804</ele>
        <time>2020-07-31T10:09:17.096Z</time>
      </trkpt>
      <trkpt lat="62.44798" lon="6.35685">
        <ele>84.763728</ele>
        <time>2020-07-31T10:09:21.133Z</time>
      </trkpt>
      <trkpt lat="62.44805" lon="6.35668">
        <ele>85.050453</ele>
        <time>2020-07-31T10:09:25.100Z</time>
      </trkpt>
      <trkpt lat="62.44812" lon="6.35653">
        <ele>85.324743</ele>
        <time>2020-07-31T10:09:29.103Z</time>
      </trkpt>
      <trkpt lat="62.44821" lon="6.35636">
        <ele>85.641397</ele>
        <time>2020-07-31T10:09:33.161Z</time>
      </trkpt>
      <trkpt lat="62.44829" lon="6.3562">
        <ele>85.934424</ele>
        <time>2020-07-31T10:09:37.109Z</time>
      </trkpt>
      <trkpt lat="62.44836" lon="6.35609">
        <ele>86.178834</ele>
        <time>2020-07-31T10:09:40.106Z</time>
      </trkpt>
      <trkpt lat="62.44845" lon="6.35594">
        <ele>86.475821</ele>
        <time>2020-07-31T10:09:44.127Z</time>
      </trkpt>
      <trkpt lat="62.44852" lon="6.35582">
        <ele>86.725503</ele>
        <time>2020-07-31T10:09:48.101Z</time>
      </trkpt>
      <trkpt lat="62.44863" lon="6.35573">
        <ele>87.04209</ele>
        <time>2020-07-31T10:09:52.123Z</time>
      </trkpt>
      <trkpt lat="62.44873" lon="6.35564">
        <ele>87.319434</ele>
        <time>2020-07-31T10:09:55.130Z</time>
      </trkpt>
      <trkpt lat="62.44884" lon="6.35554">
        <ele>87.59681</ele>
        <time>2020-07-31T10:09:58.146Z</time>
      </trkpt>
      <trkpt lat="62.44896" lon="6.35544">
        <ele>87.595792</ele>
        <time>2020-07-31T10:10:01.106Z</time>
      </trkpt>
      <trkpt lat="62.44906" lon="6.35537">
        <ele>87.595017</ele>
        <time>2020-07-31T10:10:03.139Z</time>
      </trkpt>
      <trkpt lat="62.44916" lon="6.35529">
        <ele>87.594153</ele>
        <time>2020-07-31T10:10:05.102Z</time>
      </trkpt>
      <trkpt lat="62.44925" lon="6.3552">
        <ele>87.593345</ele>
        <time>2020-07-31T10:10:07.109Z</time>
      </trkpt>
      <trkpt lat="62.44934" lon="6.35511">
        <ele>87.592586</ele>
        <time>2020-07-31T10:10:09.112Z</time>
      </trkpt>
      <trkpt lat="62.44944" lon="6.35506">
        <ele>87.591817</ele>
        <time>2020-07-31T10:10:11.109Z</time>
      </trkpt>
      <trkpt lat="62.44952" lon="6.35499">
        <ele>87.591111</ele>
        <time>2020-07-31T10:10:13.096Z</time>
      </trkpt>
      <trkpt lat="62.44964" lon="6.3549">
        <ele>87.590169</ele>
        <time>2020-07-31T10:10:16.101Z</time>
      </trkpt>
      <trkpt lat="62.44974" lon="6.35481">
        <ele>87.589335</ele>
        <time>2020-07-31T10:10:19.119Z</time>
      </trkpt>
      <trkpt lat="62.44984" lon="6.35475">
        <ele>87.588471</ele>
        <time>2020-07-31T10:10:22.120Z</time>
      </trkpt>
      <trkpt lat="62.44994" lon="6.35469">
        <ele>87.587677</ele>
        <time>2020-07-31T10:10:25.146Z</time>
      </trkpt>
      <trkpt lat="62.45006" lon="6.35462">
        <ele>87.586723</ele>
        <time>2020-07-31T10:10:28.104Z</time>
      </trkpt>
      <trkpt lat="62.45015" lon="6.35454">
        <ele>87.58593</ele>
        <time>2020-07-31T10:10:31.102Z</time>
      </trkpt>
      <trkpt lat="62.45026" lon="6.35443">
        <ele>87.58502</ele>
        <time>2020-07-31T10:10:35.139Z</time>
      </trkpt>
      <trkpt lat="62.45037" lon="6.35435">
        <ele>87.584104</ele>
        <time>2020-07-31T10:10:39.130Z</time>
      </trkpt>
      <trkpt lat="62.45048" lon="6.35429">
        <ele>87.583205</ele>
        <time>2020-07-31T10:10:43.133Z</time>
      </trkpt>
      <trkpt lat="62.45059" lon="6.35427">
        <ele>87.731759</ele>
        <time>2020-07-31T10:10:47.102Z</time>
      </trkpt>
      <trkpt lat="62.45068" lon="6.35426">
        <ele>87.926617</ele>
        <time>2020-07-31T10:10:50.115Z</time>
      </trkpt>
      <trkpt lat="62.4508" lon="6.35428">
        <ele>88.163751</ele>
        <time>2020-07-31T10:10:54.117Z</time>
      </trkpt>
      <trkpt lat="62.45089" lon="6.3543">
        <ele>88.370503</ele>
        <time>2020-07-31T10:10:57.103Z</time>
      </trkpt>
      <trkpt lat="62.451" lon="6.35435">
        <ele>88.598678</ele>
        <time>2020-07-31T10:11:00.158Z</time>
      </trkpt>
      <trkpt lat="62.4511" lon="6.35441">
        <ele>88.814797</ele>
        <time>2020-07-31T10:11:03.102Z</time>
      </trkpt>
      <trkpt lat="62.4512" lon="6.35448">
        <ele>89.028362</ele>
        <time>2020-07-31T10:11:06.116Z</time>
      </trkpt>
      <trkpt lat="62.45129" lon="6.35455">
        <ele>89.231369</ele>
        <time>2020-07-31T10:11:09.104Z</time>
      </trkpt>
      <trkpt lat="62.45138" lon="6.35464">
        <ele>89.440665</ele>
        <time>2020-07-31T10:11:12.121Z</time>
      </trkpt>
      <trkpt lat="62.45147" lon="6.3547">
        <ele>89.643401</ele>
        <time>2020-07-31T10:11:15.165Z</time>
      </trkpt>
      <trkpt lat="62.45156" lon="6.35479">
        <ele>89.850796</ele>
        <time>2020-07-31T10:11:18.136Z</time>
      </trkpt>
      <trkpt lat="62.45165" lon="6.35489">
        <ele>90.053356</ele>
        <time>2020-07-31T10:11:21.098Z</time>
      </trkpt>
      <trkpt lat="62.45173" lon="6.35499">
        <ele>90.253915</ele>
        <time>2020-07-31T10:11:24.159Z</time>
      </trkpt>
      <trkpt lat="62.45182" lon="6.35508">
        <ele>90.455029</ele>
        <time>2020-07-31T10:11:27.174Z</time>
      </trkpt>
      <trkpt lat="62.45191" lon="6.35518">
        <ele>90.666667</ele>
        <time>2020-07-31T10:11:30.101Z</time>
      </trkpt>
      <trkpt lat="62.45199" lon="6.35528">
        <ele>90.863097</ele>
        <time>2020-07-31T10:11:34.133Z</time>
      </trkpt>
      <trkpt lat="62.45207" lon="6.35539">
        <ele>91.054537</ele>
        <time>2020-07-31T10:11:38.094Z</time>
      </trkpt>
      <trkpt lat="62.45215" lon="6.35548">
        <ele>91.247326</ele>
        <time>2020-07-31T10:11:42.115Z</time>
      </trkpt>
      <trkpt lat="62.45223" lon="6.35558">
        <ele>91.320919</ele>
        <time>2020-07-31T10:11:46.103Z</time>
      </trkpt>
      <trkpt lat="62.45234" lon="6.35568">
        <ele>91.26228</ele>
        <time>2020-07-31T10:11:50.115Z</time>
      </trkpt>
      <trkpt lat="62.45242" lon="6.35578">
        <ele>91.217251</ele>
        <time>2020-07-31T10:11:53.152Z</time>
      </trkpt>
      <trkpt lat="62.4525" lon="6.35589">
        <ele>91.169971</ele>
        <time>2020-07-31T10:11:56.114Z</time>
      </trkpt>
      <trkpt lat="62.4526" lon="6.35602">
        <ele>91.112583</ele>
        <time>2020-07-31T10:12:00.131Z</time>
      </trkpt>
      <trkpt lat="62.4527" lon="6.35614">
        <ele>91.054769</ele>
        <time>2020-07-31T10:12:04.141Z</time>
      </trkpt>
      <trkpt lat="62.4528" lon="6.35627">
        <ele>90.999311</ele>
        <time>2020-07-31T10:12:08.133Z</time>
      </trkpt>
      <trkpt lat="62.45288" lon="6.35637">
        <ele>90.952438</ele>
        <time>2020-07-31T10:12:11.109Z</time>
      </trkpt>
      <trkpt lat="62.45298" lon="6.35647">
        <ele>90.899929</ele>
        <time>2020-07-31T10:12:14.102Z</time>
      </trkpt>
      <trkpt lat="62.45309" lon="6.3566">
        <ele>90.839747</ele>
        <time>2020-07-31T10:12:17.112Z</time>
      </trkpt>
      <trkpt lat="62.4532" lon="6.35674">
        <ele>90.775778</ele>
        <time>2020-07-31T10:12:20.118Z</time>
      </trkpt>
      <trkpt lat="62.45332" lon="6.35688">
        <ele>90.709606</ele>
        <time>2020-07-31T10:12:23.098Z</time>
      </trkpt>
      <trkpt lat="62.4534" lon="6.35698">
        <ele>90.664363</ele>
        <time>2020-07-31T10:12:25.114Z</time>
      </trkpt>
      <trkpt lat="62.45348" lon="6.35708">
        <ele>90.619425</ele>
        <time>2020-07-31T10:12:27.111Z</time>
      </trkpt>
      <trkpt lat="62.45356" lon="6.35718">
        <ele>90.57244</ele>
        <time>2020-07-31T10:12:29.133Z</time>
      </trkpt>
      <trkpt lat="62.45364" lon="6.35729">
        <ele>90.524875</ele>
        <time>2020-07-31T10:12:31.112Z</time>
      </trkpt>
      <trkpt lat="62.45372" lon="6.35741">
        <ele>90.475863</ele>
        <time>2020-07-31T10:12:33.151Z</time>
      </trkpt>
      <trkpt lat="62.45381" lon="6.35753">
        <ele>90.161368</ele>
        <time>2020-07-31T10:12:35.129Z</time>
      </trkpt>
      <trkpt lat="62.45389" lon="6.35765">
        <ele>89.686616</ele>
        <time>2020-07-31T10:12:37.125Z</time>
      </trkpt>
      <trkpt lat="62.45399" lon="6.35777">
        <ele>89.183611</ele>
        <time>2020-07-31T10:12:39.105Z</time>
      </trkpt>
      <trkpt lat="62.45409" lon="6.35791">
        <ele>88.658462</ele>
        <time>2020-07-31T10:12:41.097Z</time>
      </trkpt>
      <trkpt lat="62.45419" lon="6.35807">
        <ele>88.089718</ele>
        <time>2020-07-31T10:12:43.112Z</time>
      </trkpt>
      <trkpt lat="62.45429" lon="6.35825">
        <ele>87.493325</ele>
        <time>2020-07-31T10:12:45.106Z</time>
      </trkpt>
      <trkpt lat="62.45438" lon="6.35843">
        <ele>86.91068</ele>
        <time>2020-07-31T10:12:47.111Z</time>
      </trkpt>
      <trkpt lat="62.45449" lon="6.3586">
        <ele>86.316942</ele>
        <time>2020-07-31T10:12:49.102Z</time>
      </trkpt>
      <trkpt lat="62.45459" lon="6.35877">
        <ele>85.748916</ele>
        <time>2020-07-31T10:12:51.100Z</time>
      </trkpt>
      <trkpt lat="62.45469" lon="6.35893">
        <ele>85.169011</ele>
        <time>2020-07-31T10:12:53.139Z</time>
      </trkpt>
      <trkpt lat="62.4548" lon="6.35911">
        <ele>84.533801</ele>
        <time>2020-07-31T10:12:55.132Z</time>
      </trkpt>
      <trkpt lat="62.45491" lon="6.35932">
        <ele>83.866518</ele>
        <time>2020-07-31T10:12:57.109Z</time>
      </trkpt>
      <trkpt lat="62.45503" lon="6.35953">
        <ele>83.165414</ele>
        <time>2020-07-31T10:12:59.111Z</time>
      </trkpt>
      <trkpt lat="62.45515" lon="6.35977">
        <ele>82.415084</ele>
        <time>2020-07-31T10:13:01.121Z</time>
      </trkpt>
      <trkpt lat="62.45527" lon="6.36003">
        <ele>81.839816</ele>
        <time>2020-07-31T10:13:03.100Z</time>
      </trkpt>
      <trkpt lat="62.45538" lon="6.36032">
        <ele>81.304913</ele>
        <time>2020-07-31T10:13:05.109Z</time>
      </trkpt>
      <trkpt lat="62.45548" lon="6.36058">
        <ele>80.798027</ele>
        <time>2020-07-31T10:13:07.140Z</time>
      </trkpt>
      <trkpt lat="62.45558" lon="6.36082">
        <ele>80.335428</ele>
        <time>2020-07-31T10:13:09.097Z</time>
      </trkpt>
      <trkpt lat="62.45567" lon="6.36104">
        <ele>79.911578</ele>
        <time>2020-07-31T10:13:11.093Z</time>
      </trkpt>
      <trkpt lat="62.45575" lon="6.36124">
        <ele>79.520835</ele>
        <time>2020-07-31T10:13:13.111Z</time>
      </trkpt>
      <trkpt lat="62.45583" lon="6.36144">
        <ele>79.12691</ele>
        <time>2020-07-31T10:13:15.153Z</time>
      </trkpt>
      <trkpt lat="62.45591" lon="6.36161">
        <ele>78.783258</ele>
        <time>2020-07-31T10:13:17.133Z</time>
      </trkpt>
      <trkpt lat="62.45598" lon="6.36176">
        <ele>78.465809</ele>
        <time>2020-07-31T10:13:19.114Z</time>
      </trkpt>
      <trkpt lat="62.45606" lon="6.36192">
        <ele>78.116256</ele>
        <time>2020-07-31T10:13:21.192Z</time>
      </trkpt>
      <trkpt lat="62.45616" lon="6.36207">
        <ele>77.739481</ele>
        <time>2020-07-31T10:13:23.116Z</time>
      </trkpt>
      <trkpt lat="62.45626" lon="6.3622">
        <ele>77.368207</ele>
        <time>2020-07-31T10:13:25.117Z</time>
      </trkpt>
      <trkpt lat="62.45637" lon="6.36233">
        <ele>76.988945</ele>
        <time>2020-07-31T10:13:27.096Z</time>
      </trkpt>
      <trkpt lat="62.45648" lon="6.36245">
        <ele>76.601235</ele>
        <time>2020-07-31T10:13:29.118Z</time>
      </trkpt>
      <trkpt lat="62.45659" lon="6.36256">
        <ele>76.366967</ele>
        <time>2020-07-31T10:13:31.102Z</time>
      </trkpt>
      <trkpt lat="62.45671" lon="6.36265">
        <ele>76.131725</ele>
        <time>2020-07-31T10:13:33.094Z</time>
      </trkpt>
      <trkpt lat="62.45682" lon="6.36271">
        <ele>75.903621</ele>
        <time>2020-07-31T10:13:35.119Z</time>
      </trkpt>
      <trkpt lat="62.45696" lon="6.3628">
        <ele>75.639582</ele>
        <time>2020-07-31T10:13:37.129Z</time>
      </trkpt>
      <trkpt lat="62.4571" lon="6.36289">
        <ele>75.351985</ele>
        <time>2020-07-31T10:13:39.105Z</time>
      </trkpt>
      <trkpt lat="62.45725" lon="6.36301">
        <ele>75.056472</ele>
        <time>2020-07-31T10:13:41.110Z</time>
      </trkpt>
      <trkpt lat="62.4574" lon="6.36315">
        <ele>74.750254</ele>
        <time>2020-07-31T10:13:43.114Z</time>
      </trkpt>
      <trkpt lat="62.45755" lon="6.36325">
        <ele>74.458798</ele>
        <time>2020-07-31T10:13:45.127Z</time>
      </trkpt>
      <trkpt lat="62.45769" lon="6.36329">
        <ele>74.193288</ele>
        <time>2020-07-31T10:13:47.104Z</time>
      </trkpt>
      <trkpt lat="62.45783" lon="6.36329">
        <ele>73.929345</ele>
        <time>2020-07-31T10:13:49.115Z</time>
      </trkpt>
      <trkpt lat="62.45796" lon="6.36331">
        <ele>73.674434</ele>
        <time>2020-07-31T10:13:51.096Z</time>
      </trkpt>
      <trkpt lat="62.4581" lon="6.36332">
        <ele>73.414176</ele>
        <time>2020-07-31T10:13:53.125Z</time>
      </trkpt>
      <trkpt lat="62.45825" lon="6.36334">
        <ele>73.210082</ele>
        <time>2020-07-31T10:13:55.107Z</time>
      </trkpt>
      <trkpt lat="62.45837" lon="6.36336">
        <ele>73.205682</ele>
        <time>2020-07-31T10:13:57.113Z</time>
      </trkpt>
      <trkpt lat="62.45848" lon="6.36339">
        <ele>73.201566</ele>
        <time>2020-07-31T10:13:59.139Z</time>
      </trkpt>
      <trkpt lat="62.45858" lon="6.36339">
        <ele>73.197799</ele>
        <time>2020-07-31T10:14:01.097Z</time>
      </trkpt>
      <trkpt lat="62.4587" lon="6.36341">
        <ele>73.193511</ele>
        <time>2020-07-31T10:14:03.082Z</time>
      </trkpt>
      <trkpt lat="62.4588" lon="6.3634">
        <ele>73.189851</ele>
        <time>2020-07-31T10:14:05.128Z</time>
      </trkpt>
      <trkpt lat="62.45891" lon="6.36339">
        <ele>73.185715</ele>
        <time>2020-07-31T10:14:07.143Z</time>
      </trkpt>
      <trkpt lat="62.45901" lon="6.36333">
        <ele>73.182031</ele>
        <time>2020-07-31T10:14:09.104Z</time>
      </trkpt>
      <trkpt lat="62.4591" lon="6.36315">
        <ele>73.177556</ele>
        <time>2020-07-31T10:14:12.113Z</time>
      </trkpt>
      <trkpt lat="62.45916" lon="6.36294">
        <ele>73.173343</ele>
        <time>2020-07-31T10:14:15.108Z</time>
      </trkpt>
      <trkpt lat="62.45923" lon="6.36277">
        <ele>73.169512</ele>
        <time>2020-07-31T10:14:18.123Z</time>
      </trkpt>
      <trkpt lat="62.45932" lon="6.3626">
        <ele>73.165204</ele>
        <time>2020-07-31T10:14:21.138Z</time>
      </trkpt>
      <trkpt lat="62.45941" lon="6.36246">
        <ele>73.160972</ele>
        <time>2020-07-31T10:14:24.117Z</time>
      </trkpt>
      <trkpt lat="62.45951" lon="6.36236">
        <ele>73.157062</ele>
        <time>2020-07-31T10:14:27.106Z</time>
      </trkpt>
      <trkpt lat="62.45961" lon="6.36228">
        <ele>73.153024</ele>
        <time>2020-07-31T10:14:30.134Z</time>
      </trkpt>
      <trkpt lat="62.45972" lon="6.36225">
        <ele>73.149083</ele>
        <time>2020-07-31T10:14:33.121Z</time>
      </trkpt>
      <trkpt lat="62.45981" lon="6.36225">
        <ele>73.145717</ele>
        <time>2020-07-31T10:14:36.119Z</time>
      </trkpt>
      <trkpt lat="62.45992" lon="6.36227">
        <ele>73.201301</ele>
        <time>2020-07-31T10:14:40.146Z</time>
      </trkpt>
      <trkpt lat="62.46002" lon="6.3623">
        <ele>73.252633</ele>
        <time>2020-07-31T10:14:44.145Z</time>
      </trkpt>
      <trkpt lat="62.46013" lon="6.36234">
        <ele>73.307502</ele>
        <time>2020-07-31T10:14:50.101Z</time>
      </trkpt>
      <trkpt lat="62.46023" lon="6.36235">
        <ele>73.356548</ele>
        <time>2020-07-31T10:14:54.145Z</time>
      </trkpt>
      <trkpt lat="62.46033" lon="6.36237">
        <ele>73.409733</ele>
        <time>2020-07-31T10:14:58.132Z</time>
      </trkpt>
      <trkpt lat="62.46042" lon="6.36239">
        <ele>73.456524</ele>
        <time>2020-07-31T10:15:01.115Z</time>
      </trkpt>
      <trkpt lat="62.46051" lon="6.36247">
        <ele>73.506124</ele>
        <time>2020-07-31T10:15:04.133Z</time>
      </trkpt>
      <trkpt lat="62.4606" lon="6.36252">
        <ele>73.551949</ele>
        <time>2020-07-31T10:15:07.127Z</time>
      </trkpt>
      <trkpt lat="62.46072" lon="6.3626">
        <ele>73.614124</ele>
        <time>2020-07-31T10:15:11.149Z</time>
      </trkpt>
      <trkpt lat="62.46081" lon="6.36268">
        <ele>73.66535</ele>
        <time>2020-07-31T10:15:14.146Z</time>
      </trkpt>
      <trkpt lat="62.46092" lon="6.36275">
        <ele>73.722003</ele>
        <time>2020-07-31T10:15:17.115Z</time>
      </trkpt>
      <trkpt lat="62.46102" lon="6.36282">
        <ele>73.773862</ele>
        <time>2020-07-31T10:15:20.124Z</time>
      </trkpt>
      <trkpt lat="62.46111" lon="6.36291">
        <ele>73.82551</ele>
        <time>2020-07-31T10:15:23.159Z</time>
      </trkpt>
      <trkpt lat="62.46122" lon="6.36298">
        <ele>73.881015</ele>
        <time>2020-07-31T10:15:26.142Z</time>
      </trkpt>
      <trkpt lat="62.46132" lon="6.36309">
        <ele>73.938411</ele>
        <time>2020-07-31T10:15:29.179Z</time>
      </trkpt>
      <trkpt lat="62.46142" lon="6.36319">
        <ele>73.996155</ele>
        <time>2020-07-31T10:15:32.104Z</time>
      </trkpt>
      <trkpt lat="62.46153" lon="6.36326">
        <ele>74.051337</ele>
        <time>2020-07-31T10:15:35.105Z</time>
      </trkpt>
      <trkpt lat="62.46164" lon="6.36334">
        <ele>74.513232</ele>
        <time>2020-07-31T10:15:38.160Z</time>
      </trkpt>
      <trkpt lat="62.46175" lon="6.36344">
        <ele>74.994702</ele>
        <time>2020-07-31T10:15:41.118Z</time>
      </trkpt>
      <trkpt lat="62.46186" lon="6.36355">
        <ele>75.468065</ele>
        <time>2020-07-31T10:15:44.134Z</time>
      </trkpt>
      <trkpt lat="62.46197" lon="6.36364">
        <ele>75.93499</ele>
        <time>2020-07-31T10:15:47.136Z</time>
      </trkpt>
      <trkpt lat="62.46207" lon="6.36374">
        <ele>76.395079</ele>
        <time>2020-07-31T10:15:50.122Z</time>
      </trkpt>
      <trkpt lat="62.46217" lon="6.36385">
        <ele>76.841162</ele>
        <time>2020-07-31T10:15:53.099Z</time>
      </trkpt>
      <trkpt lat="62.46228" lon="6.36394">
        <ele>77.31356</ele>
        <time>2020-07-31T10:15:57.120Z</time>
      </trkpt>
      <trkpt lat="62.46238" lon="6.364">
        <ele>77.728948</ele>
        <time>2020-07-31T10:16:00.133Z</time>
      </trkpt>
      <trkpt lat="62.46248" lon="6.36409">
        <ele>78.182416</ele>
        <time>2020-07-31T10:16:03.143Z</time>
      </trkpt>
      <trkpt lat="62.46258" lon="6.36421">
        <ele>78.602973</ele>
        <time>2020-07-31T10:16:06.145Z</time>
      </trkpt>
      <trkpt lat="62.46267" lon="6.36434">
        <ele>79.060349</ele>
        <time>2020-07-31T10:16:09.172Z</time>
      </trkpt>
      <trkpt lat="62.46278" lon="6.36447">
        <ele>79.555039</ele>
        <time>2020-07-31T10:16:12.121Z</time>
      </trkpt>
      <trkpt lat="62.46287" lon="6.36458">
        <ele>79.957038</ele>
        <time>2020-07-31T10:16:14.129Z</time>
      </trkpt>
      <trkpt lat="62.46298" lon="6.36467">
        <ele>80.460239</ele>
        <time>2020-07-31T10:16:17.106Z</time>
      </trkpt>
      <trkpt lat="62.46311" lon="6.36478">
        <ele>80.994055</ele>
        <time>2020-07-31T10:16:20.133Z</time>
      </trkpt>
      <trkpt lat="62.46319" lon="6.36488">
        <ele>81.2085</ele>
        <time>2020-07-31T10:16:22.116Z</time>
      </trkpt>
      <trkpt lat="62.46329" lon="6.36506">
        <ele>80.804738</ele>
        <time>2020-07-31T10:16:25.121Z</time>
      </trkpt>
      <trkpt lat="62.46338" lon="6.36521">
        <ele>80.462084</ele>
        <time>2020-07-31T10:16:28.099Z</time>
      </trkpt>
      <trkpt lat="62.46347" lon="6.36529">
        <ele>80.162986</ele>
        <time>2020-07-31T10:16:31.124Z</time>
      </trkpt>
      <trkpt lat="62.46356" lon="6.36539">
        <ele>79.858457</ele>
        <time>2020-07-31T10:16:34.102Z</time>
      </trkpt>
      <trkpt lat="62.46365" lon="6.36545">
        <ele>79.562781</ele>
        <time>2020-07-31T10:16:37.143Z</time>
      </trkpt>
      <trkpt lat="62.46377" lon="6.36533">
        <ele>79.156532</ele>
        <time>2020-07-31T10:18:00.195Z</time>
      </trkpt>
      <trkpt lat="62.46378" lon="6.36513">
        <ele>78.869462</ele>
        <time>2020-07-31T10:18:04.129Z</time>
      </trkpt>
      <trkpt lat="62.46382" lon="6.36491">
        <ele>78.543752</ele>
        <time>2020-07-31T10:18:08.123Z</time>
      </trkpt>
      <trkpt lat="62.46388" lon="6.3647">
        <ele>78.191217</ele>
        <time>2020-07-31T10:18:12.130Z</time>
      </trkpt>
      <trkpt lat="62.46394" lon="6.36456">
        <ele>77.909916</ele>
        <time>2020-07-31T10:18:16.135Z</time>
      </trkpt>
      <trkpt lat="62.46402" lon="6.36442">
        <ele>77.591087</ele>
        <time>2020-07-31T10:18:20.134Z</time>
      </trkpt>
      <trkpt lat="62.4641" lon="6.36428">
        <ele>77.27905</ele>
        <time>2020-07-31T10:18:24.156Z</time>
      </trkpt>
      <trkpt lat="62.46418" lon="6.36416">
        <ele>76.991599</ele>
        <time>2020-07-31T10:18:28.124Z</time>
      </trkpt>
      <trkpt lat="62.46426" lon="6.36403">
        <ele>76.688734</ele>
        <time>2020-07-31T10:18:33.151Z</time>
      </trkpt>
      <trkpt lat="62.46434" lon="6.36389">
        <ele>76.371196</ele>
        <time>2020-07-31T10:18:38.182Z</time>
      </trkpt>
      <trkpt lat="62.46441" lon="6.36376">
        <ele>76.092674</ele>
        <time>2020-07-31T10:18:42.117Z</time>
      </trkpt>
      <trkpt lat="62.46448" lon="6.36364">
        <ele>75.810279</ele>
        <time>2020-07-31T10:18:46.095Z</time>
      </trkpt>
      <trkpt lat="62.46454" lon="6.36348">
        <ele>76.185506</ele>
        <time>2020-07-31T10:18:51.099Z</time>
      </trkpt>
      <trkpt lat="62.46463" lon="6.36337">
        <ele>76.700335</ele>
        <time>2020-07-31T10:18:59.119Z</time>
      </trkpt>
      <trkpt lat="62.46472" lon="6.36327">
        <ele>77.211331</ele>
        <time>2020-07-31T10:19:04.106Z</time>
      </trkpt>
      <trkpt lat="62.4648" lon="6.36317">
        <ele>77.725655</ele>
        <time>2020-07-31T10:19:08.142Z</time>
      </trkpt>
      <trkpt lat="62.46488" lon="6.36305">
        <ele>78.241752</ele>
        <time>2020-07-31T10:19:12.126Z</time>
      </trkpt>
      <trkpt lat="62.46496" lon="6.36292">
        <ele>78.759635</ele>
        <time>2020-07-31T10:19:16.137Z</time>
      </trkpt>
      <trkpt lat="62.46504" lon="6.3628">
        <ele>79.26756</ele>
        <time>2020-07-31T10:19:20.107Z</time>
      </trkpt>
      <trkpt lat="62.46512" lon="6.36266">
        <ele>79.796365</ele>
        <time>2020-07-31T10:19:24.133Z</time>
      </trkpt>
      <trkpt lat="62.4652" lon="6.36252">
        <ele>80.351484</ele>
        <time>2020-07-31T10:19:29.092Z</time>
      </trkpt>
      <trkpt lat="62.46528" lon="6.36241">
        <ele>80.842621</ele>
        <time>2020-07-31T10:19:33.113Z</time>
      </trkpt>
      <trkpt lat="62.46537" lon="6.36228">
        <ele>81.381857</ele>
        <time>2020-07-31T10:19:37.124Z</time>
      </trkpt>
      <trkpt lat="62.46544" lon="6.36215">
        <ele>81.884391</ele>
        <time>2020-07-31T10:19:41.141Z</time>
      </trkpt>
      <trkpt lat="62.46553" lon="6.36201">
        <ele>82.429418</ele>
        <time>2020-07-31T10:19:46.120Z</time>
      </trkpt>
      <trkpt lat="62.46561" lon="6.36188">
        <ele>82.950232</ele>
        <time>2020-07-31T10:19:51.105Z</time>
      </trkpt>
      <trkpt lat="62.4657" lon="6.36174">
        <ele>83.535718</ele>
        <time>2020-07-31T10:19:56.109Z</time>
      </trkpt>
      <trkpt lat="62.46577" lon="6.36163">
        <ele>84.005465</ele>
        <time>2020-07-31T10:20:00.115Z</time>
      </trkpt>
      <trkpt lat="62.46586" lon="6.36151">
        <ele>84.560892</ele>
        <time>2020-07-31T10:20:05.153Z</time>
      </trkpt>
      <trkpt lat="62.46594" lon="6.36137">
        <ele>85.074604</ele>
        <time>2020-07-31T10:20:10.111Z</time>
      </trkpt>
      <trkpt lat="62.46601" lon="6.36122">
        <ele>85.456974</ele>
        <time>2020-07-31T10:20:15.118Z</time>
      </trkpt>
      <trkpt lat="62.46609" lon="6.36109">
        <ele>85.808573</ele>
        <time>2020-07-31T10:20:19.158Z</time>
      </trkpt>
      <trkpt lat="62.46617" lon="6.36096">
        <ele>86.172191</ele>
        <time>2020-07-31T10:20:23.148Z</time>
      </trkpt>
      <trkpt lat="62.46627" lon="6.36083">
        <ele>86.582796</ele>
        <time>2020-07-31T10:20:28.094Z</time>
      </trkpt>
      <trkpt lat="62.46634" lon="6.36071">
        <ele>86.925063</ele>
        <time>2020-07-31T10:20:32.142Z</time>
      </trkpt>
      <trkpt lat="62.46642" lon="6.36057">
        <ele>87.289931</ele>
        <time>2020-07-31T10:20:37.100Z</time>
      </trkpt>
      <trkpt lat="62.4665" lon="6.36046">
        <ele>87.630753</ele>
        <time>2020-07-31T10:20:42.141Z</time>
      </trkpt>
      <trkpt lat="62.46658" lon="6.36034">
        <ele>87.986704</ele>
        <time>2020-07-31T10:20:48.108Z</time>
      </trkpt>
      <trkpt lat="62.46667" lon="6.36021">
        <ele>88.35516</ele>
        <time>2020-07-31T10:20:53.111Z</time>
      </trkpt>
      <trkpt lat="62.46676" lon="6.36005">
        <ele>88.776401</ele>
        <time>2020-07-31T10:20:57.164Z</time>
      </trkpt>
      <trkpt lat="62.46683" lon="6.35987">
        <ele>89.164325</ele>
        <time>2020-07-31T10:21:02.104Z</time>
      </trkpt>
      <trkpt lat="62.46686" lon="6.35965">
        <ele>89.538746</ele>
        <time>2020-07-31T10:21:07.122Z</time>
      </trkpt>
      <trkpt lat="62.46694" lon="6.35951">
        <ele>89.909715</ele>
        <time>2020-07-31T10:21:12.094Z</time>
      </trkpt>
      <trkpt lat="62.46703" lon="6.35952">
        <ele>90.236649</ele>
        <time>2020-07-31T10:21:16.122Z</time>
      </trkpt>
      <trkpt lat="62.4671" lon="6.35966">
        <ele>90.584923</ele>
        <time>2020-07-31T10:21:20.091Z</time>
      </trkpt>
      <trkpt lat="62.4671" lon="6.35987">
        <ele>90.926404</ele>
        <time>2020-07-31T10:21:23.102Z</time>
      </trkpt>
      <trkpt lat="62.46712" lon="6.36011">
        <ele>91.331992</ele>
        <time>2020-07-31T10:21:27.149Z</time>
      </trkpt>
      <trkpt lat="62.46714" lon="6.36035">
        <ele>91.766922</ele>
        <time>2020-07-31T10:21:31.098Z</time>
      </trkpt>
      <trkpt lat="62.46716" lon="6.36058">
        <ele>92.249477</ele>
        <time>2020-07-31T10:21:35.165Z</time>
      </trkpt>
      <trkpt lat="62.46718" lon="6.36081">
        <ele>92.710698</ele>
        <time>2020-07-31T10:21:39.141Z</time>
      </trkpt>
      <trkpt lat="62.46721" lon="6.36104">
        <ele>93.193252</ele>
        <time>2020-07-31T10:21:43.162Z</time>
      </trkpt>
      <trkpt lat="62.46724" lon="6.36126">
        <ele>93.667084</ele>
        <time>2020-07-31T10:21:47.112Z</time>
      </trkpt>
      <trkpt lat="62.46727" lon="6.36148">
        <ele>94.106341</ele>
        <time>2020-07-31T10:21:51.127Z</time>
      </trkpt>
      <trkpt lat="62.46728" lon="6.36169">
        <ele>94.539127</ele>
        <time>2020-07-31T10:21:55.142Z</time>
      </trkpt>
      <trkpt lat="62.46732" lon="6.36191">
        <ele>95.009182</ele>
        <time>2020-07-31T10:21:59.126Z</time>
      </trkpt>
      <trkpt lat="62.46736" lon="6.36213">
        <ele>95.483453</ele>
        <time>2020-07-31T10:22:03.121Z</time>
      </trkpt>
      <trkpt lat="62.4674" lon="6.36236">
        <ele>95.962177</ele>
        <time>2020-07-31T10:22:07.144Z</time>
      </trkpt>
      <trkpt lat="62.46743" lon="6.36255">
        <ele>96.390626</ele>
        <time>2020-07-31T10:22:11.139Z</time>
      </trkpt>
      <trkpt lat="62.46746" lon="6.36274">
        <ele>96.782066</ele>
        <time>2020-07-31T10:22:15.152Z</time>
      </trkpt>
      <trkpt lat="62.46748" lon="6.36296">
        <ele>97.224598</ele>
        <time>2020-07-31T10:22:19.153Z</time>
      </trkpt>
      <trkpt lat="62.46751" lon="6.36317">
        <ele>97.688995</ele>
        <time>2020-07-31T10:22:24.125Z</time>
      </trkpt>
      <trkpt lat="62.46753" lon="6.36341">
        <ele>98.173934</ele>
        <time>2020-07-31T10:22:29.115Z</time>
      </trkpt>
      <trkpt lat="62.46755" lon="6.36361">
        <ele>98.568173</ele>
        <time>2020-07-31T10:22:33.098Z</time>
      </trkpt>
      <trkpt lat="62.46757" lon="6.36382">
        <ele>99.008348</ele>
        <time>2020-07-31T10:22:37.093Z</time>
      </trkpt>
      <trkpt lat="62.46759" lon="6.36404">
        <ele>99.427304</ele>
        <time>2020-07-31T10:22:41.133Z</time>
      </trkpt>
      <trkpt lat="62.4676" lon="6.36425">
        <ele>99.603065</ele>
        <time>2020-07-31T10:22:45.103Z</time>
      </trkpt>
      <trkpt lat="62.46762" lon="6.36446">
        <ele>99.789915</ele>
        <time>2020-07-31T10:22:49.137Z</time>
      </trkpt>
      <trkpt lat="62.46763" lon="6.36467">
        <ele>99.963187</ele>
        <time>2020-07-31T10:22:52.136Z</time>
      </trkpt>
      <trkpt lat="62.46767" lon="6.36492">
        <ele>100.180165</ele>
        <time>2020-07-31T10:22:56.095Z</time>
      </trkpt>
      <trkpt lat="62.46771" lon="6.36513">
        <ele>100.375697</ele>
        <time>2020-07-31T10:23:00.109Z</time>
      </trkpt>
      <trkpt lat="62.46775" lon="6.36533">
        <ele>100.563002</ele>
        <time>2020-07-31T10:23:04.120Z</time>
      </trkpt>
      <trkpt lat="62.46781" lon="6.36551">
        <ele>100.750101</ele>
        <time>2020-07-31T10:23:08.149Z</time>
      </trkpt>
      <trkpt lat="62.46789" lon="6.3656">
        <ele>100.915034</ele>
        <time>2020-07-31T10:23:11.113Z</time>
      </trkpt>
      <trkpt lat="62.46799" lon="6.3657">
        <ele>101.114633</ele>
        <time>2020-07-31T10:23:15.114Z</time>
      </trkpt>
      <trkpt lat="62.4681" lon="6.36576">
        <ele>101.321365</ele>
        <time>2020-07-31T10:23:19.161Z</time>
      </trkpt>
      <trkpt lat="62.4682" lon="6.3658">
        <ele>101.505003</ele>
        <time>2020-07-31T10:23:23.126Z</time>
      </trkpt>
      <trkpt lat="62.46829" lon="6.36585">
        <ele>101.678969</ele>
        <time>2020-07-31T10:23:27.135Z</time>
      </trkpt>
      <trkpt lat="62.46839" lon="6.36589">
        <ele>101.854244</ele>
        <time>2020-07-31T10:23:31.120Z</time>
      </trkpt>
      <trkpt lat="62.4685" lon="6.36593">
        <ele>102.061299</ele>
        <time>2020-07-31T10:23:36.093Z</time>
      </trkpt>
      <trkpt lat="62.4686" lon="6.36595">
        <ele>102.24921</ele>
        <time>2020-07-31T10:23:40.102Z</time>
      </trkpt>
      <trkpt lat="62.4687" lon="6.36597">
        <ele>102.424763</ele>
        <time>2020-07-31T10:23:44.133Z</time>
      </trkpt>
      <trkpt lat="62.46879" lon="6.36598">
        <ele>102.590953</ele>
        <time>2020-07-31T10:23:48.109Z</time>
      </trkpt>
      <trkpt lat="62.46889" lon="6.36597">
        <ele>102.639711</ele>
        <time>2020-07-31T10:23:52.125Z</time>
      </trkpt>
      <trkpt lat="62.46899" lon="6.36594">
        <ele>102.547071</ele>
        <time>2020-07-31T10:23:56.115Z</time>
      </trkpt>
      <trkpt lat="62.46909" lon="6.3659">
        <ele>102.461091</ele>
        <time>2020-07-31T10:24:00.118Z</time>
      </trkpt>
      <trkpt lat="62.4692" lon="6.36585">
        <ele>102.362731</ele>
        <time>2020-07-31T10:24:04.129Z</time>
      </trkpt>
      <trkpt lat="62.4693" lon="6.36582">
        <ele>102.272402</ele>
        <time>2020-07-31T10:24:08.113Z</time>
      </trkpt>
      <trkpt lat="62.46941" lon="6.36575">
        <ele>102.173155</ele>
        <time>2020-07-31T10:24:12.123Z</time>
      </trkpt>
      <trkpt lat="62.46951" lon="6.36565">
        <ele>102.08288</ele>
        <time>2020-07-31T10:24:15.123Z</time>
      </trkpt>
      <trkpt lat="62.46961" lon="6.36561">
        <ele>101.989</ele>
        <time>2020-07-31T10:24:18.138Z</time>
      </trkpt>
      <trkpt lat="62.46971" lon="6.36555">
        <ele>101.906587</ele>
        <time>2020-07-31T10:24:21.112Z</time>
      </trkpt>
      <trkpt lat="62.4698" lon="6.3655">
        <ele>101.819282</ele>
        <time>2020-07-31T10:24:24.095Z</time>
      </trkpt>
      <trkpt lat="62.46991" lon="6.36542">
        <ele>101.720882</ele>
        <time>2020-07-31T10:24:27.115Z</time>
      </trkpt>
      <trkpt lat="62.47003" lon="6.36535">
        <ele>101.611385</ele>
        <time>2020-07-31T10:24:30.125Z</time>
      </trkpt>
      <trkpt lat="62.47013" lon="6.3653">
        <ele>101.527012</ele>
        <time>2020-07-31T10:24:32.141Z</time>
      </trkpt>
      <trkpt lat="62.47023" lon="6.36524">
        <ele>101.43437</ele>
        <time>2020-07-31T10:24:34.115Z</time>
      </trkpt>
      <trkpt lat="62.47034" lon="6.36516">
        <ele>101.333488</ele>
        <time>2020-07-31T10:24:36.120Z</time>
      </trkpt>
      <trkpt lat="62.47046" lon="6.36509">
        <ele>101.225456</ele>
        <time>2020-07-31T10:24:38.112Z</time>
      </trkpt>
      <trkpt lat="62.47059" lon="6.36501">
        <ele>101.080233</ele>
        <time>2020-07-31T10:24:40.128Z</time>
      </trkpt>
      <trkpt lat="62.47071" lon="6.36492">
        <ele>100.533219</ele>
        <time>2020-07-31T10:24:42.143Z</time>
      </trkpt>
      <trkpt lat="62.47087" lon="6.36482">
        <ele>99.860416</ele>
        <time>2020-07-31T10:24:44.120Z</time>
      </trkpt>
      <trkpt lat="62.47099" lon="6.36477">
        <ele>99.349568</ele>
        <time>2020-07-31T10:24:46.155Z</time>
      </trkpt>
      <trkpt lat="62.47111" lon="6.36473">
        <ele>98.852053</ele>
        <time>2020-07-31T10:24:48.105Z</time>
      </trkpt>
      <trkpt lat="62.47121" lon="6.36473">
        <ele>98.43819</ele>
        <time>2020-07-31T10:24:50.113Z</time>
      </trkpt>
      <trkpt lat="62.47132" lon="6.36472">
        <ele>98.019715</ele>
        <time>2020-07-31T10:24:53.123Z</time>
      </trkpt>
      <trkpt lat="62.4714" lon="6.36464">
        <ele>97.628588</ele>
        <time>2020-07-31T10:24:56.101Z</time>
      </trkpt>
      <trkpt lat="62.47144" lon="6.36442">
        <ele>97.18302</ele>
        <time>2020-07-31T10:25:00.126Z</time>
      </trkpt>
      <trkpt lat="62.47145" lon="6.36422">
        <ele>96.809093</ele>
        <time>2020-07-31T10:25:03.082Z</time>
      </trkpt>
      <trkpt lat="62.47152" lon="6.3641">
        <ele>96.441004</ele>
        <time>2020-07-31T10:25:08.129Z</time>
      </trkpt>
      <trkpt lat="62.47161" lon="6.36412">
        <ele>96.049302</ele>
        <time>2020-07-31T10:25:13.101Z</time>
      </trkpt>
      <trkpt lat="62.47165" lon="6.3643">
        <ele>95.672807</ele>
        <time>2020-07-31T10:25:19.123Z</time>
      </trkpt>
      <trkpt lat="62.47171" lon="6.36446">
        <ele>95.286642</ele>
        <time>2020-07-31T10:25:26.095Z</time>
      </trkpt>
      <trkpt lat="62.47181" lon="6.36453">
        <ele>94.867766</ele>
        <time>2020-07-31T10:25:32.101Z</time>
      </trkpt>
      <trkpt lat="62.4719" lon="6.36456">
        <ele>94.475391</ele>
        <time>2020-07-31T10:25:38.106Z</time>
      </trkpt>
      <trkpt lat="62.47201" lon="6.36462">
        <ele>94.029903</ele>
        <time>2020-07-31T10:25:43.100Z</time>
      </trkpt>
      <trkpt lat="62.47218" lon="6.36481">
        <ele>93.658889</ele>
        <time>2020-07-31T10:26:22.101Z</time>
      </trkpt>
      <trkpt lat="62.47227" lon="6.36488">
        <ele>93.590168</ele>
        <time>2020-07-31T10:26:26.103Z</time>
      </trkpt>
      <trkpt lat="62.47237" lon="6.36496">
        <ele>93.51779</ele>
        <time>2020-07-31T10:26:30.104Z</time>
      </trkpt>
      <trkpt lat="62.47246" lon="6.36504">
        <ele>93.444815</ele>
        <time>2020-07-31T10:26:33.118Z</time>
      </trkpt>
      <trkpt lat="62.47257" lon="6.36518">
        <ele>93.353825</ele>
        <time>2020-07-31T10:26:36.119Z</time>
      </trkpt>
      <trkpt lat="62.47268" lon="6.36533">
        <ele>93.260444</ele>
        <time>2020-07-31T10:26:39.119Z</time>
      </trkpt>
      <trkpt lat="62.47277" lon="6.36552">
        <ele>93.168694</ele>
        <time>2020-07-31T10:26:42.116Z</time>
      </trkpt>
      <trkpt lat="62.47284" lon="6.36568">
        <ele>93.09825</ele>
        <time>2020-07-31T10:26:44.116Z</time>
      </trkpt>
      <trkpt lat="62.47291" lon="6.36582">
        <ele>93.027154</ele>
        <time>2020-07-31T10:26:46.124Z</time>
      </trkpt>
      <trkpt lat="62.47298" lon="6.36598">
        <ele>92.957437</ele>
        <time>2020-07-31T10:26:49.113Z</time>
      </trkpt>
      <trkpt lat="62.47304" lon="6.36616">
        <ele>92.880981</ele>
        <time>2020-07-31T10:26:53.114Z</time>
      </trkpt>
      <trkpt lat="62.47311" lon="6.36631">
        <ele>92.812716</ele>
        <time>2020-07-31T10:26:57.121Z</time>
      </trkpt>
      <trkpt lat="62.47317" lon="6.36644">
        <ele>92.747861</ele>
        <time>2020-07-31T10:27:01.198Z</time>
      </trkpt>
      <trkpt lat="62.47323" lon="6.3666">
        <ele>92.679526</ele>
        <time>2020-07-31T10:27:05.087Z</time>
      </trkpt>
      <trkpt lat="62.47331" lon="6.3668">
        <ele>92.59532</ele>
        <time>2020-07-31T10:27:09.104Z</time>
      </trkpt>
      <trkpt lat="62.47338" lon="6.367">
        <ele>92.510023</ele>
        <time>2020-07-31T10:27:12.122Z</time>
      </trkpt>
      <trkpt lat="62.47344" lon="6.36716">
        <ele>92.351879</ele>
        <time>2020-07-31T10:27:14.103Z</time>
      </trkpt>
      <trkpt lat="62.4735" lon="6.36732">
        <ele>91.846616</ele>
        <time>2020-07-31T10:27:16.101Z</time>
      </trkpt>
      <trkpt lat="62.47358" lon="6.36748">
        <ele>91.313196</ele>
        <time>2020-07-31T10:27:18.133Z</time>
      </trkpt>
      <trkpt lat="62.47367" lon="6.36767">
        <ele>90.654232</ele>
        <time>2020-07-31T10:27:21.144Z</time>
      </trkpt>
      <trkpt lat="62.47377" lon="6.36782">
        <ele>89.995939</ele>
        <time>2020-07-31T10:27:24.122Z</time>
      </trkpt>
      <trkpt lat="62.47386" lon="6.3679">
        <ele>89.520635</ele>
        <time>2020-07-31T10:27:26.133Z</time>
      </trkpt>
      <trkpt lat="62.47397" lon="6.36796">
        <ele>88.904761</ele>
        <time>2020-07-31T10:27:29.123Z</time>
      </trkpt>
      <trkpt lat="62.47407" lon="6.36794">
        <ele>88.40923</ele>
        <time>2020-07-31T10:27:32.141Z</time>
      </trkpt>
      <trkpt lat="62.47418" lon="6.36793">
        <ele>87.814788</ele>
        <time>2020-07-31T10:27:35.134Z</time>
      </trkpt>
      <trkpt lat="62.4743" lon="6.36798">
        <ele>87.212642</ele>
        <time>2020-07-31T10:27:38.134Z</time>
      </trkpt>
      <trkpt lat="62.4742" lon="6.36794">
        <ele>86.72717</ele>
        <time>2020-07-31T10:27:51.142Z</time>
      </trkpt>
      <trkpt lat="62.47411" lon="6.36788">
        <ele>86.214326</ele>
        <time>2020-07-31T10:27:58.106Z</time>
      </trkpt>
      <trkpt lat="62.47402" lon="6.36784">
        <ele>85.743012</ele>
        <time>2020-07-31T10:28:06.110Z</time>
      </trkpt>
      <trkpt lat="62.47392" lon="6.36786">
        <ele>85.208935</ele>
        <time>2020-07-31T10:30:32.142Z</time>
      </trkpt>
      <trkpt lat="62.47401" lon="6.36792">
        <ele>84.702333</ele>
        <time>2020-07-31T10:30:40.131Z</time>
      </trkpt>
      <trkpt lat="62.47414" lon="6.3679">
        <ele>84.033726</ele>
        <time>2020-07-31T10:30:44.086Z</time>
      </trkpt>
      <trkpt lat="62.47423" lon="6.36794">
        <ele>83.541157</ele>
        <time>2020-07-31T10:30:46.112Z</time>
      </trkpt>
      <trkpt lat="62.47433" lon="6.36801">
        <ele>83.075397</ele>
        <time>2020-07-31T10:30:48.154Z</time>
      </trkpt>
      <trkpt lat="62.47442" lon="6.36813">
        <ele>82.724837</ele>
        <time>2020-07-31T10:30:50.133Z</time>
      </trkpt>
      <trkpt lat="62.47451" lon="6.3683">
        <ele>82.33851</ele>
        <time>2020-07-31T10:30:52.092Z</time>
      </trkpt>
      <trkpt lat="62.47459" lon="6.36851">
        <ele>81.947243</ele>
        <time>2020-07-31T10:30:54.094Z</time>
      </trkpt>
      <trkpt lat="62.47464" lon="6.36868">
        <ele>81.65462</ele>
        <time>2020-07-31T10:30:56.120Z</time>
      </trkpt>
      <trkpt lat="62.47469" lon="6.36886">
        <ele>81.329679</ele>
        <time>2020-07-31T10:30:59.152Z</time>
      </trkpt>
      <trkpt lat="62.47475" lon="6.36904">
        <ele>80.989724</ele>
        <time>2020-07-31T10:31:04.082Z</time>
      </trkpt>
      <trkpt lat="62.4748" lon="6.36922">
        <ele>80.69332</ele>
        <time>2020-07-31T10:31:09.143Z</time>
      </trkpt>
      <trkpt lat="62.47485" lon="6.36938">
        <ele>80.402614</ele>
        <time>2020-07-31T10:31:13.111Z</time>
      </trkpt>
      <trkpt lat="62.47492" lon="6.36956">
        <ele>80.050778</ele>
        <time>2020-07-31T10:31:17.115Z</time>
      </trkpt>
      <trkpt lat="62.47499" lon="6.36976">
        <ele>79.673217</ele>
        <time>2020-07-31T10:31:20.125Z</time>
      </trkpt>
      <trkpt lat="62.47504" lon="6.37001">
        <ele>79.273372</ele>
        <time>2020-07-31T10:31:23.112Z</time>
      </trkpt>
      <trkpt lat="62.47507" lon="6.37022">
        <ele>78.948323</ele>
        <time>2020-07-31T10:31:26.093Z</time>
      </trkpt>
      <trkpt lat="62.47512" lon="6.37042">
        <ele>78.615756</ele>
        <time>2020-07-31T10:31:30.095Z</time>
      </trkpt>
      <trkpt lat="62.47514" lon="6.37061">
        <ele>78.320972</ele>
        <time>2020-07-31T10:31:35.112Z</time>
      </trkpt>
      <trkpt lat="62.47511" lon="6.37081">
        <ele>78.011289</ele>
        <time>2020-07-31T10:31:41.096Z</time>
      </trkpt>
      <trkpt lat="62.47509" lon="6.37104">
        <ele>77.670589</ele>
        <time>2020-07-31T10:31:45.136Z</time>
      </trkpt>
      <trkpt lat="62.47508" lon="6.37124">
        <ele>77.382794</ele>
        <time>2020-07-31T10:31:50.111Z</time>
      </trkpt>
      <trkpt lat="62.47506" lon="6.37145">
        <ele>77.303204</ele>
        <time>2020-07-31T10:31:55.173Z</time>
      </trkpt>
      <trkpt lat="62.47506" lon="6.37165">
        <ele>77.22167</ele>
        <time>2020-07-31T10:31:59.101Z</time>
      </trkpt>
      <trkpt lat="62.47505" lon="6.37187">
        <ele>77.135684</ele>
        <time>2020-07-31T10:32:03.100Z</time>
      </trkpt>
      <trkpt lat="62.47506" lon="6.37212">
        <ele>77.035949</ele>
        <time>2020-07-31T10:32:07.108Z</time>
      </trkpt>
      <trkpt lat="62.4751" lon="6.37234">
        <ele>76.946363</ele>
        <time>2020-07-31T10:32:10.108Z</time>
      </trkpt>
      <trkpt lat="62.47514" lon="6.37257">
        <ele>76.847744</ele>
        <time>2020-07-31T10:32:13.097Z</time>
      </trkpt>
      <trkpt lat="62.47519" lon="6.37281">
        <ele>76.745552</ele>
        <time>2020-07-31T10:32:16.105Z</time>
      </trkpt>
      <trkpt lat="62.47523" lon="6.37307">
        <ele>76.636892</ele>
        <time>2020-07-31T10:32:19.092Z</time>
      </trkpt>
      <trkpt lat="62.47528" lon="6.37333">
        <ele>76.52868</ele>
        <time>2020-07-31T10:32:22.124Z</time>
      </trkpt>
      <trkpt lat="62.47533" lon="6.37358">
        <ele>76.422519</ele>
        <time>2020-07-31T10:32:25.110Z</time>
      </trkpt>
      <trkpt lat="62.47537" lon="6.37383">
        <ele>76.315903</ele>
        <time>2020-07-31T10:32:28.133Z</time>
      </trkpt>
      <trkpt lat="62.47541" lon="6.37408">
        <ele>76.211507</ele>
        <time>2020-07-31T10:32:31.102Z</time>
      </trkpt>
      <trkpt lat="62.47546" lon="6.37432">
        <ele>76.111754</ele>
        <time>2020-07-31T10:32:34.122Z</time>
      </trkpt>
      <trkpt lat="62.47551" lon="6.37455">
        <ele>76.010658</ele>
        <time>2020-07-31T10:32:37.135Z</time>
      </trkpt>
      <trkpt lat="62.47555" lon="6.37477">
        <ele>75.919771</ele>
        <time>2020-07-31T10:32:40.122Z</time>
      </trkpt>
      <trkpt lat="62.47558" lon="6.37496">
        <ele>75.799362</ele>
        <time>2020-07-31T10:32:43.140Z</time>
      </trkpt>
      <trkpt lat="62.47561" lon="6.37515">
        <ele>75.607673</ele>
        <time>2020-07-31T10:32:46.154Z</time>
      </trkpt>
      <trkpt lat="62.47564" lon="6.37533">
        <ele>75.416218</ele>
        <time>2020-07-31T10:32:49.128Z</time>
      </trkpt>
      <trkpt lat="62.47569" lon="6.37555">
        <ele>75.184908</ele>
        <time>2020-07-31T10:32:53.119Z</time>
      </trkpt>
      <trkpt lat="62.47573" lon="6.37578">
        <ele>74.941968</ele>
        <time>2020-07-31T10:32:57.123Z</time>
      </trkpt>
      <trkpt lat="62.47578" lon="6.37599">
        <ele>74.708916</ele>
        <time>2020-07-31T10:33:01.110Z</time>
      </trkpt>
      <trkpt lat="62.47583" lon="6.3762">
        <ele>74.478545</ele>
        <time>2020-07-31T10:33:04.124Z</time>
      </trkpt>
      <trkpt lat="62.47589" lon="6.37635">
        <ele>74.28498</ele>
        <time>2020-07-31T10:33:06.125Z</time>
      </trkpt>
      <trkpt lat="62.47596" lon="6.37652">
        <ele>74.056006</ele>
        <time>2020-07-31T10:33:08.149Z</time>
      </trkpt>
      <trkpt lat="62.47605" lon="6.3767">
        <ele>73.799912</ele>
        <time>2020-07-31T10:33:10.164Z</time>
      </trkpt>
      <trkpt lat="62.47615" lon="6.37686">
        <ele>73.534344</ele>
        <time>2020-07-31T10:33:12.178Z</time>
      </trkpt>
      <trkpt lat="62.47626" lon="6.37701">
        <ele>73.25917</ele>
        <time>2020-07-31T10:33:14.120Z</time>
      </trkpt>
      <trkpt lat="62.47638" lon="6.37712">
        <ele>72.98789</ele>
        <time>2020-07-31T10:33:16.135Z</time>
      </trkpt>
      <trkpt lat="62.47648" lon="6.37723">
        <ele>72.742621</ele>
        <time>2020-07-31T10:33:18.134Z</time>
      </trkpt>
      <trkpt lat="62.47654" lon="6.37747">
        <ele>72.479294</ele>
        <time>2020-07-31T10:33:21.127Z</time>
      </trkpt>
      <trkpt lat="62.47661" lon="6.37767">
        <ele>72.227476</ele>
        <time>2020-07-31T10:33:25.119Z</time>
      </trkpt>
      <trkpt lat="62.47671" lon="6.3778">
        <ele>72.130354</ele>
        <time>2020-07-31T10:33:28.155Z</time>
      </trkpt>
      <trkpt lat="62.4768" lon="6.37787">
        <ele>72.353898</ele>
        <time>2020-07-31T10:33:31.118Z</time>
      </trkpt>
      <trkpt lat="62.47689" lon="6.37793">
        <ele>72.579455</ele>
        <time>2020-07-31T10:33:36.156Z</time>
      </trkpt>
      <trkpt lat="62.47698" lon="6.37802">
        <ele>72.837194</ele>
        <time>2020-07-31T10:33:42.118Z</time>
      </trkpt>
      <trkpt lat="62.47709" lon="6.37806">
        <ele>73.097236</ele>
        <time>2020-07-31T10:33:48.120Z</time>
      </trkpt>
      <trkpt lat="62.47718" lon="6.37813">
        <ele>73.329609</ele>
        <time>2020-07-31T10:33:54.128Z</time>
      </trkpt>
      <trkpt lat="62.47727" lon="6.37814">
        <ele>73.551536</ele>
        <time>2020-07-31T10:34:00.153Z</time>
      </trkpt>
      <trkpt lat="62.47736" lon="6.37818">
        <ele>73.785933</ele>
        <time>2020-07-31T10:34:05.104Z</time>
      </trkpt>
      <trkpt lat="62.47747" lon="6.37815">
        <ele>74.061575</ele>
        <time>2020-07-31T10:34:10.166Z</time>
      </trkpt>
      <trkpt lat="62.47757" lon="6.37809">
        <ele>74.295438</ele>
        <time>2020-07-31T10:34:14.121Z</time>
      </trkpt>
      <trkpt lat="62.47766" lon="6.37801">
        <ele>74.549659</ele>
        <time>2020-07-31T10:34:18.121Z</time>
      </trkpt>
      <trkpt lat="62.47776" lon="6.37788">
        <ele>74.812046</ele>
        <time>2020-07-31T10:34:22.118Z</time>
      </trkpt>
      <trkpt lat="62.47782" lon="6.37775">
        <ele>75.038755</ele>
        <time>2020-07-31T10:34:25.144Z</time>
      </trkpt>
      <trkpt lat="62.47791" lon="6.37757">
        <ele>75.324499</ele>
        <time>2020-07-31T10:34:28.147Z</time>
      </trkpt>
      <trkpt lat="62.47797" lon="6.37742">
        <ele>75.54964</ele>
        <time>2020-07-31T10:34:30.116Z</time>
      </trkpt>
      <trkpt lat="62.47803" lon="6.37726">
        <ele>75.788277</ele>
        <time>2020-07-31T10:34:32.096Z</time>
      </trkpt>
      <trkpt lat="62.47812" lon="6.37715">
        <ele>76.046613</ele>
        <time>2020-07-31T10:34:34.153Z</time>
      </trkpt>
      <trkpt lat="62.47824" lon="6.37722">
        <ele>76.340421</ele>
        <time>2020-07-31T10:34:37.099Z</time>
      </trkpt>
      <trkpt lat="62.47832" lon="6.37738">
        <ele>76.623767</ele>
        <time>2020-07-31T10:34:42.104Z</time>
      </trkpt>
      <trkpt lat="62.47839" lon="6.37751">
        <ele>76.890788</ele>
        <time>2020-07-31T10:34:49.123Z</time>
      </trkpt>
      <trkpt lat="62.47848" lon="6.37746">
        <ele>77.142251</ele>
        <time>2020-07-31T10:34:57.112Z</time>
      </trkpt>
      <trkpt lat="62.47857" lon="6.3774">
        <ele>77.405641</ele>
        <time>2020-07-31T10:35:06.104Z</time>
      </trkpt>
      <trkpt lat="62.47868" lon="6.37735">
        <ele>77.702897</ele>
        <time>2020-07-31T10:35:12.116Z</time>
      </trkpt>
      <trkpt lat="62.47877" lon="6.3773">
        <ele>77.956122</ele>
        <time>2020-07-31T10:35:19.126Z</time>
      </trkpt>
      <trkpt lat="62.47886" lon="6.37729">
        <ele>78.216709</ele>
        <time>2020-07-31T10:35:27.106Z</time>
      </trkpt>
      <trkpt lat="62.47895" lon="6.37732">
        <ele>78.469764</ele>
        <time>2020-07-31T10:35:35.114Z</time>
      </trkpt>
      <trkpt lat="62.47902" lon="6.37747">
        <ele>78.733797</ele>
        <time>2020-07-31T10:35:42.135Z</time>
      </trkpt>
      <trkpt lat="62.47906" lon="6.37766">
        <ele>79.009093</ele>
        <time>2020-07-31T10:35:47.169Z</time>
      </trkpt>
      <trkpt lat="62.47909" lon="6.37789">
        <ele>79.308151</ele>
        <time>2020-07-31T10:35:51.128Z</time>
      </trkpt>
      <trkpt lat="62.47915" lon="6.3781">
        <ele>79.628593</ele>
        <time>2020-07-31T10:35:55.125Z</time>
      </trkpt>
      <trkpt lat="62.47926" lon="6.37825">
        <ele>79.989767</ele>
        <time>2020-07-31T10:35:58.147Z</time>
      </trkpt>
      <trkpt lat="62.47934" lon="6.37834">
        <ele>80.241077</ele>
        <time>2020-07-31T10:36:00.180Z</time>
      </trkpt>
      <trkpt lat="62.47942" lon="6.37844">
        <ele>80.500421</ele>
        <time>2020-07-31T10:36:02.137Z</time>
      </trkpt>
      <trkpt lat="62.47948" lon="6.37868">
        <ele>80.850305</ele>
        <time>2020-07-31T10:36:05.117Z</time>
      </trkpt>
      <trkpt lat="62.47945" lon="6.37887">
        <ele>81.103884</ele>
        <time>2020-07-31T10:36:08.129Z</time>
      </trkpt>
      <trkpt lat="62.47944" lon="6.3791">
        <ele>81.396048</ele>
        <time>2020-07-31T10:36:14.127Z</time>
      </trkpt>
      <trkpt lat="62.47945" lon="6.37931">
        <ele>81.410507</ele>
        <time>2020-07-31T10:36:20.116Z</time>
      </trkpt>
      <trkpt lat="62.47954" lon="6.37946">
        <ele>81.409819</ele>
        <time>2020-07-31T10:36:26.137Z</time>
      </trkpt>
      <trkpt lat="62.47966" lon="6.37949">
        <ele>81.409121</ele>
        <time>2020-07-31T10:36:29.138Z</time>
      </trkpt>
      <trkpt lat="62.47977" lon="6.37953">
        <ele>81.408432</ele>
        <time>2020-07-31T10:36:32.130Z</time>
      </trkpt>
      <trkpt lat="62.47987" lon="6.37957">
        <ele>81.407814</ele>
        <time>2020-07-31T10:36:35.106Z</time>
      </trkpt>
      <trkpt lat="62.47996" lon="6.37962">
        <ele>81.407268</ele>
        <time>2020-07-31T10:36:38.111Z</time>
      </trkpt>
      <trkpt lat="62.48007" lon="6.37966">
        <ele>81.406572</ele>
        <time>2020-07-31T10:36:42.112Z</time>
      </trkpt>
      <trkpt lat="62.48016" lon="6.37969">
        <ele>81.405985</ele>
        <time>2020-07-31T10:36:46.118Z</time>
      </trkpt>
      <trkpt lat="62.48026" lon="6.37964">
        <ele>81.405398</ele>
        <time>2020-07-31T10:36:52.112Z</time>
      </trkpt>
      <trkpt lat="62.48017" lon="6.37958">
        <ele>81.404833</ele>
        <time>2020-07-31T10:36:57.118Z</time>
      </trkpt>
      <trkpt lat="62.48005" lon="6.37955">
        <ele>81.404108</ele>
        <time>2020-07-31T10:37:00.140Z</time>
      </trkpt>
      <trkpt lat="62.47993" lon="6.37953">
        <ele>81.403376</ele>
        <time>2020-07-31T10:37:03.118Z</time>
      </trkpt>
      <trkpt lat="62.47981" lon="6.3795">
        <ele>81.402637</ele>
        <time>2020-07-31T10:37:06.102Z</time>
      </trkpt>
      <trkpt lat="62.4797" lon="6.37945">
        <ele>81.401933</ele>
        <time>2020-07-31T10:37:09.083Z</time>
      </trkpt>
      <trkpt lat="62.47958" lon="6.37941">
        <ele>81.401217</ele>
        <time>2020-07-31T10:37:12.098Z</time>
      </trkpt>
      <trkpt lat="62.47948" lon="6.3794">
        <ele>81.400597</ele>
        <time>2020-07-31T10:37:15.103Z</time>
      </trkpt>
      <trkpt lat="62.47937" lon="6.37946">
        <ele>81.394148</ele>
        <time>2020-07-31T10:37:19.114Z</time>
      </trkpt>
      <trkpt lat="62.47928" lon="6.37958">
        <ele>81.377467</ele>
        <time>2020-07-31T10:37:24.080Z</time>
      </trkpt>
      <trkpt lat="62.4792" lon="6.37974">
        <ele>81.360306</ele>
        <time>2020-07-31T10:37:29.137Z</time>
      </trkpt>
      <trkpt lat="62.47914" lon="6.3799">
        <ele>81.34616</ele>
        <time>2020-07-31T10:37:33.122Z</time>
      </trkpt>
      <trkpt lat="62.47909" lon="6.38007">
        <ele>81.331803</ele>
        <time>2020-07-31T10:37:37.138Z</time>
      </trkpt>
      <trkpt lat="62.4791" lon="6.38031">
        <ele>81.314897</ele>
        <time>2020-07-31T10:37:42.152Z</time>
      </trkpt>
      <trkpt lat="62.47918" lon="6.38043">
        <ele>81.300207</ele>
        <time>2020-07-31T10:37:45.094Z</time>
      </trkpt>
      <trkpt lat="62.47927" lon="6.38051">
        <ele>81.284365</ele>
        <time>2020-07-31T10:37:48.151Z</time>
      </trkpt>
      <trkpt lat="62.47938" lon="6.38061">
        <ele>81.266132</ele>
        <time>2020-07-31T10:37:51.102Z</time>
      </trkpt>
      <trkpt lat="62.4795" lon="6.38072">
        <ele>81.247252</ele>
        <time>2020-07-31T10:37:54.153Z</time>
      </trkpt>
      <trkpt lat="62.47959" lon="6.38079">
        <ele>81.232475</ele>
        <time>2020-07-31T10:37:56.121Z</time>
      </trkpt>
      <trkpt lat="62.47967" lon="6.38086">
        <ele>81.217983</ele>
        <time>2020-07-31T10:37:58.106Z</time>
      </trkpt>
      <trkpt lat="62.47977" lon="6.38094">
        <ele>81.202621</ele>
        <time>2020-07-31T10:38:00.173Z</time>
      </trkpt>
      <trkpt lat="62.47986" lon="6.38104">
        <ele>81.187035</ele>
        <time>2020-07-31T10:38:02.117Z</time>
      </trkpt>
      <trkpt lat="62.47995" lon="6.38115">
        <ele>81.171471</ele>
        <time>2020-07-31T10:38:04.113Z</time>
      </trkpt>
      <trkpt lat="62.48004" lon="6.38127">
        <ele>81.154773</ele>
        <time>2020-07-31T10:38:06.105Z</time>
      </trkpt>
      <trkpt lat="62.48013" lon="6.38142">
        <ele>81.137177</ele>
        <time>2020-07-31T10:38:08.112Z</time>
      </trkpt>
      <trkpt lat="62.48023" lon="6.3816">
        <ele>81.027437</ele>
        <time>2020-07-31T10:38:10.135Z</time>
      </trkpt>
      <trkpt lat="62.48032" lon="6.38181">
        <ele>80.717453</ele>
        <time>2020-07-31T10:38:12.105Z</time>
      </trkpt>
      <trkpt lat="62.48041" lon="6.38204">
        <ele>80.393102</ele>
        <time>2020-07-31T10:38:14.093Z</time>
      </trkpt>
      <trkpt lat="62.4805" lon="6.38229">
        <ele>80.060699</ele>
        <time>2020-07-31T10:38:16.105Z</time>
      </trkpt>
      <trkpt lat="62.48058" lon="6.38252">
        <ele>79.738141</ele>
        <time>2020-07-31T10:38:18.137Z</time>
      </trkpt>
      <trkpt lat="62.48068" lon="6.38275">
        <ele>79.402223</ele>
        <time>2020-07-31T10:38:20.136Z</time>
      </trkpt>
      <trkpt lat="62.48078" lon="6.38297">
        <ele>79.074887</ele>
        <time>2020-07-31T10:38:22.130Z</time>
      </trkpt>
      <trkpt lat="62.48089" lon="6.38317">
        <ele>78.750282</ele>
        <time>2020-07-31T10:38:24.114Z</time>
      </trkpt>
      <trkpt lat="62.48099" lon="6.38334">
        <ele>78.455624</ele>
        <time>2020-07-31T10:38:26.108Z</time>
      </trkpt>
      <trkpt lat="62.48109" lon="6.3835">
        <ele>78.170462</ele>
        <time>2020-07-31T10:38:28.126Z</time>
      </trkpt>
      <trkpt lat="62.48119" lon="6.38364">
        <ele>77.893937</ele>
        <time>2020-07-31T10:38:30.104Z</time>
      </trkpt>
      <trkpt lat="62.48129" lon="6.38376">
        <ele>77.626315</ele>
        <time>2020-07-31T10:38:32.133Z</time>
      </trkpt>
      <trkpt lat="62.48139" lon="6.38386">
        <ele>77.359501</ele>
        <time>2020-07-31T10:38:34.149Z</time>
      </trkpt>
      <trkpt lat="62.4815" lon="6.38397">
        <ele>77.084585</ele>
        <time>2020-07-31T10:38:36.104Z</time>
      </trkpt>
      <trkpt lat="62.4816" lon="6.38406">
        <ele>76.835646</ele>
        <time>2020-07-31T10:38:38.147Z</time>
      </trkpt>
      <trkpt lat="62.4817" lon="6.38415">
        <ele>76.596897</ele>
        <time>2020-07-31T10:38:40.102Z</time>
      </trkpt>
      <trkpt lat="62.48179" lon="6.38424">
        <ele>76.356908</ele>
        <time>2020-07-31T10:38:42.102Z</time>
      </trkpt>
      <trkpt lat="62.48189" lon="6.38434">
        <ele>76.113535</ele>
        <time>2020-07-31T10:38:44.121Z</time>
      </trkpt>
      <trkpt lat="62.48199" lon="6.38444">
        <ele>75.857875</ele>
        <time>2020-07-31T10:38:46.136Z</time>
      </trkpt>
      <trkpt lat="62.4821" lon="6.38456">
        <ele>75.580547</ele>
        <time>2020-07-31T10:38:48.142Z</time>
      </trkpt>
      <trkpt lat="62.48221" lon="6.38467">
        <ele>75.295692</ele>
        <time>2020-07-31T10:38:50.121Z</time>
      </trkpt>
      <trkpt lat="62.48233" lon="6.38479">
        <ele>74.997122</ele>
        <time>2020-07-31T10:38:52.104Z</time>
      </trkpt>
      <trkpt lat="62.48246" lon="6.38492">
        <ele>74.675082</ele>
        <time>2020-07-31T10:38:54.132Z</time>
      </trkpt>
      <trkpt lat="62.48259" lon="6.38506">
        <ele>74.33869</ele>
        <time>2020-07-31T10:38:56.104Z</time>
      </trkpt>
      <trkpt lat="62.48273" lon="6.38521">
        <ele>73.99088</ele>
        <time>2020-07-31T10:38:58.107Z</time>
      </trkpt>
      <trkpt lat="62.48287" lon="6.38535">
        <ele>73.646261</ele>
        <time>2020-07-31T10:39:00.116Z</time>
      </trkpt>
      <trkpt lat="62.48299" lon="6.38547">
        <ele>73.327621</ele>
        <time>2020-07-31T10:39:02.144Z</time>
      </trkpt>
      <trkpt lat="62.48312" lon="6.3856">
        <ele>73.013346</ele>
        <time>2020-07-31T10:39:04.104Z</time>
      </trkpt>
      <trkpt lat="62.48324" lon="6.38574">
        <ele>72.364059</ele>
        <time>2020-07-31T10:39:06.106Z</time>
      </trkpt>
      <trkpt lat="62.48336" lon="6.38588">
        <ele>71.3514</ele>
        <time>2020-07-31T10:39:08.125Z</time>
      </trkpt>
      <trkpt lat="62.48348" lon="6.38602">
        <ele>70.356195</ele>
        <time>2020-07-31T10:39:10.148Z</time>
      </trkpt>
      <trkpt lat="62.48358" lon="6.38621">
        <ele>69.385898</ele>
        <time>2020-07-31T10:39:12.145Z</time>
      </trkpt>
      <trkpt lat="62.48366" lon="6.38645">
        <ele>68.349396</ele>
        <time>2020-07-31T10:39:14.137Z</time>
      </trkpt>
      <trkpt lat="62.48373" lon="6.38678">
        <ele>67.139942</ele>
        <time>2020-07-31T10:39:16.096Z</time>
      </trkpt>
      <trkpt lat="62.48376" lon="6.38715">
        <ele>65.858957</ele>
        <time>2020-07-31T10:39:18.094Z</time>
      </trkpt>
      <trkpt lat="62.48376" lon="6.38735">
        <ele>65.17566</ele>
        <time>2020-07-31T10:39:19.105Z</time>
      </trkpt>
      <trkpt lat="62.48376" lon="6.38755">
        <ele>64.485098</ele>
        <time>2020-07-31T10:39:20.151Z</time>
      </trkpt>
      <trkpt lat="62.48375" lon="6.38776">
        <ele>63.776295</ele>
        <time>2020-07-31T10:39:21.132Z</time>
      </trkpt>
      <trkpt lat="62.48374" lon="6.38798">
        <ele>63.035812</ele>
        <time>2020-07-31T10:39:22.098Z</time>
      </trkpt>
      <trkpt lat="62.48373" lon="6.38821">
        <ele>62.246553</ele>
        <time>2020-07-31T10:39:23.118Z</time>
      </trkpt>
      <trkpt lat="62.48372" lon="6.38844">
        <ele>61.443769</ele>
        <time>2020-07-31T10:39:24.118Z</time>
      </trkpt>
      <trkpt lat="62.48371" lon="6.38869">
        <ele>60.618</ele>
        <time>2020-07-31T10:39:25.116Z</time>
      </trkpt>
      <trkpt lat="62.4837" lon="6.38893">
        <ele>59.78816</ele>
        <time>2020-07-31T10:39:26.116Z</time>
      </trkpt>
      <trkpt lat="62.48369" lon="6.38917">
        <ele>59.352135</ele>
        <time>2020-07-31T10:39:27.137Z</time>
      </trkpt>
      <trkpt lat="62.48369" lon="6.38941">
        <ele>59.018042</ele>
        <time>2020-07-31T10:39:28.125Z</time>
      </trkpt>
      <trkpt lat="62.48369" lon="6.38965">
        <ele>58.689539</ele>
        <time>2020-07-31T10:39:29.132Z</time>
      </trkpt>
      <trkpt lat="62.4837" lon="6.38988">
        <ele>58.364342</ele>
        <time>2020-07-31T10:39:30.117Z</time>
      </trkpt>
      <trkpt lat="62.48371" lon="6.3901">
        <ele>58.048769</ele>
        <time>2020-07-31T10:39:31.103Z</time>
      </trkpt>
      <trkpt lat="62.48373" lon="6.39032">
        <ele>57.742066</ele>
        <time>2020-07-31T10:39:32.119Z</time>
      </trkpt>
      <trkpt lat="62.48374" lon="6.39053">
        <ele>57.447317</ele>
        <time>2020-07-31T10:39:33.139Z</time>
      </trkpt>
      <trkpt lat="62.48376" lon="6.39072">
        <ele>57.166852</ele>
        <time>2020-07-31T10:39:34.094Z</time>
      </trkpt>
      <trkpt lat="62.48378" lon="6.39109">
        <ele>56.649689</ele>
        <time>2020-07-31T10:39:36.130Z</time>
      </trkpt>
      <trkpt lat="62.48381" lon="6.39143">
        <ele>56.171067</ele>
        <time>2020-07-31T10:39:38.152Z</time>
      </trkpt>
      <trkpt lat="62.48383" lon="6.39174">
        <ele>55.728944</ele>
        <time>2020-07-31T10:39:40.116Z</time>
      </trkpt>
      <trkpt lat="62.48386" lon="6.39202">
        <ele>55.325807</ele>
        <time>2020-07-31T10:39:42.122Z</time>
      </trkpt>
      <trkpt lat="62.4839" lon="6.39226">
        <ele>54.975736</ele>
        <time>2020-07-31T10:39:44.152Z</time>
      </trkpt>
      <trkpt lat="62.48394" lon="6.39245">
        <ele>54.678805</ele>
        <time>2020-07-31T10:39:46.102Z</time>
      </trkpt>
      <trkpt lat="62.484" lon="6.3927">
        <ele>54.290464</ele>
        <time>2020-07-31T10:39:49.130Z</time>
      </trkpt>
      <trkpt lat="62.48403" lon="6.39293">
        <ele>54.554034</ele>
        <time>2020-07-31T10:39:52.117Z</time>
      </trkpt>
      <trkpt lat="62.48405" lon="6.39315">
        <ele>55.074867</ele>
        <time>2020-07-31T10:39:55.149Z</time>
      </trkpt>
      <trkpt lat="62.48407" lon="6.39337">
        <ele>55.619168</ele>
        <time>2020-07-31T10:39:58.108Z</time>
      </trkpt>
      <trkpt lat="62.48409" lon="6.39359">
        <ele>56.129498</ele>
        <time>2020-07-31T10:40:01.101Z</time>
      </trkpt>
      <trkpt lat="62.48412" lon="6.39378">
        <ele>56.60489</ele>
        <time>2020-07-31T10:40:04.101Z</time>
      </trkpt>
      <trkpt lat="62.48417" lon="6.39399">
        <ele>57.143895</ele>
        <time>2020-07-31T10:40:07.117Z</time>
      </trkpt>
      <trkpt lat="62.48421" lon="6.39416">
        <ele>57.606698</ele>
        <time>2020-07-31T10:40:10.099Z</time>
      </trkpt>
      <trkpt lat="62.48426" lon="6.39434">
        <ele>58.081377</ele>
        <time>2020-07-31T10:40:13.138Z</time>
      </trkpt>
      <trkpt lat="62.48431" lon="6.39457">
        <ele>58.683211</ele>
        <time>2020-07-31T10:40:17.133Z</time>
      </trkpt>
      <trkpt lat="62.48436" lon="6.39476">
        <ele>59.213527</ele>
        <time>2020-07-31T10:40:21.133Z</time>
      </trkpt>
      <trkpt lat="62.48442" lon="6.39498">
        <ele>59.810125</ele>
        <time>2020-07-31T10:40:25.091Z</time>
      </trkpt>
      <trkpt lat="62.48448" lon="6.39517">
        <ele>60.350926</ele>
        <time>2020-07-31T10:40:28.129Z</time>
      </trkpt>
      <trkpt lat="62.48455" lon="6.39536">
        <ele>60.884357</ele>
        <time>2020-07-31T10:40:31.100Z</time>
      </trkpt>
      <trkpt lat="62.4846" lon="6.39553">
        <ele>61.370692</ele>
        <time>2020-07-31T10:40:34.112Z</time>
      </trkpt>
      <trkpt lat="62.48465" lon="6.3957">
        <ele>61.840367</ele>
        <time>2020-07-31T10:40:37.103Z</time>
      </trkpt>
      <trkpt lat="62.48471" lon="6.39592">
        <ele>62.431509</ele>
        <time>2020-07-31T10:40:41.104Z</time>
      </trkpt>
      <trkpt lat="62.48476" lon="6.39612">
        <ele>62.957779</ele>
        <time>2020-07-31T10:40:45.092Z</time>
      </trkpt>
      <trkpt lat="62.48479" lon="6.39634">
        <ele>63.67242</ele>
        <time>2020-07-31T10:40:50.121Z</time>
      </trkpt>
      <trkpt lat="62.48483" lon="6.39656">
        <ele>64.572991</ele>
        <time>2020-07-31T10:40:55.141Z</time>
      </trkpt>
      <trkpt lat="62.48486" lon="6.39677">
        <ele>65.476424</ele>
        <time>2020-07-31T10:41:01.139Z</time>
      </trkpt>
      <trkpt lat="62.48487" lon="6.39697">
        <ele>66.27636</ele>
        <time>2020-07-31T10:41:07.108Z</time>
      </trkpt>
      <trkpt lat="62.48489" lon="6.39717">
        <ele>67.108676</ele>
        <time>2020-07-31T10:41:13.127Z</time>
      </trkpt>
      <trkpt lat="62.48491" lon="6.39739">
        <ele>67.972477</ele>
        <time>2020-07-31T10:41:20.114Z</time>
      </trkpt>
      <trkpt lat="62.48491" lon="6.39758">
        <ele>68.763773</ele>
        <time>2020-07-31T10:41:26.143Z</time>
      </trkpt>
      <trkpt lat="62.48491" lon="6.39779">
        <ele>69.599159</ele>
        <time>2020-07-31T10:41:32.096Z</time>
      </trkpt>
      <trkpt lat="62.48491" lon="6.39801">
        <ele>70.467413</ele>
        <time>2020-07-31T10:41:38.112Z</time>
      </trkpt>
      <trkpt lat="62.48491" lon="6.39821">
        <ele>71.282822</ele>
        <time>2020-07-31T10:41:44.104Z</time>
      </trkpt>
      <trkpt lat="62.48491" lon="6.39841">
        <ele>72.086478</ele>
        <time>2020-07-31T10:41:51.120Z</time>
      </trkpt>
      <trkpt lat="62.48491" lon="6.39862">
        <ele>72.905882</ele>
        <time>2020-07-31T10:41:58.136Z</time>
      </trkpt>
      <trkpt lat="62.48485" lon="6.39878">
        <ele>73.731249</ele>
        <time>2020-07-31T10:42:05.125Z</time>
      </trkpt>
      <trkpt lat="62.48481" lon="6.39897">
        <ele>74.522422</ele>
        <time>2020-07-31T10:42:10.103Z</time>
      </trkpt>
      <trkpt lat="62.48478" lon="6.39915">
        <ele>75.307985</ele>
        <time>2020-07-31T10:42:15.121Z</time>
      </trkpt>
      <trkpt lat="62.48476" lon="6.39934">
        <ele>76.089035</ele>
        <time>2020-07-31T10:42:20.153Z</time>
      </trkpt>
      <trkpt lat="62.48474" lon="6.39954">
        <ele>76.924309</ele>
        <time>2020-07-31T10:42:25.193Z</time>
      </trkpt>
      <trkpt lat="62.48473" lon="6.39974">
        <ele>77.713328</ele>
        <time>2020-07-31T10:42:29.089Z</time>
      </trkpt>
      <trkpt lat="62.48472" lon="6.39998">
        <ele>78.666945</ele>
        <time>2020-07-31T10:42:34.142Z</time>
      </trkpt>
      <trkpt lat="62.4847" lon="6.40021">
        <ele>79.060397</ele>
        <time>2020-07-31T10:42:39.118Z</time>
      </trkpt>
      <trkpt lat="62.48469" lon="6.4004">
        <ele>79.28926</ele>
        <time>2020-07-31T10:42:43.103Z</time>
      </trkpt>
      <trkpt lat="62.48468" lon="6.4006">
        <ele>79.522882</ele>
        <time>2020-07-31T10:42:47.137Z</time>
      </trkpt>
      <trkpt lat="62.48467" lon="6.40081">
        <ele>79.771359</ele>
        <time>2020-07-31T10:42:51.116Z</time>
      </trkpt>
      <trkpt lat="62.48466" lon="6.40102">
        <ele>80.019566</ele>
        <time>2020-07-31T10:42:55.116Z</time>
      </trkpt>
      <trkpt lat="62.48464" lon="6.40124">
        <ele>80.2813</ele>
        <time>2020-07-31T10:42:59.131Z</time>
      </trkpt>
      <trkpt lat="62.48462" lon="6.40143">
        <ele>80.517588</ele>
        <time>2020-07-31T10:43:03.142Z</time>
      </trkpt>
      <trkpt lat="62.48461" lon="6.40165">
        <ele>80.776109</ele>
        <time>2020-07-31T10:43:08.113Z</time>
      </trkpt>
      <trkpt lat="62.48461" lon="6.40188">
        <ele>81.044676</ele>
        <time>2020-07-31T10:43:13.146Z</time>
      </trkpt>
      <trkpt lat="62.48462" lon="6.40211">
        <ele>81.309732</ele>
        <time>2020-07-31T10:43:18.146Z</time>
      </trkpt>
      <trkpt lat="62.48463" lon="6.40232">
        <ele>81.561973</ele>
        <time>2020-07-31T10:43:23.147Z</time>
      </trkpt>
      <trkpt lat="62.48465" lon="6.40254">
        <ele>81.823993</ele>
        <time>2020-07-31T10:43:29.143Z</time>
      </trkpt>
      <trkpt lat="62.48469" lon="6.40274">
        <ele>82.072865</ele>
        <time>2020-07-31T10:43:35.155Z</time>
      </trkpt>
      <trkpt lat="62.48474" lon="6.40296">
        <ele>82.356823</ele>
        <time>2020-07-31T10:43:39.123Z</time>
      </trkpt>
      <trkpt lat="62.48478" lon="6.40319">
        <ele>82.641637</ele>
        <time>2020-07-31T10:43:42.157Z</time>
      </trkpt>
      <trkpt lat="62.48483" lon="6.40344">
        <ele>82.967231</ele>
        <time>2020-07-31T10:43:45.113Z</time>
      </trkpt>
      <trkpt lat="62.48488" lon="6.40367">
        <ele>83.277467</ele>
        <time>2020-07-31T10:43:48.104Z</time>
      </trkpt>
      <trkpt lat="62.48494" lon="6.40388">
        <ele>83.428467</ele>
        <time>2020-07-31T10:43:51.174Z</time>
      </trkpt>
      <trkpt lat="62.485" lon="6.40406">
        <ele>83.474141</ele>
        <time>2020-07-31T10:43:54.134Z</time>
      </trkpt>
      <trkpt lat="62.48507" lon="6.40423">
        <ele>83.516892</ele>
        <time>2020-07-31T10:43:57.089Z</time>
      </trkpt>
      <trkpt lat="62.48513" lon="6.40437">
        <ele>83.557787</ele>
        <time>2020-07-31T10:44:00.106Z</time>
      </trkpt>
      <trkpt lat="62.48521" lon="6.4045">
        <ele>83.598933</ele>
        <time>2020-07-31T10:44:03.096Z</time>
      </trkpt>
      <trkpt lat="62.48529" lon="6.40462">
        <ele>83.639342</ele>
        <time>2020-07-31T10:44:06.121Z</time>
      </trkpt>
      <trkpt lat="62.48537" lon="6.4047">
        <ele>83.679786</ele>
        <time>2020-07-31T10:44:09.119Z</time>
      </trkpt>
      <trkpt lat="62.48548" lon="6.40479">
        <ele>83.728951</ele>
        <time>2020-07-31T10:44:12.116Z</time>
      </trkpt>
      <trkpt lat="62.48559" lon="6.40485">
        <ele>83.778447</ele>
        <time>2020-07-31T10:44:15.115Z</time>
      </trkpt>
      <trkpt lat="62.48571" lon="6.40489">
        <ele>83.828357</ele>
        <time>2020-07-31T10:44:18.143Z</time>
      </trkpt>
      <trkpt lat="62.48581" lon="6.40488">
        <ele>83.873485</ele>
        <time>2020-07-31T10:44:21.152Z</time>
      </trkpt>
      <trkpt lat="62.48591" lon="6.40483">
        <ele>83.91618</ele>
        <time>2020-07-31T10:44:24.133Z</time>
      </trkpt>
      <trkpt lat="62.48599" lon="6.40475">
        <ele>83.956071</ele>
        <time>2020-07-31T10:44:27.121Z</time>
      </trkpt>
      <trkpt lat="62.48608" lon="6.40466">
        <ele>83.996492</ele>
        <time>2020-07-31T10:44:30.130Z</time>
      </trkpt>
      <trkpt lat="62.48616" lon="6.40457">
        <ele>84.035509</ele>
        <time>2020-07-31T10:44:33.115Z</time>
      </trkpt>
      <trkpt lat="62.48625" lon="6.40448">
        <ele>84.079738</ele>
        <time>2020-07-31T10:44:37.101Z</time>
      </trkpt>
      <trkpt lat="62.48637" lon="6.4044">
        <ele>84.131971</ele>
        <time>2020-07-31T10:44:41.097Z</time>
      </trkpt>
      <trkpt lat="62.48646" lon="6.40437">
        <ele>84.172418</ele>
        <time>2020-07-31T10:44:44.122Z</time>
      </trkpt>
      <trkpt lat="62.48656" lon="6.40435">
        <ele>84.719882</ele>
        <time>2020-07-31T10:44:47.095Z</time>
      </trkpt>
      <trkpt lat="62.48665" lon="6.40438">
        <ele>85.291106</ele>
        <time>2020-07-31T10:44:50.121Z</time>
      </trkpt>
      <trkpt lat="62.48676" lon="6.40444">
        <ele>85.982111</ele>
        <time>2020-07-31T10:44:54.129Z</time>
      </trkpt>
      <trkpt lat="62.48685" lon="6.40452">
        <ele>86.550802</ele>
        <time>2020-07-31T10:44:58.129Z</time>
      </trkpt>
      <trkpt lat="62.48695" lon="6.40459">
        <ele>87.214721</ele>
        <time>2020-07-31T10:45:02.137Z</time>
      </trkpt>
      <trkpt lat="62.48704" lon="6.40467">
        <ele>87.773419</ele>
        <time>2020-07-31T10:45:05.110Z</time>
      </trkpt>
      <trkpt lat="62.48713" lon="6.40474">
        <ele>88.333005</ele>
        <time>2020-07-31T10:45:08.102Z</time>
      </trkpt>
      <trkpt lat="62.48723" lon="6.40478">
        <ele>88.985221</ele>
        <time>2020-07-31T10:45:12.102Z</time>
      </trkpt>
      <trkpt lat="62.48732" lon="6.40481">
        <ele>89.532537</ele>
        <time>2020-07-31T10:45:16.114Z</time>
      </trkpt>
      <trkpt lat="62.48742" lon="6.40481">
        <ele>90.123291</ele>
        <time>2020-07-31T10:45:21.102Z</time>
      </trkpt>
      <trkpt lat="62.48753" lon="6.40482">
        <ele>90.750582</ele>
        <time>2020-07-31T10:45:26.130Z</time>
      </trkpt>
      <trkpt lat="62.48763" lon="6.40484">
        <ele>91.379059</ele>
        <time>2020-07-31T10:45:31.105Z</time>
      </trkpt>
      <trkpt lat="62.48774" lon="6.40485">
        <ele>92.025215</ele>
        <time>2020-07-31T10:45:36.092Z</time>
      </trkpt>
      <trkpt lat="62.48784" lon="6.40486">
        <ele>92.622387</ele>
        <time>2020-07-31T10:45:41.114Z</time>
      </trkpt>
      <trkpt lat="62.48793" lon="6.40486">
        <ele>93.17092</ele>
        <time>2020-07-31T10:45:46.187Z</time>
      </trkpt>
      <trkpt lat="62.48803" lon="6.40491">
        <ele>93.791507</ele>
        <time>2020-07-31T10:45:52.173Z</time>
      </trkpt>
      <trkpt lat="62.48812" lon="6.40493">
        <ele>94.377902</ele>
        <time>2020-07-31T10:45:56.111Z</time>
      </trkpt>
      <trkpt lat="62.48821" lon="6.40494">
        <ele>94.922013</ele>
        <time>2020-07-31T10:46:00.101Z</time>
      </trkpt>
      <trkpt lat="62.48832" lon="6.40501">
        <ele>95.01302</ele>
        <time>2020-07-31T10:46:05.115Z</time>
      </trkpt>
      <trkpt lat="62.48841" lon="6.4051">
        <ele>95.007854</ele>
        <time>2020-07-31T10:46:10.131Z</time>
      </trkpt>
      <trkpt lat="62.48846" lon="6.4053">
        <ele>95.002292</ele>
        <time>2020-07-31T10:46:16.136Z</time>
      </trkpt>
      <trkpt lat="62.4885" lon="6.40551">
        <ele>94.997004</ele>
        <time>2020-07-31T10:46:21.129Z</time>
      </trkpt>
      <trkpt lat="62.48851" lon="6.40572">
        <ele>94.991806</ele>
        <time>2020-07-31T10:46:25.143Z</time>
      </trkpt>
      <trkpt lat="62.48852" lon="6.40596">
        <ele>94.986258</ele>
        <time>2020-07-31T10:46:29.121Z</time>
      </trkpt>
      <trkpt lat="62.48853" lon="6.40621">
        <ele>94.980225</ele>
        <time>2020-07-31T10:46:33.093Z</time>
      </trkpt>
      <trkpt lat="62.48854" lon="6.40641">
        <ele>94.975423</ele>
        <time>2020-07-31T10:46:36.129Z</time>
      </trkpt>
      <trkpt lat="62.48855" lon="6.40661">
        <ele>94.970628</ele>
        <time>2020-07-31T10:46:39.113Z</time>
      </trkpt>
      <trkpt lat="62.48857" lon="6.40684">
        <ele>94.965137</ele>
        <time>2020-07-31T10:46:42.116Z</time>
      </trkpt>
      <trkpt lat="62.48859" lon="6.40707">
        <ele>94.959546</ele>
        <time>2020-07-31T10:46:45.112Z</time>
      </trkpt>
      <trkpt lat="62.4886" lon="6.40731">
        <ele>94.953668</ele>
        <time>2020-07-31T10:46:48.119Z</time>
      </trkpt>
      <trkpt lat="62.48862" lon="6.40758">
        <ele>94.947092</ele>
        <time>2020-07-31T10:46:51.144Z</time>
      </trkpt>
      <trkpt lat="62.48862" lon="6.40778">
        <ele>94.94242</ele>
        <time>2020-07-31T10:46:53.083Z</time>
      </trkpt>
      <trkpt lat="62.48863" lon="6.40798">
        <ele>94.937725</ele>
        <time>2020-07-31T10:46:55.120Z</time>
      </trkpt>
      <trkpt lat="62.48864" lon="6.40818">
        <ele>94.932803</ele>
        <time>2020-07-31T10:46:57.104Z</time>
      </trkpt>
      <trkpt lat="62.48865" lon="6.4084">
        <ele>94.927505</ele>
        <time>2020-07-31T10:46:59.130Z</time>
      </trkpt>
      <trkpt lat="62.48865" lon="6.40864">
        <ele>94.625256</ele>
        <time>2020-07-31T10:47:01.112Z</time>
      </trkpt>
      <trkpt lat="62.48864" lon="6.4089">
        <ele>94.049994</ele>
        <time>2020-07-31T10:47:03.098Z</time>
      </trkpt>
      <trkpt lat="62.48862" lon="6.40919">
        <ele>93.405327</ele>
        <time>2020-07-31T10:47:05.095Z</time>
      </trkpt>
      <trkpt lat="62.4886" lon="6.4095">
        <ele>92.716452</ele>
        <time>2020-07-31T10:47:07.115Z</time>
      </trkpt>
      <trkpt lat="62.48858" lon="6.40983">
        <ele>91.989277</ele>
        <time>2020-07-31T10:47:09.088Z</time>
      </trkpt>
      <trkpt lat="62.48858" lon="6.41019">
        <ele>91.182564</ele>
        <time>2020-07-31T10:47:11.120Z</time>
      </trkpt>
      <trkpt lat="62.48859" lon="6.41057">
        <ele>90.345592</ele>
        <time>2020-07-31T10:47:13.118Z</time>
      </trkpt>
      <trkpt lat="62.48862" lon="6.41095">
        <ele>89.491868</ele>
        <time>2020-07-31T10:47:15.130Z</time>
      </trkpt>
      <trkpt lat="62.48863" lon="6.41114">
        <ele>89.056213</ele>
        <time>2020-07-31T10:47:16.186Z</time>
      </trkpt>
      <trkpt lat="62.48864" lon="6.41134">
        <ele>88.614517</ele>
        <time>2020-07-31T10:47:17.136Z</time>
      </trkpt>
      <trkpt lat="62.48865" lon="6.41155">
        <ele>88.157633</ele>
        <time>2020-07-31T10:47:18.121Z</time>
      </trkpt>
      <trkpt lat="62.48865" lon="6.41176">
        <ele>87.690304</ele>
        <time>2020-07-31T10:47:19.101Z</time>
      </trkpt>
      <trkpt lat="62.48864" lon="6.41197">
        <ele>87.225091</ele>
        <time>2020-07-31T10:47:20.135Z</time>
      </trkpt>
      <trkpt lat="62.48864" lon="6.41217">
        <ele>86.77324</ele>
        <time>2020-07-31T10:47:21.116Z</time>
      </trkpt>
      <trkpt lat="62.48864" lon="6.41238">
        <ele>86.319175</ele>
        <time>2020-07-31T10:47:22.093Z</time>
      </trkpt>
      <trkpt lat="62.48864" lon="6.41258">
        <ele>86.012652</ele>
        <time>2020-07-31T10:47:23.108Z</time>
      </trkpt>
      <trkpt lat="62.48864" lon="6.41277">
        <ele>85.719508</ele>
        <time>2020-07-31T10:47:24.125Z</time>
      </trkpt>
      <trkpt lat="62.48863" lon="6.41315">
        <ele>85.154774</ele>
        <time>2020-07-31T10:47:26.124Z</time>
      </trkpt>
      <trkpt lat="62.48862" lon="6.4135">
        <ele>84.618534</ele>
        <time>2020-07-31T10:47:28.106Z</time>
      </trkpt>
      <trkpt lat="62.48861" lon="6.41385">
        <ele>84.08775</ele>
        <time>2020-07-31T10:47:30.156Z</time>
      </trkpt>
      <trkpt lat="62.48861" lon="6.41422">
        <ele>83.542098</ele>
        <time>2020-07-31T10:47:32.102Z</time>
      </trkpt>
      <trkpt lat="62.48864" lon="6.41456">
        <ele>83.022124</ele>
        <time>2020-07-31T10:47:34.121Z</time>
      </trkpt>
      <trkpt lat="62.48869" lon="6.41487">
        <ele>82.522207</ele>
        <time>2020-07-31T10:47:36.098Z</time>
      </trkpt>
      <trkpt lat="62.48876" lon="6.41515">
        <ele>82.038194</ele>
        <time>2020-07-31T10:47:38.111Z</time>
      </trkpt>
      <trkpt lat="62.48883" lon="6.4154">
        <ele>81.611736</ele>
        <time>2020-07-31T10:47:40.164Z</time>
      </trkpt>
      <trkpt lat="62.48888" lon="6.41564">
        <ele>81.210155</ele>
        <time>2020-07-31T10:47:42.134Z</time>
      </trkpt>
      <trkpt lat="62.48894" lon="6.41588">
        <ele>80.807588</ele>
        <time>2020-07-31T10:47:44.114Z</time>
      </trkpt>
      <trkpt lat="62.489" lon="6.41611">
        <ele>80.441911</ele>
        <time>2020-07-31T10:47:46.099Z</time>
      </trkpt>
      <trkpt lat="62.48906" lon="6.41634">
        <ele>80.359899</ele>
        <time>2020-07-31T10:47:48.109Z</time>
      </trkpt>
      <trkpt lat="62.48912" lon="6.41661">
        <ele>80.272357</ele>
        <time>2020-07-31T10:47:50.121Z</time>
      </trkpt>
      <trkpt lat="62.48916" lon="6.4169">
        <ele>80.180013</ele>
        <time>2020-07-31T10:47:52.107Z</time>
      </trkpt>
      <trkpt lat="62.4892" lon="6.41719">
        <ele>80.08727</ele>
        <time>2020-07-31T10:47:54.127Z</time>
      </trkpt>
      <trkpt lat="62.48924" lon="6.41749">
        <ele>79.993129</ele>
        <time>2020-07-31T10:47:56.154Z</time>
      </trkpt>
      <trkpt lat="62.48928" lon="6.4178">
        <ele>79.897324</ele>
        <time>2020-07-31T10:47:58.102Z</time>
      </trkpt>
      <trkpt lat="62.48932" lon="6.41808">
        <ele>79.806577</ele>
        <time>2020-07-31T10:48:00.114Z</time>
      </trkpt>
      <trkpt lat="62.48936" lon="6.41835">
        <ele>79.720013</ele>
        <time>2020-07-31T10:48:02.118Z</time>
      </trkpt>
      <trkpt lat="62.48942" lon="6.41861">
        <ele>79.635211</ele>
        <time>2020-07-31T10:48:04.098Z</time>
      </trkpt>
      <trkpt lat="62.48947" lon="6.41885">
        <ele>79.555914</ele>
        <time>2020-07-31T10:48:06.105Z</time>
      </trkpt>
      <trkpt lat="62.48951" lon="6.41906">
        <ele>79.484841</ele>
        <time>2020-07-31T10:48:08.116Z</time>
      </trkpt>
      <trkpt lat="62.48956" lon="6.41925">
        <ele>79.419274</ele>
        <time>2020-07-31T10:48:10.150Z</time>
      </trkpt>
      <trkpt lat="62.48961" lon="6.41941">
        <ele>79.360338</ele>
        <time>2020-07-31T10:48:12.095Z</time>
      </trkpt>
      <trkpt lat="62.48967" lon="6.41961">
        <ele>79.290582</ele>
        <time>2020-07-31T10:48:15.105Z</time>
      </trkpt>
      <trkpt lat="62.48972" lon="6.41981">
        <ele>79.402484</ele>
        <time>2020-07-31T10:48:18.145Z</time>
      </trkpt>
      <trkpt lat="62.48978" lon="6.42002">
        <ele>79.591815</ele>
        <time>2020-07-31T10:48:21.149Z</time>
      </trkpt>
      <trkpt lat="62.48984" lon="6.42022">
        <ele>79.76659</ele>
        <time>2020-07-31T10:48:24.098Z</time>
      </trkpt>
      <trkpt lat="62.48989" lon="6.42042">
        <ele>79.938583</ele>
        <time>2020-07-31T10:48:27.098Z</time>
      </trkpt>
      <trkpt lat="62.48994" lon="6.42061">
        <ele>80.103821</ele>
        <time>2020-07-31T10:48:30.106Z</time>
      </trkpt>
      <trkpt lat="62.49" lon="6.42079">
        <ele>80.271984</ele>
        <time>2020-07-31T10:48:33.150Z</time>
      </trkpt>
      <trkpt lat="62.49007" lon="6.42097">
        <ele>80.451683</ele>
        <time>2020-07-31T10:48:36.133Z</time>
      </trkpt>
      <trkpt lat="62.49015" lon="6.42115">
        <ele>80.635131</ele>
        <time>2020-07-31T10:48:39.095Z</time>
      </trkpt>
      <trkpt lat="62.49024" lon="6.42131">
        <ele>80.825509</ele>
        <time>2020-07-31T10:48:42.138Z</time>
      </trkpt>
      <trkpt lat="62.49032" lon="6.42146">
        <ele>81.004277</ele>
        <time>2020-07-31T10:48:45.141Z</time>
      </trkpt>
      <trkpt lat="62.49041" lon="6.4216">
        <ele>81.184405</ele>
        <time>2020-07-31T10:48:48.137Z</time>
      </trkpt>
      <trkpt lat="62.49052" lon="6.42175">
        <ele>81.393686</ele>
        <time>2020-07-31T10:48:51.157Z</time>
      </trkpt>
      <trkpt lat="62.4906" lon="6.42187">
        <ele>81.550919</ele>
        <time>2020-07-31T10:48:53.104Z</time>
      </trkpt>
      <trkpt lat="62.49067" lon="6.42198">
        <ele>81.701877</ele>
        <time>2020-07-31T10:48:55.137Z</time>
      </trkpt>
      <trkpt lat="62.49077" lon="6.42216">
        <ele>81.911621</ele>
        <time>2020-07-31T10:48:58.172Z</time>
      </trkpt>
      <trkpt lat="62.49086" lon="6.42236">
        <ele>82.121653</ele>
        <time>2020-07-31T10:49:01.097Z</time>
      </trkpt>
      <trkpt lat="62.49095" lon="6.42256">
        <ele>82.094821</ele>
        <time>2020-07-31T10:49:04.118Z</time>
      </trkpt>
      <trkpt lat="62.49101" lon="6.42277">
        <ele>81.887384</ele>
        <time>2020-07-31T10:49:07.138Z</time>
      </trkpt>
      <trkpt lat="62.49108" lon="6.42298">
        <ele>81.682606</ele>
        <time>2020-07-31T10:49:10.117Z</time>
      </trkpt>
      <trkpt lat="62.49115" lon="6.42318">
        <ele>81.478191</ele>
        <time>2020-07-31T10:49:13.138Z</time>
      </trkpt>
      <trkpt lat="62.49121" lon="6.4234">
        <ele>81.264357</ele>
        <time>2020-07-31T10:49:16.121Z</time>
      </trkpt>
      <trkpt lat="62.49128" lon="6.42362">
        <ele>81.045188</ele>
        <time>2020-07-31T10:49:19.118Z</time>
      </trkpt>
      <trkpt lat="62.49136" lon="6.42385">
        <ele>80.818291</ele>
        <time>2020-07-31T10:49:22.126Z</time>
      </trkpt>
      <trkpt lat="62.49142" lon="6.42409">
        <ele>80.589302</ele>
        <time>2020-07-31T10:49:25.116Z</time>
      </trkpt>
      <trkpt lat="62.49148" lon="6.42433">
        <ele>80.363162</ele>
        <time>2020-07-31T10:49:28.092Z</time>
      </trkpt>
      <trkpt lat="62.49154" lon="6.42459">
        <ele>80.12889</ele>
        <time>2020-07-31T10:49:31.130Z</time>
      </trkpt>
      <trkpt lat="62.49159" lon="6.42485">
        <ele>79.903466</ele>
        <time>2020-07-31T10:49:34.143Z</time>
      </trkpt>
      <trkpt lat="62.49163" lon="6.4251">
        <ele>79.682701</ele>
        <time>2020-07-31T10:49:37.113Z</time>
      </trkpt>
      <trkpt lat="62.49169" lon="6.42535">
        <ele>79.454357</ele>
        <time>2020-07-31T10:49:40.100Z</time>
      </trkpt>
      <trkpt lat="62.49173" lon="6.4256">
        <ele>79.236962</ele>
        <time>2020-07-31T10:49:43.122Z</time>
      </trkpt>
      <trkpt lat="62.49177" lon="6.42586">
        <ele>79.028996</ele>
        <time>2020-07-31T10:49:46.163Z</time>
      </trkpt>
      <trkpt lat="62.4918" lon="6.42605">
        <ele>78.98209</ele>
        <time>2020-07-31T10:49:48.104Z</time>
      </trkpt>
      <trkpt lat="62.49184" lon="6.42632">
        <ele>78.91627</ele>
        <time>2020-07-31T10:49:51.142Z</time>
      </trkpt>
      <trkpt lat="62.49187" lon="6.42658">
        <ele>78.850906</ele>
        <time>2020-07-31T10:49:54.150Z</time>
      </trkpt>
      <trkpt lat="62.4919" lon="6.42684">
        <ele>78.787279</ele>
        <time>2020-07-31T10:49:57.133Z</time>
      </trkpt>
      <trkpt lat="62.49192" lon="6.42714">
        <ele>78.716871</ele>
        <time>2020-07-31T10:50:00.108Z</time>
      </trkpt>
      <trkpt lat="62.49194" lon="6.42734">
        <ele>78.669072</ele>
        <time>2020-07-31T10:50:02.122Z</time>
      </trkpt>
      <trkpt lat="62.49195" lon="6.42753">
        <ele>78.621652</ele>
        <time>2020-07-31T10:50:04.148Z</time>
      </trkpt>
      <trkpt lat="62.49196" lon="6.42773">
        <ele>78.574155</ele>
        <time>2020-07-31T10:50:06.152Z</time>
      </trkpt>
      <trkpt lat="62.49198" lon="6.42793">
        <ele>78.526121</ele>
        <time>2020-07-31T10:50:08.133Z</time>
      </trkpt>
      <trkpt lat="62.49199" lon="6.42813">
        <ele>78.479296</ele>
        <time>2020-07-31T10:50:10.111Z</time>
      </trkpt>
      <trkpt lat="62.492" lon="6.42832">
        <ele>78.432648</ele>
        <time>2020-07-31T10:50:12.132Z</time>
      </trkpt>
      <trkpt lat="62.49202" lon="6.4286">
        <ele>78.365754</ele>
        <time>2020-07-31T10:50:15.115Z</time>
      </trkpt>
      <trkpt lat="62.49202" lon="6.42889">
        <ele>78.295874</ele>
        <time>2020-07-31T10:50:18.124Z</time>
      </trkpt>
      <trkpt lat="62.49202" lon="6.42911">
        <ele>78.244105</ele>
        <time>2020-07-31T10:50:20.129Z</time>
      </trkpt>
      <trkpt lat="62.49203" lon="6.42936">
        <ele>78.184835</ele>
        <time>2020-07-31T10:50:22.101Z</time>
      </trkpt>
      <trkpt lat="62.49203" lon="6.4296">
        <ele>78.128974</ele>
        <time>2020-07-31T10:50:24.102Z</time>
      </trkpt>
      <trkpt lat="62.49204" lon="6.42981">
        <ele>77.953261</ele>
        <time>2020-07-31T10:50:26.147Z</time>
      </trkpt>
      <trkpt lat="62.49203" lon="6.43004">
        <ele>77.708523</ele>
        <time>2020-07-31T10:50:28.108Z</time>
      </trkpt>
      <trkpt lat="62.49203" lon="6.43026">
        <ele>77.462699</ele>
        <time>2020-07-31T10:50:30.118Z</time>
      </trkpt>
      <trkpt lat="62.49203" lon="6.43049">
        <ele>77.218007</ele>
        <time>2020-07-31T10:50:32.094Z</time>
      </trkpt>
      <trkpt lat="62.49203" lon="6.43071">
        <ele>76.978707</ele>
        <time>2020-07-31T10:50:34.138Z</time>
      </trkpt>
      <trkpt lat="62.49203" lon="6.43092">
        <ele>76.74924</ele>
        <time>2020-07-31T10:50:36.112Z</time>
      </trkpt>
      <trkpt lat="62.49204" lon="6.43113">
        <ele>76.522045</ele>
        <time>2020-07-31T10:50:38.116Z</time>
      </trkpt>
      <trkpt lat="62.49204" lon="6.43134">
        <ele>76.290296</ele>
        <time>2020-07-31T10:50:40.121Z</time>
      </trkpt>
      <trkpt lat="62.49203" lon="6.43156">
        <ele>76.049644</ele>
        <time>2020-07-31T10:50:42.134Z</time>
      </trkpt>
      <trkpt lat="62.49202" lon="6.4318">
        <ele>75.786086</ele>
        <time>2020-07-31T10:50:44.109Z</time>
      </trkpt>
      <trkpt lat="62.49203" lon="6.43206">
        <ele>75.505022</ele>
        <time>2020-07-31T10:50:46.112Z</time>
      </trkpt>
      <trkpt lat="62.49204" lon="6.43234">
        <ele>75.196818</ele>
        <time>2020-07-31T10:50:48.121Z</time>
      </trkpt>
      <trkpt lat="62.49206" lon="6.43264">
        <ele>74.867314</ele>
        <time>2020-07-31T10:50:50.114Z</time>
      </trkpt>
      <trkpt lat="62.49207" lon="6.43295">
        <ele>74.53074</ele>
        <time>2020-07-31T10:50:52.111Z</time>
      </trkpt>
      <trkpt lat="62.4921" lon="6.43326">
        <ele>74.191079</ele>
        <time>2020-07-31T10:50:54.162Z</time>
      </trkpt>
      <trkpt lat="62.49212" lon="6.43361">
        <ele>73.77036</ele>
        <time>2020-07-31T10:50:56.132Z</time>
      </trkpt>
      <trkpt lat="62.49215" lon="6.43399">
        <ele>73.160824</ele>
        <time>2020-07-31T10:50:58.161Z</time>
      </trkpt>
      <trkpt lat="62.49217" lon="6.43419">
        <ele>72.835256</ele>
        <time>2020-07-31T10:50:59.128Z</time>
      </trkpt>
      <trkpt lat="62.49218" lon="6.4344">
        <ele>72.505546</ele>
        <time>2020-07-31T10:51:00.107Z</time>
      </trkpt>
      <trkpt lat="62.4922" lon="6.43461">
        <ele>72.170581</ele>
        <time>2020-07-31T10:51:01.112Z</time>
      </trkpt>
      <trkpt lat="62.49221" lon="6.43481">
        <ele>71.848714</ele>
        <time>2020-07-31T10:51:02.086Z</time>
      </trkpt>
      <trkpt lat="62.49223" lon="6.43517">
        <ele>71.264836</ele>
        <time>2020-07-31T10:51:04.119Z</time>
      </trkpt>
      <trkpt lat="62.49225" lon="6.43548">
        <ele>70.774787</ele>
        <time>2020-07-31T10:51:06.104Z</time>
      </trkpt>
      <trkpt lat="62.49226" lon="6.43576">
        <ele>70.323646</ele>
        <time>2020-07-31T10:51:08.169Z</time>
      </trkpt>
      <trkpt lat="62.49227" lon="6.43601">
        <ele>69.92531</ele>
        <time>2020-07-31T10:51:10.144Z</time>
      </trkpt>
      <trkpt lat="62.49227" lon="6.43625">
        <ele>69.545092</ele>
        <time>2020-07-31T10:51:12.138Z</time>
      </trkpt>
      <trkpt lat="62.49228" lon="6.43652">
        <ele>69.117026</ele>
        <time>2020-07-31T10:51:14.119Z</time>
      </trkpt>
      <trkpt lat="62.4923" lon="6.4368">
        <ele>68.669988</ele>
        <time>2020-07-31T10:51:16.132Z</time>
      </trkpt>
      <trkpt lat="62.49232" lon="6.43707">
        <ele>68.240723</ele>
        <time>2020-07-31T10:51:18.163Z</time>
      </trkpt>
      <trkpt lat="62.49233" lon="6.43732">
        <ele>67.831547</ele>
        <time>2020-07-31T10:51:20.133Z</time>
      </trkpt>
      <trkpt lat="62.49234" lon="6.43757">
        <ele>67.474576</ele>
        <time>2020-07-31T10:51:22.121Z</time>
      </trkpt>
      <trkpt lat="62.49235" lon="6.43781">
        <ele>67.162353</ele>
        <time>2020-07-31T10:51:24.158Z</time>
      </trkpt>
      <trkpt lat="62.49237" lon="6.43804">
        <ele>66.860372</ele>
        <time>2020-07-31T10:51:26.091Z</time>
      </trkpt>
      <trkpt lat="62.4924" lon="6.43827">
        <ele>66.553518</ele>
        <time>2020-07-31T10:51:28.112Z</time>
      </trkpt>
      <trkpt lat="62.49242" lon="6.43852">
        <ele>66.219132</ele>
        <time>2020-07-31T10:51:30.103Z</time>
      </trkpt>
      <trkpt lat="62.49245" lon="6.43878">
        <ele>65.865794</ele>
        <time>2020-07-31T10:51:32.116Z</time>
      </trkpt>
      <trkpt lat="62.49247" lon="6.43903">
        <ele>65.530125</ele>
        <time>2020-07-31T10:51:34.097Z</time>
      </trkpt>
      <trkpt lat="62.4925" lon="6.43927">
        <ele>65.214352</ele>
        <time>2020-07-31T10:51:36.106Z</time>
      </trkpt>
      <trkpt lat="62.49252" lon="6.4395">
        <ele>64.905172</ele>
        <time>2020-07-31T10:51:38.153Z</time>
      </trkpt>
      <trkpt lat="62.49253" lon="6.43976">
        <ele>64.571481</ele>
        <time>2020-07-31T10:51:40.160Z</time>
      </trkpt>
      <trkpt lat="62.49255" lon="6.44002">
        <ele>64.227501</ele>
        <time>2020-07-31T10:51:42.102Z</time>
      </trkpt>
      <trkpt lat="62.49257" lon="6.44029">
        <ele>63.865307</ele>
        <time>2020-07-31T10:51:44.105Z</time>
      </trkpt>
      <trkpt lat="62.49258" lon="6.44057">
        <ele>63.497575</ele>
        <time>2020-07-31T10:51:46.116Z</time>
      </trkpt>
      <trkpt lat="62.4926" lon="6.44084">
        <ele>63.144806</ele>
        <time>2020-07-31T10:51:48.107Z</time>
      </trkpt>
      <trkpt lat="62.49261" lon="6.44111">
        <ele>62.792038</ele>
        <time>2020-07-31T10:51:50.111Z</time>
      </trkpt>
      <trkpt lat="62.49263" lon="6.44138">
        <ele>62.538977</ele>
        <time>2020-07-31T10:51:52.111Z</time>
      </trkpt>
      <trkpt lat="62.49266" lon="6.44166">
        <ele>62.402116</ele>
        <time>2020-07-31T10:51:54.106Z</time>
      </trkpt>
      <trkpt lat="62.49267" lon="6.44195">
        <ele>62.259975</ele>
        <time>2020-07-31T10:51:56.109Z</time>
      </trkpt>
      <trkpt lat="62.49269" lon="6.44224">
        <ele>62.117713</ele>
        <time>2020-07-31T10:51:58.094Z</time>
      </trkpt>
      <trkpt lat="62.4927" lon="6.44252">
        <ele>61.978931</ele>
        <time>2020-07-31T10:52:00.136Z</time>
      </trkpt>
      <trkpt lat="62.49271" lon="6.4428">
        <ele>61.846003</ele>
        <time>2020-07-31T10:52:02.135Z</time>
      </trkpt>
      <trkpt lat="62.49271" lon="6.44305">
        <ele>61.724691</ele>
        <time>2020-07-31T10:52:04.091Z</time>
      </trkpt>
      <trkpt lat="62.49272" lon="6.44329">
        <ele>61.60883</ele>
        <time>2020-07-31T10:52:06.089Z</time>
      </trkpt>
      <trkpt lat="62.49272" lon="6.44352">
        <ele>61.496326</ele>
        <time>2020-07-31T10:52:08.091Z</time>
      </trkpt>
      <trkpt lat="62.49272" lon="6.44374">
        <ele>61.387272</ele>
        <time>2020-07-31T10:52:10.122Z</time>
      </trkpt>
      <trkpt lat="62.49272" lon="6.44395">
        <ele>61.287446</ele>
        <time>2020-07-31T10:52:12.155Z</time>
      </trkpt>
      <trkpt lat="62.49273" lon="6.44414">
        <ele>61.192804</ele>
        <time>2020-07-31T10:52:14.127Z</time>
      </trkpt>
      <trkpt lat="62.49273" lon="6.44436">
        <ele>61.089538</ele>
        <time>2020-07-31T10:52:16.132Z</time>
      </trkpt>
      <trkpt lat="62.49273" lon="6.44456">
        <ele>60.990675</ele>
        <time>2020-07-31T10:52:18.135Z</time>
      </trkpt>
      <trkpt lat="62.49272" lon="6.44484">
        <ele>60.853391</ele>
        <time>2020-07-31T10:52:21.106Z</time>
      </trkpt>
      <trkpt lat="62.49272" lon="6.44512">
        <ele>60.718657</ele>
        <time>2020-07-31T10:52:24.137Z</time>
      </trkpt>
      <trkpt lat="62.49273" lon="6.4454">
        <ele>60.767447</ele>
        <time>2020-07-31T10:52:27.150Z</time>
      </trkpt>
      <trkpt lat="62.49275" lon="6.44567">
        <ele>60.819324</ele>
        <time>2020-07-31T10:52:30.126Z</time>
      </trkpt>
      <trkpt lat="62.49276" lon="6.44591">
        <ele>60.867559</ele>
        <time>2020-07-31T10:52:33.130Z</time>
      </trkpt>
      <trkpt lat="62.49278" lon="6.44616">
        <ele>60.916817</ele>
        <time>2020-07-31T10:52:36.129Z</time>
      </trkpt>
      <trkpt lat="62.4928" lon="6.44641">
        <ele>60.963792</ele>
        <time>2020-07-31T10:52:39.126Z</time>
      </trkpt>
      <trkpt lat="62.49281" lon="6.44665">
        <ele>61.010958</ele>
        <time>2020-07-31T10:52:42.129Z</time>
      </trkpt>
      <trkpt lat="62.49283" lon="6.44691">
        <ele>61.061301</ele>
        <time>2020-07-31T10:52:45.119Z</time>
      </trkpt>
      <trkpt lat="62.49284" lon="6.44717">
        <ele>61.112026</ele>
        <time>2020-07-31T10:52:48.126Z</time>
      </trkpt>
      <trkpt lat="62.49285" lon="6.44743">
        <ele>61.162419</ele>
        <time>2020-07-31T10:52:51.156Z</time>
      </trkpt>
      <trkpt lat="62.49286" lon="6.4477">
        <ele>61.216068</ele>
        <time>2020-07-31T10:52:54.117Z</time>
      </trkpt>
      <trkpt lat="62.49286" lon="6.44797">
        <ele>61.266799</ele>
        <time>2020-07-31T10:52:57.142Z</time>
      </trkpt>
      <trkpt lat="62.49286" lon="6.44823">
        <ele>61.318836</ele>
        <time>2020-07-31T10:53:00.140Z</time>
      </trkpt>
      <trkpt lat="62.49285" lon="6.44852">
        <ele>61.373282</ele>
        <time>2020-07-31T10:53:03.151Z</time>
      </trkpt>
      <trkpt lat="62.49283" lon="6.4488">
        <ele>61.429381</ele>
        <time>2020-07-31T10:53:06.154Z</time>
      </trkpt>
      <trkpt lat="62.49283" lon="6.44909">
        <ele>61.666875</ele>
        <time>2020-07-31T10:53:09.112Z</time>
      </trkpt>
      <trkpt lat="62.49282" lon="6.44937">
        <ele>62.301157</ele>
        <time>2020-07-31T10:53:12.140Z</time>
      </trkpt>
      <trkpt lat="62.49281" lon="6.44965">
        <ele>62.951215</ele>
        <time>2020-07-31T10:53:15.116Z</time>
      </trkpt>
      <trkpt lat="62.49281" lon="6.44992">
        <ele>63.567794</ele>
        <time>2020-07-31T10:53:18.154Z</time>
      </trkpt>
      <trkpt lat="62.4928" lon="6.45017">
        <ele>64.161169</ele>
        <time>2020-07-31T10:53:21.099Z</time>
      </trkpt>
      <trkpt lat="62.4928" lon="6.45041">
        <ele>64.703351</ele>
        <time>2020-07-31T10:53:24.133Z</time>
      </trkpt>
      <trkpt lat="62.49279" lon="6.45062">
        <ele>65.193378</ele>
        <time>2020-07-31T10:53:27.160Z</time>
      </trkpt>
      <trkpt lat="62.49278" lon="6.45084">
        <ele>65.699948</ele>
        <time>2020-07-31T10:53:31.140Z</time>
      </trkpt>
      <trkpt lat="62.49277" lon="6.45106">
        <ele>66.206485</ele>
        <time>2020-07-31T10:53:35.119Z</time>
      </trkpt>
      <trkpt lat="62.49277" lon="6.45126">
        <ele>66.675178</ele>
        <time>2020-07-31T10:53:38.132Z</time>
      </trkpt>
      <trkpt lat="62.49277" lon="6.45151">
        <ele>67.249449</ele>
        <time>2020-07-31T10:53:42.172Z</time>
      </trkpt>
      <trkpt lat="62.49279" lon="6.45174">
        <ele>67.78573</ele>
        <time>2020-07-31T10:53:46.098Z</time>
      </trkpt>
      <trkpt lat="62.49281" lon="6.45197">
        <ele>68.316256</ele>
        <time>2020-07-31T10:53:50.112Z</time>
      </trkpt>
      <trkpt lat="62.49284" lon="6.45219">
        <ele>68.828814</ele>
        <time>2020-07-31T10:53:54.104Z</time>
      </trkpt>
      <trkpt lat="62.49287" lon="6.45241">
        <ele>69.379107</ele>
        <time>2020-07-31T10:53:58.132Z</time>
      </trkpt>
      <trkpt lat="62.49291" lon="6.45263">
        <ele>69.908282</ele>
        <time>2020-07-31T10:54:02.126Z</time>
      </trkpt>
      <trkpt lat="62.49293" lon="6.45284">
        <ele>70.398423</ele>
        <time>2020-07-31T10:54:06.102Z</time>
      </trkpt>
      <trkpt lat="62.49295" lon="6.45303">
        <ele>71.175188</ele>
        <time>2020-07-31T10:54:10.129Z</time>
      </trkpt>
      <trkpt lat="62.49299" lon="6.45323">
        <ele>72.065014</ele>
        <time>2020-07-31T10:54:15.145Z</time>
      </trkpt>
      <trkpt lat="62.49302" lon="6.45342">
        <ele>72.881219</ele>
        <time>2020-07-31T10:54:20.116Z</time>
      </trkpt>
      <trkpt lat="62.49308" lon="6.45362">
        <ele>73.83489</ele>
        <time>2020-07-31T10:54:26.142Z</time>
      </trkpt>
      <trkpt lat="62.49312" lon="6.45382">
        <ele>74.736332</ele>
        <time>2020-07-31T10:54:32.133Z</time>
      </trkpt>
      <trkpt lat="62.49316" lon="6.45401">
        <ele>75.566244</ele>
        <time>2020-07-31T10:54:38.110Z</time>
      </trkpt>
      <trkpt lat="62.49318" lon="6.45421">
        <ele>76.409548</ele>
        <time>2020-07-31T10:54:44.093Z</time>
      </trkpt>
      <trkpt lat="62.49321" lon="6.45441">
        <ele>77.241204</ele>
        <time>2020-07-31T10:54:50.136Z</time>
      </trkpt>
      <trkpt lat="62.49323" lon="6.45462">
        <ele>78.103221</ele>
        <time>2020-07-31T10:54:57.148Z</time>
      </trkpt>
      <trkpt lat="62.49328" lon="6.45479">
        <ele>78.891214</ele>
        <time>2020-07-31T10:55:04.115Z</time>
      </trkpt>
      <trkpt lat="62.4933" lon="6.45498">
        <ele>79.711862</ele>
        <time>2020-07-31T10:55:12.114Z</time>
      </trkpt>
      <trkpt lat="62.49334" lon="6.45516">
        <ele>80.505731</ele>
        <time>2020-07-31T10:55:18.131Z</time>
      </trkpt>
      <trkpt lat="62.4934" lon="6.45532">
        <ele>81.346145</ele>
        <time>2020-07-31T10:55:24.095Z</time>
      </trkpt>
      <trkpt lat="62.49345" lon="6.4555">
        <ele>82.154043</ele>
        <time>2020-07-31T10:55:30.142Z</time>
      </trkpt>
      <trkpt lat="62.4935" lon="6.45566">
        <ele>82.943248</ele>
        <time>2020-07-31T10:55:35.119Z</time>
      </trkpt>
      <trkpt lat="62.49357" lon="6.4558">
        <ele>83.808604</ele>
        <time>2020-07-31T10:55:40.124Z</time>
      </trkpt>
      <trkpt lat="62.49364" lon="6.45597">
        <ele>84.724262</ele>
        <time>2020-07-31T10:55:45.156Z</time>
      </trkpt>
      <trkpt lat="62.49371" lon="6.45613">
        <ele>85.622102</ele>
        <time>2020-07-31T10:55:50.158Z</time>
      </trkpt>
      <trkpt lat="62.49377" lon="6.45629">
        <ele>86.245127</ele>
        <time>2020-07-31T10:55:55.130Z</time>
      </trkpt>
      <trkpt lat="62.49383" lon="6.45647">
        <ele>86.464557</ele>
        <time>2020-07-31T10:56:01.114Z</time>
      </trkpt>
      <trkpt lat="62.49388" lon="6.45667">
        <ele>86.691648</ele>
        <time>2020-07-31T10:56:07.152Z</time>
      </trkpt>
      <trkpt lat="62.49394" lon="6.45683">
        <ele>86.896924</ele>
        <time>2020-07-31T10:56:12.151Z</time>
      </trkpt>
      <trkpt lat="62.49401" lon="6.45696">
        <ele>87.092439</ele>
        <time>2020-07-31T10:56:17.104Z</time>
      </trkpt>
      <trkpt lat="62.49408" lon="6.45711">
        <ele>87.313024</ele>
        <time>2020-07-31T10:56:23.113Z</time>
      </trkpt>
      <trkpt lat="62.49414" lon="6.45731">
        <ele>87.544918</ele>
        <time>2020-07-31T10:56:29.150Z</time>
      </trkpt>
      <trkpt lat="62.49421" lon="6.45746">
        <ele>87.757788</ele>
        <time>2020-07-31T10:56:34.124Z</time>
      </trkpt>
      <trkpt lat="62.49428" lon="6.45757">
        <ele>87.952434</ele>
        <time>2020-07-31T10:56:38.122Z</time>
      </trkpt>
      <trkpt lat="62.49436" lon="6.45767">
        <ele>88.150838</ele>
        <time>2020-07-31T10:56:42.118Z</time>
      </trkpt>
      <trkpt lat="62.49444" lon="6.45777">
        <ele>88.345861</ele>
        <time>2020-07-31T10:56:47.113Z</time>
      </trkpt>
      <trkpt lat="62.49453" lon="6.45787">
        <ele>88.561523</ele>
        <time>2020-07-31T10:56:52.118Z</time>
      </trkpt>
      <trkpt lat="62.49461" lon="6.45793">
        <ele>88.760231</ele>
        <time>2020-07-31T10:56:56.137Z</time>
      </trkpt>
      <trkpt lat="62.4947" lon="6.45799">
        <ele>88.960672</ele>
        <time>2020-07-31T10:57:00.105Z</time>
      </trkpt>
      <trkpt lat="62.49479" lon="6.45804">
        <ele>89.155079</ele>
        <time>2020-07-31T10:57:03.115Z</time>
      </trkpt>
      <trkpt lat="62.49491" lon="6.45814">
        <ele>89.431051</ele>
        <time>2020-07-31T10:57:06.139Z</time>
      </trkpt>
      <trkpt lat="62.49502" lon="6.4582">
        <ele>89.676864</ele>
        <time>2020-07-31T10:57:08.150Z</time>
      </trkpt>
      <trkpt lat="62.49515" lon="6.45829">
        <ele>89.976145</ele>
        <time>2020-07-31T10:57:10.132Z</time>
      </trkpt>
      <trkpt lat="62.49528" lon="6.45839">
        <ele>89.411082</ele>
        <time>2020-07-31T10:57:12.168Z</time>
      </trkpt>
      <trkpt lat="62.49539" lon="6.45849">
        <ele>88.617333</ele>
        <time>2020-07-31T10:57:14.134Z</time>
      </trkpt>
      <trkpt lat="62.4955" lon="6.45858">
        <ele>87.807366</ele>
        <time>2020-07-31T10:57:16.110Z</time>
      </trkpt>
      <trkpt lat="62.49562" lon="6.45862">
        <ele>86.948524</ele>
        <time>2020-07-31T10:57:18.103Z</time>
      </trkpt>
      <trkpt lat="62.49574" lon="6.45868">
        <ele>86.111708</ele>
        <time>2020-07-31T10:57:20.118Z</time>
      </trkpt>
      <trkpt lat="62.49586" lon="6.45878">
        <ele>85.212689</ele>
        <time>2020-07-31T10:57:22.152Z</time>
      </trkpt>
      <trkpt lat="62.49601" lon="6.45885">
        <ele>84.179953</ele>
        <time>2020-07-31T10:57:24.138Z</time>
      </trkpt>
      <trkpt lat="62.49616" lon="6.45887">
        <ele>83.124929</ele>
        <time>2020-07-31T10:57:26.114Z</time>
      </trkpt>
      <trkpt lat="62.49632" lon="6.45882">
        <ele>82.081025</ele>
        <time>2020-07-31T10:57:28.177Z</time>
      </trkpt>
      <trkpt lat="62.49646" lon="6.45877">
        <ele>81.067488</ele>
        <time>2020-07-31T10:57:30.103Z</time>
      </trkpt>
      <trkpt lat="62.49661" lon="6.4588">
        <ele>80.047639</ele>
        <time>2020-07-31T10:57:32.119Z</time>
      </trkpt>
      <trkpt lat="62.49676" lon="6.45895">
        <ele>78.933431</ele>
        <time>2020-07-31T10:57:34.137Z</time>
      </trkpt>
      <trkpt lat="62.49688" lon="6.45923">
        <ele>77.702255</ele>
        <time>2020-07-31T10:57:36.162Z</time>
      </trkpt>
      <trkpt lat="62.49694" lon="6.45943">
        <ele>76.790002</ele>
        <time>2020-07-31T10:57:37.115Z</time>
      </trkpt>
      <trkpt lat="62.497" lon="6.45963">
        <ele>75.844012</ele>
        <time>2020-07-31T10:57:38.118Z</time>
      </trkpt>
      <trkpt lat="62.49706" lon="6.45984">
        <ele>74.87972</ele>
        <time>2020-07-31T10:57:39.141Z</time>
      </trkpt>
      <trkpt lat="62.49713" lon="6.46006">
        <ele>73.858646</ele>
        <time>2020-07-31T10:57:40.126Z</time>
      </trkpt>
      <trkpt lat="62.4972" lon="6.46028">
        <ele>72.786369</ele>
        <time>2020-07-31T10:57:41.094Z</time>
      </trkpt>
      <trkpt lat="62.49728" lon="6.46051">
        <ele>71.697016</ele>
        <time>2020-07-31T10:57:42.115Z</time>
      </trkpt>
      <trkpt lat="62.49737" lon="6.46072">
        <ele>70.598834</ele>
        <time>2020-07-31T10:57:43.146Z</time>
      </trkpt>
      <trkpt lat="62.49745" lon="6.46094">
        <ele>69.498752</ele>
        <time>2020-07-31T10:57:44.093Z</time>
      </trkpt>
      <trkpt lat="62.49753" lon="6.46115">
        <ele>68.426277</ele>
        <time>2020-07-31T10:57:45.110Z</time>
      </trkpt>
      <trkpt lat="62.4976" lon="6.46137">
        <ele>67.392608</ele>
        <time>2020-07-31T10:57:46.130Z</time>
      </trkpt>
      <trkpt lat="62.49767" lon="6.46159">
        <ele>66.369652</ele>
        <time>2020-07-31T10:57:47.157Z</time>
      </trkpt>
      <trkpt lat="62.49773" lon="6.46182">
        <ele>65.363969</ele>
        <time>2020-07-31T10:57:48.111Z</time>
      </trkpt>
      <trkpt lat="62.49778" lon="6.46204">
        <ele>64.386037</ele>
        <time>2020-07-31T10:57:49.136Z</time>
      </trkpt>
      <trkpt lat="62.49783" lon="6.46226">
        <ele>63.425027</ele>
        <time>2020-07-31T10:57:50.138Z</time>
      </trkpt>
      <trkpt lat="62.49788" lon="6.46248">
        <ele>62.523598</ele>
        <time>2020-07-31T10:57:51.096Z</time>
      </trkpt>
      <trkpt lat="62.49792" lon="6.4627">
        <ele>61.91355</ele>
        <time>2020-07-31T10:57:52.124Z</time>
      </trkpt>
      <trkpt lat="62.49797" lon="6.46291">
        <ele>61.315086</ele>
        <time>2020-07-31T10:57:53.122Z</time>
      </trkpt>
      <trkpt lat="62.49801" lon="6.46312">
        <ele>60.742319</ele>
        <time>2020-07-31T10:57:54.108Z</time>
      </trkpt>
      <trkpt lat="62.49805" lon="6.46332">
        <ele>60.176019</ele>
        <time>2020-07-31T10:57:55.119Z</time>
      </trkpt>
      <trkpt lat="62.49808" lon="6.46352">
        <ele>59.627354</ele>
        <time>2020-07-31T10:57:56.100Z</time>
      </trkpt>
      <trkpt lat="62.49811" lon="6.46372">
        <ele>59.079357</ele>
        <time>2020-07-31T10:57:57.099Z</time>
      </trkpt>
      <trkpt lat="62.49814" lon="6.46392">
        <ele>58.53136</ele>
        <time>2020-07-31T10:57:58.126Z</time>
      </trkpt>
      <trkpt lat="62.49817" lon="6.46413">
        <ele>57.983364</ele>
        <time>2020-07-31T10:57:59.099Z</time>
      </trkpt>
      <trkpt lat="62.49821" lon="6.46432">
        <ele>57.439025</ele>
        <time>2020-07-31T10:58:00.090Z</time>
      </trkpt>
      <trkpt lat="62.49824" lon="6.46452">
        <ele>56.90989</ele>
        <time>2020-07-31T10:58:01.105Z</time>
      </trkpt>
      <trkpt lat="62.49827" lon="6.46472">
        <ele>56.378311</ele>
        <time>2020-07-31T10:58:02.098Z</time>
      </trkpt>
      <trkpt lat="62.4983" lon="6.46491">
        <ele>55.856498</ele>
        <time>2020-07-31T10:58:03.121Z</time>
      </trkpt>
      <trkpt lat="62.49832" lon="6.46509">
        <ele>55.352102</ele>
        <time>2020-07-31T10:58:04.122Z</time>
      </trkpt>
      <trkpt lat="62.49836" lon="6.46545">
        <ele>54.403876</ele>
        <time>2020-07-31T10:58:06.102Z</time>
      </trkpt>
      <trkpt lat="62.49839" lon="6.46577">
        <ele>53.575979</ele>
        <time>2020-07-31T10:58:08.101Z</time>
      </trkpt>
      <trkpt lat="62.4984" lon="6.46602">
        <ele>52.915522</ele>
        <time>2020-07-31T10:58:10.112Z</time>
      </trkpt>
      <trkpt lat="62.49841" lon="6.4663">
        <ele>53.230945</ele>
        <time>2020-07-31T10:58:13.126Z</time>
      </trkpt>
      <trkpt lat="62.49843" lon="6.46653">
        <ele>54.23635</ele>
        <time>2020-07-31T10:58:16.161Z</time>
      </trkpt>
      <trkpt lat="62.49846" lon="6.46674">
        <ele>55.18744</ele>
        <time>2020-07-31T10:58:19.102Z</time>
      </trkpt>
      <trkpt lat="62.49849" lon="6.46695">
        <ele>56.143328</ele>
        <time>2020-07-31T10:58:22.101Z</time>
      </trkpt>
      <trkpt lat="62.49853" lon="6.46714">
        <ele>57.048061</ele>
        <time>2020-07-31T10:58:25.167Z</time>
      </trkpt>
      <trkpt lat="62.49857" lon="6.46732">
        <ele>57.913349</ele>
        <time>2020-07-31T10:58:28.154Z</time>
      </trkpt>
      <trkpt lat="62.49861" lon="6.46752">
        <ele>58.881468</ele>
        <time>2020-07-31T10:58:32.113Z</time>
      </trkpt>
      <trkpt lat="62.49865" lon="6.46771">
        <ele>59.814691</ele>
        <time>2020-07-31T10:58:36.140Z</time>
      </trkpt>
      <trkpt lat="62.4987" lon="6.46793">
        <ele>60.841462</ele>
        <time>2020-07-31T10:58:41.099Z</time>
      </trkpt>
      <trkpt lat="62.49875" lon="6.46814">
        <ele>61.883832</ele>
        <time>2020-07-31T10:58:46.116Z</time>
      </trkpt>
      <trkpt lat="62.49878" lon="6.46834">
        <ele>62.778218</ele>
        <time>2020-07-31T10:58:51.115Z</time>
      </trkpt>
      <trkpt lat="62.49882" lon="6.46853">
        <ele>63.686767</ele>
        <time>2020-07-31T10:58:58.135Z</time>
      </trkpt>
      <trkpt lat="62.49886" lon="6.46873">
        <ele>64.634788</ele>
        <time>2020-07-31T10:59:05.143Z</time>
      </trkpt>
      <trkpt lat="62.49889" lon="6.46892">
        <ele>65.482303</ele>
        <time>2020-07-31T10:59:11.163Z</time>
      </trkpt>
      <trkpt lat="62.49893" lon="6.4691">
        <ele>66.351552</ele>
        <time>2020-07-31T10:59:18.095Z</time>
      </trkpt>
      <trkpt lat="62.49899" lon="6.46927">
        <ele>67.297738</ele>
        <time>2020-07-31T10:59:27.126Z</time>
      </trkpt>
      <trkpt lat="62.49908" lon="6.46938">
        <ele>68.234724</ele>
        <time>2020-07-31T10:59:35.102Z</time>
      </trkpt>
      <trkpt lat="62.49915" lon="6.46953">
        <ele>69.189573</ele>
        <time>2020-07-31T10:59:42.113Z</time>
      </trkpt>
      <trkpt lat="62.49924" lon="6.46966">
        <ele>70.121865</ele>
        <time>2020-07-31T10:59:49.149Z</time>
      </trkpt>
      <trkpt lat="62.49932" lon="6.46978">
        <ele>71.011117</ele>
        <time>2020-07-31T10:59:56.115Z</time>
      </trkpt>
      <trkpt lat="62.4994" lon="6.46988">
        <ele>71.812605</ele>
        <time>2020-07-31T11:00:02.108Z</time>
      </trkpt>
      <trkpt lat="62.49949" lon="6.46999">
        <ele>72.669413</ele>
        <time>2020-07-31T11:00:09.113Z</time>
      </trkpt>
      <trkpt lat="62.49957" lon="6.47012">
        <ele>73.537015</ele>
        <time>2020-07-31T11:00:17.096Z</time>
      </trkpt>
      <trkpt lat="62.49966" lon="6.47022">
        <ele>74.416699</ele>
        <time>2020-07-31T11:00:24.111Z</time>
      </trkpt>
      <trkpt lat="62.49973" lon="6.47036">
        <ele>75.224585</ele>
        <time>2020-07-31T11:00:32.156Z</time>
      </trkpt>
      <trkpt lat="62.4998" lon="6.47051">
        <ele>76.075549</ele>
        <time>2020-07-31T11:00:40.105Z</time>
      </trkpt>
      <trkpt lat="62.49986" lon="6.47065">
        <ele>76.866511</ele>
        <time>2020-07-31T11:00:47.118Z</time>
      </trkpt>
      <trkpt lat="62.4999" lon="6.47083">
        <ele>77.668864</ele>
        <time>2020-07-31T11:00:54.115Z</time>
      </trkpt>
      <trkpt lat="62.49994" lon="6.47101">
        <ele>78.490016</ele>
        <time>2020-07-31T11:01:01.111Z</time>
      </trkpt>
      <trkpt lat="62.49997" lon="6.47119">
        <ele>79.276723</ele>
        <time>2020-07-31T11:01:08.128Z</time>
      </trkpt>
      <trkpt lat="62.5" lon="6.47141">
        <ele>80.169409</ele>
        <time>2020-07-31T11:01:15.155Z</time>
      </trkpt>
      <trkpt lat="62.50003" lon="6.4716">
        <ele>81.002861</ele>
        <time>2020-07-31T11:01:22.132Z</time>
      </trkpt>
      <trkpt lat="62.50009" lon="6.47178">
        <ele>81.84888</ele>
        <time>2020-07-31T11:01:29.104Z</time>
      </trkpt>
      <trkpt lat="62.50013" lon="6.47196">
        <ele>82.671689</ele>
        <time>2020-07-31T11:01:36.162Z</time>
      </trkpt>
      <trkpt lat="62.50018" lon="6.47213">
        <ele>83.504174</ele>
        <time>2020-07-31T11:01:43.145Z</time>
      </trkpt>
      <trkpt lat="62.50024" lon="6.47231">
        <ele>84.375943</ele>
        <time>2020-07-31T11:01:50.126Z</time>
      </trkpt>
      <trkpt lat="62.50029" lon="6.47248">
        <ele>85.103804</ele>
        <time>2020-07-31T11:01:56.169Z</time>
      </trkpt>
      <trkpt lat="62.50033" lon="6.47265">
        <ele>85.021535</ele>
        <time>2020-07-31T11:02:03.116Z</time>
      </trkpt>
      <trkpt lat="62.50039" lon="6.47282">
        <ele>84.935863</ele>
        <time>2020-07-31T11:02:09.119Z</time>
      </trkpt>
      <trkpt lat="62.50046" lon="6.47293">
        <ele>84.852873</ele>
        <time>2020-07-31T11:02:16.103Z</time>
      </trkpt>
      <trkpt lat="62.50054" lon="6.47305">
        <ele>84.765128</ele>
        <time>2020-07-31T11:02:24.124Z</time>
      </trkpt>
      <trkpt lat="62.50064" lon="6.47313">
        <ele>84.676306</ele>
        <time>2020-07-31T11:02:31.121Z</time>
      </trkpt>
      <trkpt lat="62.50072" lon="6.47322">
        <ele>84.593145</ele>
        <time>2020-07-31T11:02:37.133Z</time>
      </trkpt>
      <trkpt lat="62.5008" lon="6.47333">
        <ele>84.505999</ele>
        <time>2020-07-31T11:02:44.169Z</time>
      </trkpt>
      <trkpt lat="62.50089" lon="6.47343">
        <ele>84.416084</ele>
        <time>2020-07-31T11:02:50.168Z</time>
      </trkpt>
      <trkpt lat="62.50099" lon="6.47353">
        <ele>84.317288</ele>
        <time>2020-07-31T11:02:56.113Z</time>
      </trkpt>
      <trkpt lat="62.50109" lon="6.47358">
        <ele>84.223394</ele>
        <time>2020-07-31T11:03:01.138Z</time>
      </trkpt>
      <trkpt lat="62.50115" lon="6.47378">
        <ele>84.11819</ele>
        <time>2020-07-31T11:06:25.145Z</time>
      </trkpt>
      <trkpt lat="62.50121" lon="6.47395">
        <ele>84.031286</ele>
        <time>2020-07-31T11:06:28.143Z</time>
      </trkpt>
      <trkpt lat="62.50128" lon="6.47416">
        <ele>83.92744</ele>
        <time>2020-07-31T11:06:31.151Z</time>
      </trkpt>
      <trkpt lat="62.50133" lon="6.47442">
        <ele>83.806711</ele>
        <time>2020-07-31T11:06:34.097Z</time>
      </trkpt>
      <trkpt lat="62.50137" lon="6.47463">
        <ele>83.712663</ele>
        <time>2020-07-31T11:06:36.097Z</time>
      </trkpt>
      <trkpt lat="62.5014" lon="6.47487">
        <ele>83.608814</ele>
        <time>2020-07-31T11:06:38.128Z</time>
      </trkpt>
      <trkpt lat="62.50143" lon="6.47515">
        <ele>83.488984</ele>
        <time>2020-07-31T11:06:40.133Z</time>
      </trkpt>
      <trkpt lat="62.50144" lon="6.47548">
        <ele>82.695019</ele>
        <time>2020-07-31T11:06:42.109Z</time>
      </trkpt>
      <trkpt lat="62.50145" lon="6.47584">
        <ele>81.80807</ele>
        <time>2020-07-31T11:06:44.150Z</time>
      </trkpt>
      <trkpt lat="62.50146" lon="6.47622">
        <ele>80.86357</ele>
        <time>2020-07-31T11:06:46.105Z</time>
      </trkpt>
      <trkpt lat="62.50147" lon="6.47642">
        <ele>80.377402</ele>
        <time>2020-07-31T11:06:47.123Z</time>
      </trkpt>
      <trkpt lat="62.50147" lon="6.47663">
        <ele>79.875443</ele>
        <time>2020-07-31T11:06:48.119Z</time>
      </trkpt>
      <trkpt lat="62.50147" lon="6.47684">
        <ele>79.35427</ele>
        <time>2020-07-31T11:06:49.108Z</time>
      </trkpt>
      <trkpt lat="62.50147" lon="6.47704">
        <ele>78.847147</ele>
        <time>2020-07-31T11:06:50.155Z</time>
      </trkpt>
      <trkpt lat="62.50146" lon="6.47725">
        <ele>78.332464</ele>
        <time>2020-07-31T11:06:51.113Z</time>
      </trkpt>
      <trkpt lat="62.50144" lon="6.47746">
        <ele>77.799149</ele>
        <time>2020-07-31T11:06:52.097Z</time>
      </trkpt>
      <trkpt lat="62.50141" lon="6.47768">
        <ele>77.245244</ele>
        <time>2020-07-31T11:06:53.080Z</time>
      </trkpt>
      <trkpt lat="62.50137" lon="6.4779">
        <ele>76.675079</ele>
        <time>2020-07-31T11:06:54.124Z</time>
      </trkpt>
      <trkpt lat="62.50133" lon="6.47811">
        <ele>76.101368</ele>
        <time>2020-07-31T11:06:55.124Z</time>
      </trkpt>
      <trkpt lat="62.50127" lon="6.47831">
        <ele>75.526358</ele>
        <time>2020-07-31T11:06:56.122Z</time>
      </trkpt>
      <trkpt lat="62.50121" lon="6.47851">
        <ele>74.947035</ele>
        <time>2020-07-31T11:06:57.137Z</time>
      </trkpt>
      <trkpt lat="62.50115" lon="6.4787">
        <ele>74.366868</ele>
        <time>2020-07-31T11:06:58.136Z</time>
      </trkpt>
      <trkpt lat="62.50108" lon="6.47889">
        <ele>73.766554</ele>
        <time>2020-07-31T11:06:59.100Z</time>
      </trkpt>
      <trkpt lat="62.50102" lon="6.47909">
        <ele>73.095179</ele>
        <time>2020-07-31T11:07:00.125Z</time>
      </trkpt>
      <trkpt lat="62.50096" lon="6.47931">
        <ele>72.403275</ele>
        <time>2020-07-31T11:07:01.113Z</time>
      </trkpt>
      <trkpt lat="62.50091" lon="6.47954">
        <ele>71.680323</ele>
        <time>2020-07-31T11:07:02.108Z</time>
      </trkpt>
      <trkpt lat="62.50086" lon="6.47979">
        <ele>70.943042</ele>
        <time>2020-07-31T11:07:03.115Z</time>
      </trkpt>
      <trkpt lat="62.50083" lon="6.48006">
        <ele>70.180705</ele>
        <time>2020-07-31T11:07:04.133Z</time>
      </trkpt>
      <trkpt lat="62.50081" lon="6.48033">
        <ele>69.399527</ele>
        <time>2020-07-31T11:07:05.154Z</time>
      </trkpt>
      <trkpt lat="62.50078" lon="6.48061">
        <ele>68.616806</ele>
        <time>2020-07-31T11:07:06.102Z</time>
      </trkpt>
      <trkpt lat="62.50075" lon="6.48089">
        <ele>67.833154</ele>
        <time>2020-07-31T11:07:07.134Z</time>
      </trkpt>
      <trkpt lat="62.50072" lon="6.48116">
        <ele>67.054924</ele>
        <time>2020-07-31T11:07:08.101Z</time>
      </trkpt>
      <trkpt lat="62.50069" lon="6.48144">
        <ele>66.272664</ele>
        <time>2020-07-31T11:07:09.200Z</time>
      </trkpt>
      <trkpt lat="62.50066" lon="6.48171">
        <ele>65.491743</ele>
        <time>2020-07-31T11:07:10.144Z</time>
      </trkpt>
      <trkpt lat="62.50063" lon="6.48198">
        <ele>64.726726</ele>
        <time>2020-07-31T11:07:11.097Z</time>
      </trkpt>
      <trkpt lat="62.5006" lon="6.48224">
        <ele>63.987152</ele>
        <time>2020-07-31T11:07:12.105Z</time>
      </trkpt>
      <trkpt lat="62.50056" lon="6.48249">
        <ele>63.263768</ele>
        <time>2020-07-31T11:07:13.116Z</time>
      </trkpt>
      <trkpt lat="62.50051" lon="6.48272">
        <ele>62.692029</ele>
        <time>2020-07-31T11:07:14.136Z</time>
      </trkpt>
      <trkpt lat="62.50046" lon="6.48294">
        <ele>62.172532</ele>
        <time>2020-07-31T11:07:15.132Z</time>
      </trkpt>
      <trkpt lat="62.50041" lon="6.48315">
        <ele>61.664508</ele>
        <time>2020-07-31T11:07:16.123Z</time>
      </trkpt>
      <trkpt lat="62.50037" lon="6.48335">
        <ele>61.187743</ele>
        <time>2020-07-31T11:07:17.099Z</time>
      </trkpt>
      <trkpt lat="62.50033" lon="6.48353">
        <ele>60.75421</ele>
        <time>2020-07-31T11:07:18.133Z</time>
      </trkpt>
      <trkpt lat="62.50029" lon="6.48371">
        <ele>60.336084</ele>
        <time>2020-07-31T11:07:19.101Z</time>
      </trkpt>
      <trkpt lat="62.50024" lon="6.48404">
        <ele>59.574189</ele>
        <time>2020-07-31T11:07:21.115Z</time>
      </trkpt>
      <trkpt lat="62.50021" lon="6.48436">
        <ele>58.874118</ele>
        <time>2020-07-31T11:07:23.108Z</time>
      </trkpt>
      <trkpt lat="62.50018" lon="6.48465">
        <ele>58.228119</ele>
        <time>2020-07-31T11:07:25.128Z</time>
      </trkpt>
      <trkpt lat="62.50016" lon="6.48492">
        <ele>57.636258</ele>
        <time>2020-07-31T11:07:27.096Z</time>
      </trkpt>
      <trkpt lat="62.50014" lon="6.48518">
        <ele>57.078534</ele>
        <time>2020-07-31T11:07:29.103Z</time>
      </trkpt>
      <trkpt lat="62.50011" lon="6.48542">
        <ele>56.550757</ele>
        <time>2020-07-31T11:07:31.132Z</time>
      </trkpt>
      <trkpt lat="62.50008" lon="6.48565">
        <ele>56.042373</ele>
        <time>2020-07-31T11:07:33.110Z</time>
      </trkpt>
      <trkpt lat="62.50006" lon="6.48587">
        <ele>55.543556</ele>
        <time>2020-07-31T11:07:35.114Z</time>
      </trkpt>
      <trkpt lat="62.50004" lon="6.48611">
        <ele>55.020475</ele>
        <time>2020-07-31T11:07:37.141Z</time>
      </trkpt>
      <trkpt lat="62.50004" lon="6.48636">
        <ele>54.791165</ele>
        <time>2020-07-31T11:07:39.124Z</time>
      </trkpt>
      <trkpt lat="62.50004" lon="6.48659">
        <ele>54.837622</ele>
        <time>2020-07-31T11:07:41.143Z</time>
      </trkpt>
      <trkpt lat="62.50005" lon="6.4868">
        <ele>54.879776</ele>
        <time>2020-07-31T11:07:43.112Z</time>
      </trkpt>
      <trkpt lat="62.50006" lon="6.487">
        <ele>54.918908</ele>
        <time>2020-07-31T11:07:45.119Z</time>
      </trkpt>
      <trkpt lat="62.50007" lon="6.48727">
        <ele>54.973703</ele>
        <time>2020-07-31T11:07:48.140Z</time>
      </trkpt>
      <trkpt lat="62.50007" lon="6.48751">
        <ele>55.022956</ele>
        <time>2020-07-31T11:07:51.129Z</time>
      </trkpt>
      <trkpt lat="62.50006" lon="6.48777">
        <ele>55.074276</ele>
        <time>2020-07-31T11:07:54.137Z</time>
      </trkpt>
      <trkpt lat="62.50006" lon="6.48801">
        <ele>55.122884</ele>
        <time>2020-07-31T11:07:57.112Z</time>
      </trkpt>
      <trkpt lat="62.50004" lon="6.48825">
        <ele>55.171299</ele>
        <time>2020-07-31T11:08:00.121Z</time>
      </trkpt>
      <trkpt lat="62.50001" lon="6.4885">
        <ele>55.223387</ele>
        <time>2020-07-31T11:08:03.140Z</time>
      </trkpt>
      <trkpt lat="62.49997" lon="6.48875">
        <ele>55.276177</ele>
        <time>2020-07-31T11:08:06.119Z</time>
      </trkpt>
      <trkpt lat="62.49991" lon="6.48897">
        <ele>55.325503</ele>
        <time>2020-07-31T11:08:09.131Z</time>
      </trkpt>
      <trkpt lat="62.49985" lon="6.48918">
        <ele>55.375971</ele>
        <time>2020-07-31T11:08:12.113Z</time>
      </trkpt>
      <trkpt lat="62.49979" lon="6.4894">
        <ele>55.427523</ele>
        <time>2020-07-31T11:08:15.120Z</time>
      </trkpt>
      <trkpt lat="62.49971" lon="6.48961">
        <ele>55.480628</ele>
        <time>2020-07-31T11:08:18.105Z</time>
      </trkpt>
      <trkpt lat="62.49964" lon="6.48984">
        <ele>55.537279</ele>
        <time>2020-07-31T11:08:21.161Z</time>
      </trkpt>
      <trkpt lat="62.49955" lon="6.49005">
        <ele>55.693014</ele>
        <time>2020-07-31T11:08:24.150Z</time>
      </trkpt>
      <trkpt lat="62.49947" lon="6.49026">
        <ele>55.85907</ele>
        <time>2020-07-31T11:08:27.139Z</time>
      </trkpt>
      <trkpt lat="62.49941" lon="6.4904">
        <ele>55.977311</ele>
        <time>2020-07-31T11:08:29.117Z</time>
      </trkpt>
      <trkpt lat="62.49934" lon="6.49055">
        <ele>56.107101</ele>
        <time>2020-07-31T11:08:31.185Z</time>
      </trkpt>
      <trkpt lat="62.49927" lon="6.49071">
        <ele>56.247308</ele>
        <time>2020-07-31T11:08:33.114Z</time>
      </trkpt>
      <trkpt lat="62.49919" lon="6.49089">
        <ele>56.392861</ele>
        <time>2020-07-31T11:08:35.100Z</time>
      </trkpt>
      <trkpt lat="62.49912" lon="6.49106">
        <ele>56.536237</ele>
        <time>2020-07-31T11:08:37.133Z</time>
      </trkpt>
      <trkpt lat="62.49906" lon="6.49124">
        <ele>56.668317</ele>
        <time>2020-07-31T11:08:39.111Z</time>
      </trkpt>
      <trkpt lat="62.49901" lon="6.49141">
        <ele>56.788051</ele>
        <time>2020-07-31T11:08:41.119Z</time>
      </trkpt>
      <trkpt lat="62.49896" lon="6.49165">
        <ele>56.954107</ele>
        <time>2020-07-31T11:08:44.092Z</time>
      </trkpt>
      <trkpt lat="62.49891" lon="6.49189">
        <ele>57.109183</ele>
        <time>2020-07-31T11:08:47.142Z</time>
      </trkpt>
      <trkpt lat="62.49887" lon="6.49215">
        <ele>57.278387</ele>
        <time>2020-07-31T11:08:50.105Z</time>
      </trkpt>
      <trkpt lat="62.49883" lon="6.49242">
        <ele>57.451611</ele>
        <time>2020-07-31T11:08:53.108Z</time>
      </trkpt>
      <trkpt lat="62.4988" lon="6.49267">
        <ele>57.608736</ele>
        <time>2020-07-31T11:08:56.146Z</time>
      </trkpt>
      <trkpt lat="62.49879" lon="6.49293">
        <ele>57.765981</ele>
        <time>2020-07-31T11:08:59.106Z</time>
      </trkpt>
      <trkpt lat="62.49878" lon="6.49318">
        <ele>57.917728</ele>
        <time>2020-07-31T11:09:02.121Z</time>
      </trkpt>
      <trkpt lat="62.49878" lon="6.49344">
        <ele>57.825669</ele>
        <time>2020-07-31T11:09:05.097Z</time>
      </trkpt>
      <trkpt lat="62.49878" lon="6.49372">
        <ele>57.728465</ele>
        <time>2020-07-31T11:09:08.118Z</time>
      </trkpt>
      <trkpt lat="62.49878" lon="6.49399">
        <ele>57.634073</ele>
        <time>2020-07-31T11:09:11.093Z</time>
      </trkpt>
      <trkpt lat="62.49879" lon="6.49427">
        <ele>57.532146</ele>
        <time>2020-07-31T11:09:14.170Z</time>
      </trkpt>
      <trkpt lat="62.4988" lon="6.49448">
        <ele>57.457361</ele>
        <time>2020-07-31T11:09:16.152Z</time>
      </trkpt>
      <trkpt lat="62.49882" lon="6.4947">
        <ele>57.381527</ele>
        <time>2020-07-31T11:09:18.155Z</time>
      </trkpt>
      <trkpt lat="62.49884" lon="6.49491">
        <ele>57.304733</ele>
        <time>2020-07-31T11:09:20.115Z</time>
      </trkpt>
      <trkpt lat="62.49886" lon="6.49512">
        <ele>57.228933</ele>
        <time>2020-07-31T11:09:22.133Z</time>
      </trkpt>
      <trkpt lat="62.49887" lon="6.49533">
        <ele>57.155101</ele>
        <time>2020-07-31T11:09:24.140Z</time>
      </trkpt>
      <trkpt lat="62.49888" lon="6.49554">
        <ele>57.079868</ele>
        <time>2020-07-31T11:09:26.138Z</time>
      </trkpt>
      <trkpt lat="62.49889" lon="6.49575">
        <ele>57.00533</ele>
        <time>2020-07-31T11:09:28.129Z</time>
      </trkpt>
      <trkpt lat="62.4989" lon="6.49596">
        <ele>56.929663</ele>
        <time>2020-07-31T11:09:30.110Z</time>
      </trkpt>
      <trkpt lat="62.49891" lon="6.49618">
        <ele>56.850716</ele>
        <time>2020-07-31T11:09:32.105Z</time>
      </trkpt>
      <trkpt lat="62.4989" lon="6.49641">
        <ele>56.770121</ele>
        <time>2020-07-31T11:09:34.095Z</time>
      </trkpt>
      <trkpt lat="62.4989" lon="6.49663">
        <ele>56.691275</ele>
        <time>2020-07-31T11:09:36.150Z</time>
      </trkpt>
      <trkpt lat="62.49891" lon="6.49685">
        <ele>56.613815</ele>
        <time>2020-07-31T11:09:38.108Z</time>
      </trkpt>
      <trkpt lat="62.49891" lon="6.49706">
        <ele>56.53062</ele>
        <time>2020-07-31T11:09:40.136Z</time>
      </trkpt>
      <trkpt lat="62.49892" lon="6.49727">
        <ele>56.272706</ele>
        <time>2020-07-31T11:09:42.121Z</time>
      </trkpt>
      <trkpt lat="62.49892" lon="6.49747">
        <ele>56.011808</ele>
        <time>2020-07-31T11:09:44.108Z</time>
      </trkpt>
      <trkpt lat="62.49892" lon="6.49776">
        <ele>55.640696</ele>
        <time>2020-07-31T11:09:47.147Z</time>
      </trkpt>
      <trkpt lat="62.49891" lon="6.49796">
        <ele>55.383612</ele>
        <time>2020-07-31T11:09:49.093Z</time>
      </trkpt>
      <trkpt lat="62.49888" lon="6.49816">
        <ele>55.116357</ele>
        <time>2020-07-31T11:09:51.118Z</time>
      </trkpt>
      <trkpt lat="62.49883" lon="6.49837">
        <ele>54.819596</ele>
        <time>2020-07-31T11:09:53.112Z</time>
      </trkpt>
      <trkpt lat="62.49877" lon="6.49857">
        <ele>54.509809</ele>
        <time>2020-07-31T11:09:55.133Z</time>
      </trkpt>
      <trkpt lat="62.49869" lon="6.49876">
        <ele>54.183848</ele>
        <time>2020-07-31T11:09:57.125Z</time>
      </trkpt>
      <trkpt lat="62.49859" lon="6.49893">
        <ele>53.842978</ele>
        <time>2020-07-31T11:09:59.124Z</time>
      </trkpt>
      <trkpt lat="62.49847" lon="6.49908">
        <ele>53.468143</ele>
        <time>2020-07-31T11:10:01.123Z</time>
      </trkpt>
      <trkpt lat="62.49836" lon="6.49926">
        <ele>53.079652</ele>
        <time>2020-07-31T11:10:03.109Z</time>
      </trkpt>
      <trkpt lat="62.49825" lon="6.49944">
        <ele>52.698496</ele>
        <time>2020-07-31T11:10:05.114Z</time>
      </trkpt>
      <trkpt lat="62.49815" lon="6.49966">
        <ele>52.320304</ele>
        <time>2020-07-31T11:10:07.092Z</time>
      </trkpt>
      <trkpt lat="62.49807" lon="6.49988">
        <ele>51.960404</ele>
        <time>2020-07-31T11:10:09.149Z</time>
      </trkpt>
      <trkpt lat="62.49801" lon="6.5001">
        <ele>51.628642</ele>
        <time>2020-07-31T11:10:11.144Z</time>
      </trkpt>
      <trkpt lat="62.49796" lon="6.50031">
        <ele>51.616514</ele>
        <time>2020-07-31T11:10:13.130Z</time>
      </trkpt>
      <trkpt lat="62.49792" lon="6.50052">
        <ele>51.642545</ele>
        <time>2020-07-31T11:10:15.095Z</time>
      </trkpt>
      <trkpt lat="62.49789" lon="6.50073">
        <ele>51.66719</ele>
        <time>2020-07-31T11:10:17.103Z</time>
      </trkpt>
      <trkpt lat="62.49787" lon="6.50093">
        <ele>51.690785</ele>
        <time>2020-07-31T11:10:19.113Z</time>
      </trkpt>
      <trkpt lat="62.49786" lon="6.50112">
        <ele>51.71351</ele>
        <time>2020-07-31T11:10:21.101Z</time>
      </trkpt>
      <trkpt lat="62.49784" lon="6.50132">
        <ele>51.736437</ele>
        <time>2020-07-31T11:10:23.104Z</time>
      </trkpt>
      <trkpt lat="62.49782" lon="6.50151">
        <ele>51.759305</ele>
        <time>2020-07-31T11:10:25.106Z</time>
      </trkpt>
      <trkpt lat="62.4978" lon="6.5017">
        <ele>51.781653</ele>
        <time>2020-07-31T11:10:27.119Z</time>
      </trkpt>
      <trkpt lat="62.49779" lon="6.5019">
        <ele>51.804913</ele>
        <time>2020-07-31T11:10:29.118Z</time>
      </trkpt>
      <trkpt lat="62.49778" lon="6.50211">
        <ele>51.82866</ele>
        <time>2020-07-31T11:10:31.096Z</time>
      </trkpt>
      <trkpt lat="62.49778" lon="6.50232">
        <ele>51.852881</ele>
        <time>2020-07-31T11:10:33.112Z</time>
      </trkpt>
      <trkpt lat="62.49778" lon="6.50254">
        <ele>51.877682</ele>
        <time>2020-07-31T11:10:35.157Z</time>
      </trkpt>
      <trkpt lat="62.49777" lon="6.50274">
        <ele>51.901221</ele>
        <time>2020-07-31T11:10:37.121Z</time>
      </trkpt>
      <trkpt lat="62.49777" lon="6.50294">
        <ele>51.923721</ele>
        <time>2020-07-31T11:10:39.137Z</time>
      </trkpt>
      <trkpt lat="62.49777" lon="6.50314">
        <ele>51.946561</ele>
        <time>2020-07-31T11:10:41.129Z</time>
      </trkpt>
      <trkpt lat="62.49778" lon="6.50333">
        <ele>51.96899</ele>
        <time>2020-07-31T11:10:43.106Z</time>
      </trkpt>
      <trkpt lat="62.4978" lon="6.50353">
        <ele>51.992641</ele>
        <time>2020-07-31T11:10:45.117Z</time>
      </trkpt>
      <trkpt lat="62.49782" lon="6.50373">
        <ele>52.015962</ele>
        <time>2020-07-31T11:10:47.130Z</time>
      </trkpt>
      <trkpt lat="62.49784" lon="6.50392">
        <ele>52.038996</ele>
        <time>2020-07-31T11:10:49.124Z</time>
      </trkpt>
      <trkpt lat="62.49788" lon="6.50411">
        <ele>52.42173</ele>
        <time>2020-07-31T11:10:51.100Z</time>
      </trkpt>
      <trkpt lat="62.49792" lon="6.50428">
        <ele>52.797572</ele>
        <time>2020-07-31T11:10:53.142Z</time>
      </trkpt>
      <trkpt lat="62.498" lon="6.50442">
        <ele>53.192114</ele>
        <time>2020-07-31T11:10:55.140Z</time>
      </trkpt>
      <trkpt lat="62.49811" lon="6.50454">
        <ele>53.709427</ele>
        <time>2020-07-31T11:10:58.131Z</time>
      </trkpt>
      <trkpt lat="62.49823" lon="6.50464">
        <ele>54.246755</ele>
        <time>2020-07-31T11:11:01.122Z</time>
      </trkpt>
      <trkpt lat="62.49833" lon="6.50472">
        <ele>54.690366</ele>
        <time>2020-07-31T11:11:04.124Z</time>
      </trkpt>
      <trkpt lat="62.49842" lon="6.50478">
        <ele>55.086157</ele>
        <time>2020-07-31T11:11:07.142Z</time>
      </trkpt>
      <trkpt lat="62.49851" lon="6.50483">
        <ele>55.473</ele>
        <time>2020-07-31T11:11:10.132Z</time>
      </trkpt>
      <trkpt lat="62.4986" lon="6.50489">
        <ele>55.86369</ele>
        <time>2020-07-31T11:11:13.149Z</time>
      </trkpt>
      <trkpt lat="62.49868" lon="6.50496">
        <ele>56.240653</ele>
        <time>2020-07-31T11:11:16.161Z</time>
      </trkpt>
      <trkpt lat="62.49878" lon="6.50509">
        <ele>56.695069</ele>
        <time>2020-07-31T11:11:19.113Z</time>
      </trkpt>
      <trkpt lat="62.49885" lon="6.50525">
        <ele>57.125188</ele>
        <time>2020-07-31T11:11:22.106Z</time>
      </trkpt>
      <trkpt lat="62.49891" lon="6.50543">
        <ele>57.541752</ele>
        <time>2020-07-31T11:11:25.135Z</time>
      </trkpt>
      <trkpt lat="62.49896" lon="6.50563">
        <ele>57.978682</ele>
        <time>2020-07-31T11:11:28.166Z</time>
      </trkpt>
      <trkpt lat="62.499" lon="6.50585">
        <ele>58.441657</ele>
        <time>2020-07-31T11:11:31.124Z</time>
      </trkpt>
      <trkpt lat="62.49905" lon="6.5061">
        <ele>58.970449</ele>
        <time>2020-07-31T11:11:34.140Z</time>
      </trkpt>
      <trkpt lat="62.49909" lon="6.50629">
        <ele>59.353101</ele>
        <time>2020-07-31T11:11:36.133Z</time>
      </trkpt>
      <trkpt lat="62.49913" lon="6.50647">
        <ele>59.490154</ele>
        <time>2020-07-31T11:11:38.151Z</time>
      </trkpt>
      <trkpt lat="62.49917" lon="6.50667">
        <ele>59.469824</ele>
        <time>2020-07-31T11:11:40.134Z</time>
      </trkpt>
      <trkpt lat="62.49923" lon="6.50685">
        <ele>59.44924</ele>
        <time>2020-07-31T11:11:42.132Z</time>
      </trkpt>
      <trkpt lat="62.4993" lon="6.50703">
        <ele>59.427253</ele>
        <time>2020-07-31T11:11:44.125Z</time>
      </trkpt>
      <trkpt lat="62.49937" lon="6.50718">
        <ele>59.40751</ele>
        <time>2020-07-31T11:11:46.181Z</time>
      </trkpt>
      <trkpt lat="62.49947" lon="6.50736">
        <ele>59.380816</ele>
        <time>2020-07-31T11:11:49.131Z</time>
      </trkpt>
      <trkpt lat="62.49957" lon="6.50753">
        <ele>59.354353</ele>
        <time>2020-07-31T11:11:52.116Z</time>
      </trkpt>
      <trkpt lat="62.49967" lon="6.5077">
        <ele>59.329767</ele>
        <time>2020-07-31T11:11:55.114Z</time>
      </trkpt>
      <trkpt lat="62.49974" lon="6.50788">
        <ele>59.306454</ele>
        <time>2020-07-31T11:11:58.103Z</time>
      </trkpt>
      <trkpt lat="62.4998" lon="6.50811">
        <ele>59.281646</ele>
        <time>2020-07-31T11:12:01.102Z</time>
      </trkpt>
      <trkpt lat="62.49984" lon="6.50836">
        <ele>59.2571</ele>
        <time>2020-07-31T11:12:04.109Z</time>
      </trkpt>
      <trkpt lat="62.49987" lon="6.5086">
        <ele>59.234111</ele>
        <time>2020-07-31T11:12:07.126Z</time>
      </trkpt>
      <trkpt lat="62.49991" lon="6.50883">
        <ele>59.211314</ele>
        <time>2020-07-31T11:12:10.128Z</time>
      </trkpt>
      <trkpt lat="62.49994" lon="6.50904">
        <ele>59.190522</ele>
        <time>2020-07-31T11:12:13.136Z</time>
      </trkpt>
      <trkpt lat="62.49998" lon="6.50922">
        <ele>59.171896</ele>
        <time>2020-07-31T11:12:16.096Z</time>
      </trkpt>
      <trkpt lat="62.50001" lon="6.50941">
        <ele>59.153189</ele>
        <time>2020-07-31T11:12:19.120Z</time>
      </trkpt>
      <trkpt lat="62.50004" lon="6.50962">
        <ele>59.276112</ele>
        <time>2020-07-31T11:12:22.105Z</time>
      </trkpt>
      <trkpt lat="62.50007" lon="6.50982">
        <ele>59.835142</ele>
        <time>2020-07-31T11:12:25.128Z</time>
      </trkpt>
      <trkpt lat="62.5001" lon="6.51001">
        <ele>60.380102</ele>
        <time>2020-07-31T11:12:28.113Z</time>
      </trkpt>
      <trkpt lat="62.50013" lon="6.5102">
        <ele>60.903925</ele>
        <time>2020-07-31T11:12:31.125Z</time>
      </trkpt>
      <trkpt lat="62.50016" lon="6.51042">
        <ele>61.528232</ele>
        <time>2020-07-31T11:12:35.144Z</time>
      </trkpt>
      <trkpt lat="62.50019" lon="6.51061">
        <ele>62.069619</ele>
        <time>2020-07-31T11:12:39.118Z</time>
      </trkpt>
      <trkpt lat="62.50022" lon="6.51082">
        <ele>62.660395</ele>
        <time>2020-07-31T11:12:44.112Z</time>
      </trkpt>
      <trkpt lat="62.50024" lon="6.51102">
        <ele>63.190275</ele>
        <time>2020-07-31T11:12:49.157Z</time>
      </trkpt>
      <trkpt lat="62.50028" lon="6.51121">
        <ele>63.75411</ele>
        <time>2020-07-31T11:12:54.120Z</time>
      </trkpt>
      <trkpt lat="62.50031" lon="6.5114">
        <ele>64.301115</ele>
        <time>2020-07-31T11:13:00.096Z</time>
      </trkpt>
      <trkpt lat="62.50033" lon="6.5116">
        <ele>64.846567</ele>
        <time>2020-07-31T11:13:06.145Z</time>
      </trkpt>
      <trkpt lat="62.50035" lon="6.5118">
        <ele>65.386317</ele>
        <time>2020-07-31T11:13:12.119Z</time>
      </trkpt>
      <trkpt lat="62.50036" lon="6.51202">
        <ele>65.984643</ele>
        <time>2020-07-31T11:13:20.099Z</time>
      </trkpt>
      <trkpt lat="62.50037" lon="6.51223">
        <ele>66.541187</ele>
        <time>2020-07-31T11:13:27.124Z</time>
      </trkpt>
      <trkpt lat="62.50039" lon="6.51244">
        <ele>67.122455</ele>
        <time>2020-07-31T11:13:34.114Z</time>
      </trkpt>
      <trkpt lat="62.50042" lon="6.51263">
        <ele>67.649856</ele>
        <time>2020-07-31T11:13:40.114Z</time>
      </trkpt>
      <trkpt lat="62.50045" lon="6.51281">
        <ele>68.173562</ele>
        <time>2020-07-31T11:13:45.118Z</time>
      </trkpt>
      <trkpt lat="62.50048" lon="6.513">
        <ele>68.712986</ele>
        <time>2020-07-31T11:13:50.159Z</time>
      </trkpt>
      <trkpt lat="62.50051" lon="6.51319">
        <ele>69.258888</ele>
        <time>2020-07-31T11:13:55.109Z</time>
      </trkpt>
      <trkpt lat="62.50054" lon="6.51342">
        <ele>69.949249</ele>
        <time>2020-07-31T11:14:01.122Z</time>
      </trkpt>
      <trkpt lat="62.50055" lon="6.51362">
        <ele>70.646909</ele>
        <time>2020-07-31T11:14:06.112Z</time>
      </trkpt>
      <trkpt lat="62.50057" lon="6.51382">
        <ele>71.318871</ele>
        <time>2020-07-31T11:14:11.124Z</time>
      </trkpt>
      <trkpt lat="62.5006" lon="6.51404">
        <ele>72.093278</ele>
        <time>2020-07-31T11:14:17.112Z</time>
      </trkpt>
      <trkpt lat="62.50063" lon="6.51425">
        <ele>72.832147</ele>
        <time>2020-07-31T11:14:23.105Z</time>
      </trkpt>
      <trkpt lat="62.50065" lon="6.51447">
        <ele>73.583473</ele>
        <time>2020-07-31T11:14:29.093Z</time>
      </trkpt>
      <trkpt lat="62.50068" lon="6.51467">
        <ele>74.31586</ele>
        <time>2020-07-31T11:14:35.112Z</time>
      </trkpt>
      <trkpt lat="62.50073" lon="6.51487">
        <ele>75.062139</ele>
        <time>2020-07-31T11:14:42.152Z</time>
      </trkpt>
      <trkpt lat="62.50079" lon="6.51502">
        <ele>75.742454</ele>
        <time>2020-07-31T11:14:48.112Z</time>
      </trkpt>
      <trkpt lat="62.50087" lon="6.51515">
        <ele>76.458234</ele>
        <time>2020-07-31T11:14:54.132Z</time>
      </trkpt>
      <trkpt lat="62.50094" lon="6.51527">
        <ele>77.132045</ele>
        <time>2020-07-31T11:14:59.121Z</time>
      </trkpt>
      <trkpt lat="62.50102" lon="6.5154">
        <ele>77.843269</ele>
        <time>2020-07-31T11:15:04.141Z</time>
      </trkpt>
      <trkpt lat="62.5011" lon="6.51551">
        <ele>78.537066</ele>
        <time>2020-07-31T11:15:09.162Z</time>
      </trkpt>
      <trkpt lat="62.50119" lon="6.51564">
        <ele>79.320013</ele>
        <time>2020-07-31T11:15:15.140Z</time>
      </trkpt>
      <trkpt lat="62.50127" lon="6.51574">
        <ele>80.02668</ele>
        <time>2020-07-31T11:15:20.101Z</time>
      </trkpt>
      <trkpt lat="62.50136" lon="6.51584">
        <ele>80.754174</ele>
        <time>2020-07-31T11:15:24.132Z</time>
      </trkpt>
      <trkpt lat="62.50146" lon="6.51598">
        <ele>81.594</ele>
        <time>2020-07-31T11:15:28.113Z</time>
      </trkpt>
      <trkpt lat="62.50152" lon="6.51612">
        <ele>82.279237</ele>
        <time>2020-07-31T11:15:31.112Z</time>
      </trkpt>
      <trkpt lat="62.50157" lon="6.51629">
        <ele>82.709527</ele>
        <time>2020-07-31T11:15:34.150Z</time>
      </trkpt>
      <trkpt lat="62.50164" lon="6.51644">
        <ele>82.799956</ele>
        <time>2020-07-31T11:15:37.116Z</time>
      </trkpt>
      <trkpt lat="62.50168" lon="6.51666">
        <ele>82.903047</ele>
        <time>2020-07-31T11:15:41.122Z</time>
      </trkpt>
      <trkpt lat="62.5017" lon="6.51687">
        <ele>82.995355</ele>
        <time>2020-07-31T11:15:45.139Z</time>
      </trkpt>
      <trkpt lat="62.5017" lon="6.5171">
        <ele>83.099225</ele>
        <time>2020-07-31T11:15:50.110Z</time>
      </trkpt>
      <trkpt lat="62.50169" lon="6.51732">
        <ele>83.196234</ele>
        <time>2020-07-31T11:15:55.144Z</time>
      </trkpt>
      <trkpt lat="62.50167" lon="6.51755">
        <ele>83.293862</ele>
        <time>2020-07-31T11:16:00.144Z</time>
      </trkpt>
      <trkpt lat="62.50165" lon="6.51776">
        <ele>83.389224</ele>
        <time>2020-07-31T11:16:05.108Z</time>
      </trkpt>
      <trkpt lat="62.50163" lon="6.51798">
        <ele>83.48819</ele>
        <time>2020-07-31T11:16:10.114Z</time>
      </trkpt>
      <trkpt lat="62.50162" lon="6.51822">
        <ele>83.590594</ele>
        <time>2020-07-31T11:16:15.123Z</time>
      </trkpt>
      <trkpt lat="62.50161" lon="6.51844">
        <ele>83.690848</ele>
        <time>2020-07-31T11:16:19.110Z</time>
      </trkpt>
      <trkpt lat="62.5016" lon="6.51864">
        <ele>83.775852</ele>
        <time>2020-07-31T11:16:22.132Z</time>
      </trkpt>
      <trkpt lat="62.5016" lon="6.51884">
        <ele>83.862265</ele>
        <time>2020-07-31T11:16:25.106Z</time>
      </trkpt>
      <trkpt lat="62.5016" lon="6.51908">
        <ele>83.96877</ele>
        <time>2020-07-31T11:16:29.160Z</time>
      </trkpt>
      <trkpt lat="62.50161" lon="6.5193">
        <ele>84.063776</ele>
        <time>2020-07-31T11:16:33.125Z</time>
      </trkpt>
      <trkpt lat="62.50161" lon="6.51951">
        <ele>84.156855</ele>
        <time>2020-07-31T11:16:37.133Z</time>
      </trkpt>
      <trkpt lat="62.50162" lon="6.51972">
        <ele>84.249251</ele>
        <time>2020-07-31T11:16:42.131Z</time>
      </trkpt>
      <trkpt lat="62.50163" lon="6.51992">
        <ele>84.339126</ele>
        <time>2020-07-31T11:16:47.098Z</time>
      </trkpt>
      <trkpt lat="62.50163" lon="6.52013">
        <ele>84.366172</ele>
        <time>2020-07-31T11:16:52.114Z</time>
      </trkpt>
      <trkpt lat="62.50163" lon="6.52034">
        <ele>84.352077</ele>
        <time>2020-07-31T11:16:56.120Z</time>
      </trkpt>
      <trkpt lat="62.50164" lon="6.52056">
        <ele>84.337197</ele>
        <time>2020-07-31T11:17:00.113Z</time>
      </trkpt>
      <trkpt lat="62.50164" lon="6.5208">
        <ele>84.320702</ele>
        <time>2020-07-31T11:17:04.141Z</time>
      </trkpt>
      <trkpt lat="62.50164" lon="6.521">
        <ele>84.306884</ele>
        <time>2020-07-31T11:17:07.103Z</time>
      </trkpt>
      <trkpt lat="62.50166" lon="6.52122">
        <ele>84.291897</ele>
        <time>2020-07-31T11:17:10.131Z</time>
      </trkpt>
      <trkpt lat="62.50167" lon="6.52144">
        <ele>84.276723</ele>
        <time>2020-07-31T11:17:13.121Z</time>
      </trkpt>
      <trkpt lat="62.50168" lon="6.52165">
        <ele>84.262179</ele>
        <time>2020-07-31T11:17:16.104Z</time>
      </trkpt>
      <trkpt lat="62.50168" lon="6.52191">
        <ele>84.244878</ele>
        <time>2020-07-31T11:17:20.143Z</time>
      </trkpt>
      <trkpt lat="62.50167" lon="6.5221">
        <ele>84.23148</ele>
        <time>2020-07-31T11:17:23.122Z</time>
      </trkpt>
      <trkpt lat="62.50165" lon="6.52231">
        <ele>84.217014</ele>
        <time>2020-07-31T11:17:26.156Z</time>
      </trkpt>
      <trkpt lat="62.50162" lon="6.52253">
        <ele>84.201308</ele>
        <time>2020-07-31T11:17:29.117Z</time>
      </trkpt>
      <trkpt lat="62.50159" lon="6.52278">
        <ele>84.183865</ele>
        <time>2020-07-31T11:17:32.104Z</time>
      </trkpt>
      <trkpt lat="62.50157" lon="6.52297">
        <ele>84.170111</ele>
        <time>2020-07-31T11:17:34.105Z</time>
      </trkpt>
      <trkpt lat="62.50156" lon="6.52323">
        <ele>84.152997</ele>
        <time>2020-07-31T11:17:36.112Z</time>
      </trkpt>
      <trkpt lat="62.50156" lon="6.52353">
        <ele>84.132569</ele>
        <time>2020-07-31T11:17:38.146Z</time>
      </trkpt>
      <trkpt lat="62.50157" lon="6.52386">
        <ele>84.110097</ele>
        <time>2020-07-31T11:17:40.144Z</time>
      </trkpt>
      <trkpt lat="62.50156" lon="6.52419">
        <ele>83.924799</ele>
        <time>2020-07-31T11:17:42.124Z</time>
      </trkpt>
      <trkpt lat="62.50156" lon="6.52453">
        <ele>83.733659</ele>
        <time>2020-07-31T11:17:44.166Z</time>
      </trkpt>
      <trkpt lat="62.50156" lon="6.52488">
        <ele>83.536899</ele>
        <time>2020-07-31T11:17:46.117Z</time>
      </trkpt>
      <trkpt lat="62.50153" lon="6.52524">
        <ele>83.334029</ele>
        <time>2020-07-31T11:17:48.109Z</time>
      </trkpt>
      <trkpt lat="62.50145" lon="6.52557">
        <ele>83.123943</ele>
        <time>2020-07-31T11:17:50.154Z</time>
      </trkpt>
      <trkpt lat="62.50138" lon="6.52571">
        <ele>83.010988</ele>
        <time>2020-07-31T11:17:51.164Z</time>
      </trkpt>
      <trkpt lat="62.50131" lon="6.52582">
        <ele>82.897434</ele>
        <time>2020-07-31T11:17:52.155Z</time>
      </trkpt>
      <trkpt lat="62.50116" lon="6.526">
        <ele>82.699303</ele>
        <time>2020-07-31T11:17:54.129Z</time>
      </trkpt>
      <trkpt lat="62.50107" lon="6.52617">
        <ele>82.551675</ele>
        <time>2020-07-31T11:17:56.139Z</time>
      </trkpt>
      <trkpt lat="62.50102" lon="6.52638">
        <ele>82.41397</ele>
        <time>2020-07-31T11:17:59.135Z</time>
      </trkpt>
      <trkpt lat="62.50096" lon="6.52658">
        <ele>82.283578</ele>
        <time>2020-07-31T11:18:04.110Z</time>
      </trkpt>
      <trkpt lat="62.5009" lon="6.52673">
        <ele>82.173689</ele>
        <time>2020-07-31T11:18:08.109Z</time>
      </trkpt>
      <trkpt lat="62.50084" lon="6.52691">
        <ele>82.049142</ele>
        <time>2020-07-31T11:18:12.138Z</time>
      </trkpt>
      <trkpt lat="62.5008" lon="6.52712">
        <ele>81.929648</ele>
        <time>2020-07-31T11:18:16.112Z</time>
      </trkpt>
      <trkpt lat="62.50076" lon="6.52733">
        <ele>82.623723</ele>
        <time>2020-07-31T11:18:20.102Z</time>
      </trkpt>
      <trkpt lat="62.50071" lon="6.5275">
        <ele>83.250977</ele>
        <time>2020-07-31T11:18:24.120Z</time>
      </trkpt>
      <trkpt lat="62.50062" lon="6.52768">
        <ele>84.071736</ele>
        <time>2020-07-31T11:21:54.105Z</time>
      </trkpt>
      <trkpt lat="62.50053" lon="6.52776">
        <ele>84.724837</ele>
        <time>2020-07-31T11:22:00.155Z</time>
      </trkpt>
      <trkpt lat="62.50046" lon="6.52789">
        <ele>85.331417</ele>
        <time>2020-07-31T11:22:06.141Z</time>
      </trkpt>
      <trkpt lat="62.50039" lon="6.52803">
        <ele>85.947835</ele>
        <time>2020-07-31T11:22:12.168Z</time>
      </trkpt>
      <trkpt lat="62.50033" lon="6.5282">
        <ele>86.588067</ele>
        <time>2020-07-31T11:22:18.130Z</time>
      </trkpt>
      <trkpt lat="62.50028" lon="6.52836">
        <ele>87.216884</ele>
        <time>2020-07-31T11:22:24.088Z</time>
      </trkpt>
      <trkpt lat="62.50022" lon="6.52853">
        <ele>87.867585</ele>
        <time>2020-07-31T11:22:30.111Z</time>
      </trkpt>
      <trkpt lat="62.50016" lon="6.52871">
        <ele>88.553227</ele>
        <time>2020-07-31T11:22:36.129Z</time>
      </trkpt>
      <trkpt lat="62.5001" lon="6.52889">
        <ele>89.229194</ele>
        <time>2020-07-31T11:22:43.115Z</time>
      </trkpt>
      <trkpt lat="62.50003" lon="6.52902">
        <ele>89.84019</ele>
        <time>2020-07-31T11:22:50.123Z</time>
      </trkpt>
      <trkpt lat="62.49997" lon="6.52917">
        <ele>90.469816</ele>
        <time>2020-07-31T11:22:57.142Z</time>
      </trkpt>
      <trkpt lat="62.49989" lon="6.52928">
        <ele>91.091269</ele>
        <time>2020-07-31T11:23:01.112Z</time>
      </trkpt>
      <trkpt lat="62.49979" lon="6.52942">
        <ele>91.891898</ele>
        <time>2020-07-31T11:23:04.110Z</time>
      </trkpt>
      <trkpt lat="62.49972" lon="6.52962">
        <ele>92.676666</ele>
        <time>2020-07-31T11:23:06.112Z</time>
      </trkpt>
      <trkpt lat="62.49965" lon="6.52989">
        <ele>93.618496</ele>
        <time>2020-07-31T11:23:08.114Z</time>
      </trkpt>
      <trkpt lat="62.49959" lon="6.53018">
        <ele>93.466167</ele>
        <time>2020-07-31T11:23:10.113Z</time>
      </trkpt>
      <trkpt lat="62.49951" lon="6.53048">
        <ele>92.770658</ele>
        <time>2020-07-31T11:23:12.117Z</time>
      </trkpt>
      <trkpt lat="62.49943" lon="6.53079">
        <ele>92.017469</ele>
        <time>2020-07-31T11:23:14.100Z</time>
      </trkpt>
      <trkpt lat="62.49933" lon="6.53109">
        <ele>91.261653</ele>
        <time>2020-07-31T11:23:16.158Z</time>
      </trkpt>
      <trkpt lat="62.49922" lon="6.53134">
        <ele>90.536724</ele>
        <time>2020-07-31T11:23:18.137Z</time>
      </trkpt>
      <trkpt lat="62.4991" lon="6.53157">
        <ele>89.842647</ele>
        <time>2020-07-31T11:23:20.128Z</time>
      </trkpt>
      <trkpt lat="62.49898" lon="6.53175">
        <ele>89.18781</ele>
        <time>2020-07-31T11:23:22.133Z</time>
      </trkpt>
      <trkpt lat="62.49887" lon="6.53193">
        <ele>88.542604</ele>
        <time>2020-07-31T11:23:24.144Z</time>
      </trkpt>
      <trkpt lat="62.49875" lon="6.5321">
        <ele>87.916692</ele>
        <time>2020-07-31T11:23:26.102Z</time>
      </trkpt>
      <trkpt lat="62.49864" lon="6.53225">
        <ele>87.352506</ele>
        <time>2020-07-31T11:23:28.134Z</time>
      </trkpt>
      <trkpt lat="62.49855" lon="6.53237">
        <ele>86.85815</ele>
        <time>2020-07-31T11:23:30.135Z</time>
      </trkpt>
      <trkpt lat="62.49846" lon="6.53247">
        <ele>86.421708</ele>
        <time>2020-07-31T11:23:32.133Z</time>
      </trkpt>
      <trkpt lat="62.49838" lon="6.53257">
        <ele>86.001272</ele>
        <time>2020-07-31T11:23:34.143Z</time>
      </trkpt>
      <trkpt lat="62.4983" lon="6.53266">
        <ele>85.784991</ele>
        <time>2020-07-31T11:23:36.090Z</time>
      </trkpt>
      <trkpt lat="62.49821" lon="6.53278">
        <ele>85.627852</ele>
        <time>2020-07-31T11:23:38.118Z</time>
      </trkpt>
      <trkpt lat="62.49811" lon="6.53291">
        <ele>85.459939</ele>
        <time>2020-07-31T11:23:40.133Z</time>
      </trkpt>
      <trkpt lat="62.49802" lon="6.53311">
        <ele>85.278759</ele>
        <time>2020-07-31T11:23:42.177Z</time>
      </trkpt>
      <trkpt lat="62.49793" lon="6.53337">
        <ele>85.063726</ele>
        <time>2020-07-31T11:23:44.112Z</time>
      </trkpt>
      <trkpt lat="62.49783" lon="6.5336">
        <ele>84.852411</ele>
        <time>2020-07-31T11:23:46.086Z</time>
      </trkpt>
      <trkpt lat="62.49773" lon="6.53384">
        <ele>84.639619</ele>
        <time>2020-07-31T11:23:48.129Z</time>
      </trkpt>
      <trkpt lat="62.49764" lon="6.53408">
        <ele>84.434923</ele>
        <time>2020-07-31T11:23:50.121Z</time>
      </trkpt>
      <trkpt lat="62.49756" lon="6.5343">
        <ele>84.249313</ele>
        <time>2020-07-31T11:23:52.113Z</time>
      </trkpt>
      <trkpt lat="62.4975" lon="6.53453">
        <ele>84.072472</ele>
        <time>2020-07-31T11:23:54.112Z</time>
      </trkpt>
      <trkpt lat="62.49745" lon="6.53477">
        <ele>83.899733</ele>
        <time>2020-07-31T11:23:56.121Z</time>
      </trkpt>
      <trkpt lat="62.4974" lon="6.53499">
        <ele>83.736624</ele>
        <time>2020-07-31T11:23:58.130Z</time>
      </trkpt>
      <trkpt lat="62.49735" lon="6.53519">
        <ele>83.586755</ele>
        <time>2020-07-31T11:24:00.105Z</time>
      </trkpt>
      <trkpt lat="62.49731" lon="6.53538">
        <ele>83.445325</ele>
        <time>2020-07-31T11:24:02.095Z</time>
      </trkpt>
      <trkpt lat="62.49727" lon="6.53556">
        <ele>83.315345</ele>
        <time>2020-07-31T11:24:04.103Z</time>
      </trkpt>
      <trkpt lat="62.49721" lon="6.53582">
        <ele>83.27079</ele>
        <time>2020-07-31T11:24:07.092Z</time>
      </trkpt>
      <trkpt lat="62.49718" lon="6.53601">
        <ele>83.254152</ele>
        <time>2020-07-31T11:24:09.146Z</time>
      </trkpt>
      <trkpt lat="62.49714" lon="6.53619">
        <ele>83.237438</ele>
        <time>2020-07-31T11:24:11.101Z</time>
      </trkpt>
      <trkpt lat="62.49709" lon="6.53636">
        <ele>83.220943</ele>
        <time>2020-07-31T11:24:13.123Z</time>
      </trkpt>
      <trkpt lat="62.49705" lon="6.53654">
        <ele>83.204492</ele>
        <time>2020-07-31T11:24:15.114Z</time>
      </trkpt>
      <trkpt lat="62.49701" lon="6.53671">
        <ele>83.188071</ele>
        <time>2020-07-31T11:24:17.130Z</time>
      </trkpt>
      <trkpt lat="62.49697" lon="6.5369">
        <ele>83.170745</ele>
        <time>2020-07-31T11:24:19.095Z</time>
      </trkpt>
      <trkpt lat="62.49693" lon="6.53709">
        <ele>83.153783</ele>
        <time>2020-07-31T11:24:21.105Z</time>
      </trkpt>
      <trkpt lat="62.49689" lon="6.53728">
        <ele>83.136237</ele>
        <time>2020-07-31T11:24:23.115Z</time>
      </trkpt>
      <trkpt lat="62.49685" lon="6.53748">
        <ele>83.118004</ele>
        <time>2020-07-31T11:24:25.129Z</time>
      </trkpt>
      <trkpt lat="62.4968" lon="6.53767">
        <ele>83.099439</ele>
        <time>2020-07-31T11:24:27.114Z</time>
      </trkpt>
      <trkpt lat="62.49674" lon="6.53786">
        <ele>83.080355</ele>
        <time>2020-07-31T11:24:29.107Z</time>
      </trkpt>
      <trkpt lat="62.49669" lon="6.53806">
        <ele>83.061393</ele>
        <time>2020-07-31T11:24:31.129Z</time>
      </trkpt>
      <trkpt lat="62.49663" lon="6.53826">
        <ele>83.042028</ele>
        <time>2020-07-31T11:24:33.109Z</time>
      </trkpt>
      <trkpt lat="62.49657" lon="6.53846">
        <ele>83.022167</ele>
        <time>2020-07-31T11:24:35.152Z</time>
      </trkpt>
      <trkpt lat="62.49651" lon="6.53865">
        <ele>83.003363</ele>
        <time>2020-07-31T11:24:37.138Z</time>
      </trkpt>
      <trkpt lat="62.49646" lon="6.53882">
        <ele>82.986406</ele>
        <time>2020-07-31T11:24:39.116Z</time>
      </trkpt>
      <trkpt lat="62.49639" lon="6.53905">
        <ele>83.186198</ele>
        <time>2020-07-31T11:24:42.125Z</time>
      </trkpt>
      <trkpt lat="62.49632" lon="6.53925">
        <ele>84.235139</ele>
        <time>2020-07-31T11:24:45.093Z</time>
      </trkpt>
      <trkpt lat="62.49626" lon="6.53945">
        <ele>85.232332</ele>
        <time>2020-07-31T11:24:48.101Z</time>
      </trkpt>
      <trkpt lat="62.4962" lon="6.53961">
        <ele>86.147353</ele>
        <time>2020-07-31T11:24:51.104Z</time>
      </trkpt>
      <trkpt lat="62.49614" lon="6.5398">
        <ele>87.068425</ele>
        <time>2020-07-31T11:24:55.133Z</time>
      </trkpt>
      <trkpt lat="62.49607" lon="6.53997">
        <ele>88.006088</ele>
        <time>2020-07-31T11:25:02.145Z</time>
      </trkpt>
      <trkpt lat="62.49601" lon="6.54012">
        <ele>88.843088</ele>
        <time>2020-07-31T11:25:10.132Z</time>
      </trkpt>
      <trkpt lat="62.49595" lon="6.54026">
        <ele>89.683687</ele>
        <time>2020-07-31T11:25:17.134Z</time>
      </trkpt>
      <trkpt lat="62.49588" lon="6.54041">
        <ele>90.585588</ele>
        <time>2020-07-31T11:25:25.100Z</time>
      </trkpt>
      <trkpt lat="62.49582" lon="6.54056">
        <ele>91.40714</ele>
        <time>2020-07-31T11:25:31.117Z</time>
      </trkpt>
      <trkpt lat="62.49573" lon="6.54067">
        <ele>92.3373</ele>
        <time>2020-07-31T11:25:38.125Z</time>
      </trkpt>
      <trkpt lat="62.49566" lon="6.5408">
        <ele>93.213854</ele>
        <time>2020-07-31T11:25:44.118Z</time>
      </trkpt>
      <trkpt lat="62.49559" lon="6.54097">
        <ele>94.135314</ele>
        <time>2020-07-31T11:25:49.128Z</time>
      </trkpt>
      <trkpt lat="62.49554" lon="6.54117">
        <ele>95.078799</ele>
        <time>2020-07-31T11:25:52.125Z</time>
      </trkpt>
      <trkpt lat="62.4955" lon="6.54138">
        <ele>96.067419</ele>
        <time>2020-07-31T11:25:54.126Z</time>
      </trkpt>
      <trkpt lat="62.49544" lon="6.54165">
        <ele>97.292689</ele>
        <time>2020-07-31T11:25:56.097Z</time>
      </trkpt>
      <trkpt lat="62.49539" lon="6.54194">
        <ele>98.620985</ele>
        <time>2020-07-31T11:25:58.104Z</time>
      </trkpt>
      <trkpt lat="62.49535" lon="6.54227">
        <ele>99.111428</ele>
        <time>2020-07-31T11:26:00.109Z</time>
      </trkpt>
      <trkpt lat="62.49532" lon="6.54265">
        <ele>98.593559</ele>
        <time>2020-07-31T11:26:02.101Z</time>
      </trkpt>
      <trkpt lat="62.49529" lon="6.54303">
        <ele>98.064332</ele>
        <time>2020-07-31T11:26:04.122Z</time>
      </trkpt>
      <trkpt lat="62.49527" lon="6.54322">
        <ele>97.7951</ele>
        <time>2020-07-31T11:26:05.105Z</time>
      </trkpt>
      <trkpt lat="62.49523" lon="6.54359">
        <ele>97.276531</ele>
        <time>2020-07-31T11:26:07.106Z</time>
      </trkpt>
      <trkpt lat="62.49518" lon="6.54393">
        <ele>96.791298</ele>
        <time>2020-07-31T11:26:09.133Z</time>
      </trkpt>
      <trkpt lat="62.49513" lon="6.54424">
        <ele>96.347108</ele>
        <time>2020-07-31T11:26:11.124Z</time>
      </trkpt>
      <trkpt lat="62.49508" lon="6.54453">
        <ele>95.928972</ele>
        <time>2020-07-31T11:26:13.094Z</time>
      </trkpt>
      <trkpt lat="62.49506" lon="6.5448">
        <ele>95.544108</ele>
        <time>2020-07-31T11:26:15.170Z</time>
      </trkpt>
      <trkpt lat="62.49507" lon="6.54509">
        <ele>95.148123</ele>
        <time>2020-07-31T11:26:17.114Z</time>
      </trkpt>
      <trkpt lat="62.49506" lon="6.54536">
        <ele>94.777585</ele>
        <time>2020-07-31T11:26:19.123Z</time>
      </trkpt>
      <trkpt lat="62.49504" lon="6.54561">
        <ele>94.43359</ele>
        <time>2020-07-31T11:26:21.105Z</time>
      </trkpt>
      <trkpt lat="62.49502" lon="6.54585">
        <ele>94.113427</ele>
        <time>2020-07-31T11:26:23.160Z</time>
      </trkpt>
      <trkpt lat="62.49501" lon="6.54606">
        <ele>93.712332</ele>
        <time>2020-07-31T11:26:25.101Z</time>
      </trkpt>
      <trkpt lat="62.49497" lon="6.54626">
        <ele>93.260739</ele>
        <time>2020-07-31T11:26:27.165Z</time>
      </trkpt>
      <trkpt lat="62.49494" lon="6.54647">
        <ele>92.804607</ele>
        <time>2020-07-31T11:26:29.117Z</time>
      </trkpt>
      <trkpt lat="62.49491" lon="6.54668">
        <ele>92.329182</ele>
        <time>2020-07-31T11:26:31.122Z</time>
      </trkpt>
      <trkpt lat="62.49487" lon="6.5469">
        <ele>91.833514</ele>
        <time>2020-07-31T11:26:33.102Z</time>
      </trkpt>
      <trkpt lat="62.49485" lon="6.54713">
        <ele>91.339217</ele>
        <time>2020-07-31T11:26:35.113Z</time>
      </trkpt>
      <trkpt lat="62.49483" lon="6.54736">
        <ele>90.860116</ele>
        <time>2020-07-31T11:26:37.149Z</time>
      </trkpt>
      <trkpt lat="62.49482" lon="6.54758">
        <ele>90.3871</ele>
        <time>2020-07-31T11:26:39.111Z</time>
      </trkpt>
      <trkpt lat="62.49481" lon="6.54781">
        <ele>89.898693</ele>
        <time>2020-07-31T11:26:41.103Z</time>
      </trkpt>
      <trkpt lat="62.4948" lon="6.54805">
        <ele>89.41206</ele>
        <time>2020-07-31T11:26:43.120Z</time>
      </trkpt>
      <trkpt lat="62.4948" lon="6.54827">
        <ele>88.938256</ele>
        <time>2020-07-31T11:26:45.113Z</time>
      </trkpt>
      <trkpt lat="62.4948" lon="6.54849">
        <ele>88.472923</ele>
        <time>2020-07-31T11:26:47.165Z</time>
      </trkpt>
      <trkpt lat="62.4948" lon="6.54871">
        <ele>88.015952</ele>
        <time>2020-07-31T11:26:49.094Z</time>
      </trkpt>
      <trkpt lat="62.4948" lon="6.54894">
        <ele>87.538043</ele>
        <time>2020-07-31T11:26:51.119Z</time>
      </trkpt>
      <trkpt lat="62.4948" lon="6.54917">
        <ele>87.060112</ele>
        <time>2020-07-31T11:26:53.109Z</time>
      </trkpt>
      <trkpt lat="62.4948" lon="6.5494">
        <ele>86.575723</ele>
        <time>2020-07-31T11:26:55.103Z</time>
      </trkpt>
      <trkpt lat="62.49482" lon="6.54963">
        <ele>86.086873</ele>
        <time>2020-07-31T11:26:57.132Z</time>
      </trkpt>
      <trkpt lat="62.49483" lon="6.54984">
        <ele>85.775485</ele>
        <time>2020-07-31T11:26:59.153Z</time>
      </trkpt>
      <trkpt lat="62.49485" lon="6.55006">
        <ele>85.595697</ele>
        <time>2020-07-31T11:27:01.153Z</time>
      </trkpt>
      <trkpt lat="62.49487" lon="6.55029">
        <ele>85.408824</ele>
        <time>2020-07-31T11:27:03.102Z</time>
      </trkpt>
      <trkpt lat="62.49489" lon="6.55053">
        <ele>85.216898</ele>
        <time>2020-07-31T11:27:05.181Z</time>
      </trkpt>
      <trkpt lat="62.49492" lon="6.55076">
        <ele>85.028204</ele>
        <time>2020-07-31T11:27:07.116Z</time>
      </trkpt>
      <trkpt lat="62.49493" lon="6.55099">
        <ele>84.8372</ele>
        <time>2020-07-31T11:27:09.109Z</time>
      </trkpt>
      <trkpt lat="62.49496" lon="6.55122">
        <ele>84.648131</ele>
        <time>2020-07-31T11:27:11.130Z</time>
      </trkpt>
      <trkpt lat="62.49499" lon="6.55145">
        <ele>84.454718</ele>
        <time>2020-07-31T11:27:13.127Z</time>
      </trkpt>
      <trkpt lat="62.49504" lon="6.5517">
        <ele>84.244049</ele>
        <time>2020-07-31T11:27:15.108Z</time>
      </trkpt>
      <trkpt lat="62.49508" lon="6.55196">
        <ele>84.018552</ele>
        <time>2020-07-31T11:27:17.125Z</time>
      </trkpt>
      <trkpt lat="62.49514" lon="6.55225">
        <ele>83.769734</ele>
        <time>2020-07-31T11:27:19.130Z</time>
      </trkpt>
      <trkpt lat="62.49518" lon="6.55255">
        <ele>83.513525</ele>
        <time>2020-07-31T11:27:21.139Z</time>
      </trkpt>
      <trkpt lat="62.49522" lon="6.55286">
        <ele>83.260841</ele>
        <time>2020-07-31T11:27:23.099Z</time>
      </trkpt>
      <trkpt lat="62.49526" lon="6.55317">
        <ele>82.999972</ele>
        <time>2020-07-31T11:27:25.106Z</time>
      </trkpt>
      <trkpt lat="62.4953" lon="6.55347">
        <ele>82.750662</ele>
        <time>2020-07-31T11:27:27.114Z</time>
      </trkpt>
      <trkpt lat="62.49533" lon="6.55373">
        <ele>82.752865</ele>
        <time>2020-07-31T11:27:29.165Z</time>
      </trkpt>
      <trkpt lat="62.49536" lon="6.55396">
        <ele>82.763909</ele>
        <time>2020-07-31T11:27:31.121Z</time>
      </trkpt>
      <trkpt lat="62.4954" lon="6.55416">
        <ele>82.773252</ele>
        <time>2020-07-31T11:27:33.104Z</time>
      </trkpt>
      <trkpt lat="62.49544" lon="6.55433">
        <ele>82.781872</ele>
        <time>2020-07-31T11:27:35.142Z</time>
      </trkpt>
      <trkpt lat="62.4955" lon="6.55455">
        <ele>82.793299</ele>
        <time>2020-07-31T11:27:38.096Z</time>
      </trkpt>
      <trkpt lat="62.49555" lon="6.55478">
        <ele>82.804331</ele>
        <time>2020-07-31T11:27:41.111Z</time>
      </trkpt>
      <trkpt lat="62.4956" lon="6.55504">
        <ele>82.816559</ele>
        <time>2020-07-31T11:27:44.158Z</time>
      </trkpt>
      <trkpt lat="62.49563" lon="6.55522">
        <ele>82.825516</ele>
        <time>2020-07-31T11:27:46.113Z</time>
      </trkpt>
      <trkpt lat="62.49567" lon="6.55542">
        <ele>82.835145</ele>
        <time>2020-07-31T11:27:48.100Z</time>
      </trkpt>
      <trkpt lat="62.49573" lon="6.55566">
        <ele>82.846702</ele>
        <time>2020-07-31T11:27:50.113Z</time>
      </trkpt>
      <trkpt lat="62.49578" lon="6.55588">
        <ele>82.857619</ele>
        <time>2020-07-31T11:27:52.162Z</time>
      </trkpt>
      <trkpt lat="62.49583" lon="6.55612">
        <ele>82.869379</ele>
        <time>2020-07-31T11:27:54.107Z</time>
      </trkpt>
      <trkpt lat="62.49589" lon="6.55636">
        <ele>82.881339</ele>
        <time>2020-07-31T11:27:56.172Z</time>
      </trkpt>
      <trkpt lat="62.49594" lon="6.55659">
        <ele>82.892816</ele>
        <time>2020-07-31T11:27:58.098Z</time>
      </trkpt>
      <trkpt lat="62.49598" lon="6.5568">
        <ele>82.902578</ele>
        <time>2020-07-31T11:28:00.130Z</time>
      </trkpt>
      <trkpt lat="62.49603" lon="6.55705">
        <ele>82.886702</ele>
        <time>2020-07-31T11:28:03.130Z</time>
      </trkpt>
      <trkpt lat="62.49607" lon="6.55727">
        <ele>82.62133</ele>
        <time>2020-07-31T11:28:06.098Z</time>
      </trkpt>
      <trkpt lat="62.49612" lon="6.55747">
        <ele>82.374499</ele>
        <time>2020-07-31T11:28:09.137Z</time>
      </trkpt>
      <trkpt lat="62.49617" lon="6.55772">
        <ele>82.067316</ele>
        <time>2020-07-31T11:28:12.150Z</time>
      </trkpt>
      <trkpt lat="62.49621" lon="6.55794">
        <ele>81.802107</ele>
        <time>2020-07-31T11:28:14.127Z</time>
      </trkpt>
      <trkpt lat="62.49624" lon="6.5582">
        <ele>81.499945</ele>
        <time>2020-07-31T11:28:16.098Z</time>
      </trkpt>
      <trkpt lat="62.49625" lon="6.55851">
        <ele>81.150136</ele>
        <time>2020-07-31T11:28:18.157Z</time>
      </trkpt>
      <trkpt lat="62.49624" lon="6.55885">
        <ele>80.764669</ele>
        <time>2020-07-31T11:28:20.117Z</time>
      </trkpt>
      <trkpt lat="62.49624" lon="6.55922">
        <ele>80.355552</ele>
        <time>2020-07-31T11:28:22.104Z</time>
      </trkpt>
      <trkpt lat="62.49623" lon="6.55957">
        <ele>79.953289</ele>
        <time>2020-07-31T11:28:24.124Z</time>
      </trkpt>
      <trkpt lat="62.49626" lon="6.55995">
        <ele>79.52874</ele>
        <time>2020-07-31T11:28:26.143Z</time>
      </trkpt>
      <trkpt lat="62.49631" lon="6.56032">
        <ele>79.09209</ele>
        <time>2020-07-31T11:28:28.123Z</time>
      </trkpt>
      <trkpt lat="62.49635" lon="6.5605">
        <ele>78.871719</ele>
        <time>2020-07-31T11:28:29.118Z</time>
      </trkpt>
      <trkpt lat="62.49639" lon="6.56068">
        <ele>78.648251</ele>
        <time>2020-07-31T11:28:30.134Z</time>
      </trkpt>
      <trkpt lat="62.49647" lon="6.56101">
        <ele>78.746066</ele>
        <time>2020-07-31T11:28:32.135Z</time>
      </trkpt>
      <trkpt lat="62.49653" lon="6.56132">
        <ele>79.001338</ele>
        <time>2020-07-31T11:28:34.139Z</time>
      </trkpt>
      <trkpt lat="62.49658" lon="6.56159">
        <ele>79.223289</ele>
        <time>2020-07-31T11:28:36.113Z</time>
      </trkpt>
      <trkpt lat="62.49663" lon="6.56183">
        <ele>79.417033</ele>
        <time>2020-07-31T11:28:38.116Z</time>
      </trkpt>
      <trkpt lat="62.49667" lon="6.56202">
        <ele>79.57486</ele>
        <time>2020-07-31T11:28:40.130Z</time>
      </trkpt>
      <trkpt lat="62.49671" lon="6.56223">
        <ele>79.751928</ele>
        <time>2020-07-31T11:28:43.115Z</time>
      </trkpt>
      <trkpt lat="62.49675" lon="6.56243">
        <ele>79.917299</ele>
        <time>2020-07-31T11:28:47.134Z</time>
      </trkpt>
      <trkpt lat="62.49678" lon="6.56265">
        <ele>80.090658</ele>
        <time>2020-07-31T11:28:51.162Z</time>
      </trkpt>
      <trkpt lat="62.49679" lon="6.56287">
        <ele>80.256027</ele>
        <time>2020-07-31T11:28:54.096Z</time>
      </trkpt>
      <trkpt lat="62.4968" lon="6.5631">
        <ele>80.428699</ele>
        <time>2020-07-31T11:28:57.113Z</time>
      </trkpt>
      <trkpt lat="62.49681" lon="6.56335">
        <ele>80.618086</ele>
        <time>2020-07-31T11:29:00.138Z</time>
      </trkpt>
      <trkpt lat="62.4968" lon="6.56362">
        <ele>80.824063</ele>
        <time>2020-07-31T11:29:03.124Z</time>
      </trkpt>
      <trkpt lat="62.49679" lon="6.56388">
        <ele>81.022999</ele>
        <time>2020-07-31T11:29:06.116Z</time>
      </trkpt>
      <trkpt lat="62.49676" lon="6.56417">
        <ele>81.249322</ele>
        <time>2020-07-31T11:29:09.097Z</time>
      </trkpt>
      <trkpt lat="62.49676" lon="6.56443">
        <ele>81.44153</ele>
        <time>2020-07-31T11:29:11.133Z</time>
      </trkpt>
      <trkpt lat="62.49676" lon="6.56473">
        <ele>80.394996</ele>
        <time>2020-07-31T11:29:13.114Z</time>
      </trkpt>
      <trkpt lat="62.49677" lon="6.5651">
        <ele>78.814497</ele>
        <time>2020-07-31T11:29:15.121Z</time>
      </trkpt>
      <trkpt lat="62.49677" lon="6.56531">
        <ele>77.924721</ele>
        <time>2020-07-31T11:29:16.157Z</time>
      </trkpt>
      <trkpt lat="62.49677" lon="6.56552">
        <ele>77.005057</ele>
        <time>2020-07-31T11:29:17.161Z</time>
      </trkpt>
      <trkpt lat="62.49677" lon="6.56575">
        <ele>76.033779</ele>
        <time>2020-07-31T11:29:18.141Z</time>
      </trkpt>
      <trkpt lat="62.49677" lon="6.56598">
        <ele>75.018887</ele>
        <time>2020-07-31T11:29:19.112Z</time>
      </trkpt>
      <trkpt lat="62.49674" lon="6.56619">
        <ele>74.082425</ele>
        <time>2020-07-31T11:29:20.125Z</time>
      </trkpt>
      <trkpt lat="62.49672" lon="6.56646">
        <ele>72.908323</ele>
        <time>2020-07-31T11:29:21.104Z</time>
      </trkpt>
      <trkpt lat="62.4967" lon="6.56674">
        <ele>71.70198</ele>
        <time>2020-07-31T11:29:22.133Z</time>
      </trkpt>
      <trkpt lat="62.49668" lon="6.56702">
        <ele>70.467954</ele>
        <time>2020-07-31T11:29:23.105Z</time>
      </trkpt>
      <trkpt lat="62.49665" lon="6.56731">
        <ele>69.199175</ele>
        <time>2020-07-31T11:29:24.128Z</time>
      </trkpt>
      <trkpt lat="62.49661" lon="6.5676">
        <ele>67.906879</ele>
        <time>2020-07-31T11:29:25.162Z</time>
      </trkpt>
      <trkpt lat="62.49657" lon="6.5679">
        <ele>66.554162</ele>
        <time>2020-07-31T11:29:26.123Z</time>
      </trkpt>
      <trkpt lat="62.49651" lon="6.56819">
        <ele>65.206393</ele>
        <time>2020-07-31T11:29:27.111Z</time>
      </trkpt>
      <trkpt lat="62.49645" lon="6.5685">
        <ele>64.036215</ele>
        <time>2020-07-31T11:29:28.168Z</time>
      </trkpt>
      <trkpt lat="62.49638" lon="6.56881">
        <ele>63.004432</ele>
        <time>2020-07-31T11:29:29.099Z</time>
      </trkpt>
      <trkpt lat="62.49631" lon="6.56912">
        <ele>61.975296</ele>
        <time>2020-07-31T11:29:30.110Z</time>
      </trkpt>
      <trkpt lat="62.49626" lon="6.56939">
        <ele>61.04562</ele>
        <time>2020-07-31T11:29:31.127Z</time>
      </trkpt>
      <trkpt lat="62.49624" lon="6.56958">
        <ele>60.451927</ele>
        <time>2020-07-31T11:29:32.137Z</time>
      </trkpt>
      <trkpt lat="62.49622" lon="6.56988">
        <ele>59.556774</ele>
        <time>2020-07-31T11:29:33.119Z</time>
      </trkpt>
      <trkpt lat="62.49622" lon="6.57017">
        <ele>58.675469</ele>
        <time>2020-07-31T11:29:34.101Z</time>
      </trkpt>
      <trkpt lat="62.49626" lon="6.57042">
        <ele>57.840289</ele>
        <time>2020-07-31T11:29:36.122Z</time>
      </trkpt>
      <trkpt lat="62.49628" lon="6.57092">
        <ele>56.330417</ele>
        <time>2020-07-31T11:29:37.145Z</time>
      </trkpt>
      <trkpt lat="62.49632" lon="6.57113">
        <ele>55.639817</ele>
        <time>2020-07-31T11:29:38.125Z</time>
      </trkpt>
      <trkpt lat="62.49637" lon="6.57143">
        <ele>54.668424</ele>
        <time>2020-07-31T11:29:39.131Z</time>
      </trkpt>
      <trkpt lat="62.49642" lon="6.57165">
        <ele>53.948282</ele>
        <time>2020-07-31T11:29:40.102Z</time>
      </trkpt>
      <trkpt lat="62.49643" lon="6.57211">
        <ele>52.761647</ele>
        <time>2020-07-31T11:29:44.179Z</time>
      </trkpt>
      <trkpt lat="62.49644" lon="6.5723">
        <ele>52.523893</ele>
        <time>2020-07-31T11:29:45.115Z</time>
      </trkpt>
      <trkpt lat="62.49646" lon="6.57258">
        <ele>52.176758</ele>
        <time>2020-07-31T11:29:46.096Z</time>
      </trkpt>
      <trkpt lat="62.49648" lon="6.57288">
        <ele>51.811279</ele>
        <time>2020-07-31T11:29:47.146Z</time>
      </trkpt>
      <trkpt lat="62.49649" lon="6.57313">
        <ele>51.510264</ele>
        <time>2020-07-31T11:29:48.169Z</time>
      </trkpt>
      <trkpt lat="62.4965" lon="6.57336">
        <ele>51.222367</ele>
        <time>2020-07-31T11:29:49.118Z</time>
      </trkpt>
      <trkpt lat="62.49655" lon="6.57361">
        <ele>50.899204</ele>
        <time>2020-07-31T11:29:51.111Z</time>
      </trkpt>
      <trkpt lat="62.49658" lon="6.57382">
        <ele>50.633979</ele>
        <time>2020-07-31T11:29:52.104Z</time>
      </trkpt>
      <trkpt lat="62.49661" lon="6.57401">
        <ele>50.382499</ele>
        <time>2020-07-31T11:29:53.178Z</time>
      </trkpt>
      <trkpt lat="62.49665" lon="6.5742">
        <ele>50.135351</ele>
        <time>2020-07-31T11:29:54.156Z</time>
      </trkpt>
      <trkpt lat="62.4967" lon="6.57453">
        <ele>49.705415</ele>
        <time>2020-07-31T11:29:56.167Z</time>
      </trkpt>
      <trkpt lat="62.49674" lon="6.57479">
        <ele>49.376358</ele>
        <time>2020-07-31T11:29:58.113Z</time>
      </trkpt>
      <trkpt lat="62.49677" lon="6.57502">
        <ele>49.089584</ele>
        <time>2020-07-31T11:30:00.122Z</time>
      </trkpt>
      <trkpt lat="62.4968" lon="6.57524">
        <ele>48.80205</ele>
        <time>2020-07-31T11:30:02.116Z</time>
      </trkpt>
      <trkpt lat="62.49683" lon="6.57544">
        <ele>48.554423</ele>
        <time>2020-07-31T11:30:04.108Z</time>
      </trkpt>
      <trkpt lat="62.49686" lon="6.57564">
        <ele>48.297176</ele>
        <time>2020-07-31T11:30:06.146Z</time>
      </trkpt>
      <trkpt lat="62.49689" lon="6.57591">
        <ele>48.769823</ele>
        <time>2020-07-31T11:30:09.134Z</time>
      </trkpt>
      <trkpt lat="62.49691" lon="6.57613">
        <ele>49.549801</ele>
        <time>2020-07-31T11:30:11.117Z</time>
      </trkpt>
      <trkpt lat="62.49693" lon="6.57633">
        <ele>50.259213</ele>
        <time>2020-07-31T11:30:14.100Z</time>
      </trkpt>
      <trkpt lat="62.49696" lon="6.57654">
        <ele>50.996258</ele>
        <time>2020-07-31T11:30:17.139Z</time>
      </trkpt>
      <trkpt lat="62.49697" lon="6.57675">
        <ele>51.711862</ele>
        <time>2020-07-31T11:30:20.134Z</time>
      </trkpt>
      <trkpt lat="62.49699" lon="6.57696">
        <ele>52.453251</ele>
        <time>2020-07-31T11:30:23.160Z</time>
      </trkpt>
      <trkpt lat="62.49701" lon="6.5772">
        <ele>53.292056</ele>
        <time>2020-07-31T11:30:26.116Z</time>
      </trkpt>
      <trkpt lat="62.49703" lon="6.57739">
        <ele>53.962798</ele>
        <time>2020-07-31T11:30:29.093Z</time>
      </trkpt>
      <trkpt lat="62.49706" lon="6.57758">
        <ele>54.650753</ele>
        <time>2020-07-31T11:30:32.123Z</time>
      </trkpt>
      <trkpt lat="62.49708" lon="6.57782">
        <ele>55.482082</ele>
        <time>2020-07-31T11:30:36.144Z</time>
      </trkpt>
      <trkpt lat="62.49711" lon="6.57804">
        <ele>56.294764</ele>
        <time>2020-07-31T11:30:40.136Z</time>
      </trkpt>
      <trkpt lat="62.49714" lon="6.57823">
        <ele>56.99816</ele>
        <time>2020-07-31T11:30:43.102Z</time>
      </trkpt>
      <trkpt lat="62.49718" lon="6.57842">
        <ele>57.687193</ele>
        <time>2020-07-31T11:30:47.115Z</time>
      </trkpt>
      <trkpt lat="62.49722" lon="6.57864">
        <ele>58.499947</ele>
        <time>2020-07-31T11:30:52.154Z</time>
      </trkpt>
      <trkpt lat="62.49725" lon="6.57883">
        <ele>59.218</ele>
        <time>2020-07-31T11:30:57.109Z</time>
      </trkpt>
      <trkpt lat="62.49727" lon="6.57904">
        <ele>59.945901</ele>
        <time>2020-07-31T11:31:03.112Z</time>
      </trkpt>
      <trkpt lat="62.49731" lon="6.57928">
        <ele>60.824111</ele>
        <time>2020-07-31T11:31:09.118Z</time>
      </trkpt>
      <trkpt lat="62.49734" lon="6.57949">
        <ele>61.58117</ele>
        <time>2020-07-31T11:31:16.115Z</time>
      </trkpt>
      <trkpt lat="62.49737" lon="6.5797">
        <ele>61.934597</ele>
        <time>2020-07-31T11:31:22.130Z</time>
      </trkpt>
      <trkpt lat="62.4974" lon="6.5799">
        <ele>62.287423</ele>
        <time>2020-07-31T11:31:27.141Z</time>
      </trkpt>
      <trkpt lat="62.49742" lon="6.58011">
        <ele>62.637407</ele>
        <time>2020-07-31T11:31:33.176Z</time>
      </trkpt>
      <trkpt lat="62.49745" lon="6.58033">
        <ele>63.020714</ele>
        <time>2020-07-31T11:31:39.102Z</time>
      </trkpt>
      <trkpt lat="62.49747" lon="6.58055">
        <ele>63.381741</ele>
        <time>2020-07-31T11:31:44.149Z</time>
      </trkpt>
      <trkpt lat="62.49749" lon="6.58078">
        <ele>63.777549</ele>
        <time>2020-07-31T11:31:49.116Z</time>
      </trkpt>
      <trkpt lat="62.49751" lon="6.58099">
        <ele>64.125139</ele>
        <time>2020-07-31T11:31:53.101Z</time>
      </trkpt>
      <trkpt lat="62.49753" lon="6.58118">
        <ele>64.447943</ele>
        <time>2020-07-31T11:31:56.121Z</time>
      </trkpt>
      <trkpt lat="62.49755" lon="6.58142">
        <ele>64.849635</ele>
        <time>2020-07-31T11:31:59.101Z</time>
      </trkpt>
      <trkpt lat="62.49757" lon="6.5817">
        <ele>65.316583</ele>
        <time>2020-07-31T11:32:02.106Z</time>
      </trkpt>
      <trkpt lat="62.49757" lon="6.58193">
        <ele>65.700503</ele>
        <time>2020-07-31T11:32:04.132Z</time>
      </trkpt>
      <trkpt lat="62.49757" lon="6.58222">
        <ele>66.167459</ele>
        <time>2020-07-31T11:32:06.109Z</time>
      </trkpt>
      <trkpt lat="62.49759" lon="6.58252">
        <ele>66.67481</ele>
        <time>2020-07-31T11:32:08.122Z</time>
      </trkpt>
      <trkpt lat="62.4976" lon="6.58285">
        <ele>67.220219</ele>
        <time>2020-07-31T11:32:10.130Z</time>
      </trkpt>
      <trkpt lat="62.49761" lon="6.58321">
        <ele>67.803164</ele>
        <time>2020-07-31T11:32:12.152Z</time>
      </trkpt>
      <trkpt lat="62.49762" lon="6.58354">
        <ele>68.136406</ele>
        <time>2020-07-31T11:32:14.117Z</time>
      </trkpt>
      <trkpt lat="62.49763" lon="6.58391">
        <ele>68.37886</ele>
        <time>2020-07-31T11:32:16.141Z</time>
      </trkpt>
      <trkpt lat="62.49765" lon="6.58424">
        <ele>68.594594</ele>
        <time>2020-07-31T11:32:18.104Z</time>
      </trkpt>
      <trkpt lat="62.49769" lon="6.58459">
        <ele>68.827847</ele>
        <time>2020-07-31T11:32:20.092Z</time>
      </trkpt>
      <trkpt lat="62.49772" lon="6.58491">
        <ele>69.040153</ele>
        <time>2020-07-31T11:32:22.088Z</time>
      </trkpt>
      <trkpt lat="62.49776" lon="6.58515">
        <ele>69.205112</ele>
        <time>2020-07-31T11:32:24.114Z</time>
      </trkpt>
      <trkpt lat="62.49781" lon="6.58542">
        <ele>69.39615</ele>
        <time>2020-07-31T11:32:26.101Z</time>
      </trkpt>
      <trkpt lat="62.49786" lon="6.58565">
        <ele>69.556134</ele>
        <time>2020-07-31T11:32:28.100Z</time>
      </trkpt>
      <trkpt lat="62.4979" lon="6.58584">
        <ele>69.695804</ele>
        <time>2020-07-31T11:32:30.137Z</time>
      </trkpt>
      <trkpt lat="62.49796" lon="6.58607">
        <ele>69.864781</ele>
        <time>2020-07-31T11:32:33.189Z</time>
      </trkpt>
      <trkpt lat="62.498" lon="6.58626">
        <ele>70.007058</ele>
        <time>2020-07-31T11:32:36.130Z</time>
      </trkpt>
      <trkpt lat="62.49806" lon="6.58647">
        <ele>70.160945</ele>
        <time>2020-07-31T11:32:40.145Z</time>
      </trkpt>
      <trkpt lat="62.49811" lon="6.58668">
        <ele>70.317111</ele>
        <time>2020-07-31T11:32:44.120Z</time>
      </trkpt>
      <trkpt lat="62.49816" lon="6.58685">
        <ele>70.448703</ele>
        <time>2020-07-31T11:32:48.142Z</time>
      </trkpt>
      <trkpt lat="62.49821" lon="6.58704">
        <ele>70.632361</ele>
        <time>2020-07-31T11:32:54.117Z</time>
      </trkpt>
      <trkpt lat="62.49827" lon="6.58724">
        <ele>70.872675</ele>
        <time>2020-07-31T11:33:00.163Z</time>
      </trkpt>
      <trkpt lat="62.49833" lon="6.58742">
        <ele>71.097173</ele>
        <time>2020-07-31T11:33:05.110Z</time>
      </trkpt>
      <trkpt lat="62.49839" lon="6.5876">
        <ele>71.324051</ele>
        <time>2020-07-31T11:33:12.145Z</time>
      </trkpt>
      <trkpt lat="62.49844" lon="6.58776">
        <ele>71.529992</ele>
        <time>2020-07-31T11:33:22.113Z</time>
      </trkpt>
      <trkpt lat="62.49849" lon="6.58794">
        <ele>71.749256</ele>
        <time>2020-07-31T11:33:29.118Z</time>
      </trkpt>
      <trkpt lat="62.49855" lon="6.58813">
        <ele>71.988558</ele>
        <time>2020-07-31T11:33:36.151Z</time>
      </trkpt>
      <trkpt lat="62.49861" lon="6.58832">
        <ele>72.218972</ele>
        <time>2020-07-31T11:33:43.108Z</time>
      </trkpt>
      <trkpt lat="62.49866" lon="6.58849">
        <ele>72.426316</ele>
        <time>2020-07-31T11:33:49.144Z</time>
      </trkpt>
      <trkpt lat="62.49873" lon="6.58867">
        <ele>72.662225</ele>
        <time>2020-07-31T11:33:57.119Z</time>
      </trkpt>
      <trkpt lat="62.49877" lon="6.58886">
        <ele>72.883616</ele>
        <time>2020-07-31T11:34:05.127Z</time>
      </trkpt>
      <trkpt lat="62.49883" lon="6.58901">
        <ele>73.092309</ele>
        <time>2020-07-31T11:34:10.124Z</time>
      </trkpt>
      <trkpt lat="62.49887" lon="6.5892">
        <ele>73.305353</ele>
        <time>2020-07-31T11:34:17.144Z</time>
      </trkpt>
      <trkpt lat="62.49892" lon="6.58939">
        <ele>73.527057</ele>
        <time>2020-07-31T11:34:24.105Z</time>
      </trkpt>
      <trkpt lat="62.49896" lon="6.58961">
        <ele>73.767383</ele>
        <time>2020-07-31T11:34:30.116Z</time>
      </trkpt>
      <trkpt lat="62.499" lon="6.58982">
        <ele>73.998974</ele>
        <time>2020-07-31T11:34:36.130Z</time>
      </trkpt>
      <trkpt lat="62.49903" lon="6.59003">
        <ele>74.234576</ele>
        <time>2020-07-31T11:34:41.133Z</time>
      </trkpt>
      <trkpt lat="62.49905" lon="6.59023">
        <ele>74.44554</ele>
        <time>2020-07-31T11:34:45.133Z</time>
      </trkpt>
      <trkpt lat="62.49908" lon="6.59046">
        <ele>74.704121</ele>
        <time>2020-07-31T11:34:49.118Z</time>
      </trkpt>
      <trkpt lat="62.4991" lon="6.59074">
        <ele>75.041559</ele>
        <time>2020-07-31T11:34:53.116Z</time>
      </trkpt>
      <trkpt lat="62.4991" lon="6.59096">
        <ele>75.294641</ele>
        <time>2020-07-31T11:34:56.126Z</time>
      </trkpt>
      <trkpt lat="62.49909" lon="6.59119">
        <ele>75.569668</ele>
        <time>2020-07-31T11:34:59.101Z</time>
      </trkpt>
      <trkpt lat="62.49906" lon="6.59147">
        <ele>75.90605</ele>
        <time>2020-07-31T11:35:02.125Z</time>
      </trkpt>
      <trkpt lat="62.49905" lon="6.59168">
        <ele>76.148821</ele>
        <time>2020-07-31T11:35:04.108Z</time>
      </trkpt>
      <trkpt lat="62.49904" lon="6.59188">
        <ele>76.396735</ele>
        <time>2020-07-31T11:35:06.129Z</time>
      </trkpt>
      <trkpt lat="62.49902" lon="6.59215">
        <ele>76.709754</ele>
        <time>2020-07-31T11:35:09.118Z</time>
      </trkpt>
      <trkpt lat="62.499" lon="6.59234">
        <ele>76.943835</ele>
        <time>2020-07-31T11:35:11.150Z</time>
      </trkpt>
      <trkpt lat="62.49899" lon="6.59259">
        <ele>77.234129</ele>
        <time>2020-07-31T11:35:14.120Z</time>
      </trkpt>
      <trkpt lat="62.49898" lon="6.59281">
        <ele>77.503722</ele>
        <time>2020-07-31T11:35:17.104Z</time>
      </trkpt>
      <trkpt lat="62.49895" lon="6.59307">
        <ele>77.809971</ele>
        <time>2020-07-31T11:35:21.110Z</time>
      </trkpt>
      <trkpt lat="62.49893" lon="6.5933">
        <ele>78.085319</ele>
        <time>2020-07-31T11:35:24.118Z</time>
      </trkpt>
      <trkpt lat="62.49892" lon="6.59349">
        <ele>78.314556</ele>
        <time>2020-07-31T11:35:27.107Z</time>
      </trkpt>
      <trkpt lat="62.4989" lon="6.59373">
        <ele>78.601315</ele>
        <time>2020-07-31T11:35:31.114Z</time>
      </trkpt>
      <trkpt lat="62.49888" lon="6.59394">
        <ele>78.857176</ele>
        <time>2020-07-31T11:35:35.108Z</time>
      </trkpt>
      <trkpt lat="62.49887" lon="6.59414">
        <ele>79.09108</ele>
        <time>2020-07-31T11:35:39.115Z</time>
      </trkpt>
      <trkpt lat="62.49885" lon="6.59437">
        <ele>80.036226</ele>
        <time>2020-07-31T11:35:44.111Z</time>
      </trkpt>
      <trkpt lat="62.49883" lon="6.59458">
        <ele>81.006984</ele>
        <time>2020-07-31T11:35:49.109Z</time>
      </trkpt>
      <trkpt lat="62.4988" lon="6.59478">
        <ele>81.942228</ele>
        <time>2020-07-31T11:35:54.113Z</time>
      </trkpt>
      <trkpt lat="62.49873" lon="6.59496">
        <ele>82.979226</ele>
        <time>2020-07-31T11:36:00.121Z</time>
      </trkpt>
      <trkpt lat="62.49865" lon="6.59506">
        <ele>83.900293</ele>
        <time>2020-07-31T11:36:05.130Z</time>
      </trkpt>
      <trkpt lat="62.49855" lon="6.59514">
        <ele>84.888581</ele>
        <time>2020-07-31T11:36:10.121Z</time>
      </trkpt>
      <trkpt lat="62.49844" lon="6.59518">
        <ele>85.919356</ele>
        <time>2020-07-31T11:36:17.106Z</time>
      </trkpt>
      <trkpt lat="62.49835" lon="6.5952">
        <ele>86.859656</ele>
        <time>2020-07-31T11:36:22.116Z</time>
      </trkpt>
      <trkpt lat="62.49825" lon="6.5952">
        <ele>87.822813</ele>
        <time>2020-07-31T11:36:28.114Z</time>
      </trkpt>
      <trkpt lat="62.49815" lon="6.59518">
        <ele>88.798159</ele>
        <time>2020-07-31T11:36:35.117Z</time>
      </trkpt>
      <trkpt lat="62.49804" lon="6.59515">
        <ele>89.79741</ele>
        <time>2020-07-31T11:36:42.102Z</time>
      </trkpt>
      <trkpt lat="62.49795" lon="6.59512">
        <ele>90.67511</ele>
        <time>2020-07-31T11:36:48.148Z</time>
      </trkpt>
      <trkpt lat="62.49786" lon="6.5951">
        <ele>91.613146</ele>
        <time>2020-07-31T11:36:54.154Z</time>
      </trkpt>
      <trkpt lat="62.49776" lon="6.59508">
        <ele>92.590367</ele>
        <time>2020-07-31T11:36:59.127Z</time>
      </trkpt>
      <trkpt lat="62.49765" lon="6.59512">
        <ele>93.621142</ele>
        <time>2020-07-31T11:37:06.088Z</time>
      </trkpt>
      <trkpt lat="62.49755" lon="6.59518">
        <ele>94.627996</ele>
        <time>2020-07-31T11:37:13.130Z</time>
      </trkpt>
      <trkpt lat="62.49747" lon="6.59528">
        <ele>95.523799</ele>
        <time>2020-07-31T11:37:20.111Z</time>
      </trkpt>
      <trkpt lat="62.49739" lon="6.59542">
        <ele>96.410712</ele>
        <time>2020-07-31T11:37:26.152Z</time>
      </trkpt>
      <trkpt lat="62.49732" lon="6.59559">
        <ele>96.029954</ele>
        <time>2020-07-31T11:37:34.178Z</time>
      </trkpt>
      <trkpt lat="62.49725" lon="6.59575">
        <ele>95.648173</ele>
        <time>2020-07-31T11:37:40.154Z</time>
      </trkpt>
      <trkpt lat="62.49719" lon="6.59593">
        <ele>95.24789</ele>
        <time>2020-07-31T11:37:46.120Z</time>
      </trkpt>
      <trkpt lat="62.49714" lon="6.5961">
        <ele>94.909629</ele>
        <time>2020-07-31T11:37:51.114Z</time>
      </trkpt>
      <trkpt lat="62.4971" lon="6.59627">
        <ele>94.55653</ele>
        <time>2020-07-31T11:37:56.137Z</time>
      </trkpt>
      <trkpt lat="62.49704" lon="6.59643">
        <ele>94.206775</ele>
        <time>2020-07-31T11:38:01.093Z</time>
      </trkpt>
      <trkpt lat="62.49695" lon="6.59655">
        <ele>93.795666</ele>
        <time>2020-07-31T11:38:06.113Z</time>
      </trkpt>
      <trkpt lat="62.49686" lon="6.59663">
        <ele>93.449402</ele>
        <time>2020-07-31T11:38:11.105Z</time>
      </trkpt>
      <trkpt lat="62.49674" lon="6.59668">
        <ele>92.98368</ele>
        <time>2020-07-31T11:38:14.131Z</time>
      </trkpt>
      <trkpt lat="62.49665" lon="6.59669">
        <ele>92.632558</ele>
        <time>2020-07-31T11:38:16.157Z</time>
      </trkpt>
      <trkpt lat="62.49653" lon="6.59666">
        <ele>92.191183</ele>
        <time>2020-07-31T11:38:18.107Z</time>
      </trkpt>
      <trkpt lat="62.49641" lon="6.5966">
        <ele>91.732139</ele>
        <time>2020-07-31T11:38:20.132Z</time>
      </trkpt>
      <trkpt lat="62.4963" lon="6.59653">
        <ele>91.292367</ele>
        <time>2020-07-31T11:38:22.126Z</time>
      </trkpt>
      <trkpt lat="62.49619" lon="6.59643">
        <ele>90.846462</ele>
        <time>2020-07-31T11:38:24.094Z</time>
      </trkpt>
      <trkpt lat="62.49609" lon="6.59633">
        <ele>90.422612</ele>
        <time>2020-07-31T11:38:26.107Z</time>
      </trkpt>
      <trkpt lat="62.49599" lon="6.59619">
        <ele>89.970206</ele>
        <time>2020-07-31T11:38:28.152Z</time>
      </trkpt>
      <trkpt lat="62.49589" lon="6.59601">
        <ele>89.666672</ele>
        <time>2020-07-31T11:38:30.127Z</time>
      </trkpt>
      <trkpt lat="62.49579" lon="6.59582">
        <ele>89.696478</ele>
        <time>2020-07-31T11:38:32.150Z</time>
      </trkpt>
      <trkpt lat="62.49569" lon="6.59561">
        <ele>89.727147</ele>
        <time>2020-07-31T11:38:34.122Z</time>
      </trkpt>
      <trkpt lat="62.49558" lon="6.59538">
        <ele>89.761073</ele>
        <time>2020-07-31T11:38:36.125Z</time>
      </trkpt>
      <trkpt lat="62.49547" lon="6.59542">
        <ele>89.785572</ele>
        <time>2020-07-31T11:38:43.185Z</time>
      </trkpt>
      <trkpt lat="62.49537" lon="6.59564">
        <ele>89.816785</ele>
        <time>2020-07-31T11:38:45.095Z</time>
      </trkpt>
      <trkpt lat="62.49534" lon="6.59587">
        <ele>89.84159</ele>
        <time>2020-07-31T11:38:48.102Z</time>
      </trkpt>
      <trkpt lat="62.49532" lon="6.5961">
        <ele>89.865162</ele>
        <time>2020-07-31T11:38:55.110Z</time>
      </trkpt>
      <trkpt lat="62.49526" lon="6.59628">
        <ele>89.888392</ele>
        <time>2020-07-31T11:39:00.111Z</time>
      </trkpt>
      <trkpt lat="62.49519" lon="6.59642">
        <ele>89.909358</ele>
        <time>2020-07-31T11:39:05.124Z</time>
      </trkpt>
      <trkpt lat="62.49513" lon="6.59658">
        <ele>89.9308</ele>
        <time>2020-07-31T11:39:09.098Z</time>
      </trkpt>
      <trkpt lat="62.49505" lon="6.59674">
        <ele>89.95414</ele>
        <time>2020-07-31T11:39:14.141Z</time>
      </trkpt>
      <trkpt lat="62.49501" lon="6.59691">
        <ele>89.974094</ele>
        <time>2020-07-31T11:39:20.114Z</time>
      </trkpt>
      <trkpt lat="62.49491" lon="6.59697">
        <ele>89.996296</ele>
        <time>2020-07-31T11:39:23.095Z</time>
      </trkpt>
      <trkpt lat="62.49484" lon="6.59709">
        <ele>90.017201</ele>
        <time>2020-07-31T11:39:28.138Z</time>
      </trkpt>
      <trkpt lat="62.49477" lon="6.59728">
        <ele>90.041037</ele>
        <time>2020-07-31T11:39:33.097Z</time>
      </trkpt>
      <trkpt lat="62.49471" lon="6.59751">
        <ele>89.716504</ele>
        <time>2020-07-31T11:39:36.193Z</time>
      </trkpt>
      <trkpt lat="62.49465" lon="6.59777">
        <ele>88.911475</ele>
        <time>2020-07-31T11:39:39.132Z</time>
      </trkpt>
      <trkpt lat="62.4946" lon="6.59802">
        <ele>88.19221</ele>
        <time>2020-07-31T11:39:41.116Z</time>
      </trkpt>
      <trkpt lat="62.49456" lon="6.59828">
        <ele>87.420057</ele>
        <time>2020-07-31T11:39:43.115Z</time>
      </trkpt>
      <trkpt lat="62.49448" lon="6.59863">
        <ele>86.371319</ele>
        <time>2020-07-31T11:39:45.177Z</time>
      </trkpt>
      <trkpt lat="62.4944" lon="6.59899">
        <ele>85.303048</ele>
        <time>2020-07-31T11:39:47.096Z</time>
      </trkpt>
      <trkpt lat="62.49439" lon="6.59925">
        <ele>84.609204</ele>
        <time>2020-07-31T11:39:48.095Z</time>
      </trkpt>
      <trkpt lat="62.49439" lon="6.59948">
        <ele>83.969253</ele>
        <time>2020-07-31T11:39:49.164Z</time>
      </trkpt>
      <trkpt lat="62.49438" lon="6.59968">
        <ele>83.42654</ele>
        <time>2020-07-31T11:39:50.105Z</time>
      </trkpt>
      <trkpt lat="62.49433" lon="6.59999">
        <ele>82.534333</ele>
        <time>2020-07-31T11:39:52.137Z</time>
      </trkpt>
      <trkpt lat="62.49424" lon="6.60015">
        <ele>81.847268</ele>
        <time>2020-07-31T11:39:54.094Z</time>
      </trkpt>
      <trkpt lat="62.49405" lon="6.60021">
        <ele>80.704136</ele>
        <time>2020-07-31T11:39:57.139Z</time>
      </trkpt>
      <trkpt lat="62.49392" lon="6.60028">
        <ele>79.944102</ele>
        <time>2020-07-31T11:39:58.154Z</time>
      </trkpt>
      <trkpt lat="62.49375" lon="6.60041">
        <ele>79.037387</ele>
        <time>2020-07-31T11:40:00.103Z</time>
      </trkpt>
      <trkpt lat="62.49361" lon="6.60052">
        <ele>78.387948</ele>
        <time>2020-07-31T11:40:01.115Z</time>
      </trkpt>
      <trkpt lat="62.4935" lon="6.60064">
        <ele>77.868857</ele>
        <time>2020-07-31T11:40:02.123Z</time>
      </trkpt>
      <trkpt lat="62.49342" lon="6.60075">
        <ele>77.463075</ele>
        <time>2020-07-31T11:40:03.113Z</time>
      </trkpt>
      <trkpt lat="62.49323" lon="6.60103">
        <ele>76.474798</ele>
        <time>2020-07-31T11:40:04.113Z</time>
      </trkpt>
      <trkpt lat="62.49306" lon="6.60127">
        <ele>75.627274</ele>
        <time>2020-07-31T11:40:05.114Z</time>
      </trkpt>
      <trkpt lat="62.49297" lon="6.60143">
        <ele>75.100942</ele>
        <time>2020-07-31T11:40:06.121Z</time>
      </trkpt>
      <trkpt lat="62.49289" lon="6.6016">
        <ele>74.627749</ele>
        <time>2020-07-31T11:40:07.133Z</time>
      </trkpt>
      <trkpt lat="62.49282" lon="6.60184">
        <ele>74.067236</ele>
        <time>2020-07-31T11:40:09.142Z</time>
      </trkpt>
      <trkpt lat="62.49276" lon="6.602">
        <ele>73.649307</ele>
        <time>2020-07-31T11:40:10.124Z</time>
      </trkpt>
      <trkpt lat="62.49262" lon="6.6023">
        <ele>72.826805</ele>
        <time>2020-07-31T11:40:12.132Z</time>
      </trkpt>
      <trkpt lat="62.49255" lon="6.60242">
        <ele>72.427953</ele>
        <time>2020-07-31T11:40:14.134Z</time>
      </trkpt>
      <trkpt lat="62.49246" lon="6.60257">
        <ele>71.940628</ele>
        <time>2020-07-31T11:40:17.117Z</time>
      </trkpt>
      <trkpt lat="62.49237" lon="6.6027">
        <ele>72.10213</ele>
        <time>2020-07-31T11:40:20.121Z</time>
      </trkpt>
      <trkpt lat="62.49228" lon="6.60285">
        <ele>72.640466</ele>
        <time>2020-07-31T11:40:24.107Z</time>
      </trkpt>
      <trkpt lat="62.49219" lon="6.60299">
        <ele>73.139904</ele>
        <time>2020-07-31T11:40:28.102Z</time>
      </trkpt>
      <trkpt lat="62.49211" lon="6.60314">
        <ele>73.636303</ele>
        <time>2020-07-31T11:40:33.135Z</time>
      </trkpt>
      <trkpt lat="62.49206" lon="6.6033">
        <ele>74.065725</ele>
        <time>2020-07-31T11:40:38.134Z</time>
      </trkpt>
      <trkpt lat="62.492" lon="6.60348">
        <ele>74.532533</ele>
        <time>2020-07-31T11:40:44.108Z</time>
      </trkpt>
      <trkpt lat="62.49197" lon="6.60369">
        <ele>75.000492</ele>
        <time>2020-07-31T11:40:49.137Z</time>
      </trkpt>
      <trkpt lat="62.49196" lon="6.6039">
        <ele>75.457816</ele>
        <time>2020-07-31T11:40:54.118Z</time>
      </trkpt>
      <trkpt lat="62.49195" lon="6.60411">
        <ele>75.91983</ele>
        <time>2020-07-31T11:41:00.097Z</time>
      </trkpt>
      <trkpt lat="62.49192" lon="6.60431">
        <ele>76.363863</ele>
        <time>2020-07-31T11:41:08.101Z</time>
      </trkpt>
      <trkpt lat="62.49199" lon="6.6045">
        <ele>76.87375</ele>
        <time>2020-07-31T11:41:15.113Z</time>
      </trkpt>
      <trkpt lat="62.49193" lon="6.60466">
        <ele>77.324262</ele>
        <time>2020-07-31T11:41:24.119Z</time>
      </trkpt>
      <trkpt lat="62.49182" lon="6.6047">
        <ele>77.824941</ele>
        <time>2020-07-31T11:41:29.107Z</time>
      </trkpt>
      <trkpt lat="62.49172" lon="6.60474">
        <ele>78.299565</ele>
        <time>2020-07-31T11:41:34.129Z</time>
      </trkpt>
      <trkpt lat="62.49163" lon="6.60478">
        <ele>78.719517</ele>
        <time>2020-07-31T11:41:38.102Z</time>
      </trkpt>
      <trkpt lat="62.49153" lon="6.60488">
        <ele>79.236923</ele>
        <time>2020-07-31T11:41:44.101Z</time>
      </trkpt>
      <trkpt lat="62.49146" lon="6.60501">
        <ele>79.685652</ele>
        <time>2020-07-31T11:41:49.132Z</time>
      </trkpt>
      <trkpt lat="62.49138" lon="6.60518">
        <ele>80.157866</ele>
        <time>2020-07-31T11:41:55.132Z</time>
      </trkpt>
      <trkpt lat="62.49131" lon="6.6053">
        <ele>80.397022</ele>
        <time>2020-07-31T11:42:01.088Z</time>
      </trkpt>
      <trkpt lat="62.49121" lon="6.60542">
        <ele>80.680013</ele>
        <time>2020-07-31T11:42:05.101Z</time>
      </trkpt>
      <trkpt lat="62.49113" lon="6.60551">
        <ele>80.92003</ele>
        <time>2020-07-31T11:42:11.093Z</time>
      </trkpt>
      <trkpt lat="62.49104" lon="6.60535">
        <ele>81.216318</ele>
        <time>2020-07-31T11:42:15.114Z</time>
      </trkpt>
      <trkpt lat="62.49094" lon="6.60531">
        <ele>81.481638</ele>
        <time>2020-07-31T11:42:20.118Z</time>
      </trkpt>
      <trkpt lat="62.49084" lon="6.60533">
        <ele>81.741858</ele>
        <time>2020-07-31T11:42:25.096Z</time>
      </trkpt>
      <trkpt lat="62.49074" lon="6.60538">
        <ele>81.993909</ele>
        <time>2020-07-31T11:42:30.111Z</time>
      </trkpt>
      <trkpt lat="62.49065" lon="6.60543">
        <ele>82.241221</ele>
        <time>2020-07-31T11:42:35.136Z</time>
      </trkpt>
      <trkpt lat="62.49054" lon="6.60549">
        <ele>82.512808</ele>
        <time>2020-07-31T11:42:40.107Z</time>
      </trkpt>
      <trkpt lat="62.49045" lon="6.60555">
        <ele>82.754564</ele>
        <time>2020-07-31T11:42:44.127Z</time>
      </trkpt>
      <trkpt lat="62.49035" lon="6.60562">
        <ele>83.02747</ele>
        <time>2020-07-31T11:42:49.103Z</time>
      </trkpt>
      <trkpt lat="62.49027" lon="6.60576">
        <ele>83.302366</ele>
        <time>2020-07-31T11:42:55.100Z</time>
      </trkpt>
      <trkpt lat="62.49022" lon="6.60596">
        <ele>83.56163</ele>
        <time>2020-07-31T11:43:00.095Z</time>
      </trkpt>
      <trkpt lat="62.49017" lon="6.60619">
        <ele>83.871585</ele>
        <time>2020-07-31T11:43:04.102Z</time>
      </trkpt>
      <trkpt lat="62.49012" lon="6.60646">
        <ele>84.215454</ele>
        <time>2020-07-31T11:43:07.121Z</time>
      </trkpt>
      <trkpt lat="62.49008" lon="6.60672">
        <ele>84.532715</ele>
        <time>2020-07-31T11:43:09.098Z</time>
      </trkpt>
      <trkpt lat="62.49005" lon="6.60699">
        <ele>84.624303</ele>
        <time>2020-07-31T11:43:11.102Z</time>
      </trkpt>
      <trkpt lat="62.49002" lon="6.60729">
        <ele>84.240089</ele>
        <time>2020-07-31T11:43:13.173Z</time>
      </trkpt>
      <trkpt lat="62.48998" lon="6.6076">
        <ele>83.838716</ele>
        <time>2020-07-31T11:43:15.102Z</time>
      </trkpt>
      <trkpt lat="62.48996" lon="6.60794">
        <ele>83.41002</ele>
        <time>2020-07-31T11:43:17.134Z</time>
      </trkpt>
      <trkpt lat="62.48995" lon="6.60829">
        <ele>82.968844</ele>
        <time>2020-07-31T11:43:19.153Z</time>
      </trkpt>
      <trkpt lat="62.48994" lon="6.60865">
        <ele>82.526581</ele>
        <time>2020-07-31T11:43:21.117Z</time>
      </trkpt>
      <trkpt lat="62.48994" lon="6.60899">
        <ele>82.103634</ele>
        <time>2020-07-31T11:43:23.152Z</time>
      </trkpt>
      <trkpt lat="62.48994" lon="6.6093">
        <ele>81.718003</ele>
        <time>2020-07-31T11:43:25.126Z</time>
      </trkpt>
      <trkpt lat="62.48993" lon="6.60965">
        <ele>81.281793</ele>
        <time>2020-07-31T11:43:27.121Z</time>
      </trkpt>
      <trkpt lat="62.48992" lon="6.61001">
        <ele>80.835649</ele>
        <time>2020-07-31T11:43:29.172Z</time>
      </trkpt>
      <trkpt lat="62.48991" lon="6.61037">
        <ele>80.383706</ele>
        <time>2020-07-31T11:43:31.115Z</time>
      </trkpt>
      <trkpt lat="62.48991" lon="6.61075">
        <ele>79.916848</ele>
        <time>2020-07-31T11:43:33.117Z</time>
      </trkpt>
      <trkpt lat="62.4899" lon="6.61095">
        <ele>80.010647</ele>
        <time>2020-07-31T11:43:34.137Z</time>
      </trkpt>
      <trkpt lat="62.4899" lon="6.61116">
        <ele>80.130992</ele>
        <time>2020-07-31T11:43:35.123Z</time>
      </trkpt>
      <trkpt lat="62.4899" lon="6.61136">
        <ele>80.2507</ele>
        <time>2020-07-31T11:43:36.143Z</time>
      </trkpt>
      <trkpt lat="62.4899" lon="6.61159">
        <ele>80.383154</ele>
        <time>2020-07-31T11:43:37.113Z</time>
      </trkpt>
      <trkpt lat="62.4899" lon="6.6118">
        <ele>80.504623</ele>
        <time>2020-07-31T11:43:38.118Z</time>
      </trkpt>
      <trkpt lat="62.4899" lon="6.61201">
        <ele>80.622602</ele>
        <time>2020-07-31T11:43:39.116Z</time>
      </trkpt>
      <trkpt lat="62.4899" lon="6.61221">
        <ele>80.743473</ele>
        <time>2020-07-31T11:43:40.133Z</time>
      </trkpt>
      <trkpt lat="62.48989" lon="6.61241">
        <ele>80.856848</ele>
        <time>2020-07-31T11:43:41.144Z</time>
      </trkpt>
      <trkpt lat="62.48989" lon="6.61278">
        <ele>81.068538</ele>
        <time>2020-07-31T11:43:43.111Z</time>
      </trkpt>
      <trkpt lat="62.48987" lon="6.61308">
        <ele>81.242912</ele>
        <time>2020-07-31T11:43:45.139Z</time>
      </trkpt>
      <trkpt lat="62.48987" lon="6.61335">
        <ele>81.403757</ele>
        <time>2020-07-31T11:43:47.131Z</time>
      </trkpt>
      <trkpt lat="62.48987" lon="6.61361">
        <ele>81.549489</ele>
        <time>2020-07-31T11:43:49.132Z</time>
      </trkpt>
      <trkpt lat="62.48986" lon="6.6138">
        <ele>81.662507</ele>
        <time>2020-07-31T11:43:51.130Z</time>
      </trkpt>
      <trkpt lat="62.48986" lon="6.61407">
        <ele>81.820462</ele>
        <time>2020-07-31T11:43:54.133Z</time>
      </trkpt>
      <trkpt lat="62.48985" lon="6.61432">
        <ele>81.96317</ele>
        <time>2020-07-31T11:43:57.119Z</time>
      </trkpt>
      <trkpt lat="62.48984" lon="6.61455">
        <ele>82.096391</ele>
        <time>2020-07-31T11:44:00.093Z</time>
      </trkpt>
      <trkpt lat="62.48983" lon="6.61478">
        <ele>82.585654</ele>
        <time>2020-07-31T11:44:03.097Z</time>
      </trkpt>
      <trkpt lat="62.48982" lon="6.61498">
        <ele>83.252677</ele>
        <time>2020-07-31T11:44:06.113Z</time>
      </trkpt>
      <trkpt lat="62.4898" lon="6.61521">
        <ele>84.025109</ele>
        <time>2020-07-31T11:44:09.140Z</time>
      </trkpt>
      <trkpt lat="62.48978" lon="6.6154">
        <ele>84.660245</ele>
        <time>2020-07-31T11:44:11.176Z</time>
      </trkpt>
      <trkpt lat="62.48975" lon="6.61563">
        <ele>85.432253</ele>
        <time>2020-07-31T11:44:15.136Z</time>
      </trkpt>
      <trkpt lat="62.48972" lon="6.61586">
        <ele>86.226474</ele>
        <time>2020-07-31T11:44:19.096Z</time>
      </trkpt>
      <trkpt lat="62.48968" lon="6.61609">
        <ele>87.013743</ele>
        <time>2020-07-31T11:44:23.145Z</time>
      </trkpt>
      <trkpt lat="62.48965" lon="6.6163">
        <ele>87.741594</ele>
        <time>2020-07-31T11:44:27.117Z</time>
      </trkpt>
      <trkpt lat="62.48961" lon="6.61652">
        <ele>88.51033</ele>
        <time>2020-07-31T11:44:31.113Z</time>
      </trkpt>
      <trkpt lat="62.48957" lon="6.61672">
        <ele>89.220801</ele>
        <time>2020-07-31T11:44:35.117Z</time>
      </trkpt>
      <trkpt lat="62.48953" lon="6.61691">
        <ele>89.885537</ele>
        <time>2020-07-31T11:44:39.126Z</time>
      </trkpt>
      <trkpt lat="62.48948" lon="6.61711">
        <ele>90.667981</ele>
        <time>2020-07-31T11:44:45.106Z</time>
      </trkpt>
      <trkpt lat="62.48942" lon="6.61731">
        <ele>91.398795</ele>
        <time>2020-07-31T11:44:50.116Z</time>
      </trkpt>
      <trkpt lat="62.48938" lon="6.6175">
        <ele>92.096164</ele>
        <time>2020-07-31T11:44:55.139Z</time>
      </trkpt>
      <trkpt lat="62.48932" lon="6.61767">
        <ele>92.798481</ele>
        <time>2020-07-31T11:45:00.122Z</time>
      </trkpt>
      <trkpt lat="62.48927" lon="6.61785">
        <ele>93.455069</ele>
        <time>2020-07-31T11:45:05.124Z</time>
      </trkpt>
      <trkpt lat="62.48923" lon="6.61801">
        <ele>94.091234</ele>
        <time>2020-07-31T11:45:11.121Z</time>
      </trkpt>
      <trkpt lat="62.48918" lon="6.6182">
        <ele>94.77083</ele>
        <time>2020-07-31T11:45:15.095Z</time>
      </trkpt>
      <trkpt lat="62.48913" lon="6.61837">
        <ele>95.278077</ele>
        <time>2020-07-31T11:45:20.112Z</time>
      </trkpt>
      <trkpt lat="62.48908" lon="6.61853">
        <ele>95.738444</ele>
        <time>2020-07-31T11:45:26.134Z</time>
      </trkpt>
      <trkpt lat="62.48904" lon="6.61871">
        <ele>96.187219</ele>
        <time>2020-07-31T11:45:31.101Z</time>
      </trkpt>
      <trkpt lat="62.489" lon="6.61889">
        <ele>96.656955</ele>
        <time>2020-07-31T11:45:36.152Z</time>
      </trkpt>
      <trkpt lat="62.48895" lon="6.61907">
        <ele>97.127008</ele>
        <time>2020-07-31T11:45:42.101Z</time>
      </trkpt>
      <trkpt lat="62.48891" lon="6.61927">
        <ele>97.644945</ele>
        <time>2020-07-31T11:45:48.119Z</time>
      </trkpt>
      <trkpt lat="62.48888" lon="6.61949">
        <ele>98.185111</ele>
        <time>2020-07-31T11:45:53.105Z</time>
      </trkpt>
      <trkpt lat="62.48883" lon="6.61971">
        <ele>98.726209</ele>
        <time>2020-07-31T11:45:58.123Z</time>
      </trkpt>
      <trkpt lat="62.48881" lon="6.61991">
        <ele>99.215504</ele>
        <time>2020-07-31T11:46:02.112Z</time>
      </trkpt>
      <trkpt lat="62.48878" lon="6.62013">
        <ele>99.73723</ele>
        <time>2020-07-31T11:46:06.124Z</time>
      </trkpt>
      <trkpt lat="62.48875" lon="6.62034">
        <ele>100.239356</ele>
        <time>2020-07-31T11:46:09.158Z</time>
      </trkpt>
      <trkpt lat="62.48872" lon="6.62055">
        <ele>100.750728</ele>
        <time>2020-07-31T11:46:12.101Z</time>
      </trkpt>
      <trkpt lat="62.48869" lon="6.62079">
        <ele>101.32021</ele>
        <time>2020-07-31T11:46:15.110Z</time>
      </trkpt>
      <trkpt lat="62.48867" lon="6.62106">
        <ele>101.95257</ele>
        <time>2020-07-31T11:46:18.102Z</time>
      </trkpt>
      <trkpt lat="62.48865" lon="6.62127">
        <ele>102.454035</ele>
        <time>2020-07-31T11:46:20.138Z</time>
      </trkpt>
      <trkpt lat="62.48864" lon="6.62149">
        <ele>102.955924</ele>
        <time>2020-07-31T11:46:22.152Z</time>
      </trkpt>
      <trkpt lat="62.48864" lon="6.62168">
        <ele>103.406317</ele>
        <time>2020-07-31T11:46:24.115Z</time>
      </trkpt>
      <trkpt lat="62.48863" lon="6.62193">
        <ele>103.694145</ele>
        <time>2020-07-31T11:46:26.098Z</time>
      </trkpt>
      <trkpt lat="62.48862" lon="6.62221">
        <ele>102.785221</ele>
        <time>2020-07-31T11:46:28.115Z</time>
      </trkpt>
      <trkpt lat="62.48859" lon="6.62253">
        <ele>101.736066</ele>
        <time>2020-07-31T11:46:30.154Z</time>
      </trkpt>
      <trkpt lat="62.48857" lon="6.62284">
        <ele>100.693823</ele>
        <time>2020-07-31T11:46:32.119Z</time>
      </trkpt>
      <trkpt lat="62.48852" lon="6.62314">
        <ele>99.663087</ele>
        <time>2020-07-31T11:46:34.134Z</time>
      </trkpt>
      <trkpt lat="62.48845" lon="6.62327">
        <ele>98.994459</ele>
        <time>2020-07-31T11:46:36.137Z</time>
      </trkpt>
      <trkpt lat="62.48854" lon="6.62321">
        <ele>98.335414</ele>
        <time>2020-07-31T11:46:39.172Z</time>
      </trkpt>
      <trkpt lat="62.48856" lon="6.62355">
        <ele>97.201804</ele>
        <time>2020-07-31T11:46:42.129Z</time>
      </trkpt>
      <trkpt lat="62.48853" lon="6.62384">
        <ele>96.225063</ele>
        <time>2020-07-31T11:46:44.109Z</time>
      </trkpt>
      <trkpt lat="62.48851" lon="6.62421">
        <ele>95.005821</ele>
        <time>2020-07-31T11:46:46.111Z</time>
      </trkpt>
      <trkpt lat="62.48851" lon="6.62462">
        <ele>93.664684</ele>
        <time>2020-07-31T11:46:48.122Z</time>
      </trkpt>
      <trkpt lat="62.4885" lon="6.62483">
        <ele>92.968383</ele>
        <time>2020-07-31T11:46:49.113Z</time>
      </trkpt>
      <trkpt lat="62.48851" lon="6.62503">
        <ele>92.312874</ele>
        <time>2020-07-31T11:46:50.122Z</time>
      </trkpt>
      <trkpt lat="62.48848" lon="6.6253">
        <ele>91.409341</ele>
        <time>2020-07-31T11:46:52.175Z</time>
      </trkpt>
      <trkpt lat="62.48846" lon="6.62565">
        <ele>90.901415</ele>
        <time>2020-07-31T11:46:54.134Z</time>
      </trkpt>
      <trkpt lat="62.48843" lon="6.62595">
        <ele>90.627668</ele>
        <time>2020-07-31T11:46:55.106Z</time>
      </trkpt>
      <trkpt lat="62.4884" lon="6.62625">
        <ele>90.358008</ele>
        <time>2020-07-31T11:46:58.115Z</time>
      </trkpt>
      <trkpt lat="62.48838" lon="6.62652">
        <ele>90.120723</ele>
        <time>2020-07-31T11:47:01.112Z</time>
      </trkpt>
      <trkpt lat="62.48838" lon="6.62679">
        <ele>89.876639</ele>
        <time>2020-07-31T11:47:04.143Z</time>
      </trkpt>
      <trkpt lat="62.48837" lon="6.62699">
        <ele>89.70209</ele>
        <time>2020-07-31T11:47:06.123Z</time>
      </trkpt>
      <trkpt lat="62.48836" lon="6.62727">
        <ele>89.451949</ele>
        <time>2020-07-31T11:47:09.141Z</time>
      </trkpt>
      <trkpt lat="62.48836" lon="6.62747">
        <ele>89.280335</ele>
        <time>2020-07-31T11:47:11.130Z</time>
      </trkpt>
      <trkpt lat="62.48835" lon="6.62767">
        <ele>89.105314</ele>
        <time>2020-07-31T11:47:13.101Z</time>
      </trkpt>
      <trkpt lat="62.48834" lon="6.62788">
        <ele>88.912134</ele>
        <time>2020-07-31T11:47:15.122Z</time>
      </trkpt>
      <trkpt lat="62.48833" lon="6.6281">
        <ele>88.719652</ele>
        <time>2020-07-31T11:47:17.132Z</time>
      </trkpt>
      <trkpt lat="62.48833" lon="6.62831">
        <ele>88.534142</ele>
        <time>2020-07-31T11:47:19.116Z</time>
      </trkpt>
      <trkpt lat="62.48832" lon="6.62853">
        <ele>88.340384</ele>
        <time>2020-07-31T11:47:22.110Z</time>
      </trkpt>
      <trkpt lat="62.48831" lon="6.62872">
        <ele>88.167214</ele>
        <time>2020-07-31T11:47:25.112Z</time>
      </trkpt>
      <trkpt lat="62.4883" lon="6.62892">
        <ele>87.994698</ele>
        <time>2020-07-31T11:47:28.122Z</time>
      </trkpt>
      <trkpt lat="62.48829" lon="6.62916">
        <ele>87.782316</ele>
        <time>2020-07-31T11:47:32.104Z</time>
      </trkpt>
      <trkpt lat="62.48831" lon="6.62941">
        <ele>87.57601</ele>
        <time>2020-07-31T11:47:36.104Z</time>
      </trkpt>
      <trkpt lat="62.48825" lon="6.62964">
        <ele>87.372528</ele>
        <time>2020-07-31T11:47:41.106Z</time>
      </trkpt>
      <trkpt lat="62.48821" lon="6.62984">
        <ele>87.210736</ele>
        <time>2020-07-31T11:47:45.156Z</time>
      </trkpt>
      <trkpt lat="62.4882" lon="6.63008">
        <ele>87.032654</ele>
        <time>2020-07-31T11:47:50.099Z</time>
      </trkpt>
      <trkpt lat="62.48814" lon="6.63027">
        <ele>86.854659</ele>
        <time>2020-07-31T11:47:55.133Z</time>
      </trkpt>
      <trkpt lat="62.48812" lon="6.63049">
        <ele>86.689646</ele>
        <time>2020-07-31T11:47:58.109Z</time>
      </trkpt>
      <trkpt lat="62.48807" lon="6.63069">
        <ele>86.519212</ele>
        <time>2020-07-31T11:48:06.103Z</time>
      </trkpt>
      <trkpt lat="62.48803" lon="6.6309">
        <ele>86.341991</ele>
        <time>2020-07-31T11:48:10.104Z</time>
      </trkpt>
      <trkpt lat="62.48797" lon="6.63107">
        <ele>86.185937</ele>
        <time>2020-07-31T11:48:15.113Z</time>
      </trkpt>
      <trkpt lat="62.48792" lon="6.63126">
        <ele>86.011136</ele>
        <time>2020-07-31T11:48:18.102Z</time>
      </trkpt>
      <trkpt lat="62.48784" lon="6.63144">
        <ele>85.828145</ele>
        <time>2020-07-31T11:48:21.135Z</time>
      </trkpt>
      <trkpt lat="62.48774" lon="6.63163">
        <ele>85.604258</ele>
        <time>2020-07-31T11:48:24.118Z</time>
      </trkpt>
      <trkpt lat="62.48764" lon="6.6318">
        <ele>85.401041</ele>
        <time>2020-07-31T11:48:26.114Z</time>
      </trkpt>
      <trkpt lat="62.48753" lon="6.63195">
        <ele>85.182977</ele>
        <time>2020-07-31T11:48:28.116Z</time>
      </trkpt>
      <trkpt lat="62.48741" lon="6.63213">
        <ele>84.93666</ele>
        <time>2020-07-31T11:48:30.106Z</time>
      </trkpt>
      <trkpt lat="62.4873" lon="6.63231">
        <ele>84.711364</ele>
        <time>2020-07-31T11:48:32.130Z</time>
      </trkpt>
      <trkpt lat="62.48721" lon="6.63244">
        <ele>84.51963</ele>
        <time>2020-07-31T11:48:34.151Z</time>
      </trkpt>
      <trkpt lat="62.48714" lon="6.63256">
        <ele>84.351781</ele>
        <time>2020-07-31T11:48:37.137Z</time>
      </trkpt>
      <trkpt lat="62.48706" lon="6.63283">
        <ele>84.082454</ele>
        <time>2020-07-31T11:50:32.114Z</time>
      </trkpt>
      <trkpt lat="62.48702" lon="6.63308">
        <ele>83.858089</ele>
        <time>2020-07-31T11:50:35.093Z</time>
      </trkpt>
      <trkpt lat="62.487" lon="6.63328">
        <ele>83.684674</ele>
        <time>2020-07-31T11:50:37.112Z</time>
      </trkpt>
      <trkpt lat="62.48695" lon="6.63351">
        <ele>83.460284</ele>
        <time>2020-07-31T11:50:40.134Z</time>
      </trkpt>
      <trkpt lat="62.48686" lon="6.63363">
        <ele>83.27734</ele>
        <time>2020-07-31T11:50:43.141Z</time>
      </trkpt>
      <trkpt lat="62.48678" lon="6.63378">
        <ele>83.069209</ele>
        <time>2020-07-31T11:50:46.103Z</time>
      </trkpt>
      <trkpt lat="62.48672" lon="6.63404">
        <ele>82.830445</ele>
        <time>2020-07-31T11:50:49.102Z</time>
      </trkpt>
      <trkpt lat="62.4867" lon="6.63425">
        <ele>82.640533</ele>
        <time>2020-07-31T11:50:52.113Z</time>
      </trkpt>
      <trkpt lat="62.48667" lon="6.63448">
        <ele>82.442052</ele>
        <time>2020-07-31T11:50:56.095Z</time>
      </trkpt>
      <trkpt lat="62.48665" lon="6.6347">
        <ele>82.248222</ele>
        <time>2020-07-31T11:51:00.110Z</time>
      </trkpt>
      <trkpt lat="62.48661" lon="6.63493">
        <ele>82.038104</ele>
        <time>2020-07-31T11:51:04.102Z</time>
      </trkpt>
      <trkpt lat="62.48658" lon="6.63517">
        <ele>81.826081</ele>
        <time>2020-07-31T11:51:07.111Z</time>
      </trkpt>
      <trkpt lat="62.48654" lon="6.63543">
        <ele>81.593177</ele>
        <time>2020-07-31T11:51:10.096Z</time>
      </trkpt>
      <trkpt lat="62.4865" lon="6.63567">
        <ele>81.358882</ele>
        <time>2020-07-31T11:51:13.112Z</time>
      </trkpt>
      <trkpt lat="62.48645" lon="6.63591">
        <ele>81.058335</ele>
        <time>2020-07-31T11:51:16.137Z</time>
      </trkpt>
      <trkpt lat="62.4864" lon="6.63615">
        <ele>80.749335</ele>
        <time>2020-07-31T11:51:19.108Z</time>
      </trkpt>
      <trkpt lat="62.48633" lon="6.63638">
        <ele>80.4273</ele>
        <time>2020-07-31T11:51:22.093Z</time>
      </trkpt>
      <trkpt lat="62.48629" lon="6.63654">
        <ele>80.201936</ele>
        <time>2020-07-31T11:51:24.162Z</time>
      </trkpt>
      <trkpt lat="62.48624" lon="6.63673">
        <ele>79.950074</ele>
        <time>2020-07-31T11:51:26.103Z</time>
      </trkpt>
      <trkpt lat="62.48618" lon="6.63693">
        <ele>79.675148</ele>
        <time>2020-07-31T11:51:28.106Z</time>
      </trkpt>
      <trkpt lat="62.48612" lon="6.63714">
        <ele>79.392611</ele>
        <time>2020-07-31T11:51:30.088Z</time>
      </trkpt>
      <trkpt lat="62.48605" lon="6.63734">
        <ele>79.104627</ele>
        <time>2020-07-31T11:51:32.108Z</time>
      </trkpt>
      <trkpt lat="62.48598" lon="6.63754">
        <ele>78.803192</ele>
        <time>2020-07-31T11:51:34.101Z</time>
      </trkpt>
      <trkpt lat="62.4859" lon="6.63776">
        <ele>78.482045</ele>
        <time>2020-07-31T11:51:36.130Z</time>
      </trkpt>
      <trkpt lat="62.48582" lon="6.63797">
        <ele>78.164291</ele>
        <time>2020-07-31T11:51:38.098Z</time>
      </trkpt>
      <trkpt lat="62.48573" lon="6.63817">
        <ele>77.843797</ele>
        <time>2020-07-31T11:51:40.106Z</time>
      </trkpt>
      <trkpt lat="62.48565" lon="6.63837">
        <ele>77.531208</ele>
        <time>2020-07-31T11:51:42.097Z</time>
      </trkpt>
      <trkpt lat="62.48555" lon="6.63857">
        <ele>77.189744</ele>
        <time>2020-07-31T11:51:44.121Z</time>
      </trkpt>
      <trkpt lat="62.48544" lon="6.63877">
        <ele>76.812685</ele>
        <time>2020-07-31T11:51:46.100Z</time>
      </trkpt>
      <trkpt lat="62.48532" lon="6.63895">
        <ele>76.382041</ele>
        <time>2020-07-31T11:51:48.098Z</time>
      </trkpt>
      <trkpt lat="62.48522" lon="6.63913">
        <ele>75.993711</ele>
        <time>2020-07-31T11:51:50.105Z</time>
      </trkpt>
      <trkpt lat="62.48511" lon="6.6393">
        <ele>75.589585</ele>
        <time>2020-07-31T11:51:52.174Z</time>
      </trkpt>
      <trkpt lat="62.48499" lon="6.63948">
        <ele>75.162156</ele>
        <time>2020-07-31T11:51:54.118Z</time>
      </trkpt>
      <trkpt lat="62.48487" lon="6.63967">
        <ele>74.717858</ele>
        <time>2020-07-31T11:51:56.117Z</time>
      </trkpt>
      <trkpt lat="62.48474" lon="6.63987">
        <ele>74.237946</ele>
        <time>2020-07-31T11:51:58.154Z</time>
      </trkpt>
      <trkpt lat="62.4846" lon="6.64007">
        <ele>73.744635</ele>
        <time>2020-07-31T11:52:00.091Z</time>
      </trkpt>
      <trkpt lat="62.48447" lon="6.6403">
        <ele>73.23278</ele>
        <time>2020-07-31T11:52:02.098Z</time>
      </trkpt>
      <trkpt lat="62.4844" lon="6.64042">
        <ele>72.965667</ele>
        <time>2020-07-31T11:52:03.105Z</time>
      </trkpt>
      <trkpt lat="62.48433" lon="6.64055">
        <ele>72.686589</ele>
        <time>2020-07-31T11:52:04.122Z</time>
      </trkpt>
      <trkpt lat="62.48425" lon="6.64069">
        <ele>72.403467</ele>
        <time>2020-07-31T11:52:05.095Z</time>
      </trkpt>
      <trkpt lat="62.48418" lon="6.64082">
        <ele>72.117588</ele>
        <time>2020-07-31T11:52:06.090Z</time>
      </trkpt>
      <trkpt lat="62.48411" lon="6.64096">
        <ele>71.829519</ele>
        <time>2020-07-31T11:52:07.087Z</time>
      </trkpt>
      <trkpt lat="62.48404" lon="6.6411">
        <ele>71.537206</ele>
        <time>2020-07-31T11:52:08.155Z</time>
      </trkpt>
      <trkpt lat="62.48397" lon="6.64125">
        <ele>71.057768</ele>
        <time>2020-07-31T11:52:09.122Z</time>
      </trkpt>
      <trkpt lat="62.48391" lon="6.64141">
        <ele>70.578378</ele>
        <time>2020-07-31T11:52:10.119Z</time>
      </trkpt>
      <trkpt lat="62.48386" lon="6.64158">
        <ele>70.097634</ele>
        <time>2020-07-31T11:52:11.121Z</time>
      </trkpt>
      <trkpt lat="62.48381" lon="6.64175">
        <ele>69.626698</ele>
        <time>2020-07-31T11:52:12.138Z</time>
      </trkpt>
      <trkpt lat="62.48375" lon="6.64191">
        <ele>69.154676</ele>
        <time>2020-07-31T11:52:13.131Z</time>
      </trkpt>
      <trkpt lat="62.4837" lon="6.64208">
        <ele>68.690475</ele>
        <time>2020-07-31T11:52:14.130Z</time>
      </trkpt>
      <trkpt lat="62.48365" lon="6.64224">
        <ele>68.224362</ele>
        <time>2020-07-31T11:52:15.106Z</time>
      </trkpt>
      <trkpt lat="62.4836" lon="6.6424">
        <ele>67.759094</ele>
        <time>2020-07-31T11:52:16.135Z</time>
      </trkpt>
      <trkpt lat="62.48354" lon="6.64256">
        <ele>67.295719</ele>
        <time>2020-07-31T11:52:17.104Z</time>
      </trkpt>
      <trkpt lat="62.48349" lon="6.64272">
        <ele>66.833429</ele>
        <time>2020-07-31T11:52:18.128Z</time>
      </trkpt>
      <trkpt lat="62.48339" lon="6.64303">
        <ele>65.944663</ele>
        <time>2020-07-31T11:52:20.136Z</time>
      </trkpt>
      <trkpt lat="62.4833" lon="6.64334">
        <ele>65.093617</ele>
        <time>2020-07-31T11:52:22.154Z</time>
      </trkpt>
      <trkpt lat="62.48322" lon="6.64361">
        <ele>64.327036</ele>
        <time>2020-07-31T11:52:24.104Z</time>
      </trkpt>
      <trkpt lat="62.48314" lon="6.64388">
        <ele>63.564635</ele>
        <time>2020-07-31T11:52:26.128Z</time>
      </trkpt>
      <trkpt lat="62.48305" lon="6.64415">
        <ele>62.802234</ele>
        <time>2020-07-31T11:52:28.106Z</time>
      </trkpt>
      <trkpt lat="62.48297" lon="6.64443">
        <ele>62.170072</ele>
        <time>2020-07-31T11:52:30.159Z</time>
      </trkpt>
      <trkpt lat="62.48288" lon="6.6447">
        <ele>61.716638</ele>
        <time>2020-07-31T11:52:32.169Z</time>
      </trkpt>
      <trkpt lat="62.4828" lon="6.64493">
        <ele>61.296705</ele>
        <time>2020-07-31T11:52:34.130Z</time>
      </trkpt>
      <trkpt lat="62.48272" lon="6.64515">
        <ele>60.90521</ele>
        <time>2020-07-31T11:52:36.094Z</time>
      </trkpt>
      <trkpt lat="62.48263" lon="6.64541">
        <ele>60.461488</ele>
        <time>2020-07-31T11:52:38.137Z</time>
      </trkpt>
      <trkpt lat="62.48254" lon="6.64568">
        <ele>59.98626</ele>
        <time>2020-07-31T11:52:40.095Z</time>
      </trkpt>
      <trkpt lat="62.48245" lon="6.64596">
        <ele>59.51969</ele>
        <time>2020-07-31T11:52:42.115Z</time>
      </trkpt>
      <trkpt lat="62.48237" lon="6.64622">
        <ele>59.076119</ele>
        <time>2020-07-31T11:52:44.176Z</time>
      </trkpt>
      <trkpt lat="62.48229" lon="6.64646">
        <ele>58.659138</ele>
        <time>2020-07-31T11:52:46.117Z</time>
      </trkpt>
      <trkpt lat="62.48221" lon="6.64669">
        <ele>58.252874</ele>
        <time>2020-07-31T11:52:48.109Z</time>
      </trkpt>
      <trkpt lat="62.48214" lon="6.64692">
        <ele>57.870497</ele>
        <time>2020-07-31T11:52:50.133Z</time>
      </trkpt>
      <trkpt lat="62.48208" lon="6.64714">
        <ele>57.505206</ele>
        <time>2020-07-31T11:52:52.121Z</time>
      </trkpt>
      <trkpt lat="62.48202" lon="6.64735">
        <ele>57.149935</ele>
        <time>2020-07-31T11:52:54.143Z</time>
      </trkpt>
      <trkpt lat="62.48196" lon="6.64756">
        <ele>57.019681</ele>
        <time>2020-07-31T11:52:56.122Z</time>
      </trkpt>
      <trkpt lat="62.48192" lon="6.64778">
        <ele>57.239294</ele>
        <time>2020-07-31T11:52:58.114Z</time>
      </trkpt>
      <trkpt lat="62.48187" lon="6.64796">
        <ele>57.435402</ele>
        <time>2020-07-31T11:53:00.101Z</time>
      </trkpt>
      <trkpt lat="62.48182" lon="6.64815">
        <ele>57.630955</ele>
        <time>2020-07-31T11:53:02.138Z</time>
      </trkpt>
      <trkpt lat="62.48178" lon="6.64832">
        <ele>57.816956</ele>
        <time>2020-07-31T11:53:04.149Z</time>
      </trkpt>
      <trkpt lat="62.48172" lon="6.64856">
        <ele>58.060415</ele>
        <time>2020-07-31T11:53:07.144Z</time>
      </trkpt>
      <trkpt lat="62.48168" lon="6.64879">
        <ele>58.295182</ele>
        <time>2020-07-31T11:53:10.142Z</time>
      </trkpt>
      <trkpt lat="62.48164" lon="6.649">
        <ele>58.509898</ele>
        <time>2020-07-31T11:53:13.125Z</time>
      </trkpt>
      <trkpt lat="62.48161" lon="6.64921">
        <ele>58.714064</ele>
        <time>2020-07-31T11:53:16.153Z</time>
      </trkpt>
      <trkpt lat="62.48157" lon="6.6494">
        <ele>58.906044</ele>
        <time>2020-07-31T11:53:19.109Z</time>
      </trkpt>
      <trkpt lat="62.48153" lon="6.6496">
        <ele>59.105464</ele>
        <time>2020-07-31T11:53:22.145Z</time>
      </trkpt>
      <trkpt lat="62.48151" lon="6.64979">
        <ele>59.289468</ele>
        <time>2020-07-31T11:53:25.101Z</time>
      </trkpt>
      <trkpt lat="62.48147" lon="6.65002">
        <ele>59.514236</ele>
        <time>2020-07-31T11:53:29.126Z</time>
      </trkpt>
      <trkpt lat="62.48143" lon="6.65026">
        <ele>59.756126</ele>
        <time>2020-07-31T11:53:33.112Z</time>
      </trkpt>
      <trkpt lat="62.48139" lon="6.65045">
        <ele>59.946958</ele>
        <time>2020-07-31T11:53:36.122Z</time>
      </trkpt>
      <trkpt lat="62.48135" lon="6.65068">
        <ele>60.180294</ele>
        <time>2020-07-31T11:53:40.123Z</time>
      </trkpt>
      <trkpt lat="62.48131" lon="6.65087">
        <ele>60.367006</ele>
        <time>2020-07-31T11:53:43.126Z</time>
      </trkpt>
      <trkpt lat="62.48128" lon="6.65107">
        <ele>60.562949</ele>
        <time>2020-07-31T11:53:46.114Z</time>
      </trkpt>
      <trkpt lat="62.48124" lon="6.65127">
        <ele>60.629924</ele>
        <time>2020-07-31T11:53:49.115Z</time>
      </trkpt>
      <trkpt lat="62.4812" lon="6.65146">
        <ele>60.693335</ele>
        <time>2020-07-31T11:53:52.111Z</time>
      </trkpt>
      <trkpt lat="62.48116" lon="6.65165">
        <ele>60.757906</ele>
        <time>2020-07-31T11:53:55.136Z</time>
      </trkpt>
      <trkpt lat="62.48113" lon="6.65185">
        <ele>60.82347</ele>
        <time>2020-07-31T11:53:58.131Z</time>
      </trkpt>
      <trkpt lat="62.48109" lon="6.65207">
        <ele>60.897979</ele>
        <time>2020-07-31T11:54:01.121Z</time>
      </trkpt>
      <trkpt lat="62.48104" lon="6.65232">
        <ele>60.983743</ele>
        <time>2020-07-31T11:54:04.156Z</time>
      </trkpt>
      <trkpt lat="62.48099" lon="6.6525">
        <ele>61.048563</ele>
        <time>2020-07-31T11:54:06.130Z</time>
      </trkpt>
      <trkpt lat="62.48095" lon="6.6527">
        <ele>61.118282</ele>
        <time>2020-07-31T11:54:08.125Z</time>
      </trkpt>
      <trkpt lat="62.4809" lon="6.6529">
        <ele>61.187449</ele>
        <time>2020-07-31T11:54:10.118Z</time>
      </trkpt>
      <trkpt lat="62.48085" lon="6.6531">
        <ele>61.259771</ele>
        <time>2020-07-31T11:54:12.121Z</time>
      </trkpt>
      <trkpt lat="62.48079" lon="6.65332">
        <ele>61.336579</ele>
        <time>2020-07-31T11:54:14.114Z</time>
      </trkpt>
      <trkpt lat="62.48075" lon="6.65353">
        <ele>61.40827</ele>
        <time>2020-07-31T11:54:16.117Z</time>
      </trkpt>
      <trkpt lat="62.48071" lon="6.65375">
        <ele>61.481117</ele>
        <time>2020-07-31T11:54:18.096Z</time>
      </trkpt>
      <trkpt lat="62.48067" lon="6.65395">
        <ele>61.549055</ele>
        <time>2020-07-31T11:54:20.112Z</time>
      </trkpt>
      <trkpt lat="62.48063" lon="6.65413">
        <ele>61.613693</ele>
        <time>2020-07-31T11:54:22.103Z</time>
      </trkpt>
      <trkpt lat="62.48058" lon="6.65435">
        <ele>61.691301</ele>
        <time>2020-07-31T11:54:24.115Z</time>
      </trkpt>
      <trkpt lat="62.48053" lon="6.65459">
        <ele>61.768704</ele>
        <time>2020-07-31T11:54:26.126Z</time>
      </trkpt>
      <trkpt lat="62.4805" lon="6.65481">
        <ele>62.197051</ele>
        <time>2020-07-31T11:54:28.105Z</time>
      </trkpt>
      <trkpt lat="62.48046" lon="6.65502">
        <ele>62.612607</ele>
        <time>2020-07-31T11:54:30.118Z</time>
      </trkpt>
      <trkpt lat="62.48042" lon="6.65523">
        <ele>63.039642</ele>
        <time>2020-07-31T11:54:32.110Z</time>
      </trkpt>
      <trkpt lat="62.48039" lon="6.65545">
        <ele>63.470596</ele>
        <time>2020-07-31T11:54:34.149Z</time>
      </trkpt>
      <trkpt lat="62.48036" lon="6.65566">
        <ele>63.874053</ele>
        <time>2020-07-31T11:54:36.090Z</time>
      </trkpt>
      <trkpt lat="62.48032" lon="6.65587">
        <ele>64.293764</ele>
        <time>2020-07-31T11:54:38.124Z</time>
      </trkpt>
      <trkpt lat="62.48029" lon="6.65609">
        <ele>64.714398</ele>
        <time>2020-07-31T11:54:40.117Z</time>
      </trkpt>
      <trkpt lat="62.48026" lon="6.65629">
        <ele>65.113774</ele>
        <time>2020-07-31T11:54:42.126Z</time>
      </trkpt>
      <trkpt lat="62.48022" lon="6.65649">
        <ele>65.509766</ele>
        <time>2020-07-31T11:54:44.102Z</time>
      </trkpt>
      <trkpt lat="62.48017" lon="6.65676">
        <ele>66.04431</ele>
        <time>2020-07-31T11:54:47.102Z</time>
      </trkpt>
      <trkpt lat="62.48012" lon="6.65702">
        <ele>66.569768</ele>
        <time>2020-07-31T11:54:50.124Z</time>
      </trkpt>
      <trkpt lat="62.48009" lon="6.65727">
        <ele>67.066287</ele>
        <time>2020-07-31T11:54:53.128Z</time>
      </trkpt>
      <trkpt lat="62.48004" lon="6.6575">
        <ele>67.526221</ele>
        <time>2020-07-31T11:54:56.134Z</time>
      </trkpt>
      <trkpt lat="62.48003" lon="6.65772">
        <ele>67.935141</ele>
        <time>2020-07-31T11:54:59.112Z</time>
      </trkpt>
      <trkpt lat="62.48" lon="6.65792">
        <ele>68.328437</ele>
        <time>2020-07-31T11:55:02.121Z</time>
      </trkpt>
      <trkpt lat="62.47998" lon="6.65813">
        <ele>68.727376</ele>
        <time>2020-07-31T11:55:05.129Z</time>
      </trkpt>
      <trkpt lat="62.47996" lon="6.65834">
        <ele>69.035664</ele>
        <time>2020-07-31T11:55:08.098Z</time>
      </trkpt>
      <trkpt lat="62.47994" lon="6.65854">
        <ele>69.119698</ele>
        <time>2020-07-31T11:55:11.134Z</time>
      </trkpt>
      <trkpt lat="62.47992" lon="6.65876">
        <ele>69.207114</ele>
        <time>2020-07-31T11:55:14.134Z</time>
      </trkpt>
      <trkpt lat="62.47989" lon="6.65897">
        <ele>69.294721</ele>
        <time>2020-07-31T11:55:17.165Z</time>
      </trkpt>
      <trkpt lat="62.47987" lon="6.65918">
        <ele>69.384061</ele>
        <time>2020-07-31T11:55:20.132Z</time>
      </trkpt>
      <trkpt lat="62.47985" lon="6.6594">
        <ele>69.473402</ele>
        <time>2020-07-31T11:55:23.147Z</time>
      </trkpt>
      <trkpt lat="62.47983" lon="6.65962">
        <ele>69.563985</ele>
        <time>2020-07-31T11:55:26.109Z</time>
      </trkpt>
      <trkpt lat="62.47981" lon="6.65983">
        <ele>69.648808</ele>
        <time>2020-07-31T11:55:29.098Z</time>
      </trkpt>
      <trkpt lat="62.47978" lon="6.66003">
        <ele>69.735094</ele>
        <time>2020-07-31T11:55:32.120Z</time>
      </trkpt>
      <trkpt lat="62.47974" lon="6.66026">
        <ele>69.835778</ele>
        <time>2020-07-31T11:55:35.112Z</time>
      </trkpt>
      <trkpt lat="62.4797" lon="6.66051">
        <ele>69.940027</ele>
        <time>2020-07-31T11:55:38.120Z</time>
      </trkpt>
      <trkpt lat="62.47966" lon="6.66074">
        <ele>70.039215</ele>
        <time>2020-07-31T11:55:41.105Z</time>
      </trkpt>
      <trkpt lat="62.47963" lon="6.66096">
        <ele>70.131272</ele>
        <time>2020-07-31T11:55:44.105Z</time>
      </trkpt>
      <trkpt lat="62.4796" lon="6.66116">
        <ele>70.216942</ele>
        <time>2020-07-31T11:55:47.123Z</time>
      </trkpt>
      <trkpt lat="62.47957" lon="6.66135">
        <ele>70.298234</ele>
        <time>2020-07-31T11:55:50.105Z</time>
      </trkpt>
      <trkpt lat="62.47954" lon="6.66158">
        <ele>70.392846</ele>
        <time>2020-07-31T11:55:54.136Z</time>
      </trkpt>
      <trkpt lat="62.47951" lon="6.66179">
        <ele>70.48286</ele>
        <time>2020-07-31T11:55:58.105Z</time>
      </trkpt>
      <trkpt lat="62.47947" lon="6.66199">
        <ele>70.570293</ele>
        <time>2020-07-31T11:56:02.128Z</time>
      </trkpt>
      <trkpt lat="62.47944" lon="6.66219">
        <ele>70.545261</ele>
        <time>2020-07-31T11:56:06.127Z</time>
      </trkpt>
      <trkpt lat="62.47941" lon="6.6624">
        <ele>70.503288</ele>
        <time>2020-07-31T11:56:10.120Z</time>
      </trkpt>
      <trkpt lat="62.47937" lon="6.66264">
        <ele>70.455848</ele>
        <time>2020-07-31T11:56:14.095Z</time>
      </trkpt>
      <trkpt lat="62.47934" lon="6.66288">
        <ele>70.409378</ele>
        <time>2020-07-31T11:56:18.109Z</time>
      </trkpt>
      <trkpt lat="62.47931" lon="6.66307">
        <ele>70.372324</ele>
        <time>2020-07-31T11:56:21.101Z</time>
      </trkpt>
      <trkpt lat="62.47928" lon="6.66327">
        <ele>70.331191</ele>
        <time>2020-07-31T11:56:24.117Z</time>
      </trkpt>
      <trkpt lat="62.47926" lon="6.66349">
        <ele>70.289561</ele>
        <time>2020-07-31T11:56:27.142Z</time>
      </trkpt>
      <trkpt lat="62.47925" lon="6.66372">
        <ele>70.245691</ele>
        <time>2020-07-31T11:56:30.130Z</time>
      </trkpt>
      <trkpt lat="62.47925" lon="6.66397">
        <ele>70.198819</ele>
        <time>2020-07-31T11:56:33.128Z</time>
      </trkpt>
      <trkpt lat="62.47924" lon="6.6642">
        <ele>70.154738</ele>
        <time>2020-07-31T11:56:36.126Z</time>
      </trkpt>
      <trkpt lat="62.47922" lon="6.66444">
        <ele>70.109873</ele>
        <time>2020-07-31T11:56:39.138Z</time>
      </trkpt>
      <trkpt lat="62.47923" lon="6.66472">
        <ele>70.057494</ele>
        <time>2020-07-31T11:56:42.124Z</time>
      </trkpt>
      <trkpt lat="62.47924" lon="6.665">
        <ele>70.003031</ele>
        <time>2020-07-31T11:56:45.176Z</time>
      </trkpt>
      <trkpt lat="62.47925" lon="6.66521">
        <ele>69.964188</ele>
        <time>2020-07-31T11:56:47.110Z</time>
      </trkpt>
      <trkpt lat="62.47926" lon="6.66542">
        <ele>69.924195</ele>
        <time>2020-07-31T11:56:49.152Z</time>
      </trkpt>
      <trkpt lat="62.47929" lon="6.66563">
        <ele>69.883755</ele>
        <time>2020-07-31T11:56:51.138Z</time>
      </trkpt>
      <trkpt lat="62.47931" lon="6.66583">
        <ele>69.864708</ele>
        <time>2020-07-31T11:56:53.163Z</time>
      </trkpt>
      <trkpt lat="62.47933" lon="6.66603">
        <ele>70.060454</ele>
        <time>2020-07-31T11:56:55.163Z</time>
      </trkpt>
      <trkpt lat="62.47927" lon="6.66628">
        <ele>70.32043</ele>
        <time>2020-07-31T11:56:58.147Z</time>
      </trkpt>
      <trkpt lat="62.47917" lon="6.66645">
        <ele>70.58317</ele>
        <time>2020-07-31T11:57:01.163Z</time>
      </trkpt>
      <trkpt lat="62.47913" lon="6.66665">
        <ele>70.790817</ele>
        <time>2020-07-31T11:57:04.117Z</time>
      </trkpt>
      <trkpt lat="62.47916" lon="6.66689">
        <ele>71.023964</ele>
        <time>2020-07-31T11:57:07.116Z</time>
      </trkpt>
      <trkpt lat="62.47922" lon="6.66709">
        <ele>71.249267</ele>
        <time>2020-07-31T11:57:10.126Z</time>
      </trkpt>
      <trkpt lat="62.47928" lon="6.66728">
        <ele>71.464829</ele>
        <time>2020-07-31T11:57:13.116Z</time>
      </trkpt>
      <trkpt lat="62.47934" lon="6.66746">
        <ele>71.672753</ele>
        <time>2020-07-31T11:57:16.101Z</time>
      </trkpt>
      <trkpt lat="62.4794" lon="6.66764">
        <ele>71.888425</ele>
        <time>2020-07-31T11:57:19.134Z</time>
      </trkpt>
      <trkpt lat="62.47947" lon="6.66782">
        <ele>72.107604</ele>
        <time>2020-07-31T11:57:22.115Z</time>
      </trkpt>
      <trkpt lat="62.47954" lon="6.66796">
        <ele>72.297219</ele>
        <time>2020-07-31T11:57:25.105Z</time>
      </trkpt>
      <trkpt lat="62.47961" lon="6.6681">
        <ele>72.500735</ele>
        <time>2020-07-31T11:57:29.139Z</time>
      </trkpt>
      <trkpt lat="62.47968" lon="6.66823">
        <ele>72.690753</ele>
        <time>2020-07-31T11:57:33.112Z</time>
      </trkpt>
      <trkpt lat="62.47976" lon="6.66839">
        <ele>72.91468</ele>
        <time>2020-07-31T11:57:38.122Z</time>
      </trkpt>
      <trkpt lat="62.47985" lon="6.66854">
        <ele>73.145981</ele>
        <time>2020-07-31T11:57:43.135Z</time>
      </trkpt>
      <trkpt lat="62.47993" lon="6.66868">
        <ele>73.354818</ele>
        <time>2020-07-31T11:57:47.101Z</time>
      </trkpt>
      <trkpt lat="62.48001" lon="6.66882">
        <ele>73.580566</ele>
        <time>2020-07-31T11:57:51.113Z</time>
      </trkpt>
      <trkpt lat="62.4801" lon="6.66897">
        <ele>73.894548</ele>
        <time>2020-07-31T11:57:55.114Z</time>
      </trkpt>
      <trkpt lat="62.48018" lon="6.66911">
        <ele>74.183404</ele>
        <time>2020-07-31T11:57:59.150Z</time>
      </trkpt>
      <trkpt lat="62.48025" lon="6.66924">
        <ele>74.440236</ele>
        <time>2020-07-31T11:58:03.089Z</time>
      </trkpt>
      <trkpt lat="62.48032" lon="6.66937">
        <ele>74.723167</ele>
        <time>2020-07-31T11:58:08.102Z</time>
      </trkpt>
      <trkpt lat="62.4804" lon="6.66951">
        <ele>75.004192</ele>
        <time>2020-07-31T11:58:13.121Z</time>
      </trkpt>
      <trkpt lat="62.48048" lon="6.66965">
        <ele>75.281492</ele>
        <time>2020-07-31T11:58:18.123Z</time>
      </trkpt>
      <trkpt lat="62.48055" lon="6.66978">
        <ele>75.553427</ele>
        <time>2020-07-31T11:58:23.143Z</time>
      </trkpt>
      <trkpt lat="62.48062" lon="6.66992">
        <ele>75.815641</ele>
        <time>2020-07-31T11:58:28.114Z</time>
      </trkpt>
      <trkpt lat="62.48069" lon="6.67008">
        <ele>76.10472</ele>
        <time>2020-07-31T11:58:34.134Z</time>
      </trkpt>
      <trkpt lat="62.48076" lon="6.67025">
        <ele>76.406274</ele>
        <time>2020-07-31T11:58:40.108Z</time>
      </trkpt>
      <trkpt lat="62.48083" lon="6.67043">
        <ele>76.707277</ele>
        <time>2020-07-31T11:58:46.130Z</time>
      </trkpt>
      <trkpt lat="62.4809" lon="6.67057">
        <ele>76.999125</ele>
        <time>2020-07-31T11:58:51.105Z</time>
      </trkpt>
      <trkpt lat="62.48098" lon="6.67073">
        <ele>77.300394</ele>
        <time>2020-07-31T11:58:56.137Z</time>
      </trkpt>
      <trkpt lat="62.48107" lon="6.67088">
        <ele>77.614624</ele>
        <time>2020-07-31T11:59:01.181Z</time>
      </trkpt>
      <trkpt lat="62.48114" lon="6.67102">
        <ele>77.886803</ele>
        <time>2020-07-31T11:59:05.096Z</time>
      </trkpt>
      <trkpt lat="62.48122" lon="6.67115">
        <ele>78.15986</ele>
        <time>2020-07-31T11:59:09.111Z</time>
      </trkpt>
      <trkpt lat="62.48129" lon="6.67131">
        <ele>78.455151</ele>
        <time>2020-07-31T11:59:13.143Z</time>
      </trkpt>
      <trkpt lat="62.48137" lon="6.67148">
        <ele>78.758631</ele>
        <time>2020-07-31T11:59:17.122Z</time>
      </trkpt>
      <trkpt lat="62.48145" lon="6.67164">
        <ele>79.061618</ele>
        <time>2020-07-31T11:59:21.140Z</time>
      </trkpt>
      <trkpt lat="62.48153" lon="6.67181">
        <ele>79.355602</ele>
        <time>2020-07-31T11:59:25.102Z</time>
      </trkpt>
      <trkpt lat="62.4816" lon="6.67198">
        <ele>79.636754</ele>
        <time>2020-07-31T11:59:29.146Z</time>
      </trkpt>
      <trkpt lat="62.48167" lon="6.67217">
        <ele>79.934244</ele>
        <time>2020-07-31T11:59:33.119Z</time>
      </trkpt>
      <trkpt lat="62.48172" lon="6.67237">
        <ele>80.219331</ele>
        <time>2020-07-31T11:59:37.130Z</time>
      </trkpt>
      <trkpt lat="62.48177" lon="6.67257">
        <ele>80.500112</ele>
        <time>2020-07-31T11:59:41.114Z</time>
      </trkpt>
      <trkpt lat="62.48181" lon="6.67278">
        <ele>80.773098</ele>
        <time>2020-07-31T11:59:45.135Z</time>
      </trkpt>
      <trkpt lat="62.48183" lon="6.67298">
        <ele>81.021914</ele>
        <time>2020-07-31T11:59:49.120Z</time>
      </trkpt>
      <trkpt lat="62.48185" lon="6.67318">
        <ele>81.275029</ele>
        <time>2020-07-31T11:59:53.123Z</time>
      </trkpt>
      <trkpt lat="62.48187" lon="6.6734">
        <ele>81.546681</ele>
        <time>2020-07-31T11:59:57.152Z</time>
      </trkpt>
      <trkpt lat="62.48189" lon="6.67362">
        <ele>81.826109</ele>
        <time>2020-07-31T12:00:01.098Z</time>
      </trkpt>
      <trkpt lat="62.48192" lon="6.67383">
        <ele>82.091115</ele>
        <time>2020-07-31T12:00:05.097Z</time>
      </trkpt>
      <trkpt lat="62.48194" lon="6.67405">
        <ele>82.37712</ele>
        <time>2020-07-31T12:00:09.099Z</time>
      </trkpt>
      <trkpt lat="62.48196" lon="6.67426">
        <ele>82.637386</ele>
        <time>2020-07-31T12:00:12.126Z</time>
      </trkpt>
      <trkpt lat="62.48199" lon="6.67447">
        <ele>82.906837</ele>
        <time>2020-07-31T12:00:15.101Z</time>
      </trkpt>
      <trkpt lat="62.48201" lon="6.67468">
        <ele>83.16886</ele>
        <time>2020-07-31T12:00:18.092Z</time>
      </trkpt>
      <trkpt lat="62.48203" lon="6.67488">
        <ele>83.385591</ele>
        <time>2020-07-31T12:00:21.095Z</time>
      </trkpt>
      <trkpt lat="62.48205" lon="6.6751">
        <ele>82.990572</ele>
        <time>2020-07-31T12:00:24.123Z</time>
      </trkpt>
      <trkpt lat="62.48207" lon="6.67533">
        <ele>82.587246</ele>
        <time>2020-07-31T12:00:27.113Z</time>
      </trkpt>
      <trkpt lat="62.48209" lon="6.67557">
        <ele>82.160538</ele>
        <time>2020-07-31T12:00:30.120Z</time>
      </trkpt>
      <trkpt lat="62.48211" lon="6.67585">
        <ele>81.654454</ele>
        <time>2020-07-31T12:00:33.131Z</time>
      </trkpt>
      <trkpt lat="62.48213" lon="6.67605">
        <ele>81.310054</ele>
        <time>2020-07-31T12:00:35.114Z</time>
      </trkpt>
      <trkpt lat="62.48215" lon="6.67624">
        <ele>80.9657</ele>
        <time>2020-07-31T12:00:37.122Z</time>
      </trkpt>
      <trkpt lat="62.48217" lon="6.67644">
        <ele>80.612299</ele>
        <time>2020-07-31T12:00:39.125Z</time>
      </trkpt>
      <trkpt lat="62.48219" lon="6.67666">
        <ele>80.218508</ele>
        <time>2020-07-31T12:00:41.137Z</time>
      </trkpt>
      <trkpt lat="62.48222" lon="6.67687">
        <ele>79.824964</ele>
        <time>2020-07-31T12:00:43.114Z</time>
      </trkpt>
      <trkpt lat="62.48224" lon="6.67707">
        <ele>79.468654</ele>
        <time>2020-07-31T12:00:45.128Z</time>
      </trkpt>
      <trkpt lat="62.48226" lon="6.6773">
        <ele>79.055341</ele>
        <time>2020-07-31T12:00:48.145Z</time>
      </trkpt>
      <trkpt lat="62.48227" lon="6.67754">
        <ele>78.639584</ele>
        <time>2020-07-31T12:00:52.114Z</time>
      </trkpt>
      <trkpt lat="62.48227" lon="6.6778">
        <ele>78.193375</ele>
        <time>2020-07-31T12:00:55.115Z</time>
      </trkpt>
      <trkpt lat="62.48226" lon="6.67802">
        <ele>77.804672</ele>
        <time>2020-07-31T12:00:57.163Z</time>
      </trkpt>
      <trkpt lat="62.48226" lon="6.67826">
        <ele>77.373858</ele>
        <time>2020-07-31T12:00:59.106Z</time>
      </trkpt>
      <trkpt lat="62.48226" lon="6.67848">
        <ele>76.988874</ele>
        <time>2020-07-31T12:01:01.137Z</time>
      </trkpt>
      <trkpt lat="62.48226" lon="6.67869">
        <ele>76.62669</ele>
        <time>2020-07-31T12:01:03.139Z</time>
      </trkpt>
      <trkpt lat="62.48227" lon="6.67891">
        <ele>75.73752</ele>
        <time>2020-07-31T12:01:05.136Z</time>
      </trkpt>
      <trkpt lat="62.48229" lon="6.67917">
        <ele>74.640381</ele>
        <time>2020-07-31T12:01:08.137Z</time>
      </trkpt>
      <trkpt lat="62.48233" lon="6.67942">
        <ele>73.503067</ele>
        <time>2020-07-31T12:01:11.134Z</time>
      </trkpt>
      <trkpt lat="62.48241" lon="6.67968">
        <ele>72.212196</ele>
        <time>2020-07-31T12:01:14.109Z</time>
      </trkpt>
      <trkpt lat="62.4825" lon="6.67984">
        <ele>71.137335</ele>
        <time>2020-07-31T12:01:16.102Z</time>
      </trkpt>
      <trkpt lat="62.4826" lon="6.67999">
        <ele>70.057675</ele>
        <time>2020-07-31T12:01:18.114Z</time>
      </trkpt>
      <trkpt lat="62.4827" lon="6.68016">
        <ele>68.913193</ele>
        <time>2020-07-31T12:01:20.116Z</time>
      </trkpt>
      <trkpt lat="62.4828" lon="6.68035">
        <ele>67.685935</ele>
        <time>2020-07-31T12:01:22.146Z</time>
      </trkpt>
      <trkpt lat="62.48289" lon="6.68051">
        <ele>66.605694</ele>
        <time>2020-07-31T12:01:24.137Z</time>
      </trkpt>
      <trkpt lat="62.48299" lon="6.68068">
        <ele>65.490367</ele>
        <time>2020-07-31T12:01:26.095Z</time>
      </trkpt>
      <trkpt lat="62.48309" lon="6.68088">
        <ele>64.301952</ele>
        <time>2020-07-31T12:01:28.114Z</time>
      </trkpt>
      <trkpt lat="62.48316" lon="6.68111">
        <ele>63.078243</ele>
        <time>2020-07-31T12:01:30.119Z</time>
      </trkpt>
      <trkpt lat="62.48323" lon="6.68139">
        <ele>61.754183</ele>
        <time>2020-07-31T12:01:32.102Z</time>
      </trkpt>
      <trkpt lat="62.4833" lon="6.68167">
        <ele>60.419668</ele>
        <time>2020-07-31T12:01:34.111Z</time>
      </trkpt>
      <trkpt lat="62.48338" lon="6.68195">
        <ele>59.658233</ele>
        <time>2020-07-31T12:01:36.105Z</time>
      </trkpt>
      <trkpt lat="62.48344" lon="6.68224">
        <ele>58.97825</ele>
        <time>2020-07-31T12:01:38.113Z</time>
      </trkpt>
      <trkpt lat="62.4835" lon="6.68252">
        <ele>58.323263</ele>
        <time>2020-07-31T12:01:40.133Z</time>
      </trkpt>
      <trkpt lat="62.48356" lon="6.68278">
        <ele>57.695166</ele>
        <time>2020-07-31T12:01:42.102Z</time>
      </trkpt>
      <trkpt lat="62.48362" lon="6.68304">
        <ele>57.103934</ele>
        <time>2020-07-31T12:01:44.111Z</time>
      </trkpt>
      <trkpt lat="62.48368" lon="6.68329">
        <ele>56.500398</ele>
        <time>2020-07-31T12:01:46.138Z</time>
      </trkpt>
      <trkpt lat="62.48373" lon="6.68352">
        <ele>55.949293</ele>
        <time>2020-07-31T12:01:48.136Z</time>
      </trkpt>
      <trkpt lat="62.48378" lon="6.68372">
        <ele>55.481273</ele>
        <time>2020-07-31T12:01:50.142Z</time>
      </trkpt>
      <trkpt lat="62.48382" lon="6.68393">
        <ele>54.990168</ele>
        <time>2020-07-31T12:01:53.117Z</time>
      </trkpt>
      <trkpt lat="62.48388" lon="6.68411">
        <ele>54.508748</ele>
        <time>2020-07-31T12:01:56.130Z</time>
      </trkpt>
      <trkpt lat="62.48394" lon="6.68434">
        <ele>53.953945</ele>
        <time>2020-07-31T12:01:59.117Z</time>
      </trkpt>
      <trkpt lat="62.48399" lon="6.68458">
        <ele>53.416028</ele>
        <time>2020-07-31T12:02:02.119Z</time>
      </trkpt>
      <trkpt lat="62.48405" lon="6.68479">
        <ele>52.890994</ele>
        <time>2020-07-31T12:02:04.106Z</time>
      </trkpt>
      <trkpt lat="62.4841" lon="6.68497">
        <ele>52.420205</ele>
        <time>2020-07-31T12:02:06.102Z</time>
      </trkpt>
      <trkpt lat="62.48415" lon="6.68518">
        <ele>52.047003</ele>
        <time>2020-07-31T12:02:08.096Z</time>
      </trkpt>
      <trkpt lat="62.48421" lon="6.68538">
        <ele>52.27891</ele>
        <time>2020-07-31T12:02:10.103Z</time>
      </trkpt>
      <trkpt lat="62.48425" lon="6.6856">
        <ele>52.504695</ele>
        <time>2020-07-31T12:02:12.097Z</time>
      </trkpt>
      <trkpt lat="62.48427" lon="6.68582">
        <ele>52.72071</ele>
        <time>2020-07-31T12:02:14.121Z</time>
      </trkpt>
      <trkpt lat="62.48429" lon="6.68602">
        <ele>52.924019</ele>
        <time>2020-07-31T12:02:16.099Z</time>
      </trkpt>
      <trkpt lat="62.48432" lon="6.6862">
        <ele>53.112422</ele>
        <time>2020-07-31T12:02:18.097Z</time>
      </trkpt>
      <trkpt lat="62.48438" lon="6.68642">
        <ele>53.348158</ele>
        <time>2020-07-31T12:02:21.118Z</time>
      </trkpt>
      <trkpt lat="62.48443" lon="6.68659">
        <ele>53.553517</ele>
        <time>2020-07-31T12:02:24.107Z</time>
      </trkpt>
      <trkpt lat="62.48449" lon="6.68679">
        <ele>53.77629</ele>
        <time>2020-07-31T12:02:28.116Z</time>
      </trkpt>
      <trkpt lat="62.48456" lon="6.68697">
        <ele>54.01007</ele>
        <time>2020-07-31T12:02:32.107Z</time>
      </trkpt>
      <trkpt lat="62.48464" lon="6.68714">
        <ele>54.251106</ele>
        <time>2020-07-31T12:02:36.102Z</time>
      </trkpt>
      <trkpt lat="62.48472" lon="6.68732">
        <ele>54.492051</ele>
        <time>2020-07-31T12:02:40.119Z</time>
      </trkpt>
      <trkpt lat="62.4848" lon="6.68747">
        <ele>54.698586</ele>
        <time>2020-07-31T12:02:43.105Z</time>
      </trkpt>
      <trkpt lat="62.48487" lon="6.68764">
        <ele>54.92235</ele>
        <time>2020-07-31T12:02:46.086Z</time>
      </trkpt>
      <trkpt lat="62.48496" lon="6.68783">
        <ele>55.195499</ele>
        <time>2020-07-31T12:02:49.116Z</time>
      </trkpt>
      <trkpt lat="62.48503" lon="6.68797">
        <ele>55.390402</ele>
        <time>2020-07-31T12:02:51.140Z</time>
      </trkpt>
      <trkpt lat="62.4851" lon="6.68812">
        <ele>55.603163</ele>
        <time>2020-07-31T12:02:53.137Z</time>
      </trkpt>
      <trkpt lat="62.48519" lon="6.68827">
        <ele>55.742917</ele>
        <time>2020-07-31T12:02:55.098Z</time>
      </trkpt>
      <trkpt lat="62.48527" lon="6.68842">
        <ele>55.493612</ele>
        <time>2020-07-31T12:02:57.114Z</time>
      </trkpt>
      <trkpt lat="62.48536" lon="6.68857">
        <ele>55.242267</ele>
        <time>2020-07-31T12:02:59.108Z</time>
      </trkpt>
      <trkpt lat="62.48546" lon="6.6887">
        <ele>54.979417</ele>
        <time>2020-07-31T12:03:01.102Z</time>
      </trkpt>
      <trkpt lat="62.48557" lon="6.68886">
        <ele>54.697101</ele>
        <time>2020-07-31T12:03:03.095Z</time>
      </trkpt>
      <trkpt lat="62.48568" lon="6.68901">
        <ele>54.4016</ele>
        <time>2020-07-31T12:03:05.093Z</time>
      </trkpt>
      <trkpt lat="62.48579" lon="6.68915">
        <ele>54.109863</ele>
        <time>2020-07-31T12:03:07.111Z</time>
      </trkpt>
      <trkpt lat="62.4859" lon="6.68929">
        <ele>53.825648</ele>
        <time>2020-07-31T12:03:09.107Z</time>
      </trkpt>
      <trkpt lat="62.48601" lon="6.68942">
        <ele>53.545829</ele>
        <time>2020-07-31T12:03:11.118Z</time>
      </trkpt>
      <trkpt lat="62.48612" lon="6.68956">
        <ele>53.265488</ele>
        <time>2020-07-31T12:03:13.125Z</time>
      </trkpt>
      <trkpt lat="62.48623" lon="6.68969">
        <ele>52.978355</ele>
        <time>2020-07-31T12:03:15.085Z</time>
      </trkpt>
      <trkpt lat="62.48635" lon="6.6898">
        <ele>52.695559</ele>
        <time>2020-07-31T12:03:17.097Z</time>
      </trkpt>
      <trkpt lat="62.48646" lon="6.68989">
        <ele>52.413967</ele>
        <time>2020-07-31T12:03:19.101Z</time>
      </trkpt>
      <trkpt lat="62.48657" lon="6.68998">
        <ele>52.151199</ele>
        <time>2020-07-31T12:03:21.118Z</time>
      </trkpt>
      <trkpt lat="62.48668" lon="6.69007">
        <ele>51.899039</ele>
        <time>2020-07-31T12:03:23.112Z</time>
      </trkpt>
      <trkpt lat="62.48677" lon="6.69016">
        <ele>51.770114</ele>
        <time>2020-07-31T12:03:25.139Z</time>
      </trkpt>
      <trkpt lat="62.48685" lon="6.69026">
        <ele>51.792402</ele>
        <time>2020-07-31T12:03:27.107Z</time>
      </trkpt>
      <trkpt lat="62.48692" lon="6.69039">
        <ele>51.814991</ele>
        <time>2020-07-31T12:03:29.110Z</time>
      </trkpt>
      <trkpt lat="62.48701" lon="6.69058">
        <ele>51.843381</ele>
        <time>2020-07-31T12:03:32.108Z</time>
      </trkpt>
      <trkpt lat="62.48707" lon="6.69077">
        <ele>51.869933</ele>
        <time>2020-07-31T12:03:35.105Z</time>
      </trkpt>
      <trkpt lat="62.48716" lon="6.69088">
        <ele>51.892946</ele>
        <time>2020-07-31T12:03:38.111Z</time>
      </trkpt>
      <trkpt lat="62.48726" lon="6.6908">
        <ele>51.918343</ele>
        <time>2020-07-31T12:03:41.116Z</time>
      </trkpt>
      <trkpt lat="62.48735" lon="6.69066">
        <ele>51.944491</ele>
        <time>2020-07-31T12:03:44.091Z</time>
      </trkpt>
      <trkpt lat="62.48741" lon="6.69052">
        <ele>51.966237</ele>
        <time>2020-07-31T12:03:47.088Z</time>
      </trkpt>
      <trkpt lat="62.48759" lon="6.69053">
        <ele>52.010077</ele>
        <time>2020-07-31T12:04:11.119Z</time>
      </trkpt>
      <trkpt lat="62.48768" lon="6.6906">
        <ele>52.032607</ele>
        <time>2020-07-31T12:04:14.105Z</time>
      </trkpt>
      <trkpt lat="62.48779" lon="6.69071">
        <ele>52.061041</ele>
        <time>2020-07-31T12:04:17.123Z</time>
      </trkpt>
      <trkpt lat="62.4879" lon="6.69084">
        <ele>52.091271</ele>
        <time>2020-07-31T12:04:20.099Z</time>
      </trkpt>
      <trkpt lat="62.48802" lon="6.69097">
        <ele>52.123277</ele>
        <time>2020-07-31T12:04:23.099Z</time>
      </trkpt>
      <trkpt lat="62.4881" lon="6.69107">
        <ele>52.144699</ele>
        <time>2020-07-31T12:04:25.103Z</time>
      </trkpt>
      <trkpt lat="62.48818" lon="6.69117">
        <ele>52.167339</ele>
        <time>2020-07-31T12:04:27.108Z</time>
      </trkpt>
      <trkpt lat="62.48827" lon="6.69128">
        <ele>52.196581</ele>
        <time>2020-07-31T12:04:29.098Z</time>
      </trkpt>
      <trkpt lat="62.48836" lon="6.69141">
        <ele>52.278895</ele>
        <time>2020-07-31T12:04:31.101Z</time>
      </trkpt>
      <trkpt lat="62.48845" lon="6.69155">
        <ele>52.361728</ele>
        <time>2020-07-31T12:04:33.134Z</time>
      </trkpt>
      <trkpt lat="62.48853" lon="6.6917">
        <ele>52.440699</ele>
        <time>2020-07-31T12:04:35.128Z</time>
      </trkpt>
      <trkpt lat="62.48861" lon="6.69186">
        <ele>52.522166</ele>
        <time>2020-07-31T12:04:37.118Z</time>
      </trkpt>
      <trkpt lat="62.48869" lon="6.69203">
        <ele>52.603775</ele>
        <time>2020-07-31T12:04:39.082Z</time>
      </trkpt>
      <trkpt lat="62.48875" lon="6.69221">
        <ele>52.682174</ele>
        <time>2020-07-31T12:04:41.124Z</time>
      </trkpt>
      <trkpt lat="62.48881" lon="6.69238">
        <ele>52.755318</ele>
        <time>2020-07-31T12:04:43.124Z</time>
      </trkpt>
      <trkpt lat="62.48886" lon="6.69254">
        <ele>52.824733</ele>
        <time>2020-07-31T12:04:45.136Z</time>
      </trkpt>
      <trkpt lat="62.48893" lon="6.69278">
        <ele>52.920898</ele>
        <time>2020-07-31T12:04:48.116Z</time>
      </trkpt>
      <trkpt lat="62.48899" lon="6.69301">
        <ele>53.013442</ele>
        <time>2020-07-31T12:04:51.090Z</time>
      </trkpt>
      <trkpt lat="62.48903" lon="6.69323">
        <ele>53.094582</ele>
        <time>2020-07-31T12:04:54.089Z</time>
      </trkpt>
      <trkpt lat="62.48906" lon="6.69342">
        <ele>53.167029</ele>
        <time>2020-07-31T12:04:57.110Z</time>
      </trkpt>
      <trkpt lat="62.48908" lon="6.69362">
        <ele>53.237</ele>
        <time>2020-07-31T12:05:00.120Z</time>
      </trkpt>
      <trkpt lat="62.48911" lon="6.69386">
        <ele>53.323159</ele>
        <time>2020-07-31T12:05:04.124Z</time>
      </trkpt>
      <trkpt lat="62.48912" lon="6.69411">
        <ele>53.407663</ele>
        <time>2020-07-31T12:05:08.116Z</time>
      </trkpt>
      <trkpt lat="62.48914" lon="6.6943">
        <ele>53.475276</ele>
        <time>2020-07-31T12:05:11.118Z</time>
      </trkpt>
      <trkpt lat="62.48915" lon="6.69455">
        <ele>53.666888</ele>
        <time>2020-07-31T12:05:15.098Z</time>
      </trkpt>
      <trkpt lat="62.48917" lon="6.69478">
        <ele>54.090199</ele>
        <time>2020-07-31T12:05:19.122Z</time>
      </trkpt>
      <trkpt lat="62.48918" lon="6.695">
        <ele>54.498461</ele>
        <time>2020-07-31T12:05:23.143Z</time>
      </trkpt>
      <trkpt lat="62.48919" lon="6.69521">
        <ele>54.89841</ele>
        <time>2020-07-31T12:05:27.090Z</time>
      </trkpt>
      <trkpt lat="62.48919" lon="6.69542">
        <ele>55.283753</ele>
        <time>2020-07-31T12:05:31.111Z</time>
      </trkpt>
      <trkpt lat="62.4892" lon="6.69564">
        <ele>55.671838</ele>
        <time>2020-07-31T12:05:35.117Z</time>
      </trkpt>
      <trkpt lat="62.4892" lon="6.69584">
        <ele>56.050712</ele>
        <time>2020-07-31T12:05:39.137Z</time>
      </trkpt>
      <trkpt lat="62.48921" lon="6.69604">
        <ele>56.405737</ele>
        <time>2020-07-31T12:05:43.098Z</time>
      </trkpt>
      <trkpt lat="62.48921" lon="6.69628">
        <ele>56.848931</ele>
        <time>2020-07-31T12:05:48.104Z</time>
      </trkpt>
      <trkpt lat="62.48921" lon="6.69651">
        <ele>57.275663</ele>
        <time>2020-07-31T12:05:53.113Z</time>
      </trkpt>
      <trkpt lat="62.48922" lon="6.69675">
        <ele>57.719211</ele>
        <time>2020-07-31T12:05:58.104Z</time>
      </trkpt>
      <trkpt lat="62.48922" lon="6.69699">
        <ele>58.151158</ele>
        <time>2020-07-31T12:06:03.161Z</time>
      </trkpt>
      <trkpt lat="62.48922" lon="6.69722">
        <ele>58.568745</ele>
        <time>2020-07-31T12:06:08.120Z</time>
      </trkpt>
      <trkpt lat="62.48923" lon="6.69745">
        <ele>58.993815</ele>
        <time>2020-07-31T12:06:13.120Z</time>
      </trkpt>
      <trkpt lat="62.48923" lon="6.69766">
        <ele>59.37641</ele>
        <time>2020-07-31T12:06:17.120Z</time>
      </trkpt>
      <trkpt lat="62.48923" lon="6.69789">
        <ele>59.801036</ele>
        <time>2020-07-31T12:06:22.097Z</time>
      </trkpt>
      <trkpt lat="62.48924" lon="6.69812">
        <ele>60.22135</ele>
        <time>2020-07-31T12:06:27.102Z</time>
      </trkpt>
      <trkpt lat="62.48924" lon="6.69832">
        <ele>60.581468</ele>
        <time>2020-07-31T12:06:31.130Z</time>
      </trkpt>
      <trkpt lat="62.48925" lon="6.69855">
        <ele>61.132473</ele>
        <time>2020-07-31T12:06:36.127Z</time>
      </trkpt>
      <trkpt lat="62.48926" lon="6.69876">
        <ele>61.683176</ele>
        <time>2020-07-31T12:06:41.093Z</time>
      </trkpt>
      <trkpt lat="62.48927" lon="6.69896">
        <ele>62.188785</ele>
        <time>2020-07-31T12:06:45.129Z</time>
      </trkpt>
      <trkpt lat="62.48928" lon="6.69917">
        <ele>62.70942</ele>
        <time>2020-07-31T12:06:49.152Z</time>
      </trkpt>
      <trkpt lat="62.48928" lon="6.69941">
        <ele>63.312352</ele>
        <time>2020-07-31T12:06:54.135Z</time>
      </trkpt>
      <trkpt lat="62.48929" lon="6.69965">
        <ele>63.919619</ele>
        <time>2020-07-31T12:06:59.138Z</time>
      </trkpt>
      <trkpt lat="62.48929" lon="6.69985">
        <ele>64.42583</ele>
        <time>2020-07-31T12:07:03.122Z</time>
      </trkpt>
      <trkpt lat="62.48929" lon="6.70009">
        <ele>65.019636</ele>
        <time>2020-07-31T12:07:08.118Z</time>
      </trkpt>
      <trkpt lat="62.48929" lon="6.70033">
        <ele>65.618697</ele>
        <time>2020-07-31T12:07:13.152Z</time>
      </trkpt>
      <trkpt lat="62.48929" lon="6.70053">
        <ele>66.121922</ele>
        <time>2020-07-31T12:07:17.092Z</time>
      </trkpt>
      <trkpt lat="62.4893" lon="6.70076">
        <ele>66.701272</ele>
        <time>2020-07-31T12:07:22.125Z</time>
      </trkpt>
      <trkpt lat="62.48929" lon="6.70098">
        <ele>67.274975</ele>
        <time>2020-07-31T12:07:27.113Z</time>
      </trkpt>
      <trkpt lat="62.4893" lon="6.70121">
        <ele>67.8514</ele>
        <time>2020-07-31T12:07:32.154Z</time>
      </trkpt>
      <trkpt lat="62.4893" lon="6.70145">
        <ele>68.438289</ele>
        <time>2020-07-31T12:07:37.118Z</time>
      </trkpt>
      <trkpt lat="62.4893" lon="6.70165">
        <ele>68.965174</ele>
        <time>2020-07-31T12:07:42.097Z</time>
      </trkpt>
      <trkpt lat="62.48931" lon="6.70186">
        <ele>69.486587</ele>
        <time>2020-07-31T12:07:47.124Z</time>
      </trkpt>
      <trkpt lat="62.48932" lon="6.70206">
        <ele>69.981669</ele>
        <time>2020-07-31T12:07:52.099Z</time>
      </trkpt>
      <trkpt lat="62.48934" lon="6.70227">
        <ele>70.505234</ele>
        <time>2020-07-31T12:07:58.181Z</time>
      </trkpt>
      <trkpt lat="62.48936" lon="6.70247">
        <ele>70.794058</ele>
        <time>2020-07-31T12:08:04.094Z</time>
      </trkpt>
      <trkpt lat="62.48937" lon="6.70267">
        <ele>71.081775</ele>
        <time>2020-07-31T12:08:10.145Z</time>
      </trkpt>
      <trkpt lat="62.48939" lon="6.70289">
        <ele>71.401878</ele>
        <time>2020-07-31T12:08:16.135Z</time>
      </trkpt>
      <trkpt lat="62.48941" lon="6.7031">
        <ele>71.710754</ele>
        <time>2020-07-31T12:08:21.108Z</time>
      </trkpt>
      <trkpt lat="62.48944" lon="6.70332">
        <ele>72.027449</ele>
        <time>2020-07-31T12:08:26.125Z</time>
      </trkpt>
      <trkpt lat="62.48947" lon="6.70352">
        <ele>72.331817</ele>
        <time>2020-07-31T12:08:31.129Z</time>
      </trkpt>
      <trkpt lat="62.4895" lon="6.70372">
        <ele>72.63658</ele>
        <time>2020-07-31T12:08:36.160Z</time>
      </trkpt>
      <trkpt lat="62.48953" lon="6.70392">
        <ele>72.930911</ele>
        <time>2020-07-31T12:08:41.113Z</time>
      </trkpt>
      <trkpt lat="62.48958" lon="6.70411">
        <ele>73.231651</ele>
        <time>2020-07-31T12:08:45.198Z</time>
      </trkpt>
      <trkpt lat="62.48962" lon="6.7043">
        <ele>73.535148</ele>
        <time>2020-07-31T12:08:49.117Z</time>
      </trkpt>
      <trkpt lat="62.48968" lon="6.70451">
        <ele>73.877048</ele>
        <time>2020-07-31T12:08:54.122Z</time>
      </trkpt>
      <trkpt lat="62.48972" lon="6.70468">
        <ele>74.161467</ele>
        <time>2020-07-31T12:08:58.157Z</time>
      </trkpt>
      <trkpt lat="62.48977" lon="6.70484">
        <ele>74.440128</ele>
        <time>2020-07-31T12:09:02.114Z</time>
      </trkpt>
      <trkpt lat="62.48984" lon="6.70504">
        <ele>74.778984</ele>
        <time>2020-07-31T12:09:07.118Z</time>
      </trkpt>
      <trkpt lat="62.4899" lon="6.70519">
        <ele>75.0621</ele>
        <time>2020-07-31T12:09:11.132Z</time>
      </trkpt>
      <trkpt lat="62.48996" lon="6.70537">
        <ele>75.384236</ele>
        <time>2020-07-31T12:09:16.102Z</time>
      </trkpt>
      <trkpt lat="62.49002" lon="6.70552">
        <ele>75.662521</ele>
        <time>2020-07-31T12:09:20.134Z</time>
      </trkpt>
      <trkpt lat="62.49008" lon="6.70569">
        <ele>75.955384</ele>
        <time>2020-07-31T12:09:24.113Z</time>
      </trkpt>
      <trkpt lat="62.49013" lon="6.70585">
        <ele>76.070952</ele>
        <time>2020-07-31T12:09:28.103Z</time>
      </trkpt>
      <trkpt lat="62.49019" lon="6.70603">
        <ele>76.165631</ele>
        <time>2020-07-31T12:09:33.108Z</time>
      </trkpt>
      <trkpt lat="62.49025" lon="6.70619">
        <ele>76.253501</ele>
        <time>2020-07-31T12:09:37.127Z</time>
      </trkpt>
      <trkpt lat="62.49031" lon="6.70639">
        <ele>76.355356</ele>
        <time>2020-07-31T12:09:42.141Z</time>
      </trkpt>
      <trkpt lat="62.49038" lon="6.70657">
        <ele>76.454322</ele>
        <time>2020-07-31T12:09:47.145Z</time>
      </trkpt>
      <trkpt lat="62.49044" lon="6.70677">
        <ele>76.557762</ele>
        <time>2020-07-31T12:09:52.130Z</time>
      </trkpt>
      <trkpt lat="62.49049" lon="6.70694">
        <ele>76.64553</ele>
        <time>2020-07-31T12:09:56.098Z</time>
      </trkpt>
      <trkpt lat="62.49055" lon="6.70714">
        <ele>76.749503</ele>
        <time>2020-07-31T12:10:01.129Z</time>
      </trkpt>
      <trkpt lat="62.4906" lon="6.70731">
        <ele>76.835181</ele>
        <time>2020-07-31T12:10:05.135Z</time>
      </trkpt>
      <trkpt lat="62.49065" lon="6.70751">
        <ele>76.933295</ele>
        <time>2020-07-31T12:10:09.129Z</time>
      </trkpt>
      <trkpt lat="62.4907" lon="6.7077">
        <ele>77.0245</ele>
        <time>2020-07-31T12:10:12.117Z</time>
      </trkpt>
      <trkpt lat="62.49074" lon="6.70791">
        <ele>77.123391</ele>
        <time>2020-07-31T12:10:15.119Z</time>
      </trkpt>
      <trkpt lat="62.49078" lon="6.70815">
        <ele>77.23013</ele>
        <time>2020-07-31T12:10:18.141Z</time>
      </trkpt>
      <trkpt lat="62.49082" lon="6.70841">
        <ele>77.350136</ele>
        <time>2020-07-31T12:10:21.116Z</time>
      </trkpt>
      <trkpt lat="62.49086" lon="6.70869">
        <ele>77.474488</ele>
        <time>2020-07-31T12:10:24.138Z</time>
      </trkpt>
      <trkpt lat="62.49089" lon="6.70898">
        <ele>77.599591</ele>
        <time>2020-07-31T12:10:27.105Z</time>
      </trkpt>
      <trkpt lat="62.49091" lon="6.70918">
        <ele>77.595289</ele>
        <time>2020-07-31T12:10:29.112Z</time>
      </trkpt>
      <trkpt lat="62.49092" lon="6.70942">
        <ele>77.305202</ele>
        <time>2020-07-31T12:10:31.160Z</time>
      </trkpt>
      <trkpt lat="62.49094" lon="6.70966">
        <ele>77.000043</ele>
        <time>2020-07-31T12:10:33.104Z</time>
      </trkpt>
      <trkpt lat="62.49095" lon="6.70994">
        <ele>76.660843</ele>
        <time>2020-07-31T12:10:35.168Z</time>
      </trkpt>
      <trkpt lat="62.49095" lon="6.71025">
        <ele>76.289382</ele>
        <time>2020-07-31T12:10:37.129Z</time>
      </trkpt>
      <trkpt lat="62.49094" lon="6.71059">
        <ele>75.873818</ele>
        <time>2020-07-31T12:10:39.116Z</time>
      </trkpt>
      <trkpt lat="62.49092" lon="6.71096">
        <ele>75.421957</ele>
        <time>2020-07-31T12:10:41.103Z</time>
      </trkpt>
      <trkpt lat="62.49091" lon="6.71115">
        <ele>75.18424</ele>
        <time>2020-07-31T12:10:42.118Z</time>
      </trkpt>
      <trkpt lat="62.4909" lon="6.71135">
        <ele>74.945124</ele>
        <time>2020-07-31T12:10:43.149Z</time>
      </trkpt>
      <trkpt lat="62.49088" lon="6.71154">
        <ele>74.704386</ele>
        <time>2020-07-31T12:10:44.136Z</time>
      </trkpt>
      <trkpt lat="62.49087" lon="6.71174">
        <ele>74.458048</ele>
        <time>2020-07-31T12:10:45.102Z</time>
      </trkpt>
      <trkpt lat="62.49086" lon="6.71195">
        <ele>74.204483</ele>
        <time>2020-07-31T12:10:46.116Z</time>
      </trkpt>
      <trkpt lat="62.49085" lon="6.71216">
        <ele>73.947109</ele>
        <time>2020-07-31T12:10:47.157Z</time>
      </trkpt>
      <trkpt lat="62.49084" lon="6.71237">
        <ele>73.680325</ele>
        <time>2020-07-31T12:10:48.111Z</time>
      </trkpt>
      <trkpt lat="62.49083" lon="6.7126">
        <ele>73.401004</ele>
        <time>2020-07-31T12:10:49.105Z</time>
      </trkpt>
      <trkpt lat="62.49083" lon="6.71284">
        <ele>73.111171</ele>
        <time>2020-07-31T12:10:50.118Z</time>
      </trkpt>
      <trkpt lat="62.49083" lon="6.71309">
        <ele>72.736651</ele>
        <time>2020-07-31T12:10:51.120Z</time>
      </trkpt>
      <trkpt lat="62.49085" lon="6.71334">
        <ele>72.207885</ele>
        <time>2020-07-31T12:10:52.117Z</time>
      </trkpt>
      <trkpt lat="62.49087" lon="6.71359">
        <ele>71.670139</ele>
        <time>2020-07-31T12:10:53.155Z</time>
      </trkpt>
      <trkpt lat="62.49089" lon="6.71386">
        <ele>71.112998</ele>
        <time>2020-07-31T12:10:54.118Z</time>
      </trkpt>
      <trkpt lat="62.49092" lon="6.71411">
        <ele>70.563899</ele>
        <time>2020-07-31T12:10:55.132Z</time>
      </trkpt>
      <trkpt lat="62.49096" lon="6.71437">
        <ele>70.010182</ele>
        <time>2020-07-31T12:10:56.119Z</time>
      </trkpt>
      <trkpt lat="62.491" lon="6.71462">
        <ele>69.453692</ele>
        <time>2020-07-31T12:10:57.133Z</time>
      </trkpt>
      <trkpt lat="62.49104" lon="6.71487">
        <ele>68.897203</ele>
        <time>2020-07-31T12:10:58.133Z</time>
      </trkpt>
      <trkpt lat="62.49107" lon="6.71513">
        <ele>68.330896</ele>
        <time>2020-07-31T12:10:59.101Z</time>
      </trkpt>
      <trkpt lat="62.49111" lon="6.71539">
        <ele>67.763931</ele>
        <time>2020-07-31T12:11:00.134Z</time>
      </trkpt>
      <trkpt lat="62.49115" lon="6.71565">
        <ele>67.199617</ele>
        <time>2020-07-31T12:11:01.108Z</time>
      </trkpt>
      <trkpt lat="62.49118" lon="6.71591">
        <ele>66.657439</ele>
        <time>2020-07-31T12:11:02.127Z</time>
      </trkpt>
      <trkpt lat="62.49121" lon="6.71614">
        <ele>66.145333</ele>
        <time>2020-07-31T12:11:03.114Z</time>
      </trkpt>
      <trkpt lat="62.49123" lon="6.71637">
        <ele>65.658141</ele>
        <time>2020-07-31T12:11:04.142Z</time>
      </trkpt>
      <trkpt lat="62.49126" lon="6.71659">
        <ele>65.196085</ele>
        <time>2020-07-31T12:11:05.128Z</time>
      </trkpt>
      <trkpt lat="62.49129" lon="6.71678">
        <ele>64.751293</ele>
        <time>2020-07-31T12:11:06.114Z</time>
      </trkpt>
      <trkpt lat="62.49132" lon="6.71697">
        <ele>64.213876</ele>
        <time>2020-07-31T12:11:07.099Z</time>
      </trkpt>
      <trkpt lat="62.49136" lon="6.71733">
        <ele>63.193985</ele>
        <time>2020-07-31T12:11:09.154Z</time>
      </trkpt>
      <trkpt lat="62.49142" lon="6.71768">
        <ele>62.17144</ele>
        <time>2020-07-31T12:11:11.116Z</time>
      </trkpt>
      <trkpt lat="62.49148" lon="6.71805">
        <ele>61.095166</ele>
        <time>2020-07-31T12:11:13.122Z</time>
      </trkpt>
      <trkpt lat="62.49151" lon="6.71825">
        <ele>60.527896</ele>
        <time>2020-07-31T12:11:14.152Z</time>
      </trkpt>
      <trkpt lat="62.49153" lon="6.71846">
        <ele>59.930482</ele>
        <time>2020-07-31T12:11:15.110Z</time>
      </trkpt>
      <trkpt lat="62.49155" lon="6.71868">
        <ele>59.306828</ele>
        <time>2020-07-31T12:11:16.105Z</time>
      </trkpt>
      <trkpt lat="62.49155" lon="6.71892">
        <ele>58.660483</ele>
        <time>2020-07-31T12:11:17.140Z</time>
      </trkpt>
      <trkpt lat="62.49156" lon="6.71916">
        <ele>58.010157</ele>
        <time>2020-07-31T12:11:18.121Z</time>
      </trkpt>
      <trkpt lat="62.49155" lon="6.7194">
        <ele>57.34612</ele>
        <time>2020-07-31T12:11:19.092Z</time>
      </trkpt>
      <trkpt lat="62.49155" lon="6.71965">
        <ele>56.666945</ele>
        <time>2020-07-31T12:11:20.134Z</time>
      </trkpt>
      <trkpt lat="62.49153" lon="6.71989">
        <ele>55.98629</ele>
        <time>2020-07-31T12:11:21.130Z</time>
      </trkpt>
      <trkpt lat="62.49152" lon="6.72014">
        <ele>55.29825</ele>
        <time>2020-07-31T12:11:22.110Z</time>
      </trkpt>
      <trkpt lat="62.49151" lon="6.72039">
        <ele>54.614906</ele>
        <time>2020-07-31T12:11:23.128Z</time>
      </trkpt>
      <trkpt lat="62.49149" lon="6.72063">
        <ele>54.02263</ele>
        <time>2020-07-31T12:11:24.116Z</time>
      </trkpt>
      <trkpt lat="62.49148" lon="6.72088">
        <ele>53.620889</ele>
        <time>2020-07-31T12:11:25.135Z</time>
      </trkpt>
      <trkpt lat="62.49146" lon="6.72113">
        <ele>53.222766</ele>
        <time>2020-07-31T12:11:26.108Z</time>
      </trkpt>
      <trkpt lat="62.49145" lon="6.72136">
        <ele>52.834985</ele>
        <time>2020-07-31T12:11:27.120Z</time>
      </trkpt>
      <trkpt lat="62.49144" lon="6.7216">
        <ele>52.454498</ele>
        <time>2020-07-31T12:11:28.104Z</time>
      </trkpt>
      <trkpt lat="62.49142" lon="6.72182">
        <ele>52.087629</ele>
        <time>2020-07-31T12:11:29.119Z</time>
      </trkpt>
      <trkpt lat="62.49141" lon="6.72204">
        <ele>51.739178</ele>
        <time>2020-07-31T12:11:30.150Z</time>
      </trkpt>
      <trkpt lat="62.49139" lon="6.72224">
        <ele>51.39976</ele>
        <time>2020-07-31T12:11:31.142Z</time>
      </trkpt>
      <trkpt lat="62.49138" lon="6.72245">
        <ele>51.071602</ele>
        <time>2020-07-31T12:11:32.096Z</time>
      </trkpt>
      <trkpt lat="62.49137" lon="6.72265">
        <ele>50.747198</ele>
        <time>2020-07-31T12:11:33.144Z</time>
      </trkpt>
      <trkpt lat="62.49136" lon="6.72284">
        <ele>50.432432</ele>
        <time>2020-07-31T12:11:34.118Z</time>
      </trkpt>
      <trkpt lat="62.49134" lon="6.72321">
        <ele>49.834243</ele>
        <time>2020-07-31T12:11:36.103Z</time>
      </trkpt>
      <trkpt lat="62.49132" lon="6.72356">
        <ele>49.26142</ele>
        <time>2020-07-31T12:11:38.136Z</time>
      </trkpt>
      <trkpt lat="62.49129" lon="6.72389">
        <ele>48.711818</ele>
        <time>2020-07-31T12:11:40.132Z</time>
      </trkpt>
      <trkpt lat="62.49127" lon="6.72421">
        <ele>48.188429</ele>
        <time>2020-07-31T12:11:42.123Z</time>
      </trkpt>
      <trkpt lat="62.49125" lon="6.72452">
        <ele>48.010521</ele>
        <time>2020-07-31T12:11:44.145Z</time>
      </trkpt>
      <trkpt lat="62.49124" lon="6.72482">
        <ele>48.463351</ele>
        <time>2020-07-31T12:11:46.114Z</time>
      </trkpt>
      <trkpt lat="62.49122" lon="6.72511">
        <ele>48.894578</ele>
        <time>2020-07-31T12:11:48.137Z</time>
      </trkpt>
      <trkpt lat="62.49121" lon="6.72539">
        <ele>49.323238</ele>
        <time>2020-07-31T12:11:50.119Z</time>
      </trkpt>
      <trkpt lat="62.49119" lon="6.72566">
        <ele>49.736491</ele>
        <time>2020-07-31T12:11:52.113Z</time>
      </trkpt>
      <trkpt lat="62.49116" lon="6.72593">
        <ele>50.147133</ele>
        <time>2020-07-31T12:11:54.106Z</time>
      </trkpt>
      <trkpt lat="62.49111" lon="6.72617">
        <ele>50.540091</ele>
        <time>2020-07-31T12:11:56.126Z</time>
      </trkpt>
      <trkpt lat="62.49105" lon="6.7264">
        <ele>50.931907</ele>
        <time>2020-07-31T12:11:58.114Z</time>
      </trkpt>
      <trkpt lat="62.49097" lon="6.7266">
        <ele>51.320492</ele>
        <time>2020-07-31T12:12:00.130Z</time>
      </trkpt>
      <trkpt lat="62.49089" lon="6.72676">
        <ele>51.690465</ele>
        <time>2020-07-31T12:12:02.116Z</time>
      </trkpt>
      <trkpt lat="62.4908" lon="6.72689">
        <ele>52.041087</ele>
        <time>2020-07-31T12:12:04.112Z</time>
      </trkpt>
      <trkpt lat="62.49071" lon="6.72699">
        <ele>52.361008</ele>
        <time>2020-07-31T12:12:06.111Z</time>
      </trkpt>
      <trkpt lat="62.49062" lon="6.72706">
        <ele>52.655717</ele>
        <time>2020-07-31T12:12:08.121Z</time>
      </trkpt>
      <trkpt lat="62.4905" lon="6.72711">
        <ele>53.051743</ele>
        <time>2020-07-31T12:12:11.142Z</time>
      </trkpt>
      <trkpt lat="62.49041" lon="6.72715">
        <ele>53.371043</ele>
        <time>2020-07-31T12:12:14.126Z</time>
      </trkpt>
      <trkpt lat="62.49031" lon="6.72721">
        <ele>53.740943</ele>
        <time>2020-07-31T12:12:18.151Z</time>
      </trkpt>
      <trkpt lat="62.4902" lon="6.72725">
        <ele>54.479766</ele>
        <time>2020-07-31T12:12:23.105Z</time>
      </trkpt>
      <trkpt lat="62.4901" lon="6.72729">
        <ele>55.200643</ele>
        <time>2020-07-31T12:12:28.100Z</time>
      </trkpt>
      <trkpt lat="62.49" lon="6.72732">
        <ele>55.95295</ele>
        <time>2020-07-31T12:12:33.133Z</time>
      </trkpt>
      <trkpt lat="62.48989" lon="6.72734">
        <ele>56.701462</ele>
        <time>2020-07-31T12:12:38.104Z</time>
      </trkpt>
      <trkpt lat="62.48978" lon="6.72735">
        <ele>57.490457</ele>
        <time>2020-07-31T12:12:43.141Z</time>
      </trkpt>
      <trkpt lat="62.48969" lon="6.72734">
        <ele>58.125693</ele>
        <time>2020-07-31T12:12:47.134Z</time>
      </trkpt>
      <trkpt lat="62.48959" lon="6.72732">
        <ele>58.844393</ele>
        <time>2020-07-31T12:12:51.125Z</time>
      </trkpt>
      <trkpt lat="62.48946" lon="6.7273">
        <ele>59.71476</ele>
        <time>2020-07-31T12:12:55.126Z</time>
      </trkpt>
      <trkpt lat="62.48936" lon="6.72728">
        <ele>60.448059</ele>
        <time>2020-07-31T12:12:58.137Z</time>
      </trkpt>
      <trkpt lat="62.48926" lon="6.72727">
        <ele>61.16676</ele>
        <time>2020-07-31T12:13:01.093Z</time>
      </trkpt>
      <trkpt lat="62.48914" lon="6.72726">
        <ele>61.969815</ele>
        <time>2020-07-31T12:13:04.152Z</time>
      </trkpt>
      <trkpt lat="62.48901" lon="6.72724">
        <ele>62.886753</ele>
        <time>2020-07-31T12:13:07.122Z</time>
      </trkpt>
      <trkpt lat="62.48888" lon="6.72723">
        <ele>63.802078</ele>
        <time>2020-07-31T12:13:10.122Z</time>
      </trkpt>
      <trkpt lat="62.48879" lon="6.72722">
        <ele>64.464937</ele>
        <time>2020-07-31T12:13:12.114Z</time>
      </trkpt>
      <trkpt lat="62.48869" lon="6.72722">
        <ele>65.168673</ele>
        <time>2020-07-31T12:13:14.156Z</time>
      </trkpt>
      <trkpt lat="62.48858" lon="6.7272">
        <ele>65.930485</ele>
        <time>2020-07-31T12:13:16.112Z</time>
      </trkpt>
      <trkpt lat="62.48847" lon="6.72718">
        <ele>65.929004</ele>
        <time>2020-07-31T12:13:18.123Z</time>
      </trkpt>
      <trkpt lat="62.48832" lon="6.72714">
        <ele>64.854138</ele>
        <time>2020-07-31T12:13:20.143Z</time>
      </trkpt>
      <trkpt lat="62.48816" lon="6.72712">
        <ele>63.708111</ele>
        <time>2020-07-31T12:13:22.110Z</time>
      </trkpt>
      <trkpt lat="62.48799" lon="6.72706">
        <ele>62.440834</ele>
        <time>2020-07-31T12:13:24.156Z</time>
      </trkpt>
      <trkpt lat="62.4879" lon="6.72703">
        <ele>61.773323</ele>
        <time>2020-07-31T12:13:25.144Z</time>
      </trkpt>
      <trkpt lat="62.48781" lon="6.72699">
        <ele>61.108871</ele>
        <time>2020-07-31T12:13:26.155Z</time>
      </trkpt>
      <trkpt lat="62.48772" lon="6.72694">
        <ele>60.437051</ele>
        <time>2020-07-31T12:13:27.112Z</time>
      </trkpt>
      <trkpt lat="62.48763" lon="6.72689">
        <ele>59.732649</ele>
        <time>2020-07-31T12:13:28.113Z</time>
      </trkpt>
      <trkpt lat="62.48747" lon="6.72683">
        <ele>58.559394</ele>
        <time>2020-07-31T12:13:30.133Z</time>
      </trkpt>
      <trkpt lat="62.48736" lon="6.72695">
        <ele>57.614293</ele>
        <time>2020-07-31T12:13:32.120Z</time>
      </trkpt>
      <trkpt lat="62.48732" lon="6.72718">
        <ele>56.79387</ele>
        <time>2020-07-31T12:13:34.120Z</time>
      </trkpt>
      <trkpt lat="62.48733" lon="6.72743">
        <ele>55.931324</ele>
        <time>2020-07-31T12:13:36.109Z</time>
      </trkpt>
      <trkpt lat="62.48735" lon="6.72766">
        <ele>55.155433</ele>
        <time>2020-07-31T12:13:38.124Z</time>
      </trkpt>
      <trkpt lat="62.48736" lon="6.72786">
        <ele>54.466321</ele>
        <time>2020-07-31T12:13:40.136Z</time>
      </trkpt>
      <trkpt lat="62.48729" lon="6.72809">
        <ele>53.544054</ele>
        <time>2020-07-31T12:13:43.158Z</time>
      </trkpt>
      <trkpt lat="62.48718" lon="6.72815">
        <ele>53.836314</ele>
        <time>2020-07-31T12:13:46.122Z</time>
      </trkpt>
      <trkpt lat="62.48708" lon="6.7282">
        <ele>54.965077</ele>
        <time>2020-07-31T12:13:49.097Z</time>
      </trkpt>
      <trkpt lat="62.48699" lon="6.72825">
        <ele>56.03468</ele>
        <time>2020-07-31T12:13:52.148Z</time>
      </trkpt>
      <trkpt lat="62.4869" lon="6.72831">
        <ele>57.048535</ele>
        <time>2020-07-31T12:13:56.136Z</time>
      </trkpt>
      <trkpt lat="62.4868" lon="6.72837">
        <ele>58.199817</ele>
        <time>2020-07-31T12:14:01.109Z</time>
      </trkpt>
      <trkpt lat="62.48668" lon="6.72847">
        <ele>59.677531</ele>
        <time>2020-07-31T12:16:12.134Z</time>
      </trkpt>
      <trkpt lat="62.48658" lon="6.72849">
        <ele>60.691507</ele>
        <time>2020-07-31T12:16:20.147Z</time>
      </trkpt>
      <trkpt lat="62.4865" lon="6.72857">
        <ele>61.693621</ele>
        <time>2020-07-31T12:16:30.102Z</time>
      </trkpt>
      <trkpt lat="62.48642" lon="6.72869">
        <ele>62.800061</ele>
        <time>2020-07-31T12:16:40.111Z</time>
      </trkpt>
      <trkpt lat="62.48633" lon="6.72875">
        <ele>63.814765</ele>
        <time>2020-07-31T12:16:49.169Z</time>
      </trkpt>
      <trkpt lat="62.48624" lon="6.72881">
        <ele>64.859849</ele>
        <time>2020-07-31T12:16:58.127Z</time>
      </trkpt>
      <trkpt lat="62.48614" lon="6.72878">
        <ele>65.908851</ele>
        <time>2020-07-31T12:17:07.118Z</time>
      </trkpt>
      <trkpt lat="62.48606" lon="6.72871">
        <ele>66.914077</ele>
        <time>2020-07-31T12:17:15.125Z</time>
      </trkpt>
      <trkpt lat="62.48597" lon="6.72861">
        <ele>67.96597</ele>
        <time>2020-07-31T12:17:23.104Z</time>
      </trkpt>
      <trkpt lat="62.48589" lon="6.7285">
        <ele>69.024278</ele>
        <time>2020-07-31T12:17:31.093Z</time>
      </trkpt>
      <trkpt lat="62.48581" lon="6.7284">
        <ele>70.093166</ele>
        <time>2020-07-31T12:17:39.103Z</time>
      </trkpt>
      <trkpt lat="62.48572" lon="6.72831">
        <ele>71.120885</ele>
        <time>2020-07-31T12:17:47.115Z</time>
      </trkpt>
      <trkpt lat="62.48564" lon="6.72822">
        <ele>72.135117</ele>
        <time>2020-07-31T12:17:55.123Z</time>
      </trkpt>
      <trkpt lat="62.48555" lon="6.72813">
        <ele>73.13844</ele>
        <time>2020-07-31T12:18:02.111Z</time>
      </trkpt>
      <trkpt lat="62.48548" lon="6.72802">
        <ele>73.849738</ele>
        <time>2020-07-31T12:18:12.114Z</time>
      </trkpt>
      <trkpt lat="62.4854" lon="6.72788">
        <ele>74.631977</ele>
        <time>2020-07-31T12:18:21.111Z</time>
      </trkpt>
      <trkpt lat="62.48532" lon="6.72775">
        <ele>75.434108</ele>
        <time>2020-07-31T12:18:29.129Z</time>
      </trkpt>
      <trkpt lat="62.48525" lon="6.72762">
        <ele>76.163001</ele>
        <time>2020-07-31T12:18:38.110Z</time>
      </trkpt>
      <trkpt lat="62.48519" lon="6.72747">
        <ele>76.939616</ele>
        <time>2020-07-31T12:18:46.107Z</time>
      </trkpt>
      <trkpt lat="62.48513" lon="6.72731">
        <ele>77.666932</ele>
        <time>2020-07-31T12:18:54.125Z</time>
      </trkpt>
      <trkpt lat="62.48506" lon="6.72719">
        <ele>78.413497</ele>
        <time>2020-07-31T12:19:03.096Z</time>
      </trkpt>
      <trkpt lat="62.48499" lon="6.72704">
        <ele>79.141653</ele>
        <time>2020-07-31T12:19:10.117Z</time>
      </trkpt>
      <trkpt lat="62.48493" lon="6.72688">
        <ele>79.950595</ele>
        <time>2020-07-31T12:19:17.156Z</time>
      </trkpt>
      <trkpt lat="62.48486" lon="6.72673">
        <ele>80.708433</ele>
        <time>2020-07-31T12:19:24.150Z</time>
      </trkpt>
      <trkpt lat="62.4848" lon="6.72655">
        <ele>81.531656</ele>
        <time>2020-07-31T12:19:31.111Z</time>
      </trkpt>
      <trkpt lat="62.48476" lon="6.72634">
        <ele>82.343088</ele>
        <time>2020-07-31T12:19:39.154Z</time>
      </trkpt>
      <trkpt lat="62.48471" lon="6.72616">
        <ele>83.104179</ele>
        <time>2020-07-31T12:19:46.130Z</time>
      </trkpt>
      <trkpt lat="62.48469" lon="6.72596">
        <ele>83.848269</ele>
        <time>2020-07-31T12:19:52.164Z</time>
      </trkpt>
      <trkpt lat="62.48466" lon="6.72577">
        <ele>84.622203</ele>
        <time>2020-07-31T12:19:58.156Z</time>
      </trkpt>
      <trkpt lat="62.48461" lon="6.72557">
        <ele>85.432583</ele>
        <time>2020-07-31T12:20:03.113Z</time>
      </trkpt>
      <trkpt lat="62.48458" lon="6.72539">
        <ele>86.156339</ele>
        <time>2020-07-31T12:20:08.123Z</time>
      </trkpt>
      <trkpt lat="62.48454" lon="6.7252">
        <ele>86.919585</ele>
        <time>2020-07-31T12:20:13.110Z</time>
      </trkpt>
      <trkpt lat="62.48449" lon="6.72502">
        <ele>87.345732</ele>
        <time>2020-07-31T12:20:19.102Z</time>
      </trkpt>
      <trkpt lat="62.48445" lon="6.72481">
        <ele>87.534876</ele>
        <time>2020-07-31T12:20:25.139Z</time>
      </trkpt>
      <trkpt lat="62.48441" lon="6.72462">
        <ele>87.705649</ele>
        <time>2020-07-31T12:20:29.113Z</time>
      </trkpt>
      <trkpt lat="62.48437" lon="6.72444">
        <ele>87.875095</ele>
        <time>2020-07-31T12:20:33.159Z</time>
      </trkpt>
      <trkpt lat="62.48432" lon="6.72422">
        <ele>88.079952</ele>
        <time>2020-07-31T12:20:37.117Z</time>
      </trkpt>
      <trkpt lat="62.48428" lon="6.72404">
        <ele>88.24537</ele>
        <time>2020-07-31T12:20:40.137Z</time>
      </trkpt>
      <trkpt lat="62.48423" lon="6.72381">
        <ele>88.454819</ele>
        <time>2020-07-31T12:20:44.117Z</time>
      </trkpt>
      <trkpt lat="62.48419" lon="6.72362">
        <ele>88.633103</ele>
        <time>2020-07-31T12:20:48.114Z</time>
      </trkpt>
      <trkpt lat="62.48414" lon="6.72341">
        <ele>88.827682</ele>
        <time>2020-07-31T12:20:52.100Z</time>
      </trkpt>
      <trkpt lat="62.4841" lon="6.72319">
        <ele>89.028729</ele>
        <time>2020-07-31T12:20:56.152Z</time>
      </trkpt>
      <trkpt lat="62.48405" lon="6.72297">
        <ele>89.238877</ele>
        <time>2020-07-31T12:21:00.108Z</time>
      </trkpt>
      <trkpt lat="62.484" lon="6.72276">
        <ele>89.431026</ele>
        <time>2020-07-31T12:21:04.131Z</time>
      </trkpt>
      <trkpt lat="62.48395" lon="6.72255">
        <ele>89.627539</ele>
        <time>2020-07-31T12:21:08.118Z</time>
      </trkpt>
      <trkpt lat="62.48391" lon="6.72237">
        <ele>89.797725</ele>
        <time>2020-07-31T12:21:12.142Z</time>
      </trkpt>
      <trkpt lat="62.48387" lon="6.72218">
        <ele>89.968427</ele>
        <time>2020-07-31T12:21:16.141Z</time>
      </trkpt>
      <trkpt lat="62.48381" lon="6.72198">
        <ele>90.168713</ele>
        <time>2020-07-31T12:21:21.120Z</time>
      </trkpt>
      <trkpt lat="62.48376" lon="6.72177">
        <ele>90.363922</ele>
        <time>2020-07-31T12:21:26.118Z</time>
      </trkpt>
      <trkpt lat="62.48372" lon="6.72157">
        <ele>90.652871</ele>
        <time>2020-07-31T12:21:31.110Z</time>
      </trkpt>
      <trkpt lat="62.4837" lon="6.72135">
        <ele>91.221614</ele>
        <time>2020-07-31T12:21:37.168Z</time>
      </trkpt>
      <trkpt lat="62.48367" lon="6.72113">
        <ele>91.803599</ele>
        <time>2020-07-31T12:21:43.102Z</time>
      </trkpt>
      <trkpt lat="62.48364" lon="6.72093">
        <ele>92.328492</ele>
        <time>2020-07-31T12:21:48.115Z</time>
      </trkpt>
      <trkpt lat="62.48359" lon="6.72069">
        <ele>92.989044</ele>
        <time>2020-07-31T12:21:53.114Z</time>
      </trkpt>
      <trkpt lat="62.48355" lon="6.72052">
        <ele>93.50622</ele>
        <time>2020-07-31T12:21:56.173Z</time>
      </trkpt>
      <trkpt lat="62.48348" lon="6.72033">
        <ele>94.096404</ele>
        <time>2020-07-31T12:21:59.105Z</time>
      </trkpt>
      <trkpt lat="62.48342" lon="6.72012">
        <ele>94.73243</ele>
        <time>2020-07-31T12:22:03.112Z</time>
      </trkpt>
      <trkpt lat="62.48336" lon="6.71996">
        <ele>95.259294</ele>
        <time>2020-07-31T12:22:06.129Z</time>
      </trkpt>
      <trkpt lat="62.48331" lon="6.71977">
        <ele>95.808153</ele>
        <time>2020-07-31T12:22:10.116Z</time>
      </trkpt>
      <trkpt lat="62.48325" lon="6.71958">
        <ele>96.395095</ele>
        <time>2020-07-31T12:22:15.140Z</time>
      </trkpt>
      <trkpt lat="62.48319" lon="6.71943">
        <ele>96.899998</ele>
        <time>2020-07-31T12:22:19.148Z</time>
      </trkpt>
      <trkpt lat="62.48312" lon="6.71925">
        <ele>97.487402</ele>
        <time>2020-07-31T12:22:24.094Z</time>
      </trkpt>
      <trkpt lat="62.48306" lon="6.71912">
        <ele>97.984024</ele>
        <time>2020-07-31T12:22:28.149Z</time>
      </trkpt>
      <trkpt lat="62.48298" lon="6.71897">
        <ele>98.535461</ele>
        <time>2020-07-31T12:22:33.104Z</time>
      </trkpt>
      <trkpt lat="62.48292" lon="6.71879">
        <ele>99.120891</ele>
        <time>2020-07-31T12:22:37.113Z</time>
      </trkpt>
      <trkpt lat="62.48284" lon="6.71861">
        <ele>99.720188</ele>
        <time>2020-07-31T12:22:41.124Z</time>
      </trkpt>
      <trkpt lat="62.48278" lon="6.71845">
        <ele>100.245049</ele>
        <time>2020-07-31T12:22:44.106Z</time>
      </trkpt>
      <trkpt lat="62.48272" lon="6.71829">
        <ele>100.65363</ele>
        <time>2020-07-31T12:22:48.143Z</time>
      </trkpt>
      <trkpt lat="62.48263" lon="6.71813">
        <ele>101.067798</ele>
        <time>2020-07-31T12:22:52.113Z</time>
      </trkpt>
      <trkpt lat="62.48256" lon="6.71797">
        <ele>101.444643</ele>
        <time>2020-07-31T12:22:57.120Z</time>
      </trkpt>
      <trkpt lat="62.4825" lon="6.71782">
        <ele>101.792834</ele>
        <time>2020-07-31T12:23:02.107Z</time>
      </trkpt>
      <trkpt lat="62.48243" lon="6.71764">
        <ele>102.188991</ele>
        <time>2020-07-31T12:23:07.113Z</time>
      </trkpt>
      <trkpt lat="62.48238" lon="6.71748">
        <ele>102.523395</ele>
        <time>2020-07-31T12:23:11.109Z</time>
      </trkpt>
      <trkpt lat="62.48231" lon="6.71732">
        <ele>102.89037</ele>
        <time>2020-07-31T12:23:15.156Z</time>
      </trkpt>
      <trkpt lat="62.48225" lon="6.71717">
        <ele>103.230968</ele>
        <time>2020-07-31T12:23:19.117Z</time>
      </trkpt>
      <trkpt lat="62.48218" lon="6.71703">
        <ele>103.585527</ele>
        <time>2020-07-31T12:23:23.095Z</time>
      </trkpt>
      <trkpt lat="62.48212" lon="6.71686">
        <ele>103.957757</ele>
        <time>2020-07-31T12:23:27.131Z</time>
      </trkpt>
      <trkpt lat="62.48205" lon="6.71671">
        <ele>104.304631</ele>
        <time>2020-07-31T12:23:30.096Z</time>
      </trkpt>
      <trkpt lat="62.48199" lon="6.71655">
        <ele>104.651797</ele>
        <time>2020-07-31T12:23:34.104Z</time>
      </trkpt>
      <trkpt lat="62.48192" lon="6.7164">
        <ele>105.021363</ele>
        <time>2020-07-31T12:23:39.124Z</time>
      </trkpt>
      <trkpt lat="62.48185" lon="6.71626">
        <ele>105.366598</ele>
        <time>2020-07-31T12:23:44.118Z</time>
      </trkpt>
      <trkpt lat="62.48178" lon="6.71611">
        <ele>105.724664</ele>
        <time>2020-07-31T12:23:49.142Z</time>
      </trkpt>
      <trkpt lat="62.48172" lon="6.71592">
        <ele>106.112134</ele>
        <time>2020-07-31T12:23:53.102Z</time>
      </trkpt>
      <trkpt lat="62.48166" lon="6.71574">
        <ele>106.508298</ele>
        <time>2020-07-31T12:23:57.116Z</time>
      </trkpt>
      <trkpt lat="62.48161" lon="6.71557">
        <ele>106.854634</ele>
        <time>2020-07-31T12:24:01.118Z</time>
      </trkpt>
      <trkpt lat="62.48154" lon="6.71538">
        <ele>107.476631</ele>
        <time>2020-07-31T12:24:06.196Z</time>
      </trkpt>
      <trkpt lat="62.48148" lon="6.7152">
        <ele>108.216455</ele>
        <time>2020-07-31T12:24:11.130Z</time>
      </trkpt>
      <trkpt lat="62.48143" lon="6.71501">
        <ele>108.917982</ele>
        <time>2020-07-31T12:24:16.103Z</time>
      </trkpt>
      <trkpt lat="62.48138" lon="6.7148">
        <ele>109.678154</ele>
        <time>2020-07-31T12:24:21.136Z</time>
      </trkpt>
      <trkpt lat="62.48133" lon="6.71462">
        <ele>110.341528</ele>
        <time>2020-07-31T12:24:25.124Z</time>
      </trkpt>
      <trkpt lat="62.4813" lon="6.71443">
        <ele>111.010078</ele>
        <time>2020-07-31T12:24:30.134Z</time>
      </trkpt>
      <trkpt lat="62.48125" lon="6.71425">
        <ele>111.66772</ele>
        <time>2020-07-31T12:24:35.152Z</time>
      </trkpt>
      <trkpt lat="62.48121" lon="6.71407">
        <ele>112.334908</ele>
        <time>2020-07-31T12:24:40.117Z</time>
      </trkpt>
      <trkpt lat="62.48118" lon="6.71388">
        <ele>112.992312</ele>
        <time>2020-07-31T12:24:45.127Z</time>
      </trkpt>
      <trkpt lat="62.48114" lon="6.71365">
        <ele>113.791921</ele>
        <time>2020-07-31T12:24:50.110Z</time>
      </trkpt>
      <trkpt lat="62.48108" lon="6.71342">
        <ele>114.641813</ele>
        <time>2020-07-31T12:24:54.143Z</time>
      </trkpt>
      <trkpt lat="62.48102" lon="6.71319">
        <ele>115.506458</ele>
        <time>2020-07-31T12:24:57.096Z</time>
      </trkpt>
      <trkpt lat="62.48099" lon="6.71298">
        <ele>116.221523</ele>
        <time>2020-07-31T12:25:00.156Z</time>
      </trkpt>
      <trkpt lat="62.48095" lon="6.71278">
        <ele>116.909706</ele>
        <time>2020-07-31T12:25:05.106Z</time>
      </trkpt>
      <trkpt lat="62.48088" lon="6.71259">
        <ele>117.719742</ele>
        <time>2020-07-31T12:25:09.141Z</time>
      </trkpt>
      <trkpt lat="62.48082" lon="6.7124">
        <ele>118.47426</ele>
        <time>2020-07-31T12:25:13.110Z</time>
      </trkpt>
      <trkpt lat="62.48077" lon="6.71221">
        <ele>119.170016</ele>
        <time>2020-07-31T12:25:17.178Z</time>
      </trkpt>
      <trkpt lat="62.48072" lon="6.71203">
        <ele>119.277511</ele>
        <time>2020-07-31T12:25:21.114Z</time>
      </trkpt>
      <trkpt lat="62.48066" lon="6.71183">
        <ele>118.014903</ele>
        <time>2020-07-31T12:25:25.111Z</time>
      </trkpt>
      <trkpt lat="62.48061" lon="6.71164">
        <ele>116.823884</ele>
        <time>2020-07-31T12:25:29.156Z</time>
      </trkpt>
      <trkpt lat="62.48055" lon="6.71138">
        <ele>115.320677</ele>
        <time>2020-07-31T12:25:33.112Z</time>
      </trkpt>
      <trkpt lat="62.4805" lon="6.71113">
        <ele>113.842009</ele>
        <time>2020-07-31T12:25:36.094Z</time>
      </trkpt>
      <trkpt lat="62.48044" lon="6.71092">
        <ele>112.565901</ele>
        <time>2020-07-31T12:25:40.104Z</time>
      </trkpt>
      <trkpt lat="62.48039" lon="6.7107">
        <ele>111.272215</ele>
        <time>2020-07-31T12:25:44.170Z</time>
      </trkpt>
      <trkpt lat="62.48034" lon="6.7105">
        <ele>110.050002</ele>
        <time>2020-07-31T12:25:48.115Z</time>
      </trkpt>
      <trkpt lat="62.48027" lon="6.71032">
        <ele>108.858828</ele>
        <time>2020-07-31T12:25:52.162Z</time>
      </trkpt>
      <trkpt lat="62.48022" lon="6.7101">
        <ele>107.496476</ele>
        <time>2020-07-31T12:25:56.148Z</time>
      </trkpt>
      <trkpt lat="62.48014" lon="6.70989">
        <ele>106.066927</ele>
        <time>2020-07-31T12:25:59.159Z</time>
      </trkpt>
      <trkpt lat="62.48007" lon="6.70973">
        <ele>104.913384</ele>
        <time>2020-07-31T12:26:01.105Z</time>
      </trkpt>
      <trkpt lat="62.48001" lon="6.70958">
        <ele>103.830005</ele>
        <time>2020-07-31T12:26:03.095Z</time>
      </trkpt>
      <trkpt lat="62.47994" lon="6.70941">
        <ele>102.663351</ele>
        <time>2020-07-31T12:26:05.149Z</time>
      </trkpt>
      <trkpt lat="62.47988" lon="6.70924">
        <ele>101.508883</ele>
        <time>2020-07-31T12:26:07.097Z</time>
      </trkpt>
      <trkpt lat="62.47981" lon="6.7091">
        <ele>100.440796</ele>
        <time>2020-07-31T12:26:09.145Z</time>
      </trkpt>
      <trkpt lat="62.47973" lon="6.70898">
        <ele>99.304155</ele>
        <time>2020-07-31T12:26:11.137Z</time>
      </trkpt>
      <trkpt lat="62.47963" lon="6.70891">
        <ele>98.309258</ele>
        <time>2020-07-31T12:26:13.114Z</time>
      </trkpt>
      <trkpt lat="62.47954" lon="6.70892">
        <ele>97.51211</ele>
        <time>2020-07-31T12:26:15.116Z</time>
      </trkpt>
      <trkpt lat="62.47944" lon="6.709">
        <ele>96.600681</ele>
        <time>2020-07-31T12:26:18.120Z</time>
      </trkpt>
      <trkpt lat="62.47933" lon="6.70908">
        <ele>95.555727</ele>
        <time>2020-07-31T12:26:22.127Z</time>
      </trkpt>
      <trkpt lat="62.47924" lon="6.70916">
        <ele>94.775068</ele>
        <time>2020-07-31T12:26:25.117Z</time>
      </trkpt>
      <trkpt lat="62.47917" lon="6.70926">
        <ele>93.985785</ele>
        <time>2020-07-31T12:26:28.126Z</time>
      </trkpt>
      <trkpt lat="62.47909" lon="6.7094">
        <ele>93.126578</ele>
        <time>2020-07-31T12:26:31.142Z</time>
      </trkpt>
      <trkpt lat="62.47901" lon="6.70954">
        <ele>92.25559</ele>
        <time>2020-07-31T12:26:34.110Z</time>
      </trkpt>
      <trkpt lat="62.47894" lon="6.70969">
        <ele>91.3728</ele>
        <time>2020-07-31T12:26:37.153Z</time>
      </trkpt>
      <trkpt lat="62.47887" lon="6.70986">
        <ele>90.452159</ele>
        <time>2020-07-31T12:26:40.159Z</time>
      </trkpt>
      <trkpt lat="62.47881" lon="6.71003">
        <ele>89.634778</ele>
        <time>2020-07-31T12:26:43.132Z</time>
      </trkpt>
      <trkpt lat="62.47874" lon="6.71022">
        <ele>88.645904</ele>
        <time>2020-07-31T12:26:47.121Z</time>
      </trkpt>
      <trkpt lat="62.47868" lon="6.7104">
        <ele>87.72945</ele>
        <time>2020-07-31T12:26:51.098Z</time>
      </trkpt>
      <trkpt lat="62.47863" lon="6.71058">
        <ele>86.922082</ele>
        <time>2020-07-31T12:26:55.130Z</time>
      </trkpt>
      <trkpt lat="62.47862" lon="6.71079">
        <ele>86.082052</ele>
        <time>2020-07-31T12:27:00.096Z</time>
      </trkpt>
      <trkpt lat="62.47857" lon="6.711">
        <ele>85.12267</ele>
        <time>2020-07-31T12:27:04.118Z</time>
      </trkpt>
      <trkpt lat="62.47854" lon="6.71129">
        <ele>83.944126</ele>
        <time>2020-07-31T12:27:07.125Z</time>
      </trkpt>
      <trkpt lat="62.4785" lon="6.71151">
        <ele>83.52742</ele>
        <time>2020-07-31T12:27:09.121Z</time>
      </trkpt>
      <trkpt lat="62.47846" lon="6.71174">
        <ele>83.819286</ele>
        <time>2020-07-31T12:27:11.113Z</time>
      </trkpt>
      <trkpt lat="62.47843" lon="6.71193">
        <ele>84.067882</ele>
        <time>2020-07-31T12:27:13.116Z</time>
      </trkpt>
      <trkpt lat="62.47838" lon="6.71214">
        <ele>84.350163</ele>
        <time>2020-07-31T12:27:16.122Z</time>
      </trkpt>
      <trkpt lat="62.47834" lon="6.71237">
        <ele>84.643889</ele>
        <time>2020-07-31T12:27:20.109Z</time>
      </trkpt>
      <trkpt lat="62.47831" lon="6.71255">
        <ele>84.879036</ele>
        <time>2020-07-31T12:27:24.144Z</time>
      </trkpt>
      <trkpt lat="62.47829" lon="6.71276">
        <ele>85.140383</ele>
        <time>2020-07-31T12:27:29.112Z</time>
      </trkpt>
      <trkpt lat="62.47826" lon="6.71296">
        <ele>85.391504</ele>
        <time>2020-07-31T12:27:34.112Z</time>
      </trkpt>
      <trkpt lat="62.47824" lon="6.71318">
        <ele>85.650432</ele>
        <time>2020-07-31T12:27:41.106Z</time>
      </trkpt>
      <trkpt lat="62.47818" lon="6.7134">
        <ele>85.963259</ele>
        <time>2020-07-31T12:28:46.143Z</time>
      </trkpt>
      <trkpt lat="62.47815" lon="6.71361">
        <ele>86.224879</ele>
        <time>2020-07-31T12:28:51.109Z</time>
      </trkpt>
      <trkpt lat="62.47809" lon="6.71378">
        <ele>86.494138</ele>
        <time>2020-07-31T12:28:55.123Z</time>
      </trkpt>
      <trkpt lat="62.47801" lon="6.71393">
        <ele>86.752883</ele>
        <time>2020-07-31T12:28:58.151Z</time>
      </trkpt>
      <trkpt lat="62.47797" lon="6.71412">
        <ele>87.008958</ele>
        <time>2020-07-31T12:29:01.124Z</time>
      </trkpt>
      <trkpt lat="62.47796" lon="6.71433">
        <ele>87.267085</ele>
        <time>2020-07-31T12:29:04.105Z</time>
      </trkpt>
      <trkpt lat="62.47794" lon="6.71455">
        <ele>87.530893</ele>
        <time>2020-07-31T12:29:07.132Z</time>
      </trkpt>
      <trkpt lat="62.47791" lon="6.71476">
        <ele>87.791741</ele>
        <time>2020-07-31T12:29:10.133Z</time>
      </trkpt>
      <trkpt lat="62.47789" lon="6.71497">
        <ele>88.062578</ele>
        <time>2020-07-31T12:29:13.142Z</time>
      </trkpt>
      <trkpt lat="62.47786" lon="6.7152">
        <ele>88.273473</ele>
        <time>2020-07-31T12:29:16.102Z</time>
      </trkpt>
      <trkpt lat="62.47783" lon="6.71543">
        <ele>88.480546</ele>
        <time>2020-07-31T12:29:19.108Z</time>
      </trkpt>
      <trkpt lat="62.4778" lon="6.71568">
        <ele>88.708352</ele>
        <time>2020-07-31T12:29:22.115Z</time>
      </trkpt>
      <trkpt lat="62.47777" lon="6.71593">
        <ele>88.937152</ele>
        <time>2020-07-31T12:29:25.162Z</time>
      </trkpt>
      <trkpt lat="62.47775" lon="6.71618">
        <ele>89.156587</ele>
        <time>2020-07-31T12:29:28.110Z</time>
      </trkpt>
      <trkpt lat="62.47772" lon="6.7164">
        <ele>89.364824</ele>
        <time>2020-07-31T12:29:31.107Z</time>
      </trkpt>
      <trkpt lat="62.47769" lon="6.71664">
        <ele>89.576249</ele>
        <time>2020-07-31T12:29:34.142Z</time>
      </trkpt>
      <trkpt lat="62.47766" lon="6.71688">
        <ele>89.790544</ele>
        <time>2020-07-31T12:29:37.127Z</time>
      </trkpt>
      <trkpt lat="62.47764" lon="6.71711">
        <ele>89.998588</ele>
        <time>2020-07-31T12:29:40.171Z</time>
      </trkpt>
      <trkpt lat="62.47761" lon="6.71735">
        <ele>90.215943</ele>
        <time>2020-07-31T12:29:43.134Z</time>
      </trkpt>
      <trkpt lat="62.47758" lon="6.71759">
        <ele>90.431504</ele>
        <time>2020-07-31T12:29:46.120Z</time>
      </trkpt>
      <trkpt lat="62.47757" lon="6.71784">
        <ele>90.655325</ele>
        <time>2020-07-31T12:29:49.101Z</time>
      </trkpt>
      <trkpt lat="62.47756" lon="6.71811">
        <ele>90.889321</ele>
        <time>2020-07-31T12:29:52.130Z</time>
      </trkpt>
      <trkpt lat="62.47755" lon="6.71839">
        <ele>91.136578</ele>
        <time>2020-07-31T12:29:55.098Z</time>
      </trkpt>
      <trkpt lat="62.47755" lon="6.71866">
        <ele>91.377649</ele>
        <time>2020-07-31T12:29:58.116Z</time>
      </trkpt>
      <trkpt lat="62.47755" lon="6.71895">
        <ele>91.642143</ele>
        <time>2020-07-31T12:30:01.093Z</time>
      </trkpt>
      <trkpt lat="62.47755" lon="6.71915">
        <ele>91.833868</ele>
        <time>2020-07-31T12:30:03.101Z</time>
      </trkpt>
      <trkpt lat="62.47756" lon="6.71944">
        <ele>92.112083</ele>
        <time>2020-07-31T12:30:06.112Z</time>
      </trkpt>
      <trkpt lat="62.47757" lon="6.71964">
        <ele>92.306323</ele>
        <time>2020-07-31T12:30:08.108Z</time>
      </trkpt>
      <trkpt lat="62.47758" lon="6.71984">
        <ele>92.501585</ele>
        <time>2020-07-31T12:30:10.105Z</time>
      </trkpt>
      <trkpt lat="62.47758" lon="6.72004">
        <ele>92.692352</ele>
        <time>2020-07-31T12:30:12.108Z</time>
      </trkpt>
      <trkpt lat="62.47758" lon="6.72032">
        <ele>92.960904</ele>
        <time>2020-07-31T12:30:15.114Z</time>
      </trkpt>
      <trkpt lat="62.47759" lon="6.72052">
        <ele>93.150845</ele>
        <time>2020-07-31T12:30:17.135Z</time>
      </trkpt>
      <trkpt lat="62.47761" lon="6.72072">
        <ele>93.340333</ele>
        <time>2020-07-31T12:30:19.097Z</time>
      </trkpt>
      <trkpt lat="62.47762" lon="6.72099">
        <ele>93.605487</ele>
        <time>2020-07-31T12:30:22.141Z</time>
      </trkpt>
      <trkpt lat="62.47762" lon="6.72126">
        <ele>93.859599</ele>
        <time>2020-07-31T12:30:25.108Z</time>
      </trkpt>
      <trkpt lat="62.47762" lon="6.72153">
        <ele>94.118441</ele>
        <time>2020-07-31T12:30:28.127Z</time>
      </trkpt>
      <trkpt lat="62.47762" lon="6.7218">
        <ele>94.376284</ele>
        <time>2020-07-31T12:30:31.119Z</time>
      </trkpt>
      <trkpt lat="62.4776" lon="6.72205">
        <ele>94.622564</ele>
        <time>2020-07-31T12:30:34.120Z</time>
      </trkpt>
      <trkpt lat="62.47758" lon="6.72231">
        <ele>94.87423</ele>
        <time>2020-07-31T12:30:37.092Z</time>
      </trkpt>
      <trkpt lat="62.47757" lon="6.72256">
        <ele>95.117591</ele>
        <time>2020-07-31T12:30:40.134Z</time>
      </trkpt>
      <trkpt lat="62.47756" lon="6.72281">
        <ele>95.27076</ele>
        <time>2020-07-31T12:30:43.107Z</time>
      </trkpt>
      <trkpt lat="62.47755" lon="6.72306">
        <ele>95.349464</ele>
        <time>2020-07-31T12:30:46.120Z</time>
      </trkpt>
      <trkpt lat="62.47753" lon="6.72334">
        <ele>95.433091</ele>
        <time>2020-07-31T12:30:49.122Z</time>
      </trkpt>
      <trkpt lat="62.47752" lon="6.7236">
        <ele>95.514224</ele>
        <time>2020-07-31T12:30:52.104Z</time>
      </trkpt>
      <trkpt lat="62.47751" lon="6.72386">
        <ele>95.59223</ele>
        <time>2020-07-31T12:30:55.094Z</time>
      </trkpt>
      <trkpt lat="62.4775" lon="6.72412">
        <ele>95.670331</ele>
        <time>2020-07-31T12:30:58.099Z</time>
      </trkpt>
      <trkpt lat="62.47749" lon="6.72439">
        <ele>95.753891</ele>
        <time>2020-07-31T12:31:01.122Z</time>
      </trkpt>
      <trkpt lat="62.47747" lon="6.72466">
        <ele>95.835238</ele>
        <time>2020-07-31T12:31:04.136Z</time>
      </trkpt>
      <trkpt lat="62.47746" lon="6.72492">
        <ele>95.915381</ele>
        <time>2020-07-31T12:31:07.113Z</time>
      </trkpt>
      <trkpt lat="62.47744" lon="6.72518">
        <ele>95.996498</ele>
        <time>2020-07-31T12:31:10.122Z</time>
      </trkpt>
      <trkpt lat="62.47743" lon="6.72545">
        <ele>96.076709</ele>
        <time>2020-07-31T12:31:13.128Z</time>
      </trkpt>
      <trkpt lat="62.47742" lon="6.72572">
        <ele>96.16027</ele>
        <time>2020-07-31T12:31:16.122Z</time>
      </trkpt>
      <trkpt lat="62.4774" lon="6.72599">
        <ele>96.243692</ele>
        <time>2020-07-31T12:31:19.121Z</time>
      </trkpt>
      <trkpt lat="62.4774" lon="6.72619">
        <ele>96.302528</ele>
        <time>2020-07-31T12:31:21.154Z</time>
      </trkpt>
      <trkpt lat="62.47741" lon="6.72647">
        <ele>96.389269</ele>
        <time>2020-07-31T12:31:24.113Z</time>
      </trkpt>
      <trkpt lat="62.4774" lon="6.72675">
        <ele>96.659664</ele>
        <time>2020-07-31T12:31:27.129Z</time>
      </trkpt>
      <trkpt lat="62.47742" lon="6.72703">
        <ele>97.002992</ele>
        <time>2020-07-31T12:31:30.111Z</time>
      </trkpt>
      <trkpt lat="62.47743" lon="6.72732">
        <ele>97.352716</ele>
        <time>2020-07-31T12:31:33.117Z</time>
      </trkpt>
      <trkpt lat="62.47743" lon="6.72752">
        <ele>97.600731</ele>
        <time>2020-07-31T12:31:35.108Z</time>
      </trkpt>
      <trkpt lat="62.47743" lon="6.72774">
        <ele>97.869615</ele>
        <time>2020-07-31T12:31:37.106Z</time>
      </trkpt>
      <trkpt lat="62.47744" lon="6.72796">
        <ele>98.148625</ele>
        <time>2020-07-31T12:31:39.112Z</time>
      </trkpt>
      <trkpt lat="62.47744" lon="6.72819">
        <ele>98.425322</ele>
        <time>2020-07-31T12:31:41.109Z</time>
      </trkpt>
      <trkpt lat="62.47746" lon="6.72842">
        <ele>98.718985</ele>
        <time>2020-07-31T12:31:43.113Z</time>
      </trkpt>
      <trkpt lat="62.47747" lon="6.72867">
        <ele>99.015831</ele>
        <time>2020-07-31T12:31:45.121Z</time>
      </trkpt>
      <trkpt lat="62.47747" lon="6.72889">
        <ele>99.291161</ele>
        <time>2020-07-31T12:31:47.152Z</time>
      </trkpt>
      <trkpt lat="62.47747" lon="6.7291">
        <ele>99.549653</ele>
        <time>2020-07-31T12:31:49.120Z</time>
      </trkpt>
      <trkpt lat="62.47747" lon="6.72931">
        <ele>99.808757</ele>
        <time>2020-07-31T12:31:51.155Z</time>
      </trkpt>
      <trkpt lat="62.47748" lon="6.72952">
        <ele>100.067071</ele>
        <time>2020-07-31T12:31:53.141Z</time>
      </trkpt>
      <trkpt lat="62.47748" lon="6.72973">
        <ele>100.326338</ele>
        <time>2020-07-31T12:31:55.111Z</time>
      </trkpt>
      <trkpt lat="62.47749" lon="6.72993">
        <ele>100.573044</ele>
        <time>2020-07-31T12:31:57.119Z</time>
      </trkpt>
      <trkpt lat="62.4775" lon="6.73013">
        <ele>100.816084</ele>
        <time>2020-07-31T12:31:59.129Z</time>
      </trkpt>
      <trkpt lat="62.4775" lon="6.73034">
        <ele>101.075256</ele>
        <time>2020-07-31T12:32:01.121Z</time>
      </trkpt>
      <trkpt lat="62.47751" lon="6.73058">
        <ele>101.214853</ele>
        <time>2020-07-31T12:32:03.096Z</time>
      </trkpt>
      <trkpt lat="62.47752" lon="6.73081">
        <ele>101.251051</ele>
        <time>2020-07-31T12:32:05.149Z</time>
      </trkpt>
      <trkpt lat="62.47752" lon="6.73103">
        <ele>101.285952</ele>
        <time>2020-07-31T12:32:07.094Z</time>
      </trkpt>
      <trkpt lat="62.47752" lon="6.73124">
        <ele>101.31881</ele>
        <time>2020-07-31T12:32:09.111Z</time>
      </trkpt>
      <trkpt lat="62.4775" lon="6.73145">
        <ele>101.351594</ele>
        <time>2020-07-31T12:32:11.103Z</time>
      </trkpt>
      <trkpt lat="62.4775" lon="6.73164">
        <ele>101.382249</ele>
        <time>2020-07-31T12:32:13.101Z</time>
      </trkpt>
      <trkpt lat="62.4775" lon="6.73185">
        <ele>101.41575</ele>
        <time>2020-07-31T12:32:15.139Z</time>
      </trkpt>
      <trkpt lat="62.4775" lon="6.73208">
        <ele>101.45128</ele>
        <time>2020-07-31T12:32:17.112Z</time>
      </trkpt>
      <trkpt lat="62.4775" lon="6.7323">
        <ele>101.485708</ele>
        <time>2020-07-31T12:32:19.122Z</time>
      </trkpt>
      <trkpt lat="62.4775" lon="6.7325">
        <ele>101.517942</ele>
        <time>2020-07-31T12:32:21.158Z</time>
      </trkpt>
      <trkpt lat="62.47751" lon="6.73271">
        <ele>101.550128</ele>
        <time>2020-07-31T12:32:23.122Z</time>
      </trkpt>
      <trkpt lat="62.47751" lon="6.73293">
        <ele>101.585185</ele>
        <time>2020-07-31T12:32:25.147Z</time>
      </trkpt>
      <trkpt lat="62.47751" lon="6.73314">
        <ele>101.618357</ele>
        <time>2020-07-31T12:32:27.109Z</time>
      </trkpt>
      <trkpt lat="62.47751" lon="6.73334">
        <ele>101.650272</ele>
        <time>2020-07-31T12:32:29.111Z</time>
      </trkpt>
      <trkpt lat="62.47752" lon="6.73363">
        <ele>101.695893</ele>
        <time>2020-07-31T12:32:32.113Z</time>
      </trkpt>
      <trkpt lat="62.47751" lon="6.73383">
        <ele>101.726735</ele>
        <time>2020-07-31T12:32:34.122Z</time>
      </trkpt>
      <trkpt lat="62.47751" lon="6.73403">
        <ele>101.75755</ele>
        <time>2020-07-31T12:32:36.131Z</time>
      </trkpt>
      <trkpt lat="62.47751" lon="6.73423">
        <ele>101.789622</ele>
        <time>2020-07-31T12:32:38.155Z</time>
      </trkpt>
      <trkpt lat="62.47752" lon="6.73444">
        <ele>101.642691</ele>
        <time>2020-07-31T12:32:40.128Z</time>
      </trkpt>
      <trkpt lat="62.47753" lon="6.73464">
        <ele>101.358241</ele>
        <time>2020-07-31T12:32:42.146Z</time>
      </trkpt>
      <trkpt lat="62.47754" lon="6.73486">
        <ele>101.060558</ele>
        <time>2020-07-31T12:32:44.147Z</time>
      </trkpt>
      <trkpt lat="62.47754" lon="6.73509">
        <ele>100.740425</ele>
        <time>2020-07-31T12:32:46.111Z</time>
      </trkpt>
      <trkpt lat="62.47754" lon="6.73533">
        <ele>100.413606</ele>
        <time>2020-07-31T12:32:48.125Z</time>
      </trkpt>
      <trkpt lat="62.47755" lon="6.73557">
        <ele>100.082611</ele>
        <time>2020-07-31T12:32:50.113Z</time>
      </trkpt>
      <trkpt lat="62.47755" lon="6.73581">
        <ele>99.741181</ele>
        <time>2020-07-31T12:32:52.125Z</time>
      </trkpt>
      <trkpt lat="62.47756" lon="6.73604">
        <ele>99.423804</ele>
        <time>2020-07-31T12:32:54.137Z</time>
      </trkpt>
      <trkpt lat="62.47756" lon="6.73627">
        <ele>99.107679</ele>
        <time>2020-07-31T12:32:56.132Z</time>
      </trkpt>
      <trkpt lat="62.47757" lon="6.73648">
        <ele>98.815977</ele>
        <time>2020-07-31T12:32:58.158Z</time>
      </trkpt>
      <trkpt lat="62.47757" lon="6.73669">
        <ele>98.526265</ele>
        <time>2020-07-31T12:33:00.114Z</time>
      </trkpt>
      <trkpt lat="62.47757" lon="6.73691">
        <ele>98.229737</ele>
        <time>2020-07-31T12:33:02.122Z</time>
      </trkpt>
      <trkpt lat="62.47758" lon="6.73711">
        <ele>97.946052</ele>
        <time>2020-07-31T12:33:04.102Z</time>
      </trkpt>
      <trkpt lat="62.47758" lon="6.73731">
        <ele>97.675717</ele>
        <time>2020-07-31T12:33:06.105Z</time>
      </trkpt>
      <trkpt lat="62.47758" lon="6.73759">
        <ele>97.294562</ele>
        <time>2020-07-31T12:33:09.119Z</time>
      </trkpt>
      <trkpt lat="62.47758" lon="6.73778">
        <ele>97.022914</ele>
        <time>2020-07-31T12:33:11.129Z</time>
      </trkpt>
      <trkpt lat="62.47758" lon="6.73799">
        <ele>96.743797</ele>
        <time>2020-07-31T12:33:13.106Z</time>
      </trkpt>
      <trkpt lat="62.47758" lon="6.73819">
        <ele>96.458344</ele>
        <time>2020-07-31T12:33:15.124Z</time>
      </trkpt>
      <trkpt lat="62.47759" lon="6.73839">
        <ele>96.163612</ele>
        <time>2020-07-31T12:33:17.103Z</time>
      </trkpt>
      <trkpt lat="62.47759" lon="6.73859">
        <ele>95.867009</ele>
        <time>2020-07-31T12:33:19.114Z</time>
      </trkpt>
      <trkpt lat="62.4776" lon="6.73888">
        <ele>95.442694</ele>
        <time>2020-07-31T12:33:22.130Z</time>
      </trkpt>
      <trkpt lat="62.47762" lon="6.73916">
        <ele>95.013988</ele>
        <time>2020-07-31T12:33:25.140Z</time>
      </trkpt>
      <trkpt lat="62.47763" lon="6.73936">
        <ele>94.719583</ele>
        <time>2020-07-31T12:33:27.120Z</time>
      </trkpt>
      <trkpt lat="62.47764" lon="6.73957">
        <ele>94.412689</ele>
        <time>2020-07-31T12:33:29.136Z</time>
      </trkpt>
      <trkpt lat="62.47764" lon="6.73977">
        <ele>94.110285</ele>
        <time>2020-07-31T12:33:31.157Z</time>
      </trkpt>
      <trkpt lat="62.47765" lon="6.73998">
        <ele>93.796023</ele>
        <time>2020-07-31T12:33:33.128Z</time>
      </trkpt>
      <trkpt lat="62.47766" lon="6.7402">
        <ele>93.47225</ele>
        <time>2020-07-31T12:33:35.114Z</time>
      </trkpt>
      <trkpt lat="62.47767" lon="6.74043">
        <ele>93.134197</ele>
        <time>2020-07-31T12:33:37.102Z</time>
      </trkpt>
      <trkpt lat="62.47767" lon="6.74066">
        <ele>92.796387</ele>
        <time>2020-07-31T12:33:39.178Z</time>
      </trkpt>
      <trkpt lat="62.47766" lon="6.74089">
        <ele>92.456853</ele>
        <time>2020-07-31T12:33:41.134Z</time>
      </trkpt>
      <trkpt lat="62.47765" lon="6.74111">
        <ele>92.124435</ele>
        <time>2020-07-31T12:33:43.138Z</time>
      </trkpt>
      <trkpt lat="62.47763" lon="6.74133">
        <ele>91.795929</ele>
        <time>2020-07-31T12:33:45.126Z</time>
      </trkpt>
      <trkpt lat="62.47761" lon="6.74154">
        <ele>91.475447</ele>
        <time>2020-07-31T12:33:47.102Z</time>
      </trkpt>
      <trkpt lat="62.47758" lon="6.74174">
        <ele>91.162492</ele>
        <time>2020-07-31T12:33:49.116Z</time>
      </trkpt>
      <trkpt lat="62.47755" lon="6.74193">
        <ele>90.862776</ele>
        <time>2020-07-31T12:33:51.108Z</time>
      </trkpt>
      <trkpt lat="62.47752" lon="6.74213">
        <ele>90.565679</ele>
        <time>2020-07-31T12:33:53.128Z</time>
      </trkpt>
      <trkpt lat="62.47749" lon="6.74233">
        <ele>90.276963</ele>
        <time>2020-07-31T12:33:55.101Z</time>
      </trkpt>
      <trkpt lat="62.47745" lon="6.74252">
        <ele>89.991815</ele>
        <time>2020-07-31T12:33:57.120Z</time>
      </trkpt>
      <trkpt lat="62.47742" lon="6.74271">
        <ele>89.714888</ele>
        <time>2020-07-31T12:33:59.118Z</time>
      </trkpt>
      <trkpt lat="62.47739" lon="6.74291">
        <ele>89.439614</ele>
        <time>2020-07-31T12:34:01.130Z</time>
      </trkpt>
      <trkpt lat="62.47737" lon="6.7431">
        <ele>89.167068</ele>
        <time>2020-07-31T12:34:03.123Z</time>
      </trkpt>
      <trkpt lat="62.47735" lon="6.74331">
        <ele>88.880622</ele>
        <time>2020-07-31T12:34:05.143Z</time>
      </trkpt>
      <trkpt lat="62.47733" lon="6.74354">
        <ele>88.564535</ele>
        <time>2020-07-31T12:34:07.119Z</time>
      </trkpt>
      <trkpt lat="62.47732" lon="6.74377">
        <ele>88.237388</ele>
        <time>2020-07-31T12:34:09.098Z</time>
      </trkpt>
      <trkpt lat="62.47731" lon="6.74402">
        <ele>87.904047</ele>
        <time>2020-07-31T12:34:11.111Z</time>
      </trkpt>
      <trkpt lat="62.4773" lon="6.74427">
        <ele>87.554885</ele>
        <time>2020-07-31T12:34:13.095Z</time>
      </trkpt>
      <trkpt lat="62.4773" lon="6.74454">
        <ele>87.19669</ele>
        <time>2020-07-31T12:34:15.120Z</time>
      </trkpt>
      <trkpt lat="62.47728" lon="6.7448">
        <ele>86.838783</ele>
        <time>2020-07-31T12:34:17.142Z</time>
      </trkpt>
      <trkpt lat="62.47727" lon="6.74508">
        <ele>86.458905</ele>
        <time>2020-07-31T12:34:19.148Z</time>
      </trkpt>
      <trkpt lat="62.47725" lon="6.74536">
        <ele>86.065712</ele>
        <time>2020-07-31T12:34:21.164Z</time>
      </trkpt>
      <trkpt lat="62.47723" lon="6.74567">
        <ele>85.648644</ele>
        <time>2020-07-31T12:34:23.131Z</time>
      </trkpt>
      <trkpt lat="62.47722" lon="6.74597">
        <ele>85.249876</ele>
        <time>2020-07-31T12:34:25.131Z</time>
      </trkpt>
      <trkpt lat="62.47721" lon="6.74629">
        <ele>84.867906</ele>
        <time>2020-07-31T12:34:27.117Z</time>
      </trkpt>
      <trkpt lat="62.47721" lon="6.74662">
        <ele>84.475923</ele>
        <time>2020-07-31T12:34:29.155Z</time>
      </trkpt>
      <trkpt lat="62.47721" lon="6.74695">
        <ele>84.076901</ele>
        <time>2020-07-31T12:34:31.124Z</time>
      </trkpt>
      <trkpt lat="62.47721" lon="6.74729">
        <ele>83.669123</ele>
        <time>2020-07-31T12:34:33.102Z</time>
      </trkpt>
      <trkpt lat="62.47723" lon="6.74767">
        <ele>83.22205</ele>
        <time>2020-07-31T12:34:35.111Z</time>
      </trkpt>
      <trkpt lat="62.47724" lon="6.74804">
        <ele>82.770961</ele>
        <time>2020-07-31T12:34:37.116Z</time>
      </trkpt>
      <trkpt lat="62.47726" lon="6.74842">
        <ele>82.320873</ele>
        <time>2020-07-31T12:34:39.139Z</time>
      </trkpt>
      <trkpt lat="62.47727" lon="6.74879">
        <ele>81.873352</ele>
        <time>2020-07-31T12:34:41.113Z</time>
      </trkpt>
      <trkpt lat="62.47728" lon="6.74898">
        <ele>81.640425</ele>
        <time>2020-07-31T12:34:42.120Z</time>
      </trkpt>
      <trkpt lat="62.4773" lon="6.74937">
        <ele>81.174306</ele>
        <time>2020-07-31T12:34:44.162Z</time>
      </trkpt>
      <trkpt lat="62.47732" lon="6.74957">
        <ele>80.934892</ele>
        <time>2020-07-31T12:34:45.113Z</time>
      </trkpt>
      <trkpt lat="62.47734" lon="6.74977">
        <ele>80.683769</ele>
        <time>2020-07-31T12:34:46.109Z</time>
      </trkpt>
      <trkpt lat="62.47736" lon="6.74998">
        <ele>80.415721</ele>
        <time>2020-07-31T12:34:47.153Z</time>
      </trkpt>
      <trkpt lat="62.47738" lon="6.75018">
        <ele>80.143867</ele>
        <time>2020-07-31T12:34:48.104Z</time>
      </trkpt>
      <trkpt lat="62.4774" lon="6.7504">
        <ele>79.869803</ele>
        <time>2020-07-31T12:34:49.103Z</time>
      </trkpt>
      <trkpt lat="62.47741" lon="6.75061">
        <ele>79.59937</ele>
        <time>2020-07-31T12:34:50.112Z</time>
      </trkpt>
      <trkpt lat="62.47741" lon="6.75082">
        <ele>79.326132</ele>
        <time>2020-07-31T12:34:51.122Z</time>
      </trkpt>
      <trkpt lat="62.47742" lon="6.75103">
        <ele>79.049896</ele>
        <time>2020-07-31T12:34:52.129Z</time>
      </trkpt>
      <trkpt lat="62.47743" lon="6.75125">
        <ele>78.776658</ele>
        <time>2020-07-31T12:34:53.116Z</time>
      </trkpt>
      <trkpt lat="62.47744" lon="6.75146">
        <ele>78.49977</ele>
        <time>2020-07-31T12:34:54.120Z</time>
      </trkpt>
      <trkpt lat="62.47744" lon="6.75168">
        <ele>78.226995</ele>
        <time>2020-07-31T12:34:55.147Z</time>
      </trkpt>
      <trkpt lat="62.47744" lon="6.75189">
        <ele>77.954431</ele>
        <time>2020-07-31T12:34:56.103Z</time>
      </trkpt>
      <trkpt lat="62.47744" lon="6.7521">
        <ele>77.677987</ele>
        <time>2020-07-31T12:34:57.144Z</time>
      </trkpt>
      <trkpt lat="62.47744" lon="6.75232">
        <ele>77.401598</ele>
        <time>2020-07-31T12:34:58.140Z</time>
      </trkpt>
      <trkpt lat="62.47744" lon="6.75254">
        <ele>77.123875</ele>
        <time>2020-07-31T12:34:59.124Z</time>
      </trkpt>
      <trkpt lat="62.47744" lon="6.75275">
        <ele>76.849989</ele>
        <time>2020-07-31T12:35:00.100Z</time>
      </trkpt>
      <trkpt lat="62.47745" lon="6.75296">
        <ele>76.583708</ele>
        <time>2020-07-31T12:35:01.111Z</time>
      </trkpt>
      <trkpt lat="62.47745" lon="6.75317">
        <ele>76.317541</ele>
        <time>2020-07-31T12:35:02.167Z</time>
      </trkpt>
      <trkpt lat="62.47744" lon="6.75338">
        <ele>76.05126</ele>
        <time>2020-07-31T12:35:03.112Z</time>
      </trkpt>
      <trkpt lat="62.47744" lon="6.75358">
        <ele>75.791446</ele>
        <time>2020-07-31T12:35:04.095Z</time>
      </trkpt>
      <trkpt lat="62.47744" lon="6.75378">
        <ele>75.641775</ele>
        <time>2020-07-31T12:35:05.154Z</time>
      </trkpt>
      <trkpt lat="62.47743" lon="6.75397">
        <ele>75.520116</ele>
        <time>2020-07-31T12:35:06.135Z</time>
      </trkpt>
      <trkpt lat="62.47742" lon="6.75434">
        <ele>75.289375</ele>
        <time>2020-07-31T12:35:08.106Z</time>
      </trkpt>
      <trkpt lat="62.47743" lon="6.75468">
        <ele>75.077217</ele>
        <time>2020-07-31T12:35:10.109Z</time>
      </trkpt>
      <trkpt lat="62.47745" lon="6.75498">
        <ele>74.887034</ele>
        <time>2020-07-31T12:35:12.131Z</time>
      </trkpt>
      <trkpt lat="62.47745" lon="6.75526">
        <ele>74.711043</ele>
        <time>2020-07-31T12:35:14.111Z</time>
      </trkpt>
      <trkpt lat="62.47745" lon="6.75552">
        <ele>74.548225</ele>
        <time>2020-07-31T12:35:16.139Z</time>
      </trkpt>
      <trkpt lat="62.47745" lon="6.75575">
        <ele>74.402962</ele>
        <time>2020-07-31T12:35:18.143Z</time>
      </trkpt>
      <trkpt lat="62.47745" lon="6.75597">
        <ele>74.267655</ele>
        <time>2020-07-31T12:35:20.113Z</time>
      </trkpt>
      <trkpt lat="62.47745" lon="6.75618">
        <ele>74.134261</ele>
        <time>2020-07-31T12:35:22.131Z</time>
      </trkpt>
      <trkpt lat="62.47745" lon="6.75639">
        <ele>74.001458</ele>
        <time>2020-07-31T12:35:24.098Z</time>
      </trkpt>
      <trkpt lat="62.47746" lon="6.75667">
        <ele>73.824993</ele>
        <time>2020-07-31T12:35:27.129Z</time>
      </trkpt>
      <trkpt lat="62.47747" lon="6.75694">
        <ele>73.658399</ele>
        <time>2020-07-31T12:35:30.125Z</time>
      </trkpt>
      <trkpt lat="62.47749" lon="6.7572">
        <ele>73.492476</ele>
        <time>2020-07-31T12:35:33.113Z</time>
      </trkpt>
      <trkpt lat="62.47749" lon="6.75747">
        <ele>73.322658</ele>
        <time>2020-07-31T12:35:36.132Z</time>
      </trkpt>
      <trkpt lat="62.47751" lon="6.75774">
        <ele>73.253819</ele>
        <time>2020-07-31T12:35:39.124Z</time>
      </trkpt>
      <trkpt lat="62.47753" lon="6.75801">
        <ele>73.195216</ele>
        <time>2020-07-31T12:35:42.109Z</time>
      </trkpt>
      <trkpt lat="62.47754" lon="6.75829">
        <ele>73.134379</ele>
        <time>2020-07-31T12:35:45.130Z</time>
      </trkpt>
      <trkpt lat="62.47756" lon="6.75849">
        <ele>73.092678</ele>
        <time>2020-07-31T12:35:47.120Z</time>
      </trkpt>
      <trkpt lat="62.47759" lon="6.75877">
        <ele>73.031329</ele>
        <time>2020-07-31T12:35:50.137Z</time>
      </trkpt>
      <trkpt lat="62.47761" lon="6.75903">
        <ele>72.973423</ele>
        <time>2020-07-31T12:35:53.102Z</time>
      </trkpt>
      <trkpt lat="62.47763" lon="6.7593">
        <ele>72.915242</ele>
        <time>2020-07-31T12:35:56.108Z</time>
      </trkpt>
      <trkpt lat="62.47765" lon="6.75955">
        <ele>72.860383</ele>
        <time>2020-07-31T12:35:59.126Z</time>
      </trkpt>
      <trkpt lat="62.47767" lon="6.7598">
        <ele>72.806993</ele>
        <time>2020-07-31T12:36:02.119Z</time>
      </trkpt>
      <trkpt lat="62.4777" lon="6.76005">
        <ele>72.751787</ele>
        <time>2020-07-31T12:36:05.144Z</time>
      </trkpt>
      <trkpt lat="62.47772" lon="6.76033">
        <ele>72.69137</ele>
        <time>2020-07-31T12:36:08.156Z</time>
      </trkpt>
      <trkpt lat="62.47774" lon="6.76061">
        <ele>72.631294</ele>
        <time>2020-07-31T12:36:11.099Z</time>
      </trkpt>
      <trkpt lat="62.47776" lon="6.7608">
        <ele>72.58925</ele>
        <time>2020-07-31T12:36:13.111Z</time>
      </trkpt>
      <trkpt lat="62.47778" lon="6.761">
        <ele>72.545783</ele>
        <time>2020-07-31T12:36:15.136Z</time>
      </trkpt>
      <trkpt lat="62.4778" lon="6.7612">
        <ele>72.501497</ele>
        <time>2020-07-31T12:36:17.130Z</time>
      </trkpt>
      <trkpt lat="62.47782" lon="6.7614">
        <ele>72.483403</ele>
        <time>2020-07-31T12:36:19.124Z</time>
      </trkpt>
      <trkpt lat="62.47785" lon="6.7616">
        <ele>72.511774</ele>
        <time>2020-07-31T12:36:21.170Z</time>
      </trkpt>
      <trkpt lat="62.47787" lon="6.76182">
        <ele>72.542287</ele>
        <time>2020-07-31T12:36:23.116Z</time>
      </trkpt>
      <trkpt lat="62.4779" lon="6.76204">
        <ele>72.573124</ele>
        <time>2020-07-31T12:36:25.155Z</time>
      </trkpt>
      <trkpt lat="62.47792" lon="6.76226">
        <ele>72.604714</ele>
        <time>2020-07-31T12:36:27.104Z</time>
      </trkpt>
      <trkpt lat="62.47797" lon="6.76248">
        <ele>72.637015</ele>
        <time>2020-07-31T12:36:29.147Z</time>
      </trkpt>
      <trkpt lat="62.47801" lon="6.76271">
        <ele>72.671265</ele>
        <time>2020-07-31T12:36:31.119Z</time>
      </trkpt>
      <trkpt lat="62.47806" lon="6.76294">
        <ele>72.706514</ele>
        <time>2020-07-31T12:36:33.130Z</time>
      </trkpt>
      <trkpt lat="62.47812" lon="6.76319">
        <ele>72.744001</ele>
        <time>2020-07-31T12:36:35.108Z</time>
      </trkpt>
      <trkpt lat="62.47817" lon="6.76345">
        <ele>72.783094</ele>
        <time>2020-07-31T12:36:37.158Z</time>
      </trkpt>
      <trkpt lat="62.47824" lon="6.76371">
        <ele>72.824627</ele>
        <time>2020-07-31T12:36:39.112Z</time>
      </trkpt>
      <trkpt lat="62.47831" lon="6.76399">
        <ele>72.868456</ele>
        <time>2020-07-31T12:36:41.140Z</time>
      </trkpt>
      <trkpt lat="62.47839" lon="6.7643">
        <ele>72.916468</ele>
        <time>2020-07-31T12:36:43.093Z</time>
      </trkpt>
      <trkpt lat="62.47847" lon="6.76463">
        <ele>72.967047</ele>
        <time>2020-07-31T12:36:45.144Z</time>
      </trkpt>
      <trkpt lat="62.47856" lon="6.76497">
        <ele>72.791325</ele>
        <time>2020-07-31T12:36:47.175Z</time>
      </trkpt>
      <trkpt lat="62.47861" lon="6.76514">
        <ele>72.398961</ele>
        <time>2020-07-31T12:36:48.154Z</time>
      </trkpt>
      <trkpt lat="62.47866" lon="6.76532">
        <ele>71.977177</ele>
        <time>2020-07-31T12:36:49.132Z</time>
      </trkpt>
      <trkpt lat="62.47872" lon="6.76552">
        <ele>71.526251</ele>
        <time>2020-07-31T12:36:50.132Z</time>
      </trkpt>
      <trkpt lat="62.47878" lon="6.76571">
        <ele>71.065718</ele>
        <time>2020-07-31T12:36:51.111Z</time>
      </trkpt>
      <trkpt lat="62.47883" lon="6.76591">
        <ele>70.608208</ele>
        <time>2020-07-31T12:36:52.122Z</time>
      </trkpt>
      <trkpt lat="62.47888" lon="6.76612">
        <ele>70.143004</ele>
        <time>2020-07-31T12:36:53.161Z</time>
      </trkpt>
      <trkpt lat="62.47894" lon="6.76632">
        <ele>69.679518</ele>
        <time>2020-07-31T12:36:54.136Z</time>
      </trkpt>
      <trkpt lat="62.47899" lon="6.76653">
        <ele>69.216362</ele>
        <time>2020-07-31T12:36:55.141Z</time>
      </trkpt>
      <trkpt lat="62.47904" lon="6.76674">
        <ele>68.757572</ele>
        <time>2020-07-31T12:36:56.110Z</time>
      </trkpt>
      <trkpt lat="62.47909" lon="6.76696">
        <ele>68.284561</ele>
        <time>2020-07-31T12:36:57.101Z</time>
      </trkpt>
      <trkpt lat="62.47914" lon="6.76717">
        <ele>67.811011</ele>
        <time>2020-07-31T12:36:58.156Z</time>
      </trkpt>
      <trkpt lat="62.4792" lon="6.76738">
        <ele>67.321152</ele>
        <time>2020-07-31T12:36:59.149Z</time>
      </trkpt>
      <trkpt lat="62.47926" lon="6.7676">
        <ele>66.829102</ele>
        <time>2020-07-31T12:37:00.141Z</time>
      </trkpt>
      <trkpt lat="62.47932" lon="6.76781">
        <ele>66.342617</ele>
        <time>2020-07-31T12:37:01.108Z</time>
      </trkpt>
      <trkpt lat="62.47937" lon="6.76802">
        <ele>65.85323</ele>
        <time>2020-07-31T12:37:02.110Z</time>
      </trkpt>
      <trkpt lat="62.47943" lon="6.76824">
        <ele>65.36671</ele>
        <time>2020-07-31T12:37:03.108Z</time>
      </trkpt>
      <trkpt lat="62.47949" lon="6.76846">
        <ele>64.905737</ele>
        <time>2020-07-31T12:37:04.112Z</time>
      </trkpt>
      <trkpt lat="62.47954" lon="6.76867">
        <ele>64.458782</ele>
        <time>2020-07-31T12:37:05.138Z</time>
      </trkpt>
      <trkpt lat="62.47959" lon="6.76887">
        <ele>64.020592</ele>
        <time>2020-07-31T12:37:06.109Z</time>
      </trkpt>
      <trkpt lat="62.47964" lon="6.76908">
        <ele>63.594651</ele>
        <time>2020-07-31T12:37:07.113Z</time>
      </trkpt>
      <trkpt lat="62.4797" lon="6.76927">
        <ele>63.177776</ele>
        <time>2020-07-31T12:37:08.105Z</time>
      </trkpt>
      <trkpt lat="62.47975" lon="6.76946">
        <ele>62.762976</ele>
        <time>2020-07-31T12:37:09.113Z</time>
      </trkpt>
      <trkpt lat="62.47981" lon="6.76964">
        <ele>62.352085</ele>
        <time>2020-07-31T12:37:10.093Z</time>
      </trkpt>
      <trkpt lat="62.47986" lon="6.76982">
        <ele>61.956267</ele>
        <time>2020-07-31T12:37:11.098Z</time>
      </trkpt>
      <trkpt lat="62.47991" lon="6.77">
        <ele>61.575297</ele>
        <time>2020-07-31T12:37:12.131Z</time>
      </trkpt>
      <trkpt lat="62.47996" lon="6.77017">
        <ele>61.204307</ele>
        <time>2020-07-31T12:37:13.147Z</time>
      </trkpt>
      <trkpt lat="62.48001" lon="6.77033">
        <ele>60.838019</ele>
        <time>2020-07-31T12:37:14.160Z</time>
      </trkpt>
      <trkpt lat="62.48011" lon="6.77065">
        <ele>60.13376</ele>
        <time>2020-07-31T12:37:16.146Z</time>
      </trkpt>
      <trkpt lat="62.4802" lon="6.77096">
        <ele>59.46464</ele>
        <time>2020-07-31T12:37:18.162Z</time>
      </trkpt>
      <trkpt lat="62.48029" lon="6.77125">
        <ele>58.810254</ele>
        <time>2020-07-31T12:37:20.104Z</time>
      </trkpt>
      <trkpt lat="62.48037" lon="6.77154">
        <ele>58.19417</ele>
        <time>2020-07-31T12:37:22.112Z</time>
      </trkpt>
      <trkpt lat="62.48045" lon="6.77182">
        <ele>58.080604</ele>
        <time>2020-07-31T12:37:24.101Z</time>
      </trkpt>
      <trkpt lat="62.48053" lon="6.77209">
        <ele>58.011194</ele>
        <time>2020-07-31T12:37:26.105Z</time>
      </trkpt>
      <trkpt lat="62.4806" lon="6.77236">
        <ele>57.944557</ele>
        <time>2020-07-31T12:37:28.100Z</time>
      </trkpt>
      <trkpt lat="62.48067" lon="6.77264">
        <ele>57.877696</ele>
        <time>2020-07-31T12:37:30.126Z</time>
      </trkpt>
      <trkpt lat="62.48073" lon="6.77291">
        <ele>57.812985</ele>
        <time>2020-07-31T12:37:32.136Z</time>
      </trkpt>
      <trkpt lat="62.48078" lon="6.77319">
        <ele>57.750132</ele>
        <time>2020-07-31T12:37:34.118Z</time>
      </trkpt>
      <trkpt lat="62.48083" lon="6.77345">
        <ele>57.688889</ele>
        <time>2020-07-31T12:37:36.136Z</time>
      </trkpt>
      <trkpt lat="62.48087" lon="6.7737">
        <ele>57.631101</ele>
        <time>2020-07-31T12:37:38.136Z</time>
      </trkpt>
      <trkpt lat="62.48091" lon="6.77395">
        <ele>57.57512</ele>
        <time>2020-07-31T12:37:40.098Z</time>
      </trkpt>
      <trkpt lat="62.48093" lon="6.7742">
        <ele>57.521936</ele>
        <time>2020-07-31T12:37:42.172Z</time>
      </trkpt>
      <trkpt lat="62.48095" lon="6.77444">
        <ele>57.469109</ele>
        <time>2020-07-31T12:37:44.158Z</time>
      </trkpt>
      <trkpt lat="62.48097" lon="6.77468">
        <ele>57.416871</ele>
        <time>2020-07-31T12:37:46.161Z</time>
      </trkpt>
      <trkpt lat="62.481" lon="6.77491">
        <ele>57.365762</ele>
        <time>2020-07-31T12:37:48.119Z</time>
      </trkpt>
      <trkpt lat="62.48101" lon="6.77515">
        <ele>57.314218</ele>
        <time>2020-07-31T12:37:50.096Z</time>
      </trkpt>
      <trkpt lat="62.48103" lon="6.77539">
        <ele>57.495846</ele>
        <time>2020-07-31T12:37:52.152Z</time>
      </trkpt>
      <trkpt lat="62.48105" lon="6.77563">
        <ele>57.692295</ele>
        <time>2020-07-31T12:37:54.103Z</time>
      </trkpt>
      <trkpt lat="62.48107" lon="6.77587">
        <ele>57.880768</ele>
        <time>2020-07-31T12:37:56.141Z</time>
      </trkpt>
      <trkpt lat="62.4811" lon="6.77609">
        <ele>58.055916</ele>
        <time>2020-07-31T12:37:58.128Z</time>
      </trkpt>
      <trkpt lat="62.48111" lon="6.7763">
        <ele>58.225051</ele>
        <time>2020-07-31T12:38:00.107Z</time>
      </trkpt>
      <trkpt lat="62.48113" lon="6.77651">
        <ele>58.391125</ele>
        <time>2020-07-31T12:38:02.114Z</time>
      </trkpt>
      <trkpt lat="62.48115" lon="6.77671">
        <ele>58.548609</ele>
        <time>2020-07-31T12:38:04.117Z</time>
      </trkpt>
      <trkpt lat="62.48117" lon="6.77691">
        <ele>58.705867</ele>
        <time>2020-07-31T12:38:06.131Z</time>
      </trkpt>
      <trkpt lat="62.48119" lon="6.7771">
        <ele>58.860141</ele>
        <time>2020-07-31T12:38:08.153Z</time>
      </trkpt>
      <trkpt lat="62.4812" lon="6.7773">
        <ele>59.012729</ele>
        <time>2020-07-31T12:38:10.152Z</time>
      </trkpt>
      <trkpt lat="62.48123" lon="6.77757">
        <ele>59.230397</ele>
        <time>2020-07-31T12:38:13.133Z</time>
      </trkpt>
      <trkpt lat="62.48126" lon="6.77783">
        <ele>59.437879</ele>
        <time>2020-07-31T12:38:16.160Z</time>
      </trkpt>
      <trkpt lat="62.48128" lon="6.77807">
        <ele>59.634254</ele>
        <time>2020-07-31T12:38:19.121Z</time>
      </trkpt>
      <trkpt lat="62.48131" lon="6.77833">
        <ele>59.83682</ele>
        <time>2020-07-31T12:38:22.122Z</time>
      </trkpt>
      <trkpt lat="62.48133" lon="6.77858">
        <ele>60.037998</ele>
        <time>2020-07-31T12:38:25.119Z</time>
      </trkpt>
      <trkpt lat="62.48135" lon="6.77884">
        <ele>60.238347</ele>
        <time>2020-07-31T12:38:28.156Z</time>
      </trkpt>
      <trkpt lat="62.48136" lon="6.77909">
        <ele>60.352533</ele>
        <time>2020-07-31T12:38:31.129Z</time>
      </trkpt>
      <trkpt lat="62.48137" lon="6.77934">
        <ele>60.362725</ele>
        <time>2020-07-31T12:38:34.101Z</time>
      </trkpt>
      <trkpt lat="62.48138" lon="6.77961">
        <ele>60.373477</ele>
        <time>2020-07-31T12:38:37.144Z</time>
      </trkpt>
      <trkpt lat="62.48138" lon="6.77988">
        <ele>60.384266</ele>
        <time>2020-07-31T12:38:40.101Z</time>
      </trkpt>
      <trkpt lat="62.48138" lon="6.78015">
        <ele>60.395339</ele>
        <time>2020-07-31T12:38:43.158Z</time>
      </trkpt>
      <trkpt lat="62.48136" lon="6.78044">
        <ele>60.406824</ele>
        <time>2020-07-31T12:38:46.117Z</time>
      </trkpt>
      <trkpt lat="62.48135" lon="6.78063">
        <ele>60.414664</ele>
        <time>2020-07-31T12:38:48.168Z</time>
      </trkpt>
      <trkpt lat="62.48134" lon="6.78084">
        <ele>60.423054</ele>
        <time>2020-07-31T12:38:50.133Z</time>
      </trkpt>
      <trkpt lat="62.48133" lon="6.78105">
        <ele>60.431581</ele>
        <time>2020-07-31T12:38:52.115Z</time>
      </trkpt>
      <trkpt lat="62.48131" lon="6.78125">
        <ele>60.439733</ele>
        <time>2020-07-31T12:38:54.098Z</time>
      </trkpt>
      <trkpt lat="62.48129" lon="6.78144">
        <ele>60.44753</ele>
        <time>2020-07-31T12:38:56.121Z</time>
      </trkpt>
      <trkpt lat="62.48127" lon="6.78163">
        <ele>60.455466</ele>
        <time>2020-07-31T12:38:58.124Z</time>
      </trkpt>
      <trkpt lat="62.48126" lon="6.78184">
        <ele>60.46393</ele>
        <time>2020-07-31T12:39:00.141Z</time>
      </trkpt>
      <trkpt lat="62.48124" lon="6.78205">
        <ele>60.472631</ele>
        <time>2020-07-31T12:39:02.166Z</time>
      </trkpt>
      <trkpt lat="62.48121" lon="6.78228">
        <ele>60.481795</ele>
        <time>2020-07-31T12:39:04.104Z</time>
      </trkpt>
      <trkpt lat="62.48119" lon="6.78249">
        <ele>60.490726</ele>
        <time>2020-07-31T12:39:06.140Z</time>
      </trkpt>
      <trkpt lat="62.48116" lon="6.78271">
        <ele>60.499584</ele>
        <time>2020-07-31T12:39:08.114Z</time>
      </trkpt>
      <trkpt lat="62.48113" lon="6.78292">
        <ele>60.458633</ele>
        <time>2020-07-31T12:39:10.130Z</time>
      </trkpt>
      <trkpt lat="62.48111" lon="6.78314">
        <ele>60.363386</ele>
        <time>2020-07-31T12:39:12.104Z</time>
      </trkpt>
      <trkpt lat="62.48108" lon="6.78336">
        <ele>60.269304</ele>
        <time>2020-07-31T12:39:14.120Z</time>
      </trkpt>
      <trkpt lat="62.48106" lon="6.78357">
        <ele>60.175456</ele>
        <time>2020-07-31T12:39:16.132Z</time>
      </trkpt>
      <trkpt lat="62.48104" lon="6.7838">
        <ele>60.079356</ele>
        <time>2020-07-31T12:39:18.111Z</time>
      </trkpt>
      <trkpt lat="62.48101" lon="6.78402">
        <ele>59.982676</ele>
        <time>2020-07-31T12:39:20.099Z</time>
      </trkpt>
      <trkpt lat="62.48098" lon="6.78425">
        <ele>59.883248</ele>
        <time>2020-07-31T12:39:22.130Z</time>
      </trkpt>
      <trkpt lat="62.48096" lon="6.78447">
        <ele>59.785915</ele>
        <time>2020-07-31T12:39:24.121Z</time>
      </trkpt>
      <trkpt lat="62.48094" lon="6.7847">
        <ele>59.689815</ele>
        <time>2020-07-31T12:39:26.132Z</time>
      </trkpt>
      <trkpt lat="62.48091" lon="6.78491">
        <ele>59.596817</ele>
        <time>2020-07-31T12:39:28.116Z</time>
      </trkpt>
      <trkpt lat="62.48089" lon="6.78513">
        <ele>59.501969</ele>
        <time>2020-07-31T12:39:30.117Z</time>
      </trkpt>
      <trkpt lat="62.48087" lon="6.78534">
        <ele>59.413272</ele>
        <time>2020-07-31T12:39:32.159Z</time>
      </trkpt>
      <trkpt lat="62.48085" lon="6.78555">
        <ele>59.321885</ele>
        <time>2020-07-31T12:39:34.153Z</time>
      </trkpt>
      <trkpt lat="62.48083" lon="6.78577">
        <ele>59.228256</ele>
        <time>2020-07-31T12:39:36.117Z</time>
      </trkpt>
      <trkpt lat="62.48081" lon="6.78599">
        <ele>59.136784</ele>
        <time>2020-07-31T12:39:38.130Z</time>
      </trkpt>
      <trkpt lat="62.48081" lon="6.78621">
        <ele>59.043646</ele>
        <time>2020-07-31T12:39:40.129Z</time>
      </trkpt>
      <trkpt lat="62.4808" lon="6.78642">
        <ele>58.952787</ele>
        <time>2020-07-31T12:39:42.135Z</time>
      </trkpt>
      <trkpt lat="62.4808" lon="6.78663">
        <ele>58.865898</ele>
        <time>2020-07-31T12:39:44.136Z</time>
      </trkpt>
      <trkpt lat="62.4808" lon="6.78684">
        <ele>58.830336</ele>
        <time>2020-07-31T12:39:46.111Z</time>
      </trkpt>
      <trkpt lat="62.4808" lon="6.78705">
        <ele>58.795115</ele>
        <time>2020-07-31T12:39:48.105Z</time>
      </trkpt>
      <trkpt lat="62.48081" lon="6.78726">
        <ele>58.759205</ele>
        <time>2020-07-31T12:39:50.105Z</time>
      </trkpt>
      <trkpt lat="62.48081" lon="6.78746">
        <ele>58.725181</ele>
        <time>2020-07-31T12:39:52.125Z</time>
      </trkpt>
      <trkpt lat="62.48082" lon="6.78775">
        <ele>58.675631</ele>
        <time>2020-07-31T12:39:55.115Z</time>
      </trkpt>
      <trkpt lat="62.48085" lon="6.78803">
        <ele>58.626036</ele>
        <time>2020-07-31T12:39:58.097Z</time>
      </trkpt>
      <trkpt lat="62.48087" lon="6.78829">
        <ele>58.580036</ele>
        <time>2020-07-31T12:40:01.143Z</time>
      </trkpt>
      <trkpt lat="62.4809" lon="6.78855">
        <ele>58.535057</ele>
        <time>2020-07-31T12:40:04.122Z</time>
      </trkpt>
      <trkpt lat="62.48093" lon="6.7888">
        <ele>58.49027</ele>
        <time>2020-07-31T12:40:07.183Z</time>
      </trkpt>
      <trkpt lat="62.48099" lon="6.78902">
        <ele>58.447092</ele>
        <time>2020-07-31T12:40:10.199Z</time>
      </trkpt>
      <trkpt lat="62.48103" lon="6.78924">
        <ele>58.40643</ele>
        <time>2020-07-31T12:40:13.102Z</time>
      </trkpt>
      <trkpt lat="62.48107" lon="6.78945">
        <ele>58.368777</ele>
        <time>2020-07-31T12:40:16.114Z</time>
      </trkpt>
      <trkpt lat="62.4811" lon="6.78967">
        <ele>58.329279</ele>
        <time>2020-07-31T12:40:19.099Z</time>
      </trkpt>
      <trkpt lat="62.48113" lon="6.78988">
        <ele>58.29211</ele>
        <time>2020-07-31T12:40:22.102Z</time>
      </trkpt>
      <trkpt lat="62.48116" lon="6.79008">
        <ele>58.255437</ele>
        <time>2020-07-31T12:40:25.140Z</time>
      </trkpt>
      <trkpt lat="62.48117" lon="6.7903">
        <ele>58.217639</ele>
        <time>2020-07-31T12:40:28.103Z</time>
      </trkpt>
      <trkpt lat="62.48118" lon="6.79055">
        <ele>58.236235</ele>
        <time>2020-07-31T12:40:31.149Z</time>
      </trkpt>
      <trkpt lat="62.48119" lon="6.79079">
        <ele>58.291514</ele>
        <time>2020-07-31T12:40:34.149Z</time>
      </trkpt>
      <trkpt lat="62.4812" lon="6.79103">
        <ele>58.346569</ele>
        <time>2020-07-31T12:40:37.125Z</time>
      </trkpt>
      <trkpt lat="62.48123" lon="6.79129">
        <ele>58.405655</ele>
        <time>2020-07-31T12:40:40.114Z</time>
      </trkpt>
      <trkpt lat="62.48124" lon="6.79155">
        <ele>58.462885</ele>
        <time>2020-07-31T12:40:43.194Z</time>
      </trkpt>
      <trkpt lat="62.48125" lon="6.7918">
        <ele>58.521171</ele>
        <time>2020-07-31T12:40:46.100Z</time>
      </trkpt>
      <trkpt lat="62.48127" lon="6.79205">
        <ele>58.57661</ele>
        <time>2020-07-31T12:40:49.162Z</time>
      </trkpt>
      <trkpt lat="62.48128" lon="6.7923">
        <ele>58.632613</ele>
        <time>2020-07-31T12:40:52.114Z</time>
      </trkpt>
      <trkpt lat="62.48128" lon="6.79256">
        <ele>58.691181</ele>
        <time>2020-07-31T12:40:55.119Z</time>
      </trkpt>
      <trkpt lat="62.48129" lon="6.79283">
        <ele>58.752482</ele>
        <time>2020-07-31T12:40:58.097Z</time>
      </trkpt>
      <trkpt lat="62.4813" lon="6.79311">
        <ele>58.814977</ele>
        <time>2020-07-31T12:41:01.120Z</time>
      </trkpt>
      <trkpt lat="62.4813" lon="6.79339">
        <ele>58.878939</ele>
        <time>2020-07-31T12:41:04.109Z</time>
      </trkpt>
      <trkpt lat="62.4813" lon="6.79368">
        <ele>58.942003</ele>
        <time>2020-07-31T12:41:07.103Z</time>
      </trkpt>
      <trkpt lat="62.48131" lon="6.79396">
        <ele>59.005322</ele>
        <time>2020-07-31T12:41:10.114Z</time>
      </trkpt>
      <trkpt lat="62.48131" lon="6.79415">
        <ele>59.048758</ele>
        <time>2020-07-31T12:41:12.130Z</time>
      </trkpt>
      <trkpt lat="62.48131" lon="6.79444">
        <ele>59.073324</ele>
        <time>2020-07-31T12:41:15.145Z</time>
      </trkpt>
      <trkpt lat="62.48131" lon="6.79472">
        <ele>59.069852</ele>
        <time>2020-07-31T12:41:18.119Z</time>
      </trkpt>
      <trkpt lat="62.48132" lon="6.79492">
        <ele>59.067443</ele>
        <time>2020-07-31T12:41:20.114Z</time>
      </trkpt>
      <trkpt lat="62.48133" lon="6.79512">
        <ele>59.065029</ele>
        <time>2020-07-31T12:41:22.147Z</time>
      </trkpt>
      <trkpt lat="62.48134" lon="6.7954">
        <ele>59.061576</ele>
        <time>2020-07-31T12:41:25.149Z</time>
      </trkpt>
      <trkpt lat="62.48135" lon="6.79567">
        <ele>59.058307</ele>
        <time>2020-07-31T12:41:28.114Z</time>
      </trkpt>
      <trkpt lat="62.48136" lon="6.79587">
        <ele>59.055835</ele>
        <time>2020-07-31T12:41:30.169Z</time>
      </trkpt>
      <trkpt lat="62.48137" lon="6.79607">
        <ele>59.053386</ele>
        <time>2020-07-31T12:41:32.129Z</time>
      </trkpt>
      <trkpt lat="62.48138" lon="6.79627">
        <ele>59.051007</ele>
        <time>2020-07-31T12:41:34.153Z</time>
      </trkpt>
      <trkpt lat="62.48139" lon="6.79647">
        <ele>59.048498</ele>
        <time>2020-07-31T12:41:36.125Z</time>
      </trkpt>
      <trkpt lat="62.48141" lon="6.79668">
        <ele>59.045922</ele>
        <time>2020-07-31T12:41:38.148Z</time>
      </trkpt>
      <trkpt lat="62.48142" lon="6.79689">
        <ele>59.043402</ele>
        <time>2020-07-31T12:41:40.125Z</time>
      </trkpt>
      <trkpt lat="62.48144" lon="6.79709">
        <ele>59.040922</ele>
        <time>2020-07-31T12:41:42.136Z</time>
      </trkpt>
      <trkpt lat="62.48145" lon="6.79729">
        <ele>59.038419</ele>
        <time>2020-07-31T12:41:44.164Z</time>
      </trkpt>
      <trkpt lat="62.48145" lon="6.79749">
        <ele>59.036</ele>
        <time>2020-07-31T12:41:46.120Z</time>
      </trkpt>
      <trkpt lat="62.48147" lon="6.79776">
        <ele>59.03274</ele>
        <time>2020-07-31T12:41:49.121Z</time>
      </trkpt>
      <trkpt lat="62.4815" lon="6.798">
        <ele>59.029765</ele>
        <time>2020-07-31T12:41:52.175Z</time>
      </trkpt>
      <trkpt lat="62.48152" lon="6.79823">
        <ele>58.880293</ele>
        <time>2020-07-31T12:41:55.118Z</time>
      </trkpt>
      <trkpt lat="62.48154" lon="6.79845">
        <ele>58.55073</ele>
        <time>2020-07-31T12:41:58.137Z</time>
      </trkpt>
      <trkpt lat="62.48156" lon="6.79866">
        <ele>58.231712</ele>
        <time>2020-07-31T12:42:01.113Z</time>
      </trkpt>
      <trkpt lat="62.48157" lon="6.7989">
        <ele>57.866282</ele>
        <time>2020-07-31T12:42:04.103Z</time>
      </trkpt>
      <trkpt lat="62.48158" lon="6.79911">
        <ele>57.55252</ele>
        <time>2020-07-31T12:42:06.146Z</time>
      </trkpt>
      <trkpt lat="62.4816" lon="6.79936">
        <ele>57.176358</ele>
        <time>2020-07-31T12:42:08.117Z</time>
      </trkpt>
      <trkpt lat="62.48163" lon="6.79964">
        <ele>56.763678</ele>
        <time>2020-07-31T12:42:10.100Z</time>
      </trkpt>
      <trkpt lat="62.48165" lon="6.79989">
        <ele>56.383982</ele>
        <time>2020-07-31T12:42:12.127Z</time>
      </trkpt>
      <trkpt lat="62.48166" lon="6.80014">
        <ele>56.015711</ele>
        <time>2020-07-31T12:42:14.108Z</time>
      </trkpt>
      <trkpt lat="62.48168" lon="6.80041">
        <ele>55.597996</ele>
        <time>2020-07-31T12:42:16.152Z</time>
      </trkpt>
      <trkpt lat="62.4817" lon="6.80072">
        <ele>55.136347</ele>
        <time>2020-07-31T12:42:18.163Z</time>
      </trkpt>
      <trkpt lat="62.48172" lon="6.80104">
        <ele>54.665347</ele>
        <time>2020-07-31T12:42:20.136Z</time>
      </trkpt>
      <trkpt lat="62.48175" lon="6.80134">
        <ele>54.208043</ele>
        <time>2020-07-31T12:42:22.141Z</time>
      </trkpt>
      <trkpt lat="62.48177" lon="6.80165">
        <ele>53.74152</ele>
        <time>2020-07-31T12:42:24.134Z</time>
      </trkpt>
      <trkpt lat="62.4818" lon="6.802">
        <ele>53.224476</ele>
        <time>2020-07-31T12:42:26.195Z</time>
      </trkpt>
      <trkpt lat="62.48183" lon="6.80236">
        <ele>52.79104</ele>
        <time>2020-07-31T12:42:28.109Z</time>
      </trkpt>
      <trkpt lat="62.48186" lon="6.80273">
        <ele>52.343454</ele>
        <time>2020-07-31T12:42:30.123Z</time>
      </trkpt>
      <trkpt lat="62.4819" lon="6.80309">
        <ele>51.900231</ele>
        <time>2020-07-31T12:42:32.107Z</time>
      </trkpt>
      <trkpt lat="62.48195" lon="6.80345">
        <ele>51.462065</ele>
        <time>2020-07-31T12:42:34.143Z</time>
      </trkpt>
      <trkpt lat="62.482" lon="6.80379">
        <ele>51.034398</ele>
        <time>2020-07-31T12:42:36.130Z</time>
      </trkpt>
      <trkpt lat="62.48207" lon="6.80412">
        <ele>50.609794</ele>
        <time>2020-07-31T12:42:38.182Z</time>
      </trkpt>
      <trkpt lat="62.48214" lon="6.80444">
        <ele>50.194739</ele>
        <time>2020-07-31T12:42:40.111Z</time>
      </trkpt>
      <trkpt lat="62.4822" lon="6.80474">
        <ele>49.799164</ele>
        <time>2020-07-31T12:42:42.177Z</time>
      </trkpt>
      <trkpt lat="62.48226" lon="6.80503">
        <ele>49.421846</ele>
        <time>2020-07-31T12:42:44.132Z</time>
      </trkpt>
      <trkpt lat="62.48231" lon="6.80531">
        <ele>49.061228</ele>
        <time>2020-07-31T12:42:46.133Z</time>
      </trkpt>
      <trkpt lat="62.48236" lon="6.80558">
        <ele>48.72402</ele>
        <time>2020-07-31T12:42:48.119Z</time>
      </trkpt>
      <trkpt lat="62.48241" lon="6.80582">
        <ele>48.60024</ele>
        <time>2020-07-31T12:42:50.105Z</time>
      </trkpt>
      <trkpt lat="62.48245" lon="6.80606">
        <ele>48.541407</ele>
        <time>2020-07-31T12:42:52.122Z</time>
      </trkpt>
      <trkpt lat="62.4825" lon="6.80629">
        <ele>48.482335</ele>
        <time>2020-07-31T12:42:54.103Z</time>
      </trkpt>
      <trkpt lat="62.48253" lon="6.80653">
        <ele>48.425503</ele>
        <time>2020-07-31T12:42:56.145Z</time>
      </trkpt>
      <trkpt lat="62.48256" lon="6.80676">
        <ele>48.371516</ele>
        <time>2020-07-31T12:42:58.158Z</time>
      </trkpt>
      <trkpt lat="62.48258" lon="6.80698">
        <ele>48.319575</ele>
        <time>2020-07-31T12:43:00.120Z</time>
      </trkpt>
      <trkpt lat="62.48259" lon="6.80719">
        <ele>48.269817</ele>
        <time>2020-07-31T12:43:02.137Z</time>
      </trkpt>
      <trkpt lat="62.4826" lon="6.8074">
        <ele>48.219933</ele>
        <time>2020-07-31T12:43:04.121Z</time>
      </trkpt>
      <trkpt lat="62.48262" lon="6.80761">
        <ele>48.171394</ele>
        <time>2020-07-31T12:43:06.113Z</time>
      </trkpt>
      <trkpt lat="62.48263" lon="6.80782">
        <ele>48.123163</ele>
        <time>2020-07-31T12:43:08.090Z</time>
      </trkpt>
      <trkpt lat="62.48264" lon="6.80801">
        <ele>48.077734</ele>
        <time>2020-07-31T12:43:10.094Z</time>
      </trkpt>
      <trkpt lat="62.48264" lon="6.80821">
        <ele>48.032536</ele>
        <time>2020-07-31T12:43:12.093Z</time>
      </trkpt>
      <trkpt lat="62.48266" lon="6.8085">
        <ele>47.965842</ele>
        <time>2020-07-31T12:43:15.118Z</time>
      </trkpt>
      <trkpt lat="62.48266" lon="6.80869">
        <ele>47.920644</ele>
        <time>2020-07-31T12:43:17.118Z</time>
      </trkpt>
      <trkpt lat="62.48266" lon="6.8089">
        <ele>47.87276</ele>
        <time>2020-07-31T12:43:19.102Z</time>
      </trkpt>
      <trkpt lat="62.48267" lon="6.80909">
        <ele>47.82742</ele>
        <time>2020-07-31T12:43:21.135Z</time>
      </trkpt>
      <trkpt lat="62.48267" lon="6.80929">
        <ele>47.781991</ele>
        <time>2020-07-31T12:43:23.104Z</time>
      </trkpt>
      <trkpt lat="62.48269" lon="6.80949">
        <ele>47.773667</ele>
        <time>2020-07-31T12:43:25.113Z</time>
      </trkpt>
      <trkpt lat="62.48272" lon="6.80977">
        <ele>47.949788</ele>
        <time>2020-07-31T12:43:28.110Z</time>
      </trkpt>
      <trkpt lat="62.48272" lon="6.80997">
        <ele>48.06936</ele>
        <time>2020-07-31T12:43:30.122Z</time>
      </trkpt>
      <trkpt lat="62.48272" lon="6.81025">
        <ele>48.243221</ele>
        <time>2020-07-31T12:43:33.116Z</time>
      </trkpt>
      <trkpt lat="62.48269" lon="6.81051">
        <ele>48.402666</ele>
        <time>2020-07-31T12:43:36.100Z</time>
      </trkpt>
      <trkpt lat="62.48267" lon="6.81073">
        <ele>48.543836</ele>
        <time>2020-07-31T12:43:39.152Z</time>
      </trkpt>
      <trkpt lat="62.48267" lon="6.81102">
        <ele>48.718993</ele>
        <time>2020-07-31T12:43:42.110Z</time>
      </trkpt>
      <trkpt lat="62.48267" lon="6.81129">
        <ele>48.885004</ele>
        <time>2020-07-31T12:43:45.154Z</time>
      </trkpt>
      <trkpt lat="62.48268" lon="6.81155">
        <ele>49.04198</ele>
        <time>2020-07-31T12:43:48.130Z</time>
      </trkpt>
      <trkpt lat="62.48268" lon="6.81182">
        <ele>49.203685</ele>
        <time>2020-07-31T12:43:51.136Z</time>
      </trkpt>
      <trkpt lat="62.48268" lon="6.81207">
        <ele>49.359331</ele>
        <time>2020-07-31T12:43:54.117Z</time>
      </trkpt>
      <trkpt lat="62.48269" lon="6.81232">
        <ele>49.509369</ele>
        <time>2020-07-31T12:43:57.121Z</time>
      </trkpt>
      <trkpt lat="62.48268" lon="6.81256">
        <ele>49.658192</ele>
        <time>2020-07-31T12:44:00.123Z</time>
      </trkpt>
      <trkpt lat="62.48267" lon="6.81279">
        <ele>49.796975</ele>
        <time>2020-07-31T12:44:03.134Z</time>
      </trkpt>
      <trkpt lat="62.48267" lon="6.813">
        <ele>49.928157</ele>
        <time>2020-07-31T12:44:07.145Z</time>
      </trkpt>
      <trkpt lat="62.48267" lon="6.81323">
        <ele>50.066633</ele>
        <time>2020-07-31T12:44:12.160Z</time>
      </trkpt>
      <trkpt lat="62.48268" lon="6.8135">
        <ele>50.258178</ele>
        <time>2020-07-31T12:44:15.116Z</time>
      </trkpt>
      <trkpt lat="62.48276" lon="6.81369">
        <ele>50.454386</ele>
        <time>2020-07-31T12:44:18.103Z</time>
      </trkpt>
      <trkpt lat="62.48286" lon="6.81374">
        <ele>50.60917</ele>
        <time>2020-07-31T12:44:22.156Z</time>
      </trkpt>
      <trkpt lat="62.48276" lon="6.8138">
        <ele>50.773192</ele>
        <time>2020-07-31T12:45:56.116Z</time>
      </trkpt>
      <trkpt lat="62.48266" lon="6.81383">
        <ele>50.92931</ele>
        <time>2020-07-31T12:46:09.104Z</time>
      </trkpt>
      <trkpt lat="62.48259" lon="6.81397">
        <ele>51.084072</ele>
        <time>2020-07-31T12:46:14.132Z</time>
      </trkpt>
      <trkpt lat="62.48257" lon="6.81421">
        <ele>51.263642</ele>
        <time>2020-07-31T12:46:17.110Z</time>
      </trkpt>
      <trkpt lat="62.48257" lon="6.81444">
        <ele>51.43507</ele>
        <time>2020-07-31T12:46:20.109Z</time>
      </trkpt>
      <trkpt lat="62.48257" lon="6.8147">
        <ele>51.629385</ele>
        <time>2020-07-31T12:46:23.103Z</time>
      </trkpt>
      <trkpt lat="62.48257" lon="6.81495">
        <ele>51.823754</ele>
        <time>2020-07-31T12:46:26.151Z</time>
      </trkpt>
      <trkpt lat="62.48257" lon="6.81521">
        <ele>52.016623</ele>
        <time>2020-07-31T12:46:29.095Z</time>
      </trkpt>
      <trkpt lat="62.48258" lon="6.81547">
        <ele>52.20954</ele>
        <time>2020-07-31T12:46:32.112Z</time>
      </trkpt>
      <trkpt lat="62.48257" lon="6.81572">
        <ele>52.398659</ele>
        <time>2020-07-31T12:46:35.101Z</time>
      </trkpt>
      <trkpt lat="62.48258" lon="6.81598">
        <ele>52.594528</ele>
        <time>2020-07-31T12:46:38.133Z</time>
      </trkpt>
      <trkpt lat="62.48257" lon="6.81624">
        <ele>52.790397</ele>
        <time>2020-07-31T12:46:41.136Z</time>
      </trkpt>
      <trkpt lat="62.4825" lon="6.8164">
        <ele>52.962171</ele>
        <time>2020-07-31T12:46:44.175Z</time>
      </trkpt>
      <trkpt lat="62.48238" lon="6.81645">
        <ele>52.905724</ele>
        <time>2020-07-31T12:46:47.098Z</time>
      </trkpt>
      <trkpt lat="62.48227" lon="6.81648">
        <ele>52.701046</ele>
        <time>2020-07-31T12:46:50.138Z</time>
      </trkpt>
      <trkpt lat="62.48221" lon="6.81664">
        <ele>52.522986</ele>
        <time>2020-07-31T12:46:56.101Z</time>
      </trkpt>
      <trkpt lat="62.48222" lon="6.81689">
        <ele>52.306962</ele>
        <time>2020-07-31T12:47:00.153Z</time>
      </trkpt>
      <trkpt lat="62.48219" lon="6.81709">
        <ele>52.128734</ele>
        <time>2020-07-31T12:47:06.125Z</time>
      </trkpt>
      <trkpt lat="62.48216" lon="6.81774">
        <ele>51.560011</ele>
        <time>2020-07-31T12:55:45.110Z</time>
      </trkpt>
      <trkpt lat="62.48201" lon="6.81632">
        <ele>50.292473</ele>
        <time>2020-07-31T13:01:09.113Z</time>
      </trkpt>
      <trkpt lat="62.48213" lon="6.81666">
        <ele>49.913357</ele>
        <time>2020-07-31T13:01:10.105Z</time>
      </trkpt>
      <trkpt lat="62.48205" lon="6.81684">
        <ele>49.690382</ele>
        <time>2020-07-31T13:04:15.085Z</time>
      </trkpt>
      <trkpt lat="62.48198" lon="6.8167">
        <ele>49.681447</ele>
        <time>2020-07-31T13:04:21.098Z</time>
      </trkpt>
      <trkpt lat="62.48195" lon="6.81648">
        <ele>49.728203</ele>
        <time>2020-07-31T13:04:32.109Z</time>
      </trkpt>
      <trkpt lat="62.48185" lon="6.81644">
        <ele>49.776801</ele>
        <time>2020-07-31T13:04:37.087Z</time>
      </trkpt>
      <trkpt lat="62.48175" lon="6.81643">
        <ele>49.81955</ele>
        <time>2020-07-31T13:04:41.121Z</time>
      </trkpt>
      <trkpt lat="62.48165" lon="6.81644">
        <ele>49.865457</ele>
        <time>2020-07-31T13:04:45.118Z</time>
      </trkpt>
      <trkpt lat="62.48154" lon="6.81645">
        <ele>49.914956</ele>
        <time>2020-07-31T13:04:49.121Z</time>
      </trkpt>
      <trkpt lat="62.48143" lon="6.81643">
        <ele>49.964968</ele>
        <time>2020-07-31T13:04:53.130Z</time>
      </trkpt>
      <trkpt lat="62.48137" lon="6.81629">
        <ele>50.005732</ele>
        <time>2020-07-31T13:04:57.110Z</time>
      </trkpt>
      <trkpt lat="62.48135" lon="6.81606">
        <ele>50.054428</ele>
        <time>2020-07-31T13:05:00.116Z</time>
      </trkpt>
      <trkpt lat="62.48135" lon="6.81581">
        <ele>50.106444</ele>
        <time>2020-07-31T13:05:03.148Z</time>
      </trkpt>
      <trkpt lat="62.48134" lon="6.81556">
        <ele>50.159066</ele>
        <time>2020-07-31T13:05:06.110Z</time>
      </trkpt>
      <trkpt lat="62.48133" lon="6.81532">
        <ele>50.209246</ele>
        <time>2020-07-31T13:05:09.127Z</time>
      </trkpt>
      <trkpt lat="62.48132" lon="6.81508">
        <ele>50.257732</ele>
        <time>2020-07-31T13:05:12.148Z</time>
      </trkpt>
      <trkpt lat="62.48132" lon="6.81486">
        <ele>50.303484</ele>
        <time>2020-07-31T13:05:15.140Z</time>
      </trkpt>
      <trkpt lat="62.48131" lon="6.81465">
        <ele>50.348088</ele>
        <time>2020-07-31T13:05:18.130Z</time>
      </trkpt>
      <trkpt lat="62.48131" lon="6.81445">
        <ele>50.389684</ele>
        <time>2020-07-31T13:05:21.126Z</time>
      </trkpt>
      <trkpt lat="62.48131" lon="6.8142">
        <ele>50.442067</ele>
        <time>2020-07-31T13:05:25.137Z</time>
      </trkpt>
      <trkpt lat="62.48129" lon="6.814">
        <ele>50.591833</ele>
        <time>2020-07-31T13:05:29.113Z</time>
      </trkpt>
      <trkpt lat="62.4812" lon="6.81392">
        <ele>50.819006</ele>
        <time>2020-07-31T13:05:33.112Z</time>
      </trkpt>
      <trkpt lat="62.48111" lon="6.81392">
        <ele>51.034814</ele>
        <time>2020-07-31T13:05:36.130Z</time>
      </trkpt>
      <trkpt lat="62.48099" lon="6.81393">
        <ele>51.31479</ele>
        <time>2020-07-31T13:05:40.114Z</time>
      </trkpt>
      <trkpt lat="62.48089" lon="6.81394">
        <ele>51.559353</ele>
        <time>2020-07-31T13:05:43.140Z</time>
      </trkpt>
      <trkpt lat="62.48079" lon="6.81395">
        <ele>51.791827</ele>
        <time>2020-07-31T13:05:46.137Z</time>
      </trkpt>
      <trkpt lat="62.48068" lon="6.81398">
        <ele>52.047561</ele>
        <time>2020-07-31T13:05:49.121Z</time>
      </trkpt>
      <trkpt lat="62.48058" lon="6.814">
        <ele>52.304621</ele>
        <time>2020-07-31T13:05:52.109Z</time>
      </trkpt>
      <trkpt lat="62.48046" lon="6.81401">
        <ele>52.568187</ele>
        <time>2020-07-31T13:05:55.147Z</time>
      </trkpt>
      <trkpt lat="62.48036" lon="6.81401">
        <ele>52.810085</ele>
        <time>2020-07-31T13:05:58.106Z</time>
      </trkpt>
      <trkpt lat="62.48026" lon="6.81401">
        <ele>53.04963</ele>
        <time>2020-07-31T13:06:01.112Z</time>
      </trkpt>
      <trkpt lat="62.48016" lon="6.81402">
        <ele>53.296329</ele>
        <time>2020-07-31T13:06:04.123Z</time>
      </trkpt>
      <trkpt lat="62.48007" lon="6.81402">
        <ele>53.512137</ele>
        <time>2020-07-31T13:06:07.125Z</time>
      </trkpt>
      <trkpt lat="62.47996" lon="6.81404">
        <ele>53.760543</ele>
        <time>2020-07-31T13:06:11.145Z</time>
      </trkpt>
      <trkpt lat="62.47986" lon="6.81405">
        <ele>54.014411</ele>
        <time>2020-07-31T13:06:15.133Z</time>
      </trkpt>
      <trkpt lat="62.47975" lon="6.81407">
        <ele>54.273501</ele>
        <time>2020-07-31T13:06:19.126Z</time>
      </trkpt>
      <trkpt lat="62.47964" lon="6.81405">
        <ele>54.516198</ele>
        <time>2020-07-31T13:06:23.125Z</time>
      </trkpt>
      <trkpt lat="62.47954" lon="6.81404">
        <ele>54.705279</ele>
        <time>2020-07-31T13:06:27.147Z</time>
      </trkpt>
      <trkpt lat="62.47943" lon="6.81404">
        <ele>54.517931</ele>
        <time>2020-07-31T13:06:31.118Z</time>
      </trkpt>
      <trkpt lat="62.47934" lon="6.81406">
        <ele>54.366449</ele>
        <time>2020-07-31T13:06:34.099Z</time>
      </trkpt>
      <trkpt lat="62.47924" lon="6.81407">
        <ele>54.20219</ele>
        <time>2020-07-31T13:06:37.113Z</time>
      </trkpt>
      <trkpt lat="62.47913" lon="6.81411">
        <ele>54.013626</ele>
        <time>2020-07-31T13:06:40.135Z</time>
      </trkpt>
      <trkpt lat="62.47903" lon="6.81426">
        <ele>53.811067</ele>
        <time>2020-07-31T13:06:43.130Z</time>
      </trkpt>
      <trkpt lat="62.47898" lon="6.81448">
        <ele>53.625373</ele>
        <time>2020-07-31T13:06:46.145Z</time>
      </trkpt>
      <trkpt lat="62.47896" lon="6.8147">
        <ele>53.455127</ele>
        <time>2020-07-31T13:06:49.162Z</time>
      </trkpt>
      <trkpt lat="62.47894" lon="6.81493">
        <ele>53.270775</ele>
        <time>2020-07-31T13:06:53.119Z</time>
      </trkpt>
      <trkpt lat="62.47892" lon="6.81513">
        <ele>53.116274</ele>
        <time>2020-07-31T13:06:56.116Z</time>
      </trkpt>
      <trkpt lat="62.47889" lon="6.81533">
        <ele>52.957659</ele>
        <time>2020-07-31T13:06:59.121Z</time>
      </trkpt>
      <trkpt lat="62.47888" lon="6.81553">
        <ele>52.799916</ele>
        <time>2020-07-31T13:07:02.114Z</time>
      </trkpt>
      <trkpt lat="62.47886" lon="6.81573">
        <ele>52.651227</ele>
        <time>2020-07-31T13:07:05.157Z</time>
      </trkpt>
      <trkpt lat="62.47884" lon="6.81592">
        <ele>52.494841</ele>
        <time>2020-07-31T13:07:08.132Z</time>
      </trkpt>
      <trkpt lat="62.4788" lon="6.81614">
        <ele>52.322396</ele>
        <time>2020-07-31T13:07:11.112Z</time>
      </trkpt>
      <trkpt lat="62.47876" lon="6.81638">
        <ele>52.121004</ele>
        <time>2020-07-31T13:07:15.117Z</time>
      </trkpt>
      <trkpt lat="62.47871" lon="6.81659">
        <ele>51.938503</ele>
        <time>2020-07-31T13:07:18.116Z</time>
      </trkpt>
      <trkpt lat="62.47866" lon="6.8168">
        <ele>51.763068</ele>
        <time>2020-07-31T13:07:21.116Z</time>
      </trkpt>
      <trkpt lat="62.4786" lon="6.81701">
        <ele>52.039693</ele>
        <time>2020-07-31T13:07:25.117Z</time>
      </trkpt>
      <trkpt lat="62.47854" lon="6.8172">
        <ele>52.333133</ele>
        <time>2020-07-31T13:07:29.144Z</time>
      </trkpt>
      <trkpt lat="62.47849" lon="6.81736">
        <ele>52.591146</ele>
        <time>2020-07-31T13:07:32.125Z</time>
      </trkpt>
      <trkpt lat="62.47844" lon="6.81753">
        <ele>52.857251</ele>
        <time>2020-07-31T13:07:35.133Z</time>
      </trkpt>
      <trkpt lat="62.47837" lon="6.81773">
        <ele>53.174706</ele>
        <time>2020-07-31T13:07:39.124Z</time>
      </trkpt>
      <trkpt lat="62.47828" lon="6.81767">
        <ele>53.458283</ele>
        <time>2020-07-31T13:07:43.136Z</time>
      </trkpt>
      <trkpt lat="62.47819" lon="6.81755">
        <ele>53.744724</ele>
        <time>2020-07-31T13:07:47.123Z</time>
      </trkpt>
      <trkpt lat="62.4781" lon="6.8174">
        <ele>54.064713</ele>
        <time>2020-07-31T13:07:51.114Z</time>
      </trkpt>
      <trkpt lat="62.47802" lon="6.81729">
        <ele>54.333492</ele>
        <time>2020-07-31T13:07:54.153Z</time>
      </trkpt>
      <trkpt lat="62.47793" lon="6.81718">
        <ele>54.621021</ele>
        <time>2020-07-31T13:07:57.152Z</time>
      </trkpt>
      <trkpt lat="62.47783" lon="6.81709">
        <ele>54.922039</ele>
        <time>2020-07-31T13:08:00.117Z</time>
      </trkpt>
      <trkpt lat="62.47773" lon="6.817">
        <ele>55.235303</ele>
        <time>2020-07-31T13:08:03.108Z</time>
      </trkpt>
      <trkpt lat="62.47761" lon="6.81696">
        <ele>55.581717</ele>
        <time>2020-07-31T13:08:06.128Z</time>
      </trkpt>
      <trkpt lat="62.47749" lon="6.81695">
        <ele>55.917109</ele>
        <time>2020-07-31T13:08:09.097Z</time>
      </trkpt>
      <trkpt lat="62.47738" lon="6.81695">
        <ele>56.232756</ele>
        <time>2020-07-31T13:08:12.125Z</time>
      </trkpt>
      <trkpt lat="62.47725" lon="6.81696">
        <ele>56.579708</ele>
        <time>2020-07-31T13:08:15.117Z</time>
      </trkpt>
      <trkpt lat="62.47713" lon="6.81696">
        <ele>56.939155</ele>
        <time>2020-07-31T13:08:18.113Z</time>
      </trkpt>
      <trkpt lat="62.477" lon="6.81694">
        <ele>57.350748</ele>
        <time>2020-07-31T13:08:21.113Z</time>
      </trkpt>
      <trkpt lat="62.47687" lon="6.81694">
        <ele>57.768314</ele>
        <time>2020-07-31T13:08:24.110Z</time>
      </trkpt>
      <trkpt lat="62.47675" lon="6.81694">
        <ele>58.156981</ele>
        <time>2020-07-31T13:08:27.136Z</time>
      </trkpt>
      <trkpt lat="62.47664" lon="6.81694">
        <ele>58.516839</ele>
        <time>2020-07-31T13:08:30.127Z</time>
      </trkpt>
      <trkpt lat="62.47654" lon="6.81694">
        <ele>58.850973</ele>
        <time>2020-07-31T13:08:33.121Z</time>
      </trkpt>
      <trkpt lat="62.47643" lon="6.81696">
        <ele>59.202469</ele>
        <time>2020-07-31T13:08:37.131Z</time>
      </trkpt>
      <trkpt lat="62.47633" lon="6.81699">
        <ele>59.506671</ele>
        <time>2020-07-31T13:08:42.114Z</time>
      </trkpt>
      <trkpt lat="62.47624" lon="6.81706">
        <ele>59.824945</ele>
        <time>2020-07-31T13:08:48.128Z</time>
      </trkpt>
      <trkpt lat="62.47615" lon="6.81713">
        <ele>60.12314</ele>
        <time>2020-07-31T13:08:54.113Z</time>
      </trkpt>
      <trkpt lat="62.47606" lon="6.81716">
        <ele>60.425611</ele>
        <time>2020-07-31T13:08:59.121Z</time>
      </trkpt>
      <trkpt lat="62.47596" lon="6.8172">
        <ele>60.740807</ele>
        <time>2020-07-31T13:09:05.120Z</time>
      </trkpt>
      <trkpt lat="62.47586" lon="6.8172">
        <ele>61.065307</ele>
        <time>2020-07-31T13:09:11.118Z</time>
      </trkpt>
      <trkpt lat="62.47577" lon="6.81717">
        <ele>61.382627</ele>
        <time>2020-07-31T13:09:18.111Z</time>
      </trkpt>
      <trkpt lat="62.47568" lon="6.81714">
        <ele>61.67002</ele>
        <time>2020-07-31T13:09:25.153Z</time>
      </trkpt>
      <trkpt lat="62.47557" lon="6.81712">
        <ele>62.014633</ele>
        <time>2020-07-31T13:09:31.118Z</time>
      </trkpt>
      <trkpt lat="62.47547" lon="6.8171">
        <ele>62.333402</ele>
        <time>2020-07-31T13:09:36.123Z</time>
      </trkpt>
      <trkpt lat="62.47537" lon="6.81711">
        <ele>62.779055</ele>
        <time>2020-07-31T13:09:41.124Z</time>
      </trkpt>
      <trkpt lat="62.47528" lon="6.81709">
        <ele>63.579899</ele>
        <time>2020-07-31T13:09:46.120Z</time>
      </trkpt>
      <trkpt lat="62.47519" lon="6.81709">
        <ele>64.370352</ele>
        <time>2020-07-31T13:09:51.121Z</time>
      </trkpt>
      <trkpt lat="62.4751" lon="6.81705">
        <ele>65.173482</ele>
        <time>2020-07-31T13:09:56.127Z</time>
      </trkpt>
      <trkpt lat="62.47501" lon="6.81705">
        <ele>65.99047</ele>
        <time>2020-07-31T13:10:01.117Z</time>
      </trkpt>
      <trkpt lat="62.47491" lon="6.81703">
        <ele>66.854846</ele>
        <time>2020-07-31T13:10:07.106Z</time>
      </trkpt>
      <trkpt lat="62.47482" lon="6.81701">
        <ele>67.728425</ele>
        <time>2020-07-31T13:10:13.124Z</time>
      </trkpt>
      <trkpt lat="62.47471" lon="6.81702">
        <ele>68.652018</ele>
        <time>2020-07-31T13:10:19.116Z</time>
      </trkpt>
      <trkpt lat="62.47461" lon="6.817">
        <ele>69.578668</ele>
        <time>2020-07-31T13:10:25.116Z</time>
      </trkpt>
      <trkpt lat="62.47452" lon="6.81701">
        <ele>70.396736</ele>
        <time>2020-07-31T13:10:32.126Z</time>
      </trkpt>
      <trkpt lat="62.47443" lon="6.8169">
        <ele>71.25243</ele>
        <time>2020-07-31T13:10:41.119Z</time>
      </trkpt>
      <trkpt lat="62.47435" lon="6.81682">
        <ele>72.098269</ele>
        <time>2020-07-31T13:10:49.129Z</time>
      </trkpt>
      <trkpt lat="62.47425" lon="6.81673">
        <ele>72.988054</ele>
        <time>2020-07-31T13:10:57.109Z</time>
      </trkpt>
      <trkpt lat="62.47418" lon="6.81659">
        <ele>73.845591</ele>
        <time>2020-07-31T13:11:05.152Z</time>
      </trkpt>
      <trkpt lat="62.47411" lon="6.81646">
        <ele>74.675391</ele>
        <time>2020-07-31T13:11:12.112Z</time>
      </trkpt>
      <trkpt lat="62.47405" lon="6.81631">
        <ele>75.495144</ele>
        <time>2020-07-31T13:11:20.144Z</time>
      </trkpt>
      <trkpt lat="62.47397" lon="6.81622">
        <ele>76.31904</ele>
        <time>2020-07-31T13:11:27.123Z</time>
      </trkpt>
      <trkpt lat="62.47389" lon="6.8161">
        <ele>77.137755</ele>
        <time>2020-07-31T13:11:35.118Z</time>
      </trkpt>
      <trkpt lat="62.47381" lon="6.81599">
        <ele>78.017255</ele>
        <time>2020-07-31T13:11:42.129Z</time>
      </trkpt>
      <trkpt lat="62.47373" lon="6.81587">
        <ele>78.468369</ele>
        <time>2020-07-31T13:11:50.118Z</time>
      </trkpt>
      <trkpt lat="62.47365" lon="6.81577">
        <ele>78.247017</ele>
        <time>2020-07-31T13:11:57.129Z</time>
      </trkpt>
      <trkpt lat="62.47356" lon="6.81569">
        <ele>78.018999</ele>
        <time>2020-07-31T13:12:04.145Z</time>
      </trkpt>
      <trkpt lat="62.47347" lon="6.81562">
        <ele>77.782092</ele>
        <time>2020-07-31T13:12:11.124Z</time>
      </trkpt>
      <trkpt lat="62.47338" lon="6.81551">
        <ele>77.527315</ele>
        <time>2020-07-31T13:12:18.144Z</time>
      </trkpt>
      <trkpt lat="62.4733" lon="6.81546">
        <ele>77.300957</ele>
        <time>2020-07-31T13:12:24.122Z</time>
      </trkpt>
      <trkpt lat="62.47321" lon="6.81537">
        <ele>77.070574</ele>
        <time>2020-07-31T13:12:30.110Z</time>
      </trkpt>
      <trkpt lat="62.47312" lon="6.81527">
        <ele>76.826105</ele>
        <time>2020-07-31T13:12:36.121Z</time>
      </trkpt>
      <trkpt lat="62.47305" lon="6.81517">
        <ele>76.602777</ele>
        <time>2020-07-31T13:12:41.142Z</time>
      </trkpt>
      <trkpt lat="62.47296" lon="6.81507">
        <ele>76.357114</ele>
        <time>2020-07-31T13:12:49.137Z</time>
      </trkpt>
      <trkpt lat="62.47292" lon="6.81402">
        <ele>75.162258</ele>
        <time>2020-07-31T13:21:57.582Z</time>
      </trkpt>
      <trkpt lat="62.47292" lon="6.81378">
        <ele>74.885432</ele>
        <time>2020-07-31T13:22:02.577Z</time>
      </trkpt>
      <trkpt lat="62.47291" lon="6.81356">
        <ele>74.642676</ele>
        <time>2020-07-31T13:22:07.569Z</time>
      </trkpt>
      <trkpt lat="62.47288" lon="6.81333">
        <ele>74.357709</ele>
        <time>2020-07-31T13:22:11.575Z</time>
      </trkpt>
      <trkpt lat="62.47282" lon="6.81311">
        <ele>74.125065</ele>
        <time>2020-07-31T13:22:15.571Z</time>
      </trkpt>
      <trkpt lat="62.47275" lon="6.81296">
        <ele>74.125065</ele>
        <time>2020-07-31T13:22:18.585Z</time>
      </trkpt>
      <trkpt lat="62.47266" lon="6.8128">
        <ele>74.125065</ele>
        <time>2020-07-31T13:22:22.578Z</time>
      </trkpt>
      <trkpt lat="62.47257" lon="6.81265">
        <ele>74.125065</ele>
        <time>2020-07-31T13:22:26.590Z</time>
      </trkpt>
      <trkpt lat="62.47248" lon="6.81257">
        <ele>74.125065</ele>
        <time>2020-07-31T13:22:29.570Z</time>
      </trkpt>
      <trkpt lat="62.47241" lon="6.81277">
        <ele>74.125065</ele>
        <time>2020-07-31T13:22:33.572Z</time>
      </trkpt>
      <trkpt lat="62.47239" lon="6.81297">
        <ele>74.125065</ele>
        <time>2020-07-31T13:22:37.576Z</time>
      </trkpt>
      <trkpt lat="62.47239" lon="6.81317">
        <ele>74.125065</ele>
        <time>2020-07-31T13:22:44.583Z</time>
      </trkpt>
      <trkpt lat="62.47228" lon="6.81353">
        <ele>74.125065</ele>
        <time>2020-07-31T13:29:19.073Z</time>
      </trkpt>
    </trkseg>
  </trk>
</gpx>